<?xml version="1.0" encoding="UTF-8" standalone="no" ?>
<gpx xmlns="http://www.topografix.com/GPX/1/1" xmlns:xsi="http://www.w3.org/2001/XMLSchema-instance" xsi:schemaLocation="http://www.topografix.com/GPX/1/1 http://www.topografix.com/GPX/1/1/gpx.xsd" version="1.1" creator="VisuGPX - https://www.visugpx.com">
  <metadata>
    <name>Gourdon 2014</name>
    <desc><![CDATA[Sortie vtt gourdon]]></desc>
  </metadata>
  <trk>
    <name><![CDATA[Sequence 1]]></name>
    <trkseg>
      <trkpt lat="43.70022" lon="6.9862">
        <ele>342</ele>
        <time>2014-08-31T06:35:25Z</time>
      </trkpt>
      <trkpt lat="43.70022" lon="6.9862">
        <ele>342</ele>
        <time>2014-08-31T06:35:30Z</time>
      </trkpt>
      <trkpt lat="43.70022" lon="6.9862">
        <ele>341</ele>
        <time>2014-08-31T06:35:35Z</time>
      </trkpt>
      <trkpt lat="43.70023" lon="6.9862">
        <ele>341</ele>
        <time>2014-08-31T06:35:40Z</time>
      </trkpt>
      <trkpt lat="43.70023" lon="6.98621">
        <ele>342</ele>
        <time>2014-08-31T06:35:45Z</time>
      </trkpt>
      <trkpt lat="43.70022" lon="6.98621">
        <ele>342</ele>
        <time>2014-08-31T06:35:50Z</time>
      </trkpt>
      <trkpt lat="43.70022" lon="6.98621">
        <ele>342</ele>
        <time>2014-08-31T06:35:56Z</time>
      </trkpt>
      <trkpt lat="43.70022" lon="6.98621">
        <ele>342</ele>
        <time>2014-08-31T06:36:00Z</time>
      </trkpt>
      <trkpt lat="43.70022" lon="6.98621">
        <ele>342</ele>
        <time>2014-08-31T06:36:05Z</time>
      </trkpt>
      <trkpt lat="43.70023" lon="6.9862">
        <ele>342</ele>
        <time>2014-08-31T06:36:10Z</time>
      </trkpt>
      <trkpt lat="43.70023" lon="6.9862">
        <ele>342</ele>
        <time>2014-08-31T06:36:15Z</time>
      </trkpt>
      <trkpt lat="43.70023" lon="6.9862">
        <ele>342</ele>
        <time>2014-08-31T06:36:20Z</time>
      </trkpt>
      <trkpt lat="43.70023" lon="6.9862">
        <ele>342</ele>
        <time>2014-08-31T06:36:25Z</time>
      </trkpt>
      <trkpt lat="43.70023" lon="6.9862">
        <ele>342</ele>
        <time>2014-08-31T06:36:30Z</time>
      </trkpt>
      <trkpt lat="43.70023" lon="6.9862">
        <ele>342</ele>
        <time>2014-08-31T06:36:35Z</time>
      </trkpt>
      <trkpt lat="43.70023" lon="6.9862">
        <ele>342</ele>
        <time>2014-08-31T06:36:40Z</time>
      </trkpt>
      <trkpt lat="43.70023" lon="6.9862">
        <ele>342</ele>
        <time>2014-08-31T06:36:45Z</time>
      </trkpt>
      <trkpt lat="43.70023" lon="6.9862">
        <ele>342</ele>
        <time>2014-08-31T06:36:50Z</time>
      </trkpt>
      <trkpt lat="43.70023" lon="6.9862">
        <ele>342</ele>
        <time>2014-08-31T06:36:55Z</time>
      </trkpt>
      <trkpt lat="43.70023" lon="6.9862">
        <ele>342</ele>
        <time>2014-08-31T06:37:00Z</time>
      </trkpt>
      <trkpt lat="43.70023" lon="6.9862">
        <ele>342</ele>
        <time>2014-08-31T06:37:05Z</time>
      </trkpt>
      <trkpt lat="43.70023" lon="6.9862">
        <ele>342</ele>
        <time>2014-08-31T06:37:10Z</time>
      </trkpt>
      <trkpt lat="43.70023" lon="6.9862">
        <ele>342</ele>
        <time>2014-08-31T06:37:15Z</time>
      </trkpt>
      <trkpt lat="43.70023" lon="6.9862">
        <ele>342</ele>
        <time>2014-08-31T06:37:20Z</time>
      </trkpt>
      <trkpt lat="43.70023" lon="6.9862">
        <ele>342</ele>
        <time>2014-08-31T06:37:25Z</time>
      </trkpt>
      <trkpt lat="43.70023" lon="6.9862">
        <ele>342</ele>
        <time>2014-08-31T06:37:30Z</time>
      </trkpt>
      <trkpt lat="43.70023" lon="6.9862">
        <ele>342</ele>
        <time>2014-08-31T06:37:35Z</time>
      </trkpt>
      <trkpt lat="43.70023" lon="6.9862">
        <ele>342</ele>
        <time>2014-08-31T06:37:40Z</time>
      </trkpt>
      <trkpt lat="43.70023" lon="6.9862">
        <ele>342</ele>
        <time>2014-08-31T06:37:47Z</time>
      </trkpt>
      <trkpt lat="43.70023" lon="6.9862">
        <ele>342</ele>
        <time>2014-08-31T06:37:50Z</time>
      </trkpt>
      <trkpt lat="43.70023" lon="6.9862">
        <ele>342</ele>
        <time>2014-08-31T06:37:55Z</time>
      </trkpt>
      <trkpt lat="43.70023" lon="6.9862">
        <ele>342</ele>
        <time>2014-08-31T06:38:00Z</time>
      </trkpt>
      <trkpt lat="43.70023" lon="6.9862">
        <ele>342</ele>
        <time>2014-08-31T06:38:05Z</time>
      </trkpt>
      <trkpt lat="43.70023" lon="6.9862">
        <ele>342</ele>
        <time>2014-08-31T06:38:10Z</time>
      </trkpt>
      <trkpt lat="43.70023" lon="6.9862">
        <ele>342</ele>
        <time>2014-08-31T06:38:15Z</time>
      </trkpt>
      <trkpt lat="43.70023" lon="6.9862">
        <ele>342</ele>
        <time>2014-08-31T06:38:20Z</time>
      </trkpt>
      <trkpt lat="43.70023" lon="6.9862">
        <ele>342</ele>
        <time>2014-08-31T06:38:25Z</time>
      </trkpt>
      <trkpt lat="43.70023" lon="6.9862">
        <ele>342</ele>
        <time>2014-08-31T06:38:30Z</time>
      </trkpt>
      <trkpt lat="43.70023" lon="6.9862">
        <ele>342</ele>
        <time>2014-08-31T06:38:37Z</time>
      </trkpt>
      <trkpt lat="43.70023" lon="6.9862">
        <ele>342</ele>
        <time>2014-08-31T06:38:42Z</time>
      </trkpt>
      <trkpt lat="43.70023" lon="6.9862">
        <ele>342</ele>
        <time>2014-08-31T06:38:45Z</time>
      </trkpt>
      <trkpt lat="43.70023" lon="6.9862">
        <ele>342</ele>
        <time>2014-08-31T06:38:52Z</time>
      </trkpt>
      <trkpt lat="43.70023" lon="6.9862">
        <ele>342</ele>
        <time>2014-08-31T06:38:55Z</time>
      </trkpt>
      <trkpt lat="43.70023" lon="6.9862">
        <ele>342</ele>
        <time>2014-08-31T06:39:00Z</time>
      </trkpt>
      <trkpt lat="43.70023" lon="6.9862">
        <ele>342</ele>
        <time>2014-08-31T06:39:05Z</time>
      </trkpt>
      <trkpt lat="43.70023" lon="6.9862">
        <ele>342</ele>
        <time>2014-08-31T06:39:10Z</time>
      </trkpt>
      <trkpt lat="43.70023" lon="6.9862">
        <ele>342</ele>
        <time>2014-08-31T06:39:15Z</time>
      </trkpt>
      <trkpt lat="43.70023" lon="6.9862">
        <ele>342</ele>
        <time>2014-08-31T06:39:20Z</time>
      </trkpt>
      <trkpt lat="43.70023" lon="6.9862">
        <ele>342</ele>
        <time>2014-08-31T06:39:25Z</time>
      </trkpt>
      <trkpt lat="43.70023" lon="6.9862">
        <ele>342</ele>
        <time>2014-08-31T06:39:30Z</time>
      </trkpt>
      <trkpt lat="43.70023" lon="6.9862">
        <ele>342</ele>
        <time>2014-08-31T06:39:35Z</time>
      </trkpt>
      <trkpt lat="43.70023" lon="6.9862">
        <ele>342</ele>
        <time>2014-08-31T06:39:40Z</time>
      </trkpt>
      <trkpt lat="43.70023" lon="6.9862">
        <ele>342</ele>
        <time>2014-08-31T06:39:45Z</time>
      </trkpt>
      <trkpt lat="43.70023" lon="6.9862">
        <ele>342</ele>
        <time>2014-08-31T06:39:50Z</time>
      </trkpt>
      <trkpt lat="43.70023" lon="6.9862">
        <ele>341</ele>
        <time>2014-08-31T06:39:55Z</time>
      </trkpt>
      <trkpt lat="43.70022" lon="6.9862">
        <ele>342</ele>
        <time>2014-08-31T06:40:00Z</time>
      </trkpt>
      <trkpt lat="43.70021" lon="6.9862">
        <ele>342</ele>
        <time>2014-08-31T06:40:05Z</time>
      </trkpt>
      <trkpt lat="43.70021" lon="6.9862">
        <ele>342</ele>
        <time>2014-08-31T06:40:10Z</time>
      </trkpt>
      <trkpt lat="43.70021" lon="6.9862">
        <ele>342</ele>
        <time>2014-08-31T06:40:15Z</time>
      </trkpt>
      <trkpt lat="43.70021" lon="6.9862">
        <ele>342</ele>
        <time>2014-08-31T06:40:20Z</time>
      </trkpt>
      <trkpt lat="43.70021" lon="6.9862">
        <ele>342</ele>
        <time>2014-08-31T06:40:25Z</time>
      </trkpt>
      <trkpt lat="43.70021" lon="6.9862">
        <ele>342</ele>
        <time>2014-08-31T06:40:30Z</time>
      </trkpt>
      <trkpt lat="43.70021" lon="6.9862">
        <ele>342</ele>
        <time>2014-08-31T06:40:35Z</time>
      </trkpt>
      <trkpt lat="43.70021" lon="6.9862">
        <ele>342</ele>
        <time>2014-08-31T06:40:40Z</time>
      </trkpt>
      <trkpt lat="43.70021" lon="6.9862">
        <ele>342</ele>
        <time>2014-08-31T06:40:45Z</time>
      </trkpt>
      <trkpt lat="43.70021" lon="6.9862">
        <ele>342</ele>
        <time>2014-08-31T06:40:53Z</time>
      </trkpt>
      <trkpt lat="43.70021" lon="6.9862">
        <ele>342</ele>
        <time>2014-08-31T06:40:55Z</time>
      </trkpt>
      <trkpt lat="43.70021" lon="6.9862">
        <ele>342</ele>
        <time>2014-08-31T06:41:00Z</time>
      </trkpt>
      <trkpt lat="43.70021" lon="6.9862">
        <ele>342</ele>
        <time>2014-08-31T06:41:05Z</time>
      </trkpt>
      <trkpt lat="43.70021" lon="6.9862">
        <ele>342</ele>
        <time>2014-08-31T06:41:10Z</time>
      </trkpt>
      <trkpt lat="43.70021" lon="6.9862">
        <ele>342</ele>
        <time>2014-08-31T06:41:15Z</time>
      </trkpt>
      <trkpt lat="43.70021" lon="6.9862">
        <ele>342</ele>
        <time>2014-08-31T06:41:20Z</time>
      </trkpt>
      <trkpt lat="43.70021" lon="6.9862">
        <ele>342</ele>
        <time>2014-08-31T06:41:26Z</time>
      </trkpt>
      <trkpt lat="43.70021" lon="6.9862">
        <ele>342</ele>
        <time>2014-08-31T06:41:30Z</time>
      </trkpt>
      <trkpt lat="43.70021" lon="6.9862">
        <ele>342</ele>
        <time>2014-08-31T06:41:35Z</time>
      </trkpt>
      <trkpt lat="43.70021" lon="6.9862">
        <ele>342</ele>
        <time>2014-08-31T06:41:40Z</time>
      </trkpt>
      <trkpt lat="43.70021" lon="6.9862">
        <ele>342</ele>
        <time>2014-08-31T06:41:45Z</time>
      </trkpt>
      <trkpt lat="43.70021" lon="6.9862">
        <ele>342</ele>
        <time>2014-08-31T06:41:50Z</time>
      </trkpt>
      <trkpt lat="43.70021" lon="6.9862">
        <ele>342</ele>
        <time>2014-08-31T06:41:55Z</time>
      </trkpt>
      <trkpt lat="43.70021" lon="6.9862">
        <ele>342</ele>
        <time>2014-08-31T06:42:00Z</time>
      </trkpt>
      <trkpt lat="43.70021" lon="6.9862">
        <ele>342</ele>
        <time>2014-08-31T06:42:05Z</time>
      </trkpt>
      <trkpt lat="43.70021" lon="6.9862">
        <ele>342</ele>
        <time>2014-08-31T06:42:10Z</time>
      </trkpt>
      <trkpt lat="43.70021" lon="6.9862">
        <ele>342</ele>
        <time>2014-08-31T06:42:15Z</time>
      </trkpt>
      <trkpt lat="43.70021" lon="6.9862">
        <ele>342</ele>
        <time>2014-08-31T06:42:20Z</time>
      </trkpt>
      <trkpt lat="43.70021" lon="6.9862">
        <ele>342</ele>
        <time>2014-08-31T06:42:25Z</time>
      </trkpt>
      <trkpt lat="43.70021" lon="6.9862">
        <ele>342</ele>
        <time>2014-08-31T06:42:30Z</time>
      </trkpt>
      <trkpt lat="43.70021" lon="6.9862">
        <ele>342</ele>
        <time>2014-08-31T06:42:35Z</time>
      </trkpt>
      <trkpt lat="43.70021" lon="6.9862">
        <ele>342</ele>
        <time>2014-08-31T06:42:40Z</time>
      </trkpt>
      <trkpt lat="43.70021" lon="6.9862">
        <ele>342</ele>
        <time>2014-08-31T06:42:45Z</time>
      </trkpt>
      <trkpt lat="43.70021" lon="6.9862">
        <ele>342</ele>
        <time>2014-08-31T06:42:50Z</time>
      </trkpt>
      <trkpt lat="43.70021" lon="6.9862">
        <ele>342</ele>
        <time>2014-08-31T06:42:55Z</time>
      </trkpt>
      <trkpt lat="43.70021" lon="6.9862">
        <ele>342</ele>
        <time>2014-08-31T06:43:00Z</time>
      </trkpt>
      <trkpt lat="43.70021" lon="6.9862">
        <ele>342</ele>
        <time>2014-08-31T06:43:06Z</time>
      </trkpt>
      <trkpt lat="43.70021" lon="6.9862">
        <ele>342</ele>
        <time>2014-08-31T06:43:10Z</time>
      </trkpt>
      <trkpt lat="43.70021" lon="6.9862">
        <ele>342</ele>
        <time>2014-08-31T06:43:15Z</time>
      </trkpt>
      <trkpt lat="43.70021" lon="6.9862">
        <ele>342</ele>
        <time>2014-08-31T06:43:21Z</time>
      </trkpt>
      <trkpt lat="43.70021" lon="6.9862">
        <ele>342</ele>
        <time>2014-08-31T06:43:25Z</time>
      </trkpt>
      <trkpt lat="43.70021" lon="6.9862">
        <ele>342</ele>
        <time>2014-08-31T06:43:30Z</time>
      </trkpt>
      <trkpt lat="43.70021" lon="6.9862">
        <ele>342</ele>
        <time>2014-08-31T06:43:35Z</time>
      </trkpt>
      <trkpt lat="43.70021" lon="6.9862">
        <ele>342</ele>
        <time>2014-08-31T06:43:42Z</time>
      </trkpt>
      <trkpt lat="43.70021" lon="6.9862">
        <ele>342</ele>
        <time>2014-08-31T06:43:45Z</time>
      </trkpt>
      <trkpt lat="43.70021" lon="6.9862">
        <ele>342</ele>
        <time>2014-08-31T06:43:51Z</time>
      </trkpt>
      <trkpt lat="43.70021" lon="6.9862">
        <ele>342</ele>
        <time>2014-08-31T06:43:55Z</time>
      </trkpt>
      <trkpt lat="43.70021" lon="6.9862">
        <ele>342</ele>
        <time>2014-08-31T06:44:00Z</time>
      </trkpt>
      <trkpt lat="43.70021" lon="6.9862">
        <ele>342</ele>
        <time>2014-08-31T06:44:05Z</time>
      </trkpt>
      <trkpt lat="43.70021" lon="6.9862">
        <ele>342</ele>
        <time>2014-08-31T06:44:10Z</time>
      </trkpt>
      <trkpt lat="43.70021" lon="6.9862">
        <ele>342</ele>
        <time>2014-08-31T06:44:15Z</time>
      </trkpt>
      <trkpt lat="43.70021" lon="6.9862">
        <ele>342</ele>
        <time>2014-08-31T06:44:20Z</time>
      </trkpt>
      <trkpt lat="43.70021" lon="6.9862">
        <ele>342</ele>
        <time>2014-08-31T06:44:25Z</time>
      </trkpt>
      <trkpt lat="43.70021" lon="6.9862">
        <ele>342</ele>
        <time>2014-08-31T06:44:30Z</time>
      </trkpt>
      <trkpt lat="43.70022" lon="6.98619">
        <ele>341</ele>
        <time>2014-08-31T06:44:37Z</time>
      </trkpt>
      <trkpt lat="43.70021" lon="6.98618">
        <ele>342</ele>
        <time>2014-08-31T06:44:40Z</time>
      </trkpt>
      <trkpt lat="43.70021" lon="6.9862">
        <ele>341</ele>
        <time>2014-08-31T06:44:45Z</time>
      </trkpt>
      <trkpt lat="43.70021" lon="6.98621">
        <ele>342</ele>
        <time>2014-08-31T06:44:51Z</time>
      </trkpt>
      <trkpt lat="43.70021" lon="6.98621">
        <ele>342</ele>
        <time>2014-08-31T06:44:57Z</time>
      </trkpt>
      <trkpt lat="43.70021" lon="6.98621">
        <ele>342</ele>
        <time>2014-08-31T06:45:00Z</time>
      </trkpt>
      <trkpt lat="43.70021" lon="6.98621">
        <ele>342</ele>
        <time>2014-08-31T06:45:05Z</time>
      </trkpt>
      <trkpt lat="43.70021" lon="6.98621">
        <ele>342</ele>
        <time>2014-08-31T06:45:10Z</time>
      </trkpt>
      <trkpt lat="43.70021" lon="6.98621">
        <ele>342</ele>
        <time>2014-08-31T06:45:15Z</time>
      </trkpt>
      <trkpt lat="43.70021" lon="6.98621">
        <ele>342</ele>
        <time>2014-08-31T06:45:20Z</time>
      </trkpt>
      <trkpt lat="43.70021" lon="6.98621">
        <ele>342</ele>
        <time>2014-08-31T06:45:26Z</time>
      </trkpt>
      <trkpt lat="43.70021" lon="6.98621">
        <ele>342</ele>
        <time>2014-08-31T06:45:30Z</time>
      </trkpt>
      <trkpt lat="43.70021" lon="6.98621">
        <ele>342</ele>
        <time>2014-08-31T06:45:35Z</time>
      </trkpt>
      <trkpt lat="43.70021" lon="6.98621">
        <ele>342</ele>
        <time>2014-08-31T06:45:40Z</time>
      </trkpt>
      <trkpt lat="43.70021" lon="6.98621">
        <ele>342</ele>
        <time>2014-08-31T06:45:45Z</time>
      </trkpt>
      <trkpt lat="43.70021" lon="6.98621">
        <ele>342</ele>
        <time>2014-08-31T06:45:50Z</time>
      </trkpt>
      <trkpt lat="43.70021" lon="6.98621">
        <ele>342</ele>
        <time>2014-08-31T06:45:55Z</time>
      </trkpt>
      <trkpt lat="43.70021" lon="6.98621">
        <ele>342</ele>
        <time>2014-08-31T06:46:01Z</time>
      </trkpt>
      <trkpt lat="43.70021" lon="6.98621">
        <ele>342</ele>
        <time>2014-08-31T06:46:05Z</time>
      </trkpt>
      <trkpt lat="43.70021" lon="6.98621">
        <ele>342</ele>
        <time>2014-08-31T06:46:12Z</time>
      </trkpt>
      <trkpt lat="43.70021" lon="6.98621">
        <ele>342</ele>
        <time>2014-08-31T06:46:16Z</time>
      </trkpt>
      <trkpt lat="43.70021" lon="6.98621">
        <ele>342</ele>
        <time>2014-08-31T06:46:20Z</time>
      </trkpt>
      <trkpt lat="43.70021" lon="6.98621">
        <ele>342</ele>
        <time>2014-08-31T06:46:25Z</time>
      </trkpt>
      <trkpt lat="43.70021" lon="6.9862">
        <ele>342</ele>
        <time>2014-08-31T06:46:30Z</time>
      </trkpt>
      <trkpt lat="43.70021" lon="6.9862">
        <ele>342</ele>
        <time>2014-08-31T06:46:36Z</time>
      </trkpt>
      <trkpt lat="43.70021" lon="6.9862">
        <ele>342</ele>
        <time>2014-08-31T06:46:40Z</time>
      </trkpt>
      <trkpt lat="43.70021" lon="6.9862">
        <ele>341</ele>
        <time>2014-08-31T06:46:48Z</time>
      </trkpt>
      <trkpt lat="43.70021" lon="6.9862">
        <ele>341</ele>
        <time>2014-08-31T06:46:50Z</time>
      </trkpt>
      <trkpt lat="43.70021" lon="6.9862">
        <ele>341</ele>
        <time>2014-08-31T06:46:55Z</time>
      </trkpt>
      <trkpt lat="43.70021" lon="6.9862">
        <ele>341</ele>
        <time>2014-08-31T06:47:00Z</time>
      </trkpt>
      <trkpt lat="43.70021" lon="6.9862">
        <ele>341</ele>
        <time>2014-08-31T06:47:05Z</time>
      </trkpt>
      <trkpt lat="43.70021" lon="6.9862">
        <ele>341</ele>
        <time>2014-08-31T06:47:10Z</time>
      </trkpt>
      <trkpt lat="43.70021" lon="6.9862">
        <ele>341</ele>
        <time>2014-08-31T06:47:15Z</time>
      </trkpt>
      <trkpt lat="43.70021" lon="6.9862">
        <ele>341</ele>
        <time>2014-08-31T06:47:21Z</time>
      </trkpt>
      <trkpt lat="43.70021" lon="6.9862">
        <ele>341</ele>
        <time>2014-08-31T06:47:25Z</time>
      </trkpt>
      <trkpt lat="43.70021" lon="6.9862">
        <ele>341</ele>
        <time>2014-08-31T06:47:30Z</time>
      </trkpt>
      <trkpt lat="43.70021" lon="6.9862">
        <ele>341</ele>
        <time>2014-08-31T06:47:35Z</time>
      </trkpt>
      <trkpt lat="43.70021" lon="6.9862">
        <ele>341</ele>
        <time>2014-08-31T06:47:40Z</time>
      </trkpt>
      <trkpt lat="43.70021" lon="6.9862">
        <ele>342</ele>
        <time>2014-08-31T06:47:45Z</time>
      </trkpt>
      <trkpt lat="43.70021" lon="6.9862">
        <ele>342</ele>
        <time>2014-08-31T06:47:50Z</time>
      </trkpt>
      <trkpt lat="43.70021" lon="6.98621">
        <ele>342</ele>
        <time>2014-08-31T06:47:55Z</time>
      </trkpt>
      <trkpt lat="43.70021" lon="6.98621">
        <ele>342</ele>
        <time>2014-08-31T06:48:00Z</time>
      </trkpt>
      <trkpt lat="43.70021" lon="6.98621">
        <ele>342</ele>
        <time>2014-08-31T06:48:05Z</time>
      </trkpt>
      <trkpt lat="43.70021" lon="6.98621">
        <ele>342</ele>
        <time>2014-08-31T06:48:10Z</time>
      </trkpt>
      <trkpt lat="43.70021" lon="6.98621">
        <ele>342</ele>
        <time>2014-08-31T06:48:15Z</time>
      </trkpt>
      <trkpt lat="43.70021" lon="6.98621">
        <ele>342</ele>
        <time>2014-08-31T06:48:20Z</time>
      </trkpt>
      <trkpt lat="43.70021" lon="6.98621">
        <ele>342</ele>
        <time>2014-08-31T06:48:25Z</time>
      </trkpt>
      <trkpt lat="43.70021" lon="6.98621">
        <ele>342</ele>
        <time>2014-08-31T06:48:30Z</time>
      </trkpt>
      <trkpt lat="43.70021" lon="6.98621">
        <ele>342</ele>
        <time>2014-08-31T06:48:35Z</time>
      </trkpt>
      <trkpt lat="43.70021" lon="6.98621">
        <ele>342</ele>
        <time>2014-08-31T06:48:40Z</time>
      </trkpt>
      <trkpt lat="43.70021" lon="6.98621">
        <ele>342</ele>
        <time>2014-08-31T06:48:45Z</time>
      </trkpt>
      <trkpt lat="43.70021" lon="6.98621">
        <ele>342</ele>
        <time>2014-08-31T06:48:51Z</time>
      </trkpt>
      <trkpt lat="43.70021" lon="6.98621">
        <ele>342</ele>
        <time>2014-08-31T06:48:55Z</time>
      </trkpt>
      <trkpt lat="43.70021" lon="6.98621">
        <ele>342</ele>
        <time>2014-08-31T06:49:00Z</time>
      </trkpt>
      <trkpt lat="43.70021" lon="6.98621">
        <ele>342</ele>
        <time>2014-08-31T06:49:05Z</time>
      </trkpt>
      <trkpt lat="43.70021" lon="6.98621">
        <ele>342</ele>
        <time>2014-08-31T06:49:10Z</time>
      </trkpt>
      <trkpt lat="43.70021" lon="6.98621">
        <ele>342</ele>
        <time>2014-08-31T06:49:15Z</time>
      </trkpt>
      <trkpt lat="43.70021" lon="6.98621">
        <ele>342</ele>
        <time>2014-08-31T06:49:22Z</time>
      </trkpt>
      <trkpt lat="43.70021" lon="6.98621">
        <ele>342</ele>
        <time>2014-08-31T06:49:25Z</time>
      </trkpt>
      <trkpt lat="43.70021" lon="6.98621">
        <ele>342</ele>
        <time>2014-08-31T06:49:30Z</time>
      </trkpt>
      <trkpt lat="43.70021" lon="6.98621">
        <ele>342</ele>
        <time>2014-08-31T06:49:35Z</time>
      </trkpt>
      <trkpt lat="43.70021" lon="6.98621">
        <ele>342</ele>
        <time>2014-08-31T06:49:40Z</time>
      </trkpt>
      <trkpt lat="43.70021" lon="6.98621">
        <ele>342</ele>
        <time>2014-08-31T06:49:45Z</time>
      </trkpt>
      <trkpt lat="43.70021" lon="6.98621">
        <ele>342</ele>
        <time>2014-08-31T06:49:50Z</time>
      </trkpt>
      <trkpt lat="43.70021" lon="6.98621">
        <ele>342</ele>
        <time>2014-08-31T06:49:55Z</time>
      </trkpt>
      <trkpt lat="43.70021" lon="6.98621">
        <ele>342</ele>
        <time>2014-08-31T06:50:00Z</time>
      </trkpt>
      <trkpt lat="43.70021" lon="6.98621">
        <ele>342</ele>
        <time>2014-08-31T06:50:09Z</time>
      </trkpt>
      <trkpt lat="43.70021" lon="6.98621">
        <ele>342</ele>
        <time>2014-08-31T06:50:10Z</time>
      </trkpt>
      <trkpt lat="43.70021" lon="6.98621">
        <ele>342</ele>
        <time>2014-08-31T06:50:16Z</time>
      </trkpt>
      <trkpt lat="43.70021" lon="6.98621">
        <ele>342</ele>
        <time>2014-08-31T06:50:20Z</time>
      </trkpt>
      <trkpt lat="43.70021" lon="6.98621">
        <ele>341</ele>
        <time>2014-08-31T06:50:29Z</time>
      </trkpt>
      <trkpt lat="43.70021" lon="6.98621">
        <ele>341</ele>
        <time>2014-08-31T06:50:30Z</time>
      </trkpt>
      <trkpt lat="43.70021" lon="6.98621">
        <ele>341</ele>
        <time>2014-08-31T06:50:35Z</time>
      </trkpt>
      <trkpt lat="43.70021" lon="6.98621">
        <ele>341</ele>
        <time>2014-08-31T06:50:40Z</time>
      </trkpt>
      <trkpt lat="43.70021" lon="6.98621">
        <ele>341</ele>
        <time>2014-08-31T06:50:46Z</time>
      </trkpt>
      <trkpt lat="43.70021" lon="6.98621">
        <ele>341</ele>
        <time>2014-08-31T06:50:50Z</time>
      </trkpt>
      <trkpt lat="43.70021" lon="6.98621">
        <ele>342</ele>
        <time>2014-08-31T06:50:55Z</time>
      </trkpt>
      <trkpt lat="43.70021" lon="6.98621">
        <ele>342</ele>
        <time>2014-08-31T06:51:00Z</time>
      </trkpt>
      <trkpt lat="43.70021" lon="6.98621">
        <ele>341</ele>
        <time>2014-08-31T06:51:05Z</time>
      </trkpt>
      <trkpt lat="43.70021" lon="6.98621">
        <ele>341</ele>
        <time>2014-08-31T06:51:10Z</time>
      </trkpt>
      <trkpt lat="43.70021" lon="6.98621">
        <ele>341</ele>
        <time>2014-08-31T06:51:15Z</time>
      </trkpt>
      <trkpt lat="43.70021" lon="6.98621">
        <ele>341</ele>
        <time>2014-08-31T06:51:20Z</time>
      </trkpt>
      <trkpt lat="43.70021" lon="6.98621">
        <ele>341</ele>
        <time>2014-08-31T06:51:25Z</time>
      </trkpt>
      <trkpt lat="43.70021" lon="6.98621">
        <ele>341</ele>
        <time>2014-08-31T06:51:30Z</time>
      </trkpt>
      <trkpt lat="43.70021" lon="6.98621">
        <ele>341</ele>
        <time>2014-08-31T06:51:35Z</time>
      </trkpt>
      <trkpt lat="43.70021" lon="6.98621">
        <ele>341</ele>
        <time>2014-08-31T06:51:41Z</time>
      </trkpt>
      <trkpt lat="43.70021" lon="6.98621">
        <ele>341</ele>
        <time>2014-08-31T06:51:45Z</time>
      </trkpt>
      <trkpt lat="43.70021" lon="6.98621">
        <ele>341</ele>
        <time>2014-08-31T06:51:50Z</time>
      </trkpt>
      <trkpt lat="43.70021" lon="6.98621">
        <ele>341</ele>
        <time>2014-08-31T06:51:55Z</time>
      </trkpt>
      <trkpt lat="43.70021" lon="6.98621">
        <ele>341</ele>
        <time>2014-08-31T06:52:00Z</time>
      </trkpt>
      <trkpt lat="43.70021" lon="6.98621">
        <ele>341</ele>
        <time>2014-08-31T06:52:06Z</time>
      </trkpt>
      <trkpt lat="43.70021" lon="6.98621">
        <ele>341</ele>
        <time>2014-08-31T06:52:10Z</time>
      </trkpt>
      <trkpt lat="43.70021" lon="6.98621">
        <ele>341</ele>
        <time>2014-08-31T06:52:18Z</time>
      </trkpt>
      <trkpt lat="43.70021" lon="6.98621">
        <ele>341</ele>
        <time>2014-08-31T06:52:24Z</time>
      </trkpt>
      <trkpt lat="43.70021" lon="6.98621">
        <ele>341</ele>
        <time>2014-08-31T06:52:25Z</time>
      </trkpt>
      <trkpt lat="43.70021" lon="6.98621">
        <ele>341</ele>
        <time>2014-08-31T06:52:30Z</time>
      </trkpt>
      <trkpt lat="43.70021" lon="6.98621">
        <ele>341</ele>
        <time>2014-08-31T06:52:35Z</time>
      </trkpt>
      <trkpt lat="43.70021" lon="6.98621">
        <ele>342</ele>
        <time>2014-08-31T06:52:40Z</time>
      </trkpt>
      <trkpt lat="43.70021" lon="6.98621">
        <ele>342</ele>
        <time>2014-08-31T06:52:49Z</time>
      </trkpt>
      <trkpt lat="43.70021" lon="6.98621">
        <ele>342</ele>
        <time>2014-08-31T06:52:50Z</time>
      </trkpt>
      <trkpt lat="43.70021" lon="6.98621">
        <ele>342</ele>
        <time>2014-08-31T06:52:55Z</time>
      </trkpt>
      <trkpt lat="43.70021" lon="6.98621">
        <ele>342</ele>
        <time>2014-08-31T06:53:00Z</time>
      </trkpt>
      <trkpt lat="43.70021" lon="6.98621">
        <ele>342</ele>
        <time>2014-08-31T06:53:05Z</time>
      </trkpt>
      <trkpt lat="43.70021" lon="6.98621">
        <ele>341</ele>
        <time>2014-08-31T06:53:10Z</time>
      </trkpt>
      <trkpt lat="43.70021" lon="6.98621">
        <ele>341</ele>
        <time>2014-08-31T06:53:18Z</time>
      </trkpt>
      <trkpt lat="43.70021" lon="6.98621">
        <ele>341</ele>
        <time>2014-08-31T06:53:20Z</time>
      </trkpt>
      <trkpt lat="43.70021" lon="6.98621">
        <ele>341</ele>
        <time>2014-08-31T06:53:25Z</time>
      </trkpt>
      <trkpt lat="43.70021" lon="6.98621">
        <ele>341</ele>
        <time>2014-08-31T06:53:31Z</time>
      </trkpt>
      <trkpt lat="43.70021" lon="6.98621">
        <ele>341</ele>
        <time>2014-08-31T06:53:35Z</time>
      </trkpt>
      <trkpt lat="43.70021" lon="6.98621">
        <ele>341</ele>
        <time>2014-08-31T06:53:40Z</time>
      </trkpt>
      <trkpt lat="43.70021" lon="6.98621">
        <ele>341</ele>
        <time>2014-08-31T06:53:45Z</time>
      </trkpt>
      <trkpt lat="43.70021" lon="6.98621">
        <ele>341</ele>
        <time>2014-08-31T06:53:50Z</time>
      </trkpt>
      <trkpt lat="43.70021" lon="6.98621">
        <ele>341</ele>
        <time>2014-08-31T06:53:55Z</time>
      </trkpt>
      <trkpt lat="43.70021" lon="6.98621">
        <ele>341</ele>
        <time>2014-08-31T06:54:00Z</time>
      </trkpt>
      <trkpt lat="43.70021" lon="6.98621">
        <ele>341</ele>
        <time>2014-08-31T06:54:05Z</time>
      </trkpt>
      <trkpt lat="43.70021" lon="6.98621">
        <ele>341</ele>
        <time>2014-08-31T06:54:10Z</time>
      </trkpt>
      <trkpt lat="43.70021" lon="6.98621">
        <ele>341</ele>
        <time>2014-08-31T06:54:15Z</time>
      </trkpt>
      <trkpt lat="43.70021" lon="6.98621">
        <ele>341</ele>
        <time>2014-08-31T06:54:20Z</time>
      </trkpt>
      <trkpt lat="43.70021" lon="6.98621">
        <ele>341</ele>
        <time>2014-08-31T06:54:25Z</time>
      </trkpt>
      <trkpt lat="43.70021" lon="6.98621">
        <ele>341</ele>
        <time>2014-08-31T06:54:31Z</time>
      </trkpt>
      <trkpt lat="43.70021" lon="6.98621">
        <ele>341</ele>
        <time>2014-08-31T06:54:35Z</time>
      </trkpt>
      <trkpt lat="43.70021" lon="6.98621">
        <ele>341</ele>
        <time>2014-08-31T06:54:40Z</time>
      </trkpt>
      <trkpt lat="43.70021" lon="6.98621">
        <ele>341</ele>
        <time>2014-08-31T06:54:45Z</time>
      </trkpt>
      <trkpt lat="43.70021" lon="6.98621">
        <ele>341</ele>
        <time>2014-08-31T06:54:50Z</time>
      </trkpt>
      <trkpt lat="43.70021" lon="6.98621">
        <ele>341</ele>
        <time>2014-08-31T06:54:55Z</time>
      </trkpt>
      <trkpt lat="43.70021" lon="6.98621">
        <ele>341</ele>
        <time>2014-08-31T06:55:00Z</time>
      </trkpt>
      <trkpt lat="43.70021" lon="6.98621">
        <ele>341</ele>
        <time>2014-08-31T06:55:05Z</time>
      </trkpt>
      <trkpt lat="43.70021" lon="6.98621">
        <ele>341</ele>
        <time>2014-08-31T06:55:10Z</time>
      </trkpt>
      <trkpt lat="43.70021" lon="6.98621">
        <ele>341</ele>
        <time>2014-08-31T06:55:15Z</time>
      </trkpt>
      <trkpt lat="43.70021" lon="6.98621">
        <ele>341</ele>
        <time>2014-08-31T06:55:20Z</time>
      </trkpt>
      <trkpt lat="43.70021" lon="6.98621">
        <ele>341</ele>
        <time>2014-08-31T06:55:25Z</time>
      </trkpt>
      <trkpt lat="43.70021" lon="6.9862">
        <ele>342</ele>
        <time>2014-08-31T06:55:30Z</time>
      </trkpt>
      <trkpt lat="43.7002" lon="6.9862">
        <ele>343</ele>
        <time>2014-08-31T06:55:35Z</time>
      </trkpt>
      <trkpt lat="43.7002" lon="6.9862">
        <ele>344</ele>
        <time>2014-08-31T06:55:40Z</time>
      </trkpt>
      <trkpt lat="43.7002" lon="6.9862">
        <ele>344</ele>
        <time>2014-08-31T06:55:45Z</time>
      </trkpt>
      <trkpt lat="43.7002" lon="6.9862">
        <ele>344</ele>
        <time>2014-08-31T06:55:50Z</time>
      </trkpt>
      <trkpt lat="43.7002" lon="6.9862">
        <ele>344</ele>
        <time>2014-08-31T06:55:55Z</time>
      </trkpt>
      <trkpt lat="43.7002" lon="6.9862">
        <ele>344</ele>
        <time>2014-08-31T06:56:00Z</time>
      </trkpt>
      <trkpt lat="43.7002" lon="6.9862">
        <ele>344</ele>
        <time>2014-08-31T06:56:05Z</time>
      </trkpt>
      <trkpt lat="43.7002" lon="6.9862">
        <ele>344</ele>
        <time>2014-08-31T06:56:10Z</time>
      </trkpt>
      <trkpt lat="43.7002" lon="6.9862">
        <ele>344</ele>
        <time>2014-08-31T06:56:15Z</time>
      </trkpt>
      <trkpt lat="43.7002" lon="6.9862">
        <ele>344</ele>
        <time>2014-08-31T06:56:20Z</time>
      </trkpt>
      <trkpt lat="43.7002" lon="6.9862">
        <ele>344</ele>
        <time>2014-08-31T06:56:25Z</time>
      </trkpt>
      <trkpt lat="43.7002" lon="6.9862">
        <ele>344</ele>
        <time>2014-08-31T06:56:30Z</time>
      </trkpt>
      <trkpt lat="43.7002" lon="6.9862">
        <ele>343</ele>
        <time>2014-08-31T06:56:35Z</time>
      </trkpt>
      <trkpt lat="43.7002" lon="6.98621">
        <ele>342</ele>
        <time>2014-08-31T06:56:40Z</time>
      </trkpt>
      <trkpt lat="43.70021" lon="6.98621">
        <ele>342</ele>
        <time>2014-08-31T06:56:45Z</time>
      </trkpt>
      <trkpt lat="43.70021" lon="6.98621">
        <ele>342</ele>
        <time>2014-08-31T06:56:50Z</time>
      </trkpt>
      <trkpt lat="43.70021" lon="6.98621">
        <ele>342</ele>
        <time>2014-08-31T06:56:55Z</time>
      </trkpt>
      <trkpt lat="43.70021" lon="6.98621">
        <ele>342</ele>
        <time>2014-08-31T06:57:00Z</time>
      </trkpt>
      <trkpt lat="43.70021" lon="6.98621">
        <ele>342</ele>
        <time>2014-08-31T06:57:05Z</time>
      </trkpt>
      <trkpt lat="43.70021" lon="6.98621">
        <ele>342</ele>
        <time>2014-08-31T06:57:10Z</time>
      </trkpt>
      <trkpt lat="43.70021" lon="6.98621">
        <ele>342</ele>
        <time>2014-08-31T06:57:15Z</time>
      </trkpt>
      <trkpt lat="43.70021" lon="6.98621">
        <ele>342</ele>
        <time>2014-08-31T06:57:20Z</time>
      </trkpt>
      <trkpt lat="43.70021" lon="6.98621">
        <ele>342</ele>
        <time>2014-08-31T06:57:25Z</time>
      </trkpt>
      <trkpt lat="43.70021" lon="6.98621">
        <ele>342</ele>
        <time>2014-08-31T06:57:30Z</time>
      </trkpt>
      <trkpt lat="43.70021" lon="6.98621">
        <ele>342</ele>
        <time>2014-08-31T06:57:35Z</time>
      </trkpt>
      <trkpt lat="43.7002" lon="6.98621">
        <ele>342</ele>
        <time>2014-08-31T06:57:40Z</time>
      </trkpt>
      <trkpt lat="43.70021" lon="6.98621">
        <ele>343</ele>
        <time>2014-08-31T06:57:45Z</time>
      </trkpt>
      <trkpt lat="43.7002" lon="6.98621">
        <ele>343</ele>
        <time>2014-08-31T06:57:50Z</time>
      </trkpt>
      <trkpt lat="43.7002" lon="6.98621">
        <ele>343</ele>
        <time>2014-08-31T06:57:55Z</time>
      </trkpt>
      <trkpt lat="43.7002" lon="6.98621">
        <ele>343</ele>
        <time>2014-08-31T06:58:00Z</time>
      </trkpt>
      <trkpt lat="43.7002" lon="6.98621">
        <ele>343</ele>
        <time>2014-08-31T06:58:06Z</time>
      </trkpt>
      <trkpt lat="43.7002" lon="6.98621">
        <ele>343</ele>
        <time>2014-08-31T06:58:10Z</time>
      </trkpt>
      <trkpt lat="43.7002" lon="6.98621">
        <ele>343</ele>
        <time>2014-08-31T06:58:15Z</time>
      </trkpt>
      <trkpt lat="43.7002" lon="6.98621">
        <ele>343</ele>
        <time>2014-08-31T06:58:20Z</time>
      </trkpt>
      <trkpt lat="43.7002" lon="6.98621">
        <ele>343</ele>
        <time>2014-08-31T06:58:25Z</time>
      </trkpt>
      <trkpt lat="43.7002" lon="6.98622">
        <ele>344</ele>
        <time>2014-08-31T06:58:31Z</time>
      </trkpt>
      <trkpt lat="43.7002" lon="6.98622">
        <ele>343</ele>
        <time>2014-08-31T06:58:35Z</time>
      </trkpt>
      <trkpt lat="43.7002" lon="6.98621">
        <ele>343</ele>
        <time>2014-08-31T06:58:44Z</time>
      </trkpt>
      <trkpt lat="43.7002" lon="6.98621">
        <ele>343</ele>
        <time>2014-08-31T06:58:45Z</time>
      </trkpt>
      <trkpt lat="43.70019" lon="6.98622">
        <ele>344</ele>
        <time>2014-08-31T06:58:50Z</time>
      </trkpt>
      <trkpt lat="43.70019" lon="6.98621">
        <ele>344</ele>
        <time>2014-08-31T06:58:55Z</time>
      </trkpt>
      <trkpt lat="43.70019" lon="6.98621">
        <ele>344</ele>
        <time>2014-08-31T06:59:00Z</time>
      </trkpt>
      <trkpt lat="43.70019" lon="6.98621">
        <ele>344</ele>
        <time>2014-08-31T06:59:07Z</time>
      </trkpt>
      <trkpt lat="43.70019" lon="6.98621">
        <ele>344</ele>
        <time>2014-08-31T06:59:10Z</time>
      </trkpt>
      <trkpt lat="43.70019" lon="6.98621">
        <ele>344</ele>
        <time>2014-08-31T06:59:15Z</time>
      </trkpt>
      <trkpt lat="43.7002" lon="6.98621">
        <ele>344</ele>
        <time>2014-08-31T06:59:20Z</time>
      </trkpt>
      <trkpt lat="43.7002" lon="6.9862">
        <ele>344</ele>
        <time>2014-08-31T06:59:25Z</time>
      </trkpt>
      <trkpt lat="43.7002" lon="6.9862">
        <ele>344</ele>
        <time>2014-08-31T06:59:30Z</time>
      </trkpt>
      <trkpt lat="43.7002" lon="6.9862">
        <ele>344</ele>
        <time>2014-08-31T06:59:35Z</time>
      </trkpt>
      <trkpt lat="43.7002" lon="6.9862">
        <ele>344</ele>
        <time>2014-08-31T06:59:43Z</time>
      </trkpt>
      <trkpt lat="43.7002" lon="6.9862">
        <ele>344</ele>
        <time>2014-08-31T06:59:49Z</time>
      </trkpt>
      <trkpt lat="43.7002" lon="6.9862">
        <ele>344</ele>
        <time>2014-08-31T06:59:51Z</time>
      </trkpt>
      <trkpt lat="43.7002" lon="6.9862">
        <ele>344</ele>
        <time>2014-08-31T06:59:55Z</time>
      </trkpt>
      <trkpt lat="43.7002" lon="6.9862">
        <ele>344</ele>
        <time>2014-08-31T07:00:00Z</time>
      </trkpt>
      <trkpt lat="43.7002" lon="6.9862">
        <ele>344</ele>
        <time>2014-08-31T07:00:05Z</time>
      </trkpt>
      <trkpt lat="43.7002" lon="6.9862">
        <ele>344</ele>
        <time>2014-08-31T07:00:10Z</time>
      </trkpt>
      <trkpt lat="43.70019" lon="6.98619">
        <ele>344</ele>
        <time>2014-08-31T07:00:17Z</time>
      </trkpt>
      <trkpt lat="43.70017" lon="6.98616">
        <ele>344</ele>
        <time>2014-08-31T07:00:20Z</time>
      </trkpt>
      <trkpt lat="43.70015" lon="6.98612">
        <ele>345</ele>
        <time>2014-08-31T07:00:25Z</time>
      </trkpt>
      <trkpt lat="43.70012" lon="6.98609">
        <ele>343</ele>
        <time>2014-08-31T07:00:31Z</time>
      </trkpt>
      <trkpt lat="43.70013" lon="6.98609">
        <ele>343</ele>
        <time>2014-08-31T07:00:35Z</time>
      </trkpt>
      <trkpt lat="43.70014" lon="6.98609">
        <ele>343</ele>
        <time>2014-08-31T07:00:40Z</time>
      </trkpt>
      <trkpt lat="43.70014" lon="6.9861">
        <ele>343</ele>
        <time>2014-08-31T07:00:45Z</time>
      </trkpt>
      <trkpt lat="43.70014" lon="6.9861">
        <ele>343</ele>
        <time>2014-08-31T07:00:50Z</time>
      </trkpt>
      <trkpt lat="43.70014" lon="6.98611">
        <ele>344</ele>
        <time>2014-08-31T07:00:55Z</time>
      </trkpt>
      <trkpt lat="43.70014" lon="6.98612">
        <ele>345</ele>
        <time>2014-08-31T07:01:00Z</time>
      </trkpt>
      <trkpt lat="43.70014" lon="6.98613">
        <ele>346</ele>
        <time>2014-08-31T07:01:05Z</time>
      </trkpt>
      <trkpt lat="43.70014" lon="6.98613">
        <ele>346</ele>
        <time>2014-08-31T07:01:10Z</time>
      </trkpt>
      <trkpt lat="43.70013" lon="6.98612">
        <ele>345</ele>
        <time>2014-08-31T07:01:15Z</time>
      </trkpt>
      <trkpt lat="43.69997" lon="6.98598">
        <ele>343</ele>
        <time>2014-08-31T07:01:21Z</time>
      </trkpt>
      <trkpt lat="43.6998" lon="6.98602">
        <ele>342</ele>
        <time>2014-08-31T07:01:25Z</time>
      </trkpt>
      <trkpt lat="43.69971" lon="6.98585">
        <ele>343</ele>
        <time>2014-08-31T07:01:30Z</time>
      </trkpt>
      <trkpt lat="43.69966" lon="6.98575">
        <ele>343</ele>
        <time>2014-08-31T07:01:35Z</time>
      </trkpt>
      <trkpt lat="43.6996" lon="6.98561">
        <ele>345</ele>
        <time>2014-08-31T07:01:41Z</time>
      </trkpt>
      <trkpt lat="43.69956" lon="6.98552">
        <ele>344</ele>
        <time>2014-08-31T07:01:45Z</time>
      </trkpt>
      <trkpt lat="43.6995" lon="6.98542">
        <ele>344</ele>
        <time>2014-08-31T07:01:50Z</time>
      </trkpt>
      <trkpt lat="43.69943" lon="6.98531">
        <ele>344</ele>
        <time>2014-08-31T07:01:56Z</time>
      </trkpt>
      <trkpt lat="43.69938" lon="6.98523">
        <ele>345</ele>
        <time>2014-08-31T07:02:00Z</time>
      </trkpt>
      <trkpt lat="43.69933" lon="6.98511">
        <ele>346</ele>
        <time>2014-08-31T07:02:05Z</time>
      </trkpt>
      <trkpt lat="43.69926" lon="6.985">
        <ele>346</ele>
        <time>2014-08-31T07:02:10Z</time>
      </trkpt>
      <trkpt lat="43.6992" lon="6.98488">
        <ele>346</ele>
        <time>2014-08-31T07:02:15Z</time>
      </trkpt>
      <trkpt lat="43.69913" lon="6.98475">
        <ele>346</ele>
        <time>2014-08-31T07:02:20Z</time>
      </trkpt>
      <trkpt lat="43.69904" lon="6.98463">
        <ele>347</ele>
        <time>2014-08-31T07:02:25Z</time>
      </trkpt>
      <trkpt lat="43.69897" lon="6.98451">
        <ele>348</ele>
        <time>2014-08-31T07:02:30Z</time>
      </trkpt>
      <trkpt lat="43.69889" lon="6.9844">
        <ele>348</ele>
        <time>2014-08-31T07:02:35Z</time>
      </trkpt>
      <trkpt lat="43.69884" lon="6.98426">
        <ele>348</ele>
        <time>2014-08-31T07:02:40Z</time>
      </trkpt>
      <trkpt lat="43.69888" lon="6.98411">
        <ele>348</ele>
        <time>2014-08-31T07:02:45Z</time>
      </trkpt>
      <trkpt lat="43.69895" lon="6.98398">
        <ele>350</ele>
        <time>2014-08-31T07:02:50Z</time>
      </trkpt>
      <trkpt lat="43.699" lon="6.98386">
        <ele>351</ele>
        <time>2014-08-31T07:02:55Z</time>
      </trkpt>
      <trkpt lat="43.69906" lon="6.98372">
        <ele>351</ele>
        <time>2014-08-31T07:03:00Z</time>
      </trkpt>
      <trkpt lat="43.6991" lon="6.98358">
        <ele>353</ele>
        <time>2014-08-31T07:03:05Z</time>
      </trkpt>
      <trkpt lat="43.6991" lon="6.98343">
        <ele>354</ele>
        <time>2014-08-31T07:03:10Z</time>
      </trkpt>
      <trkpt lat="43.69909" lon="6.98328">
        <ele>357</ele>
        <time>2014-08-31T07:03:15Z</time>
      </trkpt>
      <trkpt lat="43.69908" lon="6.98315">
        <ele>358</ele>
        <time>2014-08-31T07:03:20Z</time>
      </trkpt>
      <trkpt lat="43.69908" lon="6.98296">
        <ele>360</ele>
        <time>2014-08-31T07:03:28Z</time>
      </trkpt>
      <trkpt lat="43.69909" lon="6.98291">
        <ele>360</ele>
        <time>2014-08-31T07:03:30Z</time>
      </trkpt>
      <trkpt lat="43.6991" lon="6.9828">
        <ele>362</ele>
        <time>2014-08-31T07:03:35Z</time>
      </trkpt>
      <trkpt lat="43.69911" lon="6.98269">
        <ele>365</ele>
        <time>2014-08-31T07:03:40Z</time>
      </trkpt>
      <trkpt lat="43.69915" lon="6.98261">
        <ele>367</ele>
        <time>2014-08-31T07:03:45Z</time>
      </trkpt>
      <trkpt lat="43.6992" lon="6.98253">
        <ele>368</ele>
        <time>2014-08-31T07:03:50Z</time>
      </trkpt>
      <trkpt lat="43.69925" lon="6.98245">
        <ele>368</ele>
        <time>2014-08-31T07:03:55Z</time>
      </trkpt>
      <trkpt lat="43.69927" lon="6.98235">
        <ele>370</ele>
        <time>2014-08-31T07:04:00Z</time>
      </trkpt>
      <trkpt lat="43.6993" lon="6.98226">
        <ele>370</ele>
        <time>2014-08-31T07:04:05Z</time>
      </trkpt>
      <trkpt lat="43.69935" lon="6.98218">
        <ele>369</ele>
        <time>2014-08-31T07:04:10Z</time>
      </trkpt>
      <trkpt lat="43.69942" lon="6.98213">
        <ele>371</ele>
        <time>2014-08-31T07:04:15Z</time>
      </trkpt>
      <trkpt lat="43.69948" lon="6.98209">
        <ele>373</ele>
        <time>2014-08-31T07:04:20Z</time>
      </trkpt>
      <trkpt lat="43.69955" lon="6.98208">
        <ele>374</ele>
        <time>2014-08-31T07:04:25Z</time>
      </trkpt>
      <trkpt lat="43.6996" lon="6.98205">
        <ele>377</ele>
        <time>2014-08-31T07:04:30Z</time>
      </trkpt>
      <trkpt lat="43.69965" lon="6.982">
        <ele>379</ele>
        <time>2014-08-31T07:04:35Z</time>
      </trkpt>
      <trkpt lat="43.69967" lon="6.98193">
        <ele>381</ele>
        <time>2014-08-31T07:04:40Z</time>
      </trkpt>
      <trkpt lat="43.6997" lon="6.98186">
        <ele>381</ele>
        <time>2014-08-31T07:04:45Z</time>
      </trkpt>
      <trkpt lat="43.69974" lon="6.98179">
        <ele>382</ele>
        <time>2014-08-31T07:04:50Z</time>
      </trkpt>
      <trkpt lat="43.69977" lon="6.98172">
        <ele>383</ele>
        <time>2014-08-31T07:04:55Z</time>
      </trkpt>
      <trkpt lat="43.69981" lon="6.98166">
        <ele>385</ele>
        <time>2014-08-31T07:05:00Z</time>
      </trkpt>
      <trkpt lat="43.69985" lon="6.98158">
        <ele>387</ele>
        <time>2014-08-31T07:05:05Z</time>
      </trkpt>
      <trkpt lat="43.69986" lon="6.98148">
        <ele>389</ele>
        <time>2014-08-31T07:05:10Z</time>
      </trkpt>
      <trkpt lat="43.6999" lon="6.9814">
        <ele>389</ele>
        <time>2014-08-31T07:05:15Z</time>
      </trkpt>
      <trkpt lat="43.69996" lon="6.98133">
        <ele>391</ele>
        <time>2014-08-31T07:05:20Z</time>
      </trkpt>
      <trkpt lat="43.70002" lon="6.98128">
        <ele>393</ele>
        <time>2014-08-31T07:05:25Z</time>
      </trkpt>
      <trkpt lat="43.70004" lon="6.98124">
        <ele>395</ele>
        <time>2014-08-31T07:05:30Z</time>
      </trkpt>
      <trkpt lat="43.70011" lon="6.98112">
        <ele>397</ele>
        <time>2014-08-31T07:05:37Z</time>
      </trkpt>
      <trkpt lat="43.70015" lon="6.98105">
        <ele>396</ele>
        <time>2014-08-31T07:05:40Z</time>
      </trkpt>
      <trkpt lat="43.70017" lon="6.98092">
        <ele>398</ele>
        <time>2014-08-31T07:05:45Z</time>
      </trkpt>
      <trkpt lat="43.7002" lon="6.98082">
        <ele>398</ele>
        <time>2014-08-31T07:05:50Z</time>
      </trkpt>
      <trkpt lat="43.70025" lon="6.98065">
        <ele>396</ele>
        <time>2014-08-31T07:05:58Z</time>
      </trkpt>
      <trkpt lat="43.70028" lon="6.98054">
        <ele>396</ele>
        <time>2014-08-31T07:06:03Z</time>
      </trkpt>
      <trkpt lat="43.70028" lon="6.98047">
        <ele>397</ele>
        <time>2014-08-31T07:06:06Z</time>
      </trkpt>
      <trkpt lat="43.70027" lon="6.98031">
        <ele>400</ele>
        <time>2014-08-31T07:06:13Z</time>
      </trkpt>
      <trkpt lat="43.70028" lon="6.98026">
        <ele>400</ele>
        <time>2014-08-31T07:06:15Z</time>
      </trkpt>
      <trkpt lat="43.70026" lon="6.98014">
        <ele>403</ele>
        <time>2014-08-31T07:06:20Z</time>
      </trkpt>
      <trkpt lat="43.70025" lon="6.98001">
        <ele>402</ele>
        <time>2014-08-31T07:06:25Z</time>
      </trkpt>
      <trkpt lat="43.70024" lon="6.97982">
        <ele>403</ele>
        <time>2014-08-31T07:06:33Z</time>
      </trkpt>
      <trkpt lat="43.70023" lon="6.97977">
        <ele>403</ele>
        <time>2014-08-31T07:06:35Z</time>
      </trkpt>
      <trkpt lat="43.70023" lon="6.97965">
        <ele>405</ele>
        <time>2014-08-31T07:06:40Z</time>
      </trkpt>
      <trkpt lat="43.70023" lon="6.97953">
        <ele>406</ele>
        <time>2014-08-31T07:06:45Z</time>
      </trkpt>
      <trkpt lat="43.70022" lon="6.97942">
        <ele>408</ele>
        <time>2014-08-31T07:06:50Z</time>
      </trkpt>
      <trkpt lat="43.70021" lon="6.97931">
        <ele>409</ele>
        <time>2014-08-31T07:06:55Z</time>
      </trkpt>
      <trkpt lat="43.70021" lon="6.97919">
        <ele>410</ele>
        <time>2014-08-31T07:07:00Z</time>
      </trkpt>
      <trkpt lat="43.7002" lon="6.97908">
        <ele>413</ele>
        <time>2014-08-31T07:07:05Z</time>
      </trkpt>
      <trkpt lat="43.7002" lon="6.97898">
        <ele>414</ele>
        <time>2014-08-31T07:07:10Z</time>
      </trkpt>
      <trkpt lat="43.7002" lon="6.97887">
        <ele>416</ele>
        <time>2014-08-31T07:07:15Z</time>
      </trkpt>
      <trkpt lat="43.70021" lon="6.97873">
        <ele>416</ele>
        <time>2014-08-31T07:07:21Z</time>
      </trkpt>
      <trkpt lat="43.70021" lon="6.97864">
        <ele>417</ele>
        <time>2014-08-31T07:07:25Z</time>
      </trkpt>
      <trkpt lat="43.70022" lon="6.97854">
        <ele>419</ele>
        <time>2014-08-31T07:07:30Z</time>
      </trkpt>
      <trkpt lat="43.70023" lon="6.97845">
        <ele>420</ele>
        <time>2014-08-31T07:07:35Z</time>
      </trkpt>
      <trkpt lat="43.70023" lon="6.97835">
        <ele>421</ele>
        <time>2014-08-31T07:07:40Z</time>
      </trkpt>
      <trkpt lat="43.70024" lon="6.97824">
        <ele>423</ele>
        <time>2014-08-31T07:07:46Z</time>
      </trkpt>
      <trkpt lat="43.70025" lon="6.97815">
        <ele>423</ele>
        <time>2014-08-31T07:07:51Z</time>
      </trkpt>
      <trkpt lat="43.70024" lon="6.97808">
        <ele>426</ele>
        <time>2014-08-31T07:07:55Z</time>
      </trkpt>
      <trkpt lat="43.70024" lon="6.97797">
        <ele>426</ele>
        <time>2014-08-31T07:08:01Z</time>
      </trkpt>
      <trkpt lat="43.70026" lon="6.97789">
        <ele>427</ele>
        <time>2014-08-31T07:08:05Z</time>
      </trkpt>
      <trkpt lat="43.70032" lon="6.97783">
        <ele>428</ele>
        <time>2014-08-31T07:08:10Z</time>
      </trkpt>
      <trkpt lat="43.70038" lon="6.97782">
        <ele>430</ele>
        <time>2014-08-31T07:08:15Z</time>
      </trkpt>
      <trkpt lat="43.70042" lon="6.97776">
        <ele>432</ele>
        <time>2014-08-31T07:08:20Z</time>
      </trkpt>
      <trkpt lat="43.70041" lon="6.97767">
        <ele>435</ele>
        <time>2014-08-31T07:08:25Z</time>
      </trkpt>
      <trkpt lat="43.70041" lon="6.97757">
        <ele>436</ele>
        <time>2014-08-31T07:08:30Z</time>
      </trkpt>
      <trkpt lat="43.70041" lon="6.97748">
        <ele>437</ele>
        <time>2014-08-31T07:08:35Z</time>
      </trkpt>
      <trkpt lat="43.7004" lon="6.97739">
        <ele>436</ele>
        <time>2014-08-31T07:08:40Z</time>
      </trkpt>
      <trkpt lat="43.70037" lon="6.9773">
        <ele>437</ele>
        <time>2014-08-31T07:08:46Z</time>
      </trkpt>
      <trkpt lat="43.70035" lon="6.97724">
        <ele>437</ele>
        <time>2014-08-31T07:08:50Z</time>
      </trkpt>
      <trkpt lat="43.70035" lon="6.97712">
        <ele>436</ele>
        <time>2014-08-31T07:08:55Z</time>
      </trkpt>
      <trkpt lat="43.70035" lon="6.97698">
        <ele>437</ele>
        <time>2014-08-31T07:09:00Z</time>
      </trkpt>
      <trkpt lat="43.70034" lon="6.97688">
        <ele>439</ele>
        <time>2014-08-31T07:09:08Z</time>
      </trkpt>
      <trkpt lat="43.70034" lon="6.97688">
        <ele>439</ele>
        <time>2014-08-31T07:09:12Z</time>
      </trkpt>
      <trkpt lat="43.70034" lon="6.97688">
        <ele>439</ele>
        <time>2014-08-31T07:09:15Z</time>
      </trkpt>
      <trkpt lat="43.70032" lon="6.97685">
        <ele>441</ele>
        <time>2014-08-31T07:09:20Z</time>
      </trkpt>
      <trkpt lat="43.7003" lon="6.97676">
        <ele>442</ele>
        <time>2014-08-31T07:09:25Z</time>
      </trkpt>
      <trkpt lat="43.7003" lon="6.97668">
        <ele>442</ele>
        <time>2014-08-31T07:09:30Z</time>
      </trkpt>
      <trkpt lat="43.70029" lon="6.97665">
        <ele>442</ele>
        <time>2014-08-31T07:09:35Z</time>
      </trkpt>
      <trkpt lat="43.70027" lon="6.97661">
        <ele>444</ele>
        <time>2014-08-31T07:09:40Z</time>
      </trkpt>
      <trkpt lat="43.70027" lon="6.97652">
        <ele>445</ele>
        <time>2014-08-31T07:09:46Z</time>
      </trkpt>
      <trkpt lat="43.70029" lon="6.97647">
        <ele>446</ele>
        <time>2014-08-31T07:09:51Z</time>
      </trkpt>
      <trkpt lat="43.7003" lon="6.97642">
        <ele>448</ele>
        <time>2014-08-31T07:09:55Z</time>
      </trkpt>
      <trkpt lat="43.70033" lon="6.97638">
        <ele>448</ele>
        <time>2014-08-31T07:10:00Z</time>
      </trkpt>
      <trkpt lat="43.70036" lon="6.97635">
        <ele>446</ele>
        <time>2014-08-31T07:10:06Z</time>
      </trkpt>
      <trkpt lat="43.70037" lon="6.97633">
        <ele>446</ele>
        <time>2014-08-31T07:10:10Z</time>
      </trkpt>
      <trkpt lat="43.70035" lon="6.97632">
        <ele>447</ele>
        <time>2014-08-31T07:10:16Z</time>
      </trkpt>
      <trkpt lat="43.70036" lon="6.97628">
        <ele>445</ele>
        <time>2014-08-31T07:10:21Z</time>
      </trkpt>
      <trkpt lat="43.70037" lon="6.97625">
        <ele>446</ele>
        <time>2014-08-31T07:10:25Z</time>
      </trkpt>
      <trkpt lat="43.70038" lon="6.97618">
        <ele>449</ele>
        <time>2014-08-31T07:10:33Z</time>
      </trkpt>
      <trkpt lat="43.70039" lon="6.97617">
        <ele>450</ele>
        <time>2014-08-31T07:10:35Z</time>
      </trkpt>
      <trkpt lat="43.7004" lon="6.97612">
        <ele>450</ele>
        <time>2014-08-31T07:10:40Z</time>
      </trkpt>
      <trkpt lat="43.7004" lon="6.97607">
        <ele>451</ele>
        <time>2014-08-31T07:10:45Z</time>
      </trkpt>
      <trkpt lat="43.70041" lon="6.97601">
        <ele>453</ele>
        <time>2014-08-31T07:10:51Z</time>
      </trkpt>
      <trkpt lat="43.70042" lon="6.97596">
        <ele>455</ele>
        <time>2014-08-31T07:10:56Z</time>
      </trkpt>
      <trkpt lat="43.70042" lon="6.97592">
        <ele>455</ele>
        <time>2014-08-31T07:11:00Z</time>
      </trkpt>
      <trkpt lat="43.70043" lon="6.97588">
        <ele>455</ele>
        <time>2014-08-31T07:11:05Z</time>
      </trkpt>
      <trkpt lat="43.70044" lon="6.97583">
        <ele>456</ele>
        <time>2014-08-31T07:11:10Z</time>
      </trkpt>
      <trkpt lat="43.70044" lon="6.97578">
        <ele>457</ele>
        <time>2014-08-31T07:11:15Z</time>
      </trkpt>
      <trkpt lat="43.70046" lon="6.97571">
        <ele>458</ele>
        <time>2014-08-31T07:11:23Z</time>
      </trkpt>
      <trkpt lat="43.70047" lon="6.97568">
        <ele>459</ele>
        <time>2014-08-31T07:11:25Z</time>
      </trkpt>
      <trkpt lat="43.70048" lon="6.97564">
        <ele>459</ele>
        <time>2014-08-31T07:11:30Z</time>
      </trkpt>
      <trkpt lat="43.70049" lon="6.97562">
        <ele>460</ele>
        <time>2014-08-31T07:11:35Z</time>
      </trkpt>
      <trkpt lat="43.7005" lon="6.97556">
        <ele>461</ele>
        <time>2014-08-31T07:11:40Z</time>
      </trkpt>
      <trkpt lat="43.70051" lon="6.9755">
        <ele>463</ele>
        <time>2014-08-31T07:11:45Z</time>
      </trkpt>
      <trkpt lat="43.70054" lon="6.97544">
        <ele>462</ele>
        <time>2014-08-31T07:11:50Z</time>
      </trkpt>
      <trkpt lat="43.70055" lon="6.97539">
        <ele>464</ele>
        <time>2014-08-31T07:11:55Z</time>
      </trkpt>
      <trkpt lat="43.70058" lon="6.97537">
        <ele>464</ele>
        <time>2014-08-31T07:12:03Z</time>
      </trkpt>
      <trkpt lat="43.70059" lon="6.97531">
        <ele>464</ele>
        <time>2014-08-31T07:12:09Z</time>
      </trkpt>
      <trkpt lat="43.70059" lon="6.97528">
        <ele>465</ele>
        <time>2014-08-31T07:12:10Z</time>
      </trkpt>
      <trkpt lat="43.70059" lon="6.97515">
        <ele>468</ele>
        <time>2014-08-31T07:12:15Z</time>
      </trkpt>
      <trkpt lat="43.70058" lon="6.97504">
        <ele>469</ele>
        <time>2014-08-31T07:12:20Z</time>
      </trkpt>
      <trkpt lat="43.7006" lon="6.97493">
        <ele>469</ele>
        <time>2014-08-31T07:12:25Z</time>
      </trkpt>
      <trkpt lat="43.70064" lon="6.97482">
        <ele>471</ele>
        <time>2014-08-31T07:12:32Z</time>
      </trkpt>
      <trkpt lat="43.70065" lon="6.97478">
        <ele>472</ele>
        <time>2014-08-31T07:12:35Z</time>
      </trkpt>
      <trkpt lat="43.70069" lon="6.97475">
        <ele>470</ele>
        <time>2014-08-31T07:12:40Z</time>
      </trkpt>
      <trkpt lat="43.7007" lon="6.97471">
        <ele>472</ele>
        <time>2014-08-31T07:12:45Z</time>
      </trkpt>
      <trkpt lat="43.70069" lon="6.97466">
        <ele>475</ele>
        <time>2014-08-31T07:12:53Z</time>
      </trkpt>
      <trkpt lat="43.7007" lon="6.97464">
        <ele>476</ele>
        <time>2014-08-31T07:12:56Z</time>
      </trkpt>
      <trkpt lat="43.70074" lon="6.97462">
        <ele>478</ele>
        <time>2014-08-31T07:13:02Z</time>
      </trkpt>
      <trkpt lat="43.70076" lon="6.9746">
        <ele>478</ele>
        <time>2014-08-31T07:13:05Z</time>
      </trkpt>
      <trkpt lat="43.7008" lon="6.9746">
        <ele>478</ele>
        <time>2014-08-31T07:13:10Z</time>
      </trkpt>
      <trkpt lat="43.70082" lon="6.97464">
        <ele>479</ele>
        <time>2014-08-31T07:13:15Z</time>
      </trkpt>
      <trkpt lat="43.70085" lon="6.97467">
        <ele>480</ele>
        <time>2014-08-31T07:13:20Z</time>
      </trkpt>
      <trkpt lat="43.70086" lon="6.9747">
        <ele>480</ele>
        <time>2014-08-31T07:13:25Z</time>
      </trkpt>
      <trkpt lat="43.70087" lon="6.97474">
        <ele>482</ele>
        <time>2014-08-31T07:13:30Z</time>
      </trkpt>
      <trkpt lat="43.70089" lon="6.97477">
        <ele>483</ele>
        <time>2014-08-31T07:13:35Z</time>
      </trkpt>
      <trkpt lat="43.70091" lon="6.97479">
        <ele>483</ele>
        <time>2014-08-31T07:13:40Z</time>
      </trkpt>
      <trkpt lat="43.70092" lon="6.97483">
        <ele>485</ele>
        <time>2014-08-31T07:13:45Z</time>
      </trkpt>
      <trkpt lat="43.70093" lon="6.97486">
        <ele>490</ele>
        <time>2014-08-31T07:13:51Z</time>
      </trkpt>
      <trkpt lat="43.70094" lon="6.97488">
        <ele>491</ele>
        <time>2014-08-31T07:13:55Z</time>
      </trkpt>
      <trkpt lat="43.70097" lon="6.9749">
        <ele>490</ele>
        <time>2014-08-31T07:14:00Z</time>
      </trkpt>
      <trkpt lat="43.70099" lon="6.97488">
        <ele>491</ele>
        <time>2014-08-31T07:14:05Z</time>
      </trkpt>
      <trkpt lat="43.701" lon="6.97485">
        <ele>489</ele>
        <time>2014-08-31T07:14:12Z</time>
      </trkpt>
      <trkpt lat="43.70102" lon="6.97482">
        <ele>487</ele>
        <time>2014-08-31T07:14:15Z</time>
      </trkpt>
      <trkpt lat="43.70105" lon="6.97478">
        <ele>488</ele>
        <time>2014-08-31T07:14:20Z</time>
      </trkpt>
      <trkpt lat="43.70109" lon="6.97472">
        <ele>492</ele>
        <time>2014-08-31T07:14:27Z</time>
      </trkpt>
      <trkpt lat="43.7011" lon="6.9747">
        <ele>493</ele>
        <time>2014-08-31T07:14:30Z</time>
      </trkpt>
      <trkpt lat="43.70114" lon="6.97465">
        <ele>493</ele>
        <time>2014-08-31T07:14:38Z</time>
      </trkpt>
      <trkpt lat="43.70116" lon="6.97464">
        <ele>494</ele>
        <time>2014-08-31T07:14:41Z</time>
      </trkpt>
      <trkpt lat="43.70118" lon="6.97461">
        <ele>494</ele>
        <time>2014-08-31T07:14:46Z</time>
      </trkpt>
      <trkpt lat="43.70121" lon="6.97459">
        <ele>493</ele>
        <time>2014-08-31T07:14:50Z</time>
      </trkpt>
      <trkpt lat="43.70122" lon="6.97455">
        <ele>495</ele>
        <time>2014-08-31T07:14:55Z</time>
      </trkpt>
      <trkpt lat="43.70124" lon="6.97451">
        <ele>495</ele>
        <time>2014-08-31T07:15:00Z</time>
      </trkpt>
      <trkpt lat="43.70127" lon="6.97448">
        <ele>496</ele>
        <time>2014-08-31T07:15:06Z</time>
      </trkpt>
      <trkpt lat="43.7013" lon="6.97444">
        <ele>497</ele>
        <time>2014-08-31T07:15:10Z</time>
      </trkpt>
      <trkpt lat="43.70133" lon="6.9744">
        <ele>498</ele>
        <time>2014-08-31T07:15:15Z</time>
      </trkpt>
      <trkpt lat="43.70137" lon="6.97436">
        <ele>499</ele>
        <time>2014-08-31T07:15:21Z</time>
      </trkpt>
      <trkpt lat="43.70138" lon="6.97433">
        <ele>501</ele>
        <time>2014-08-31T07:15:25Z</time>
      </trkpt>
      <trkpt lat="43.7014" lon="6.97429">
        <ele>501</ele>
        <time>2014-08-31T07:15:31Z</time>
      </trkpt>
      <trkpt lat="43.70141" lon="6.97425">
        <ele>499</ele>
        <time>2014-08-31T07:15:36Z</time>
      </trkpt>
      <trkpt lat="43.70139" lon="6.97424">
        <ele>500</ele>
        <time>2014-08-31T07:15:40Z</time>
      </trkpt>
      <trkpt lat="43.70141" lon="6.97418">
        <ele>500</ele>
        <time>2014-08-31T07:15:46Z</time>
      </trkpt>
      <trkpt lat="43.70142" lon="6.97414">
        <ele>502</ele>
        <time>2014-08-31T07:15:50Z</time>
      </trkpt>
      <trkpt lat="43.70143" lon="6.97409">
        <ele>502</ele>
        <time>2014-08-31T07:15:55Z</time>
      </trkpt>
      <trkpt lat="43.70143" lon="6.97404">
        <ele>505</ele>
        <time>2014-08-31T07:16:00Z</time>
      </trkpt>
      <trkpt lat="43.70144" lon="6.97399">
        <ele>504</ele>
        <time>2014-08-31T07:16:06Z</time>
      </trkpt>
      <trkpt lat="43.70145" lon="6.97395">
        <ele>504</ele>
        <time>2014-08-31T07:16:10Z</time>
      </trkpt>
      <trkpt lat="43.70146" lon="6.9739">
        <ele>504</ele>
        <time>2014-08-31T07:16:15Z</time>
      </trkpt>
      <trkpt lat="43.7015" lon="6.97383">
        <ele>506</ele>
        <time>2014-08-31T07:16:23Z</time>
      </trkpt>
      <trkpt lat="43.70152" lon="6.97382">
        <ele>507</ele>
        <time>2014-08-31T07:16:25Z</time>
      </trkpt>
      <trkpt lat="43.70155" lon="6.97376">
        <ele>508</ele>
        <time>2014-08-31T07:16:32Z</time>
      </trkpt>
      <trkpt lat="43.70157" lon="6.97375">
        <ele>508</ele>
        <time>2014-08-31T07:16:35Z</time>
      </trkpt>
      <trkpt lat="43.70159" lon="6.97375">
        <ele>510</ele>
        <time>2014-08-31T07:16:40Z</time>
      </trkpt>
      <trkpt lat="43.7016" lon="6.9737">
        <ele>512</ele>
        <time>2014-08-31T07:16:47Z</time>
      </trkpt>
      <trkpt lat="43.70162" lon="6.97365">
        <ele>513</ele>
        <time>2014-08-31T07:16:50Z</time>
      </trkpt>
      <trkpt lat="43.70164" lon="6.97356">
        <ele>515</ele>
        <time>2014-08-31T07:16:55Z</time>
      </trkpt>
      <trkpt lat="43.70167" lon="6.97349">
        <ele>514</ele>
        <time>2014-08-31T07:17:00Z</time>
      </trkpt>
      <trkpt lat="43.70172" lon="6.97342">
        <ele>517</ele>
        <time>2014-08-31T07:17:05Z</time>
      </trkpt>
      <trkpt lat="43.70175" lon="6.97334">
        <ele>521</ele>
        <time>2014-08-31T07:17:10Z</time>
      </trkpt>
      <trkpt lat="43.70181" lon="6.97325">
        <ele>526</ele>
        <time>2014-08-31T07:17:18Z</time>
      </trkpt>
      <trkpt lat="43.70183" lon="6.97322">
        <ele>526</ele>
        <time>2014-08-31T07:17:20Z</time>
      </trkpt>
      <trkpt lat="43.70187" lon="6.97312">
        <ele>528</ele>
        <time>2014-08-31T07:17:26Z</time>
      </trkpt>
      <trkpt lat="43.70191" lon="6.97305">
        <ele>529</ele>
        <time>2014-08-31T07:17:30Z</time>
      </trkpt>
      <trkpt lat="43.70195" lon="6.97297">
        <ele>527</ele>
        <time>2014-08-31T07:17:35Z</time>
      </trkpt>
      <trkpt lat="43.70201" lon="6.97285">
        <ele>526</ele>
        <time>2014-08-31T07:17:43Z</time>
      </trkpt>
      <trkpt lat="43.70201" lon="6.97282">
        <ele>526</ele>
        <time>2014-08-31T07:17:45Z</time>
      </trkpt>
      <trkpt lat="43.70204" lon="6.97275">
        <ele>528</ele>
        <time>2014-08-31T07:17:50Z</time>
      </trkpt>
      <trkpt lat="43.70207" lon="6.97269">
        <ele>528</ele>
        <time>2014-08-31T07:17:56Z</time>
      </trkpt>
      <trkpt lat="43.70209" lon="6.97264">
        <ele>528</ele>
        <time>2014-08-31T07:18:00Z</time>
      </trkpt>
      <trkpt lat="43.7021" lon="6.97257">
        <ele>530</ele>
        <time>2014-08-31T07:18:05Z</time>
      </trkpt>
      <trkpt lat="43.70212" lon="6.97248">
        <ele>531</ele>
        <time>2014-08-31T07:18:11Z</time>
      </trkpt>
      <trkpt lat="43.70213" lon="6.97242">
        <ele>531</ele>
        <time>2014-08-31T07:18:15Z</time>
      </trkpt>
      <trkpt lat="43.70213" lon="6.97234">
        <ele>534</ele>
        <time>2014-08-31T07:18:20Z</time>
      </trkpt>
      <trkpt lat="43.70213" lon="6.97224">
        <ele>536</ele>
        <time>2014-08-31T07:18:25Z</time>
      </trkpt>
      <trkpt lat="43.70214" lon="6.97213">
        <ele>537</ele>
        <time>2014-08-31T07:18:30Z</time>
      </trkpt>
      <trkpt lat="43.70214" lon="6.97191">
        <ele>536</ele>
        <time>2014-08-31T07:18:39Z</time>
      </trkpt>
      <trkpt lat="43.70214" lon="6.97188">
        <ele>537</ele>
        <time>2014-08-31T07:18:40Z</time>
      </trkpt>
      <trkpt lat="43.70213" lon="6.97176">
        <ele>539</ele>
        <time>2014-08-31T07:18:45Z</time>
      </trkpt>
      <trkpt lat="43.70219" lon="6.97178">
        <ele>540</ele>
        <time>2014-08-31T07:18:50Z</time>
      </trkpt>
      <trkpt lat="43.7022" lon="6.97187">
        <ele>542</ele>
        <time>2014-08-31T07:18:55Z</time>
      </trkpt>
      <trkpt lat="43.70221" lon="6.97196">
        <ele>543</ele>
        <time>2014-08-31T07:19:00Z</time>
      </trkpt>
      <trkpt lat="43.70222" lon="6.97205">
        <ele>546</ele>
        <time>2014-08-31T07:19:05Z</time>
      </trkpt>
      <trkpt lat="43.70225" lon="6.97213">
        <ele>547</ele>
        <time>2014-08-31T07:19:10Z</time>
      </trkpt>
      <trkpt lat="43.70226" lon="6.97222">
        <ele>548</ele>
        <time>2014-08-31T07:19:15Z</time>
      </trkpt>
      <trkpt lat="43.70227" lon="6.97231">
        <ele>548</ele>
        <time>2014-08-31T07:19:20Z</time>
      </trkpt>
      <trkpt lat="43.70227" lon="6.9724">
        <ele>546</ele>
        <time>2014-08-31T07:19:25Z</time>
      </trkpt>
      <trkpt lat="43.70228" lon="6.97249">
        <ele>548</ele>
        <time>2014-08-31T07:19:30Z</time>
      </trkpt>
      <trkpt lat="43.70229" lon="6.97257">
        <ele>550</ele>
        <time>2014-08-31T07:19:35Z</time>
      </trkpt>
      <trkpt lat="43.70229" lon="6.97267">
        <ele>552</ele>
        <time>2014-08-31T07:19:42Z</time>
      </trkpt>
      <trkpt lat="43.70228" lon="6.97273">
        <ele>553</ele>
        <time>2014-08-31T07:19:45Z</time>
      </trkpt>
      <trkpt lat="43.70228" lon="6.97281">
        <ele>553</ele>
        <time>2014-08-31T07:19:50Z</time>
      </trkpt>
      <trkpt lat="43.70227" lon="6.9729">
        <ele>551</ele>
        <time>2014-08-31T07:19:55Z</time>
      </trkpt>
      <trkpt lat="43.70233" lon="6.9729">
        <ele>550</ele>
        <time>2014-08-31T07:20:00Z</time>
      </trkpt>
      <trkpt lat="43.70233" lon="6.97279">
        <ele>549</ele>
        <time>2014-08-31T07:20:05Z</time>
      </trkpt>
      <trkpt lat="43.70235" lon="6.97269">
        <ele>548</ele>
        <time>2014-08-31T07:20:10Z</time>
      </trkpt>
      <trkpt lat="43.70237" lon="6.9726">
        <ele>551</ele>
        <time>2014-08-31T07:20:15Z</time>
      </trkpt>
      <trkpt lat="43.70238" lon="6.9725">
        <ele>551</ele>
        <time>2014-08-31T07:20:21Z</time>
      </trkpt>
      <trkpt lat="43.70239" lon="6.97244">
        <ele>552</ele>
        <time>2014-08-31T07:20:25Z</time>
      </trkpt>
      <trkpt lat="43.70241" lon="6.97235">
        <ele>554</ele>
        <time>2014-08-31T07:20:30Z</time>
      </trkpt>
      <trkpt lat="43.70242" lon="6.97227">
        <ele>553</ele>
        <time>2014-08-31T07:20:35Z</time>
      </trkpt>
      <trkpt lat="43.70243" lon="6.97218">
        <ele>555</ele>
        <time>2014-08-31T07:20:40Z</time>
      </trkpt>
      <trkpt lat="43.70244" lon="6.97209">
        <ele>557</ele>
        <time>2014-08-31T07:20:45Z</time>
      </trkpt>
      <trkpt lat="43.70245" lon="6.97201">
        <ele>559</ele>
        <time>2014-08-31T07:20:50Z</time>
      </trkpt>
      <trkpt lat="43.70247" lon="6.97193">
        <ele>560</ele>
        <time>2014-08-31T07:20:55Z</time>
      </trkpt>
      <trkpt lat="43.70249" lon="6.97185">
        <ele>563</ele>
        <time>2014-08-31T07:21:00Z</time>
      </trkpt>
      <trkpt lat="43.70248" lon="6.97176">
        <ele>568</ele>
        <time>2014-08-31T07:21:05Z</time>
      </trkpt>
      <trkpt lat="43.70248" lon="6.97166">
        <ele>569</ele>
        <time>2014-08-31T07:21:10Z</time>
      </trkpt>
      <trkpt lat="43.70249" lon="6.97159">
        <ele>569</ele>
        <time>2014-08-31T07:21:15Z</time>
      </trkpt>
      <trkpt lat="43.70253" lon="6.97163">
        <ele>569</ele>
        <time>2014-08-31T07:21:20Z</time>
      </trkpt>
      <trkpt lat="43.70253" lon="6.97173">
        <ele>570</ele>
        <time>2014-08-31T07:21:25Z</time>
      </trkpt>
      <trkpt lat="43.70255" lon="6.97182">
        <ele>573</ele>
        <time>2014-08-31T07:21:30Z</time>
      </trkpt>
      <trkpt lat="43.70257" lon="6.97191">
        <ele>575</ele>
        <time>2014-08-31T07:21:35Z</time>
      </trkpt>
      <trkpt lat="43.70257" lon="6.972">
        <ele>579</ele>
        <time>2014-08-31T07:21:40Z</time>
      </trkpt>
      <trkpt lat="43.7026" lon="6.97208">
        <ele>581</ele>
        <time>2014-08-31T07:21:45Z</time>
      </trkpt>
      <trkpt lat="43.70261" lon="6.97219">
        <ele>583</ele>
        <time>2014-08-31T07:21:51Z</time>
      </trkpt>
      <trkpt lat="43.7026" lon="6.97226">
        <ele>585</ele>
        <time>2014-08-31T07:21:55Z</time>
      </trkpt>
      <trkpt lat="43.70261" lon="6.97236">
        <ele>582</ele>
        <time>2014-08-31T07:22:00Z</time>
      </trkpt>
      <trkpt lat="43.70262" lon="6.97248">
        <ele>582</ele>
        <time>2014-08-31T07:22:06Z</time>
      </trkpt>
      <trkpt lat="43.70262" lon="6.97256">
        <ele>582</ele>
        <time>2014-08-31T07:22:10Z</time>
      </trkpt>
      <trkpt lat="43.70266" lon="6.97259">
        <ele>583</ele>
        <time>2014-08-31T07:22:15Z</time>
      </trkpt>
      <trkpt lat="43.70268" lon="6.97248">
        <ele>581</ele>
        <time>2014-08-31T07:22:20Z</time>
      </trkpt>
      <trkpt lat="43.7027" lon="6.97237">
        <ele>581</ele>
        <time>2014-08-31T07:22:25Z</time>
      </trkpt>
      <trkpt lat="43.70271" lon="6.97225">
        <ele>581</ele>
        <time>2014-08-31T07:22:30Z</time>
      </trkpt>
      <trkpt lat="43.70273" lon="6.97213">
        <ele>581</ele>
        <time>2014-08-31T07:22:35Z</time>
      </trkpt>
      <trkpt lat="43.70274" lon="6.97201">
        <ele>580</ele>
        <time>2014-08-31T07:22:40Z</time>
      </trkpt>
      <trkpt lat="43.70273" lon="6.97188">
        <ele>582</ele>
        <time>2014-08-31T07:22:45Z</time>
      </trkpt>
      <trkpt lat="43.70272" lon="6.97177">
        <ele>581</ele>
        <time>2014-08-31T07:22:50Z</time>
      </trkpt>
      <trkpt lat="43.70275" lon="6.97164">
        <ele>581</ele>
        <time>2014-08-31T07:22:55Z</time>
      </trkpt>
      <trkpt lat="43.70276" lon="6.97151">
        <ele>582</ele>
        <time>2014-08-31T07:23:00Z</time>
      </trkpt>
      <trkpt lat="43.70276" lon="6.97137">
        <ele>582</ele>
        <time>2014-08-31T07:23:05Z</time>
      </trkpt>
      <trkpt lat="43.70275" lon="6.97125">
        <ele>581</ele>
        <time>2014-08-31T07:23:10Z</time>
      </trkpt>
      <trkpt lat="43.70275" lon="6.97114">
        <ele>582</ele>
        <time>2014-08-31T07:23:15Z</time>
      </trkpt>
      <trkpt lat="43.70275" lon="6.97104">
        <ele>584</ele>
        <time>2014-08-31T07:23:20Z</time>
      </trkpt>
      <trkpt lat="43.70275" lon="6.97097">
        <ele>587</ele>
        <time>2014-08-31T07:23:25Z</time>
      </trkpt>
      <trkpt lat="43.70275" lon="6.9709">
        <ele>588</ele>
        <time>2014-08-31T07:23:30Z</time>
      </trkpt>
      <trkpt lat="43.70276" lon="6.97081">
        <ele>591</ele>
        <time>2014-08-31T07:23:36Z</time>
      </trkpt>
      <trkpt lat="43.70273" lon="6.97067">
        <ele>591</ele>
        <time>2014-08-31T07:23:44Z</time>
      </trkpt>
      <trkpt lat="43.70273" lon="6.97065">
        <ele>590</ele>
        <time>2014-08-31T07:23:45Z</time>
      </trkpt>
      <trkpt lat="43.70272" lon="6.97054">
        <ele>591</ele>
        <time>2014-08-31T07:23:50Z</time>
      </trkpt>
      <trkpt lat="43.7027" lon="6.9704">
        <ele>591</ele>
        <time>2014-08-31T07:23:57Z</time>
      </trkpt>
      <trkpt lat="43.7027" lon="6.97034">
        <ele>590</ele>
        <time>2014-08-31T07:24:00Z</time>
      </trkpt>
      <trkpt lat="43.70269" lon="6.97019">
        <ele>591</ele>
        <time>2014-08-31T07:24:07Z</time>
      </trkpt>
      <trkpt lat="43.70269" lon="6.97013">
        <ele>592</ele>
        <time>2014-08-31T07:24:10Z</time>
      </trkpt>
      <trkpt lat="43.70269" lon="6.97001">
        <ele>591</ele>
        <time>2014-08-31T07:24:16Z</time>
      </trkpt>
      <trkpt lat="43.70269" lon="6.96993">
        <ele>591</ele>
        <time>2014-08-31T07:24:20Z</time>
      </trkpt>
      <trkpt lat="43.70269" lon="6.96981">
        <ele>594</ele>
        <time>2014-08-31T07:24:25Z</time>
      </trkpt>
      <trkpt lat="43.70269" lon="6.9697">
        <ele>595</ele>
        <time>2014-08-31T07:24:30Z</time>
      </trkpt>
      <trkpt lat="43.7027" lon="6.96958">
        <ele>595</ele>
        <time>2014-08-31T07:24:35Z</time>
      </trkpt>
      <trkpt lat="43.7027" lon="6.96942">
        <ele>598</ele>
        <time>2014-08-31T07:24:42Z</time>
      </trkpt>
      <trkpt lat="43.70271" lon="6.96935">
        <ele>598</ele>
        <time>2014-08-31T07:24:45Z</time>
      </trkpt>
      <trkpt lat="43.70271" lon="6.96924">
        <ele>599</ele>
        <time>2014-08-31T07:24:50Z</time>
      </trkpt>
      <trkpt lat="43.70272" lon="6.96912">
        <ele>600</ele>
        <time>2014-08-31T07:24:55Z</time>
      </trkpt>
      <trkpt lat="43.70272" lon="6.96901">
        <ele>601</ele>
        <time>2014-08-31T07:25:00Z</time>
      </trkpt>
      <trkpt lat="43.7027" lon="6.96891">
        <ele>603</ele>
        <time>2014-08-31T07:25:05Z</time>
      </trkpt>
      <trkpt lat="43.70269" lon="6.96879">
        <ele>599</ele>
        <time>2014-08-31T07:25:11Z</time>
      </trkpt>
      <trkpt lat="43.70268" lon="6.96872">
        <ele>599</ele>
        <time>2014-08-31T07:25:15Z</time>
      </trkpt>
      <trkpt lat="43.70268" lon="6.9686">
        <ele>600</ele>
        <time>2014-08-31T07:25:20Z</time>
      </trkpt>
      <trkpt lat="43.70268" lon="6.96848">
        <ele>598</ele>
        <time>2014-08-31T07:25:25Z</time>
      </trkpt>
      <trkpt lat="43.70268" lon="6.96828">
        <ele>601</ele>
        <time>2014-08-31T07:25:34Z</time>
      </trkpt>
      <trkpt lat="43.70268" lon="6.96826">
        <ele>601</ele>
        <time>2014-08-31T07:25:35Z</time>
      </trkpt>
      <trkpt lat="43.7027" lon="6.96816">
        <ele>602</ele>
        <time>2014-08-31T07:25:40Z</time>
      </trkpt>
      <trkpt lat="43.70275" lon="6.96807">
        <ele>602</ele>
        <time>2014-08-31T07:25:45Z</time>
      </trkpt>
      <trkpt lat="43.70274" lon="6.96796">
        <ele>603</ele>
        <time>2014-08-31T07:25:50Z</time>
      </trkpt>
      <trkpt lat="43.70273" lon="6.96785">
        <ele>605</ele>
        <time>2014-08-31T07:25:55Z</time>
      </trkpt>
      <trkpt lat="43.70273" lon="6.96774">
        <ele>606</ele>
        <time>2014-08-31T07:26:00Z</time>
      </trkpt>
      <trkpt lat="43.70276" lon="6.96758">
        <ele>608</ele>
        <time>2014-08-31T07:26:08Z</time>
      </trkpt>
      <trkpt lat="43.70277" lon="6.96753">
        <ele>608</ele>
        <time>2014-08-31T07:26:10Z</time>
      </trkpt>
      <trkpt lat="43.70281" lon="6.96743">
        <ele>607</ele>
        <time>2014-08-31T07:26:15Z</time>
      </trkpt>
      <trkpt lat="43.70283" lon="6.9673">
        <ele>609</ele>
        <time>2014-08-31T07:26:20Z</time>
      </trkpt>
      <trkpt lat="43.70279" lon="6.96712">
        <ele>610</ele>
        <time>2014-08-31T07:26:25Z</time>
      </trkpt>
      <trkpt lat="43.70269" lon="6.96687">
        <ele>610</ele>
        <time>2014-08-31T07:26:30Z</time>
      </trkpt>
      <trkpt lat="43.70262" lon="6.96664">
        <ele>611</ele>
        <time>2014-08-31T07:26:35Z</time>
      </trkpt>
      <trkpt lat="43.70258" lon="6.96642">
        <ele>612</ele>
        <time>2014-08-31T07:26:40Z</time>
      </trkpt>
      <trkpt lat="43.70256" lon="6.96604">
        <ele>613</ele>
        <time>2014-08-31T07:26:47Z</time>
      </trkpt>
      <trkpt lat="43.70254" lon="6.96593">
        <ele>612</ele>
        <time>2014-08-31T07:26:50Z</time>
      </trkpt>
      <trkpt lat="43.70253" lon="6.96576">
        <ele>612</ele>
        <time>2014-08-31T07:26:55Z</time>
      </trkpt>
      <trkpt lat="43.70247" lon="6.96556">
        <ele>610</ele>
        <time>2014-08-31T07:27:01Z</time>
      </trkpt>
      <trkpt lat="43.70245" lon="6.96547">
        <ele>610</ele>
        <time>2014-08-31T07:27:05Z</time>
      </trkpt>
      <trkpt lat="43.70245" lon="6.96549">
        <ele>610</ele>
        <time>2014-08-31T07:27:10Z</time>
      </trkpt>
      <trkpt lat="43.70246" lon="6.96549">
        <ele>610</ele>
        <time>2014-08-31T07:27:15Z</time>
      </trkpt>
      <trkpt lat="43.70247" lon="6.96549">
        <ele>610</ele>
        <time>2014-08-31T07:27:20Z</time>
      </trkpt>
      <trkpt lat="43.70247" lon="6.96549">
        <ele>610</ele>
        <time>2014-08-31T07:27:25Z</time>
      </trkpt>
      <trkpt lat="43.70247" lon="6.96549">
        <ele>610</ele>
        <time>2014-08-31T07:27:30Z</time>
      </trkpt>
      <trkpt lat="43.70247" lon="6.96549">
        <ele>610</ele>
        <time>2014-08-31T07:27:35Z</time>
      </trkpt>
      <trkpt lat="43.70247" lon="6.96549">
        <ele>610</ele>
        <time>2014-08-31T07:27:40Z</time>
      </trkpt>
      <trkpt lat="43.70247" lon="6.96549">
        <ele>610</ele>
        <time>2014-08-31T07:27:45Z</time>
      </trkpt>
      <trkpt lat="43.70247" lon="6.96549">
        <ele>610</ele>
        <time>2014-08-31T07:27:50Z</time>
      </trkpt>
      <trkpt lat="43.70247" lon="6.96549">
        <ele>610</ele>
        <time>2014-08-31T07:27:55Z</time>
      </trkpt>
      <trkpt lat="43.70247" lon="6.96549">
        <ele>610</ele>
        <time>2014-08-31T07:28:00Z</time>
      </trkpt>
      <trkpt lat="43.70247" lon="6.96549">
        <ele>610</ele>
        <time>2014-08-31T07:28:05Z</time>
      </trkpt>
      <trkpt lat="43.70246" lon="6.96547">
        <ele>610</ele>
        <time>2014-08-31T07:28:10Z</time>
      </trkpt>
      <trkpt lat="43.70245" lon="6.96532">
        <ele>609</ele>
        <time>2014-08-31T07:28:15Z</time>
      </trkpt>
      <trkpt lat="43.70238" lon="6.96504">
        <ele>607</ele>
        <time>2014-08-31T07:28:20Z</time>
      </trkpt>
      <trkpt lat="43.70231" lon="6.96466">
        <ele>606</ele>
        <time>2014-08-31T07:28:26Z</time>
      </trkpt>
      <trkpt lat="43.70228" lon="6.96449">
        <ele>607</ele>
        <time>2014-08-31T07:28:30Z</time>
      </trkpt>
      <trkpt lat="43.70223" lon="6.96429">
        <ele>608</ele>
        <time>2014-08-31T07:28:35Z</time>
      </trkpt>
      <trkpt lat="43.70218" lon="6.96404">
        <ele>609</ele>
        <time>2014-08-31T07:28:41Z</time>
      </trkpt>
      <trkpt lat="43.70209" lon="6.96383">
        <ele>609</ele>
        <time>2014-08-31T07:28:47Z</time>
      </trkpt>
      <trkpt lat="43.70204" lon="6.9637">
        <ele>610</ele>
        <time>2014-08-31T07:28:51Z</time>
      </trkpt>
      <trkpt lat="43.70199" lon="6.96357">
        <ele>611</ele>
        <time>2014-08-31T07:28:55Z</time>
      </trkpt>
      <trkpt lat="43.70197" lon="6.96342">
        <ele>613</ele>
        <time>2014-08-31T07:29:00Z</time>
      </trkpt>
      <trkpt lat="43.70196" lon="6.96331">
        <ele>616</ele>
        <time>2014-08-31T07:29:05Z</time>
      </trkpt>
      <trkpt lat="43.70189" lon="6.9632">
        <ele>618</ele>
        <time>2014-08-31T07:29:10Z</time>
      </trkpt>
      <trkpt lat="43.70182" lon="6.96309">
        <ele>618</ele>
        <time>2014-08-31T07:29:15Z</time>
      </trkpt>
      <trkpt lat="43.70177" lon="6.96298">
        <ele>619</ele>
        <time>2014-08-31T07:29:20Z</time>
      </trkpt>
      <trkpt lat="43.70171" lon="6.96287">
        <ele>619</ele>
        <time>2014-08-31T07:29:25Z</time>
      </trkpt>
      <trkpt lat="43.70166" lon="6.96275">
        <ele>619</ele>
        <time>2014-08-31T07:29:30Z</time>
      </trkpt>
      <trkpt lat="43.7016" lon="6.96264">
        <ele>620</ele>
        <time>2014-08-31T07:29:35Z</time>
      </trkpt>
      <trkpt lat="43.70155" lon="6.96254">
        <ele>623</ele>
        <time>2014-08-31T07:29:40Z</time>
      </trkpt>
      <trkpt lat="43.7015" lon="6.96244">
        <ele>623</ele>
        <time>2014-08-31T07:29:45Z</time>
      </trkpt>
      <trkpt lat="43.70145" lon="6.96236">
        <ele>627</ele>
        <time>2014-08-31T07:29:50Z</time>
      </trkpt>
      <trkpt lat="43.7014" lon="6.96228">
        <ele>628</ele>
        <time>2014-08-31T07:29:55Z</time>
      </trkpt>
      <trkpt lat="43.70134" lon="6.9622">
        <ele>628</ele>
        <time>2014-08-31T07:30:00Z</time>
      </trkpt>
      <trkpt lat="43.70126" lon="6.96213">
        <ele>628</ele>
        <time>2014-08-31T07:30:05Z</time>
      </trkpt>
      <trkpt lat="43.70116" lon="6.96194">
        <ele>629</ele>
        <time>2014-08-31T07:30:14Z</time>
      </trkpt>
      <trkpt lat="43.70115" lon="6.96193">
        <ele>629</ele>
        <time>2014-08-31T07:30:15Z</time>
      </trkpt>
      <trkpt lat="43.70106" lon="6.96185">
        <ele>628</ele>
        <time>2014-08-31T07:30:20Z</time>
      </trkpt>
      <trkpt lat="43.70096" lon="6.96177">
        <ele>630</ele>
        <time>2014-08-31T07:30:25Z</time>
      </trkpt>
      <trkpt lat="43.70087" lon="6.96169">
        <ele>630</ele>
        <time>2014-08-31T07:30:30Z</time>
      </trkpt>
      <trkpt lat="43.70081" lon="6.96161">
        <ele>631</ele>
        <time>2014-08-31T07:30:35Z</time>
      </trkpt>
      <trkpt lat="43.70075" lon="6.96153">
        <ele>633</ele>
        <time>2014-08-31T07:30:40Z</time>
      </trkpt>
      <trkpt lat="43.7007" lon="6.96146">
        <ele>636</ele>
        <time>2014-08-31T07:30:45Z</time>
      </trkpt>
      <trkpt lat="43.70061" lon="6.96135">
        <ele>633</ele>
        <time>2014-08-31T07:30:52Z</time>
      </trkpt>
      <trkpt lat="43.70058" lon="6.96129">
        <ele>634</ele>
        <time>2014-08-31T07:30:56Z</time>
      </trkpt>
      <trkpt lat="43.7006" lon="6.96125">
        <ele>633</ele>
        <time>2014-08-31T07:31:00Z</time>
      </trkpt>
      <trkpt lat="43.70068" lon="6.96132">
        <ele>634</ele>
        <time>2014-08-31T07:31:05Z</time>
      </trkpt>
      <trkpt lat="43.70079" lon="6.96139">
        <ele>634</ele>
        <time>2014-08-31T07:31:10Z</time>
      </trkpt>
      <trkpt lat="43.7009" lon="6.96147">
        <ele>635</ele>
        <time>2014-08-31T07:31:15Z</time>
      </trkpt>
      <trkpt lat="43.70101" lon="6.96152">
        <ele>635</ele>
        <time>2014-08-31T07:31:20Z</time>
      </trkpt>
      <trkpt lat="43.7012" lon="6.96166">
        <ele>636</ele>
        <time>2014-08-31T07:31:28Z</time>
      </trkpt>
      <trkpt lat="43.70126" lon="6.9617">
        <ele>638</ele>
        <time>2014-08-31T07:31:30Z</time>
      </trkpt>
      <trkpt lat="43.70148" lon="6.96183">
        <ele>637</ele>
        <time>2014-08-31T07:31:38Z</time>
      </trkpt>
      <trkpt lat="43.70154" lon="6.96187">
        <ele>637</ele>
        <time>2014-08-31T07:31:40Z</time>
      </trkpt>
      <trkpt lat="43.70167" lon="6.96197">
        <ele>636</ele>
        <time>2014-08-31T07:31:45Z</time>
      </trkpt>
      <trkpt lat="43.70179" lon="6.96207">
        <ele>636</ele>
        <time>2014-08-31T07:31:50Z</time>
      </trkpt>
      <trkpt lat="43.7019" lon="6.96218">
        <ele>637</ele>
        <time>2014-08-31T07:31:55Z</time>
      </trkpt>
      <trkpt lat="43.70201" lon="6.9623">
        <ele>637</ele>
        <time>2014-08-31T07:32:00Z</time>
      </trkpt>
      <trkpt lat="43.70213" lon="6.96253">
        <ele>638</ele>
        <time>2014-08-31T07:32:07Z</time>
      </trkpt>
      <trkpt lat="43.70218" lon="6.96263">
        <ele>639</ele>
        <time>2014-08-31T07:32:09Z</time>
      </trkpt>
      <trkpt lat="43.70226" lon="6.9628">
        <ele>639</ele>
        <time>2014-08-31T07:32:15Z</time>
      </trkpt>
      <trkpt lat="43.70234" lon="6.96296">
        <ele>638</ele>
        <time>2014-08-31T07:32:20Z</time>
      </trkpt>
      <trkpt lat="43.70247" lon="6.96322">
        <ele>641</ele>
        <time>2014-08-31T07:32:28Z</time>
      </trkpt>
      <trkpt lat="43.70251" lon="6.96332">
        <ele>643</ele>
        <time>2014-08-31T07:32:31Z</time>
      </trkpt>
      <trkpt lat="43.70258" lon="6.96348">
        <ele>643</ele>
        <time>2014-08-31T07:32:36Z</time>
      </trkpt>
      <trkpt lat="43.70264" lon="6.96362">
        <ele>645</ele>
        <time>2014-08-31T07:32:40Z</time>
      </trkpt>
      <trkpt lat="43.70272" lon="6.96377">
        <ele>643</ele>
        <time>2014-08-31T07:32:45Z</time>
      </trkpt>
      <trkpt lat="43.70279" lon="6.96394">
        <ele>646</ele>
        <time>2014-08-31T07:32:49Z</time>
      </trkpt>
      <trkpt lat="43.70285" lon="6.96413">
        <ele>644</ele>
        <time>2014-08-31T07:32:55Z</time>
      </trkpt>
      <trkpt lat="43.7029" lon="6.96432">
        <ele>644</ele>
        <time>2014-08-31T07:33:00Z</time>
      </trkpt>
      <trkpt lat="43.70293" lon="6.9645">
        <ele>645</ele>
        <time>2014-08-31T07:33:05Z</time>
      </trkpt>
      <trkpt lat="43.70297" lon="6.96471">
        <ele>645</ele>
        <time>2014-08-31T07:33:10Z</time>
      </trkpt>
      <trkpt lat="43.70299" lon="6.96491">
        <ele>644</ele>
        <time>2014-08-31T07:33:15Z</time>
      </trkpt>
      <trkpt lat="43.70302" lon="6.96511">
        <ele>647</ele>
        <time>2014-08-31T07:33:20Z</time>
      </trkpt>
      <trkpt lat="43.70306" lon="6.9653">
        <ele>647</ele>
        <time>2014-08-31T07:33:25Z</time>
      </trkpt>
      <trkpt lat="43.70311" lon="6.96558">
        <ele>646</ele>
        <time>2014-08-31T07:33:32Z</time>
      </trkpt>
      <trkpt lat="43.70313" lon="6.9657">
        <ele>646</ele>
        <time>2014-08-31T07:33:35Z</time>
      </trkpt>
      <trkpt lat="43.70317" lon="6.9659">
        <ele>647</ele>
        <time>2014-08-31T07:33:40Z</time>
      </trkpt>
      <trkpt lat="43.7032" lon="6.9661">
        <ele>651</ele>
        <time>2014-08-31T07:33:45Z</time>
      </trkpt>
      <trkpt lat="43.70323" lon="6.9663">
        <ele>649</ele>
        <time>2014-08-31T07:33:50Z</time>
      </trkpt>
      <trkpt lat="43.70328" lon="6.96662">
        <ele>652</ele>
        <time>2014-08-31T07:33:58Z</time>
      </trkpt>
      <trkpt lat="43.7033" lon="6.9667">
        <ele>653</ele>
        <time>2014-08-31T07:34:00Z</time>
      </trkpt>
      <trkpt lat="43.70334" lon="6.9669">
        <ele>652</ele>
        <time>2014-08-31T07:34:04Z</time>
      </trkpt>
      <trkpt lat="43.70337" lon="6.96711">
        <ele>653</ele>
        <time>2014-08-31T07:34:10Z</time>
      </trkpt>
      <trkpt lat="43.70342" lon="6.96741">
        <ele>652</ele>
        <time>2014-08-31T07:34:16Z</time>
      </trkpt>
      <trkpt lat="43.70344" lon="6.96753">
        <ele>653</ele>
        <time>2014-08-31T07:34:19Z</time>
      </trkpt>
      <trkpt lat="43.70344" lon="6.96772">
        <ele>653</ele>
        <time>2014-08-31T07:34:25Z</time>
      </trkpt>
      <trkpt lat="43.70345" lon="6.96792">
        <ele>654</ele>
        <time>2014-08-31T07:34:30Z</time>
      </trkpt>
      <trkpt lat="43.70346" lon="6.96817">
        <ele>656</ele>
        <time>2014-08-31T07:34:36Z</time>
      </trkpt>
      <trkpt lat="43.70348" lon="6.96838">
        <ele>657</ele>
        <time>2014-08-31T07:34:40Z</time>
      </trkpt>
      <trkpt lat="43.7035" lon="6.96854">
        <ele>658</ele>
        <time>2014-08-31T07:34:44Z</time>
      </trkpt>
      <trkpt lat="43.70353" lon="6.96875">
        <ele>660</ele>
        <time>2014-08-31T07:34:49Z</time>
      </trkpt>
      <trkpt lat="43.70359" lon="6.96909">
        <ele>657</ele>
        <time>2014-08-31T07:34:58Z</time>
      </trkpt>
      <trkpt lat="43.7036" lon="6.96917">
        <ele>656</ele>
        <time>2014-08-31T07:35:00Z</time>
      </trkpt>
      <trkpt lat="43.70363" lon="6.96937">
        <ele>655</ele>
        <time>2014-08-31T07:35:05Z</time>
      </trkpt>
      <trkpt lat="43.70364" lon="6.96955">
        <ele>658</ele>
        <time>2014-08-31T07:35:10Z</time>
      </trkpt>
      <trkpt lat="43.70368" lon="6.96981">
        <ele>656</ele>
        <time>2014-08-31T07:35:16Z</time>
      </trkpt>
      <trkpt lat="43.70369" lon="6.96992">
        <ele>655</ele>
        <time>2014-08-31T07:35:20Z</time>
      </trkpt>
      <trkpt lat="43.70374" lon="6.97011">
        <ele>654</ele>
        <time>2014-08-31T07:35:25Z</time>
      </trkpt>
      <trkpt lat="43.70389" lon="6.97043">
        <ele>654</ele>
        <time>2014-08-31T07:35:33Z</time>
      </trkpt>
      <trkpt lat="43.70391" lon="6.97047">
        <ele>654</ele>
        <time>2014-08-31T07:35:35Z</time>
      </trkpt>
      <trkpt lat="43.70403" lon="6.97061">
        <ele>655</ele>
        <time>2014-08-31T07:35:40Z</time>
      </trkpt>
      <trkpt lat="43.70416" lon="6.97074">
        <ele>656</ele>
        <time>2014-08-31T07:35:45Z</time>
      </trkpt>
      <trkpt lat="43.70428" lon="6.97087">
        <ele>656</ele>
        <time>2014-08-31T07:35:50Z</time>
      </trkpt>
      <trkpt lat="43.70441" lon="6.971">
        <ele>655</ele>
        <time>2014-08-31T07:35:54Z</time>
      </trkpt>
      <trkpt lat="43.70453" lon="6.97113">
        <ele>661</ele>
        <time>2014-08-31T07:36:00Z</time>
      </trkpt>
      <trkpt lat="43.70463" lon="6.97126">
        <ele>661</ele>
        <time>2014-08-31T07:36:04Z</time>
      </trkpt>
      <trkpt lat="43.70482" lon="6.97142">
        <ele>661</ele>
        <time>2014-08-31T07:36:12Z</time>
      </trkpt>
      <trkpt lat="43.70497" lon="6.9715">
        <ele>663</ele>
        <time>2014-08-31T07:36:17Z</time>
      </trkpt>
      <trkpt lat="43.7051" lon="6.97157">
        <ele>664</ele>
        <time>2014-08-31T07:36:21Z</time>
      </trkpt>
      <trkpt lat="43.7053" lon="6.97164">
        <ele>664</ele>
        <time>2014-08-31T07:36:27Z</time>
      </trkpt>
      <trkpt lat="43.7054" lon="6.97166">
        <ele>665</ele>
        <time>2014-08-31T07:36:29Z</time>
      </trkpt>
      <trkpt lat="43.70557" lon="6.97168">
        <ele>664</ele>
        <time>2014-08-31T07:36:34Z</time>
      </trkpt>
      <trkpt lat="43.70572" lon="6.97168">
        <ele>666</ele>
        <time>2014-08-31T07:36:39Z</time>
      </trkpt>
      <trkpt lat="43.70588" lon="6.97169">
        <ele>665</ele>
        <time>2014-08-31T07:36:44Z</time>
      </trkpt>
      <trkpt lat="43.70602" lon="6.97168">
        <ele>663</ele>
        <time>2014-08-31T07:36:49Z</time>
      </trkpt>
      <trkpt lat="43.7062" lon="6.97169">
        <ele>660</ele>
        <time>2014-08-31T07:36:56Z</time>
      </trkpt>
      <trkpt lat="43.70642" lon="6.97174">
        <ele>658</ele>
        <time>2014-08-31T07:37:03Z</time>
      </trkpt>
      <trkpt lat="43.70654" lon="6.97179">
        <ele>660</ele>
        <time>2014-08-31T07:37:07Z</time>
      </trkpt>
      <trkpt lat="43.70663" lon="6.97182">
        <ele>662</ele>
        <time>2014-08-31T07:37:10Z</time>
      </trkpt>
      <trkpt lat="43.70684" lon="6.97191">
        <ele>664</ele>
        <time>2014-08-31T07:37:16Z</time>
      </trkpt>
      <trkpt lat="43.70693" lon="6.97196">
        <ele>664</ele>
        <time>2014-08-31T07:37:19Z</time>
      </trkpt>
      <trkpt lat="43.70707" lon="6.97208">
        <ele>666</ele>
        <time>2014-08-31T07:37:24Z</time>
      </trkpt>
      <trkpt lat="43.7072" lon="6.97221">
        <ele>667</ele>
        <time>2014-08-31T07:37:29Z</time>
      </trkpt>
      <trkpt lat="43.70732" lon="6.97236">
        <ele>667</ele>
        <time>2014-08-31T07:37:35Z</time>
      </trkpt>
      <trkpt lat="43.70744" lon="6.97259">
        <ele>667</ele>
        <time>2014-08-31T07:37:41Z</time>
      </trkpt>
      <trkpt lat="43.7075" lon="6.97276">
        <ele>669</ele>
        <time>2014-08-31T07:37:44Z</time>
      </trkpt>
      <trkpt lat="43.70757" lon="6.97297">
        <ele>670</ele>
        <time>2014-08-31T07:37:49Z</time>
      </trkpt>
      <trkpt lat="43.70764" lon="6.97325">
        <ele>673</ele>
        <time>2014-08-31T07:37:56Z</time>
      </trkpt>
      <trkpt lat="43.70769" lon="6.97338">
        <ele>676</ele>
        <time>2014-08-31T07:37:59Z</time>
      </trkpt>
      <trkpt lat="43.70773" lon="6.97349">
        <ele>678</ele>
        <time>2014-08-31T07:38:04Z</time>
      </trkpt>
      <trkpt lat="43.70777" lon="6.97362">
        <ele>678</ele>
        <time>2014-08-31T07:38:10Z</time>
      </trkpt>
      <trkpt lat="43.70782" lon="6.97372">
        <ele>678</ele>
        <time>2014-08-31T07:38:15Z</time>
      </trkpt>
      <trkpt lat="43.70789" lon="6.97372">
        <ele>679</ele>
        <time>2014-08-31T07:38:21Z</time>
      </trkpt>
      <trkpt lat="43.70792" lon="6.97369">
        <ele>677</ele>
        <time>2014-08-31T07:38:24Z</time>
      </trkpt>
      <trkpt lat="43.70793" lon="6.97363">
        <ele>676</ele>
        <time>2014-08-31T07:38:29Z</time>
      </trkpt>
      <trkpt lat="43.70793" lon="6.97353">
        <ele>678</ele>
        <time>2014-08-31T07:38:34Z</time>
      </trkpt>
      <trkpt lat="43.70795" lon="6.97343">
        <ele>678</ele>
        <time>2014-08-31T07:38:41Z</time>
      </trkpt>
      <trkpt lat="43.70795" lon="6.97343">
        <ele>678</ele>
        <time>2014-08-31T07:38:45Z</time>
      </trkpt>
      <trkpt lat="43.70795" lon="6.97343">
        <ele>678</ele>
        <time>2014-08-31T07:38:50Z</time>
      </trkpt>
      <trkpt lat="43.70796" lon="6.97341">
        <ele>679</ele>
        <time>2014-08-31T07:38:56Z</time>
      </trkpt>
      <trkpt lat="43.70797" lon="6.97337">
        <ele>680</ele>
        <time>2014-08-31T07:38:59Z</time>
      </trkpt>
      <trkpt lat="43.70799" lon="6.97325">
        <ele>679</ele>
        <time>2014-08-31T07:39:04Z</time>
      </trkpt>
      <trkpt lat="43.70803" lon="6.97313">
        <ele>679</ele>
        <time>2014-08-31T07:39:10Z</time>
      </trkpt>
      <trkpt lat="43.70807" lon="6.97301">
        <ele>682</ele>
        <time>2014-08-31T07:39:14Z</time>
      </trkpt>
      <trkpt lat="43.70811" lon="6.97288">
        <ele>682</ele>
        <time>2014-08-31T07:39:20Z</time>
      </trkpt>
      <trkpt lat="43.7082" lon="6.97273">
        <ele>681</ele>
        <time>2014-08-31T07:39:28Z</time>
      </trkpt>
      <trkpt lat="43.70821" lon="6.97271">
        <ele>682</ele>
        <time>2014-08-31T07:39:30Z</time>
      </trkpt>
      <trkpt lat="43.70826" lon="6.97263">
        <ele>681</ele>
        <time>2014-08-31T07:39:34Z</time>
      </trkpt>
      <trkpt lat="43.70831" lon="6.97254">
        <ele>682</ele>
        <time>2014-08-31T07:39:39Z</time>
      </trkpt>
      <trkpt lat="43.70838" lon="6.97246">
        <ele>685</ele>
        <time>2014-08-31T07:39:44Z</time>
      </trkpt>
      <trkpt lat="43.70845" lon="6.97237">
        <ele>684</ele>
        <time>2014-08-31T07:39:49Z</time>
      </trkpt>
      <trkpt lat="43.70853" lon="6.97229">
        <ele>687</ele>
        <time>2014-08-31T07:39:54Z</time>
      </trkpt>
      <trkpt lat="43.7086" lon="6.97222">
        <ele>689</ele>
        <time>2014-08-31T07:39:59Z</time>
      </trkpt>
      <trkpt lat="43.70868" lon="6.97214">
        <ele>690</ele>
        <time>2014-08-31T07:40:04Z</time>
      </trkpt>
      <trkpt lat="43.70875" lon="6.97206">
        <ele>688</ele>
        <time>2014-08-31T07:40:10Z</time>
      </trkpt>
      <trkpt lat="43.70882" lon="6.97196">
        <ele>689</ele>
        <time>2014-08-31T07:40:14Z</time>
      </trkpt>
      <trkpt lat="43.70886" lon="6.97185">
        <ele>688</ele>
        <time>2014-08-31T07:40:19Z</time>
      </trkpt>
      <trkpt lat="43.7089" lon="6.97173">
        <ele>690</ele>
        <time>2014-08-31T07:40:24Z</time>
      </trkpt>
      <trkpt lat="43.70894" lon="6.97161">
        <ele>691</ele>
        <time>2014-08-31T07:40:30Z</time>
      </trkpt>
      <trkpt lat="43.70898" lon="6.97148">
        <ele>692</ele>
        <time>2014-08-31T07:40:35Z</time>
      </trkpt>
      <trkpt lat="43.70901" lon="6.97135">
        <ele>694</ele>
        <time>2014-08-31T07:40:39Z</time>
      </trkpt>
      <trkpt lat="43.70907" lon="6.97124">
        <ele>695</ele>
        <time>2014-08-31T07:40:44Z</time>
      </trkpt>
      <trkpt lat="43.70911" lon="6.97114">
        <ele>696</ele>
        <time>2014-08-31T07:40:49Z</time>
      </trkpt>
      <trkpt lat="43.70915" lon="6.97104">
        <ele>698</ele>
        <time>2014-08-31T07:40:54Z</time>
      </trkpt>
      <trkpt lat="43.70919" lon="6.97094">
        <ele>698</ele>
        <time>2014-08-31T07:40:59Z</time>
      </trkpt>
      <trkpt lat="43.70923" lon="6.97084">
        <ele>698</ele>
        <time>2014-08-31T07:41:04Z</time>
      </trkpt>
      <trkpt lat="43.70926" lon="6.97072">
        <ele>698</ele>
        <time>2014-08-31T07:41:10Z</time>
      </trkpt>
      <trkpt lat="43.70928" lon="6.97064">
        <ele>700</ele>
        <time>2014-08-31T07:41:14Z</time>
      </trkpt>
      <trkpt lat="43.70933" lon="6.97055">
        <ele>701</ele>
        <time>2014-08-31T07:41:19Z</time>
      </trkpt>
      <trkpt lat="43.70938" lon="6.97046">
        <ele>702</ele>
        <time>2014-08-31T07:41:24Z</time>
      </trkpt>
      <trkpt lat="43.70945" lon="6.97032">
        <ele>703</ele>
        <time>2014-08-31T07:41:32Z</time>
      </trkpt>
      <trkpt lat="43.70947" lon="6.97029">
        <ele>703</ele>
        <time>2014-08-31T07:41:34Z</time>
      </trkpt>
      <trkpt lat="43.70951" lon="6.97019">
        <ele>704</ele>
        <time>2014-08-31T07:41:40Z</time>
      </trkpt>
      <trkpt lat="43.70954" lon="6.97007">
        <ele>705</ele>
        <time>2014-08-31T07:41:44Z</time>
      </trkpt>
      <trkpt lat="43.70956" lon="6.96995">
        <ele>706</ele>
        <time>2014-08-31T07:41:49Z</time>
      </trkpt>
      <trkpt lat="43.70958" lon="6.96984">
        <ele>707</ele>
        <time>2014-08-31T07:41:55Z</time>
      </trkpt>
      <trkpt lat="43.70959" lon="6.96972">
        <ele>707</ele>
        <time>2014-08-31T07:42:00Z</time>
      </trkpt>
      <trkpt lat="43.7096" lon="6.96959">
        <ele>707</ele>
        <time>2014-08-31T07:42:05Z</time>
      </trkpt>
      <trkpt lat="43.70961" lon="6.96948">
        <ele>708</ele>
        <time>2014-08-31T07:42:09Z</time>
      </trkpt>
      <trkpt lat="43.70962" lon="6.96935">
        <ele>708</ele>
        <time>2014-08-31T07:42:14Z</time>
      </trkpt>
      <trkpt lat="43.70964" lon="6.96923">
        <ele>709</ele>
        <time>2014-08-31T07:42:20Z</time>
      </trkpt>
      <trkpt lat="43.70968" lon="6.96911">
        <ele>710</ele>
        <time>2014-08-31T07:42:25Z</time>
      </trkpt>
      <trkpt lat="43.70977" lon="6.96902">
        <ele>710</ele>
        <time>2014-08-31T07:42:29Z</time>
      </trkpt>
      <trkpt lat="43.70986" lon="6.96909">
        <ele>711</ele>
        <time>2014-08-31T07:42:34Z</time>
      </trkpt>
      <trkpt lat="43.70991" lon="6.96922">
        <ele>713</ele>
        <time>2014-08-31T07:42:39Z</time>
      </trkpt>
      <trkpt lat="43.70996" lon="6.96934">
        <ele>715</ele>
        <time>2014-08-31T07:42:45Z</time>
      </trkpt>
      <trkpt lat="43.71002" lon="6.96948">
        <ele>715</ele>
        <time>2014-08-31T07:42:49Z</time>
      </trkpt>
      <trkpt lat="43.71008" lon="6.96961">
        <ele>716</ele>
        <time>2014-08-31T07:42:55Z</time>
      </trkpt>
      <trkpt lat="43.71014" lon="6.96974">
        <ele>716</ele>
        <time>2014-08-31T07:42:59Z</time>
      </trkpt>
      <trkpt lat="43.71023" lon="6.96983">
        <ele>718</ele>
        <time>2014-08-31T07:43:04Z</time>
      </trkpt>
      <trkpt lat="43.71034" lon="6.96987">
        <ele>718</ele>
        <time>2014-08-31T07:43:09Z</time>
      </trkpt>
      <trkpt lat="43.71044" lon="6.9699">
        <ele>719</ele>
        <time>2014-08-31T07:43:14Z</time>
      </trkpt>
      <trkpt lat="43.71055" lon="6.96992">
        <ele>718</ele>
        <time>2014-08-31T07:43:19Z</time>
      </trkpt>
      <trkpt lat="43.71065" lon="6.96997">
        <ele>719</ele>
        <time>2014-08-31T07:43:24Z</time>
      </trkpt>
      <trkpt lat="43.71076" lon="6.97002">
        <ele>720</ele>
        <time>2014-08-31T07:43:29Z</time>
      </trkpt>
      <trkpt lat="43.71086" lon="6.97007">
        <ele>720</ele>
        <time>2014-08-31T07:43:34Z</time>
      </trkpt>
      <trkpt lat="43.71096" lon="6.97011">
        <ele>722</ele>
        <time>2014-08-31T07:43:39Z</time>
      </trkpt>
      <trkpt lat="43.71106" lon="6.97014">
        <ele>723</ele>
        <time>2014-08-31T07:43:45Z</time>
      </trkpt>
      <trkpt lat="43.71117" lon="6.97017">
        <ele>723</ele>
        <time>2014-08-31T07:43:49Z</time>
      </trkpt>
      <trkpt lat="43.71127" lon="6.97019">
        <ele>723</ele>
        <time>2014-08-31T07:43:54Z</time>
      </trkpt>
      <trkpt lat="43.71138" lon="6.97022">
        <ele>723</ele>
        <time>2014-08-31T07:43:59Z</time>
      </trkpt>
      <trkpt lat="43.71148" lon="6.97024">
        <ele>723</ele>
        <time>2014-08-31T07:44:04Z</time>
      </trkpt>
      <trkpt lat="43.71158" lon="6.97026">
        <ele>723</ele>
        <time>2014-08-31T07:44:09Z</time>
      </trkpt>
      <trkpt lat="43.71173" lon="6.97032">
        <ele>722</ele>
        <time>2014-08-31T07:44:16Z</time>
      </trkpt>
      <trkpt lat="43.71179" lon="6.97033">
        <ele>720</ele>
        <time>2014-08-31T07:44:19Z</time>
      </trkpt>
      <trkpt lat="43.71191" lon="6.97036">
        <ele>725</ele>
        <time>2014-08-31T07:44:25Z</time>
      </trkpt>
      <trkpt lat="43.71199" lon="6.97039">
        <ele>726</ele>
        <time>2014-08-31T07:44:29Z</time>
      </trkpt>
      <trkpt lat="43.71208" lon="6.97044">
        <ele>727</ele>
        <time>2014-08-31T07:44:34Z</time>
      </trkpt>
      <trkpt lat="43.71224" lon="6.97048">
        <ele>731</ele>
        <time>2014-08-31T07:44:42Z</time>
      </trkpt>
      <trkpt lat="43.71228" lon="6.97048">
        <ele>732</ele>
        <time>2014-08-31T07:44:44Z</time>
      </trkpt>
      <trkpt lat="43.71238" lon="6.97047">
        <ele>732</ele>
        <time>2014-08-31T07:44:49Z</time>
      </trkpt>
      <trkpt lat="43.71249" lon="6.97048">
        <ele>732</ele>
        <time>2014-08-31T07:44:54Z</time>
      </trkpt>
      <trkpt lat="43.71259" lon="6.97049">
        <ele>736</ele>
        <time>2014-08-31T07:44:59Z</time>
      </trkpt>
      <trkpt lat="43.71269" lon="6.97052">
        <ele>738</ele>
        <time>2014-08-31T07:45:04Z</time>
      </trkpt>
      <trkpt lat="43.71278" lon="6.97057">
        <ele>738</ele>
        <time>2014-08-31T07:45:09Z</time>
      </trkpt>
      <trkpt lat="43.71288" lon="6.97061">
        <ele>736</ele>
        <time>2014-08-31T07:45:14Z</time>
      </trkpt>
      <trkpt lat="43.71304" lon="6.97068">
        <ele>733</ele>
        <time>2014-08-31T07:45:22Z</time>
      </trkpt>
      <trkpt lat="43.71307" lon="6.97071">
        <ele>734</ele>
        <time>2014-08-31T07:45:24Z</time>
      </trkpt>
      <trkpt lat="43.71317" lon="6.97077">
        <ele>735</ele>
        <time>2014-08-31T07:45:29Z</time>
      </trkpt>
      <trkpt lat="43.71332" lon="6.97088">
        <ele>738</ele>
        <time>2014-08-31T07:45:37Z</time>
      </trkpt>
      <trkpt lat="43.71336" lon="6.97092">
        <ele>736</ele>
        <time>2014-08-31T07:45:39Z</time>
      </trkpt>
      <trkpt lat="43.71347" lon="6.971">
        <ele>738</ele>
        <time>2014-08-31T07:45:44Z</time>
      </trkpt>
      <trkpt lat="43.71356" lon="6.97109">
        <ele>740</ele>
        <time>2014-08-31T07:45:49Z</time>
      </trkpt>
      <trkpt lat="43.71365" lon="6.9712">
        <ele>742</ele>
        <time>2014-08-31T07:45:54Z</time>
      </trkpt>
      <trkpt lat="43.71375" lon="6.97129">
        <ele>742</ele>
        <time>2014-08-31T07:45:59Z</time>
      </trkpt>
      <trkpt lat="43.71385" lon="6.97139">
        <ele>744</ele>
        <time>2014-08-31T07:46:04Z</time>
      </trkpt>
      <trkpt lat="43.71394" lon="6.9715">
        <ele>745</ele>
        <time>2014-08-31T07:46:09Z</time>
      </trkpt>
      <trkpt lat="43.71403" lon="6.97162">
        <ele>745</ele>
        <time>2014-08-31T07:46:14Z</time>
      </trkpt>
      <trkpt lat="43.71412" lon="6.97173">
        <ele>744</ele>
        <time>2014-08-31T07:46:19Z</time>
      </trkpt>
      <trkpt lat="43.71421" lon="6.97183">
        <ele>744</ele>
        <time>2014-08-31T07:46:24Z</time>
      </trkpt>
      <trkpt lat="43.71431" lon="6.9719">
        <ele>746</ele>
        <time>2014-08-31T07:46:29Z</time>
      </trkpt>
      <trkpt lat="43.71442" lon="6.97195">
        <ele>746</ele>
        <time>2014-08-31T07:46:34Z</time>
      </trkpt>
      <trkpt lat="43.71451" lon="6.97204">
        <ele>749</ele>
        <time>2014-08-31T07:46:39Z</time>
      </trkpt>
      <trkpt lat="43.71458" lon="6.97214">
        <ele>749</ele>
        <time>2014-08-31T07:46:44Z</time>
      </trkpt>
      <trkpt lat="43.71466" lon="6.97206">
        <ele>746</ele>
        <time>2014-08-31T07:46:49Z</time>
      </trkpt>
      <trkpt lat="43.71456" lon="6.97188">
        <ele>745</ele>
        <time>2014-08-31T07:46:57Z</time>
      </trkpt>
      <trkpt lat="43.71453" lon="6.97185">
        <ele>744</ele>
        <time>2014-08-31T07:46:59Z</time>
      </trkpt>
      <trkpt lat="43.71443" lon="6.97175">
        <ele>745</ele>
        <time>2014-08-31T07:47:05Z</time>
      </trkpt>
      <trkpt lat="43.71437" lon="6.97168">
        <ele>746</ele>
        <time>2014-08-31T07:47:09Z</time>
      </trkpt>
      <trkpt lat="43.7143" lon="6.97156">
        <ele>747</ele>
        <time>2014-08-31T07:47:14Z</time>
      </trkpt>
      <trkpt lat="43.71422" lon="6.97134">
        <ele>747</ele>
        <time>2014-08-31T07:47:22Z</time>
      </trkpt>
      <trkpt lat="43.71418" lon="6.97125">
        <ele>747</ele>
        <time>2014-08-31T07:47:25Z</time>
      </trkpt>
      <trkpt lat="43.71413" lon="6.97114">
        <ele>748</ele>
        <time>2014-08-31T07:47:29Z</time>
      </trkpt>
      <trkpt lat="43.71401" lon="6.97096">
        <ele>748</ele>
        <time>2014-08-31T07:47:37Z</time>
      </trkpt>
      <trkpt lat="43.71397" lon="6.97091">
        <ele>748</ele>
        <time>2014-08-31T07:47:39Z</time>
      </trkpt>
      <trkpt lat="43.7139" lon="6.9708">
        <ele>749</ele>
        <time>2014-08-31T07:47:44Z</time>
      </trkpt>
      <trkpt lat="43.71381" lon="6.9707">
        <ele>750</ele>
        <time>2014-08-31T07:47:49Z</time>
      </trkpt>
      <trkpt lat="43.71373" lon="6.9706">
        <ele>750</ele>
        <time>2014-08-31T07:47:54Z</time>
      </trkpt>
      <trkpt lat="43.71366" lon="6.97048">
        <ele>750</ele>
        <time>2014-08-31T07:47:59Z</time>
      </trkpt>
      <trkpt lat="43.71359" lon="6.97036">
        <ele>751</ele>
        <time>2014-08-31T07:48:04Z</time>
      </trkpt>
      <trkpt lat="43.71352" lon="6.97022">
        <ele>751</ele>
        <time>2014-08-31T07:48:09Z</time>
      </trkpt>
      <trkpt lat="43.71344" lon="6.97009">
        <ele>751</ele>
        <time>2014-08-31T07:48:14Z</time>
      </trkpt>
      <trkpt lat="43.71337" lon="6.96996">
        <ele>751</ele>
        <time>2014-08-31T07:48:19Z</time>
      </trkpt>
      <trkpt lat="43.71329" lon="6.96985">
        <ele>751</ele>
        <time>2014-08-31T07:48:24Z</time>
      </trkpt>
      <trkpt lat="43.71321" lon="6.96974">
        <ele>753</ele>
        <time>2014-08-31T07:48:29Z</time>
      </trkpt>
      <trkpt lat="43.71315" lon="6.96963">
        <ele>755</ele>
        <time>2014-08-31T07:48:34Z</time>
      </trkpt>
      <trkpt lat="43.7131" lon="6.96947">
        <ele>755</ele>
        <time>2014-08-31T07:48:40Z</time>
      </trkpt>
      <trkpt lat="43.71306" lon="6.96936">
        <ele>758</ele>
        <time>2014-08-31T07:48:45Z</time>
      </trkpt>
      <trkpt lat="43.71303" lon="6.96922">
        <ele>759</ele>
        <time>2014-08-31T07:48:49Z</time>
      </trkpt>
      <trkpt lat="43.71299" lon="6.96907">
        <ele>759</ele>
        <time>2014-08-31T07:48:54Z</time>
      </trkpt>
      <trkpt lat="43.71297" lon="6.96893">
        <ele>761</ele>
        <time>2014-08-31T07:48:59Z</time>
      </trkpt>
      <trkpt lat="43.71293" lon="6.96876">
        <ele>761</ele>
        <time>2014-08-31T07:49:05Z</time>
      </trkpt>
      <trkpt lat="43.71291" lon="6.96865">
        <ele>763</ele>
        <time>2014-08-31T07:49:09Z</time>
      </trkpt>
      <trkpt lat="43.71288" lon="6.96851">
        <ele>764</ele>
        <time>2014-08-31T07:49:14Z</time>
      </trkpt>
      <trkpt lat="43.71284" lon="6.96837">
        <ele>765</ele>
        <time>2014-08-31T07:49:19Z</time>
      </trkpt>
      <trkpt lat="43.71279" lon="6.9682">
        <ele>764</ele>
        <time>2014-08-31T07:49:25Z</time>
      </trkpt>
      <trkpt lat="43.71274" lon="6.96801">
        <ele>765</ele>
        <time>2014-08-31T07:49:32Z</time>
      </trkpt>
      <trkpt lat="43.71272" lon="6.96796">
        <ele>767</ele>
        <time>2014-08-31T07:49:34Z</time>
      </trkpt>
      <trkpt lat="43.71267" lon="6.96783">
        <ele>769</ele>
        <time>2014-08-31T07:49:39Z</time>
      </trkpt>
      <trkpt lat="43.71262" lon="6.9677">
        <ele>770</ele>
        <time>2014-08-31T07:49:44Z</time>
      </trkpt>
      <trkpt lat="43.71255" lon="6.9675">
        <ele>771</ele>
        <time>2014-08-31T07:49:51Z</time>
      </trkpt>
      <trkpt lat="43.7125" lon="6.96739">
        <ele>771</ele>
        <time>2014-08-31T07:49:55Z</time>
      </trkpt>
      <trkpt lat="43.71244" lon="6.96727">
        <ele>770</ele>
        <time>2014-08-31T07:49:59Z</time>
      </trkpt>
      <trkpt lat="43.71237" lon="6.96714">
        <ele>769</ele>
        <time>2014-08-31T07:50:04Z</time>
      </trkpt>
      <trkpt lat="43.71231" lon="6.967">
        <ele>771</ele>
        <time>2014-08-31T07:50:09Z</time>
      </trkpt>
      <trkpt lat="43.71228" lon="6.96685">
        <ele>772</ele>
        <time>2014-08-31T07:50:14Z</time>
      </trkpt>
      <trkpt lat="43.71227" lon="6.96664">
        <ele>774</ele>
        <time>2014-08-31T07:50:21Z</time>
      </trkpt>
      <trkpt lat="43.71227" lon="6.96645">
        <ele>774</ele>
        <time>2014-08-31T07:50:27Z</time>
      </trkpt>
      <trkpt lat="43.71227" lon="6.96639">
        <ele>775</ele>
        <time>2014-08-31T07:50:29Z</time>
      </trkpt>
      <trkpt lat="43.71226" lon="6.96623">
        <ele>775</ele>
        <time>2014-08-31T07:50:34Z</time>
      </trkpt>
      <trkpt lat="43.71226" lon="6.96607">
        <ele>775</ele>
        <time>2014-08-31T07:50:39Z</time>
      </trkpt>
      <trkpt lat="43.71224" lon="6.96587">
        <ele>775</ele>
        <time>2014-08-31T07:50:46Z</time>
      </trkpt>
      <trkpt lat="43.71224" lon="6.96579">
        <ele>775</ele>
        <time>2014-08-31T07:50:49Z</time>
      </trkpt>
      <trkpt lat="43.71222" lon="6.96565">
        <ele>775</ele>
        <time>2014-08-31T07:50:55Z</time>
      </trkpt>
      <trkpt lat="43.71221" lon="6.96551">
        <ele>775</ele>
        <time>2014-08-31T07:51:00Z</time>
      </trkpt>
      <trkpt lat="43.71221" lon="6.96537">
        <ele>777</ele>
        <time>2014-08-31T07:51:04Z</time>
      </trkpt>
      <trkpt lat="43.71219" lon="6.96524">
        <ele>777</ele>
        <time>2014-08-31T07:51:09Z</time>
      </trkpt>
      <trkpt lat="43.71219" lon="6.9651">
        <ele>775</ele>
        <time>2014-08-31T07:51:14Z</time>
      </trkpt>
      <trkpt lat="43.71219" lon="6.96488">
        <ele>776</ele>
        <time>2014-08-31T07:51:22Z</time>
      </trkpt>
      <trkpt lat="43.71219" lon="6.96482">
        <ele>777</ele>
        <time>2014-08-31T07:51:24Z</time>
      </trkpt>
      <trkpt lat="43.71219" lon="6.96468">
        <ele>778</ele>
        <time>2014-08-31T07:51:29Z</time>
      </trkpt>
      <trkpt lat="43.71217" lon="6.96455">
        <ele>779</ele>
        <time>2014-08-31T07:51:34Z</time>
      </trkpt>
      <trkpt lat="43.71212" lon="6.96441">
        <ele>779</ele>
        <time>2014-08-31T07:51:39Z</time>
      </trkpt>
      <trkpt lat="43.71204" lon="6.96426">
        <ele>779</ele>
        <time>2014-08-31T07:51:44Z</time>
      </trkpt>
      <trkpt lat="43.71194" lon="6.96412">
        <ele>780</ele>
        <time>2014-08-31T07:51:49Z</time>
      </trkpt>
      <trkpt lat="43.71186" lon="6.96398">
        <ele>780</ele>
        <time>2014-08-31T07:51:54Z</time>
      </trkpt>
      <trkpt lat="43.7118" lon="6.96383">
        <ele>781</ele>
        <time>2014-08-31T07:51:59Z</time>
      </trkpt>
      <trkpt lat="43.71174" lon="6.96368">
        <ele>781</ele>
        <time>2014-08-31T07:52:04Z</time>
      </trkpt>
      <trkpt lat="43.71169" lon="6.96353">
        <ele>782</ele>
        <time>2014-08-31T07:52:09Z</time>
      </trkpt>
      <trkpt lat="43.71166" lon="6.96338">
        <ele>782</ele>
        <time>2014-08-31T07:52:14Z</time>
      </trkpt>
      <trkpt lat="43.71164" lon="6.96323">
        <ele>783</ele>
        <time>2014-08-31T07:52:19Z</time>
      </trkpt>
      <trkpt lat="43.71165" lon="6.96309">
        <ele>784</ele>
        <time>2014-08-31T07:52:24Z</time>
      </trkpt>
      <trkpt lat="43.71165" lon="6.96295">
        <ele>786</ele>
        <time>2014-08-31T07:52:29Z</time>
      </trkpt>
      <trkpt lat="43.71165" lon="6.96281">
        <ele>787</ele>
        <time>2014-08-31T07:52:34Z</time>
      </trkpt>
      <trkpt lat="43.71165" lon="6.9627">
        <ele>787</ele>
        <time>2014-08-31T07:52:39Z</time>
      </trkpt>
      <trkpt lat="43.71171" lon="6.96265">
        <ele>788</ele>
        <time>2014-08-31T07:52:44Z</time>
      </trkpt>
      <trkpt lat="43.71178" lon="6.96274">
        <ele>789</ele>
        <time>2014-08-31T07:52:49Z</time>
      </trkpt>
      <trkpt lat="43.71187" lon="6.96284">
        <ele>790</ele>
        <time>2014-08-31T07:52:54Z</time>
      </trkpt>
      <trkpt lat="43.71197" lon="6.96291">
        <ele>791</ele>
        <time>2014-08-31T07:52:59Z</time>
      </trkpt>
      <trkpt lat="43.71207" lon="6.96293">
        <ele>791</ele>
        <time>2014-08-31T07:53:04Z</time>
      </trkpt>
      <trkpt lat="43.71218" lon="6.96291">
        <ele>791</ele>
        <time>2014-08-31T07:53:09Z</time>
      </trkpt>
      <trkpt lat="43.71229" lon="6.96286">
        <ele>791</ele>
        <time>2014-08-31T07:53:14Z</time>
      </trkpt>
      <trkpt lat="43.7124" lon="6.96283">
        <ele>793</ele>
        <time>2014-08-31T07:53:19Z</time>
      </trkpt>
      <trkpt lat="43.71252" lon="6.96281">
        <ele>795</ele>
        <time>2014-08-31T07:53:24Z</time>
      </trkpt>
      <trkpt lat="43.71263" lon="6.96281">
        <ele>798</ele>
        <time>2014-08-31T07:53:29Z</time>
      </trkpt>
      <trkpt lat="43.71284" lon="6.96276">
        <ele>795</ele>
        <time>2014-08-31T07:53:37Z</time>
      </trkpt>
      <trkpt lat="43.7129" lon="6.96277">
        <ele>794</ele>
        <time>2014-08-31T07:53:39Z</time>
      </trkpt>
      <trkpt lat="43.71301" lon="6.96289">
        <ele>794</ele>
        <time>2014-08-31T07:53:44Z</time>
      </trkpt>
      <trkpt lat="43.71312" lon="6.963">
        <ele>795</ele>
        <time>2014-08-31T07:53:49Z</time>
      </trkpt>
      <trkpt lat="43.71326" lon="6.96309">
        <ele>795</ele>
        <time>2014-08-31T07:53:54Z</time>
      </trkpt>
      <trkpt lat="43.7134" lon="6.96313">
        <ele>794</ele>
        <time>2014-08-31T07:53:59Z</time>
      </trkpt>
      <trkpt lat="43.71354" lon="6.9632">
        <ele>794</ele>
        <time>2014-08-31T07:54:04Z</time>
      </trkpt>
      <trkpt lat="43.71368" lon="6.96332">
        <ele>793</ele>
        <time>2014-08-31T07:54:09Z</time>
      </trkpt>
      <trkpt lat="43.71381" lon="6.96352">
        <ele>793</ele>
        <time>2014-08-31T07:54:14Z</time>
      </trkpt>
      <trkpt lat="43.71394" lon="6.96372">
        <ele>792</ele>
        <time>2014-08-31T07:54:19Z</time>
      </trkpt>
      <trkpt lat="43.71404" lon="6.96391">
        <ele>795</ele>
        <time>2014-08-31T07:54:24Z</time>
      </trkpt>
      <trkpt lat="43.71416" lon="6.96413">
        <ele>795</ele>
        <time>2014-08-31T07:54:30Z</time>
      </trkpt>
      <trkpt lat="43.71424" lon="6.96427">
        <ele>795</ele>
        <time>2014-08-31T07:54:34Z</time>
      </trkpt>
      <trkpt lat="43.71432" lon="6.96449">
        <ele>794</ele>
        <time>2014-08-31T07:54:39Z</time>
      </trkpt>
      <trkpt lat="43.71432" lon="6.96474">
        <ele>793</ele>
        <time>2014-08-31T07:54:44Z</time>
      </trkpt>
      <trkpt lat="43.71428" lon="6.96499">
        <ele>794</ele>
        <time>2014-08-31T07:54:49Z</time>
      </trkpt>
      <trkpt lat="43.71427" lon="6.96522">
        <ele>793</ele>
        <time>2014-08-31T07:54:54Z</time>
      </trkpt>
      <trkpt lat="43.71431" lon="6.96546">
        <ele>793</ele>
        <time>2014-08-31T07:54:59Z</time>
      </trkpt>
      <trkpt lat="43.71438" lon="6.9657">
        <ele>793</ele>
        <time>2014-08-31T07:55:04Z</time>
      </trkpt>
      <trkpt lat="43.71445" lon="6.96594">
        <ele>793</ele>
        <time>2014-08-31T07:55:09Z</time>
      </trkpt>
      <trkpt lat="43.71446" lon="6.96618">
        <ele>794</ele>
        <time>2014-08-31T07:55:14Z</time>
      </trkpt>
      <trkpt lat="43.71446" lon="6.96643">
        <ele>794</ele>
        <time>2014-08-31T07:55:19Z</time>
      </trkpt>
      <trkpt lat="43.7145" lon="6.9667">
        <ele>794</ele>
        <time>2014-08-31T07:55:24Z</time>
      </trkpt>
      <trkpt lat="43.71459" lon="6.96692">
        <ele>793</ele>
        <time>2014-08-31T07:55:29Z</time>
      </trkpt>
      <trkpt lat="43.71471" lon="6.96714">
        <ele>792</ele>
        <time>2014-08-31T07:55:34Z</time>
      </trkpt>
      <trkpt lat="43.7148" lon="6.96734">
        <ele>791</ele>
        <time>2014-08-31T07:55:39Z</time>
      </trkpt>
      <trkpt lat="43.71492" lon="6.96751">
        <ele>790</ele>
        <time>2014-08-31T07:55:44Z</time>
      </trkpt>
      <trkpt lat="43.71505" lon="6.96757">
        <ele>791</ele>
        <time>2014-08-31T07:55:49Z</time>
      </trkpt>
      <trkpt lat="43.71522" lon="6.96757">
        <ele>789</ele>
        <time>2014-08-31T07:55:54Z</time>
      </trkpt>
      <trkpt lat="43.71541" lon="6.96751">
        <ele>788</ele>
        <time>2014-08-31T07:55:59Z</time>
      </trkpt>
      <trkpt lat="43.71565" lon="6.96731">
        <ele>785</ele>
        <time>2014-08-31T07:56:04Z</time>
      </trkpt>
      <trkpt lat="43.71583" lon="6.96689">
        <ele>781</ele>
        <time>2014-08-31T07:56:09Z</time>
      </trkpt>
      <trkpt lat="43.71605" lon="6.9664">
        <ele>778</ele>
        <time>2014-08-31T07:56:14Z</time>
      </trkpt>
      <trkpt lat="43.71625" lon="6.96598">
        <ele>779</ele>
        <time>2014-08-31T07:56:19Z</time>
      </trkpt>
      <trkpt lat="43.71644" lon="6.96564">
        <ele>778</ele>
        <time>2014-08-31T07:56:24Z</time>
      </trkpt>
      <trkpt lat="43.7166" lon="6.96544">
        <ele>779</ele>
        <time>2014-08-31T07:56:29Z</time>
      </trkpt>
      <trkpt lat="43.71675" lon="6.96534">
        <ele>781</ele>
        <time>2014-08-31T07:56:34Z</time>
      </trkpt>
      <trkpt lat="43.71689" lon="6.96522">
        <ele>781</ele>
        <time>2014-08-31T07:56:39Z</time>
      </trkpt>
      <trkpt lat="43.71699" lon="6.96507">
        <ele>782</ele>
        <time>2014-08-31T07:56:44Z</time>
      </trkpt>
      <trkpt lat="43.71705" lon="6.96491">
        <ele>781</ele>
        <time>2014-08-31T07:56:49Z</time>
      </trkpt>
      <trkpt lat="43.71713" lon="6.9647">
        <ele>782</ele>
        <time>2014-08-31T07:56:55Z</time>
      </trkpt>
      <trkpt lat="43.71722" lon="6.96458">
        <ele>781</ele>
        <time>2014-08-31T07:56:59Z</time>
      </trkpt>
      <trkpt lat="43.71737" lon="6.96445">
        <ele>780</ele>
        <time>2014-08-31T07:57:04Z</time>
      </trkpt>
      <trkpt lat="43.71755" lon="6.96428">
        <ele>778</ele>
        <time>2014-08-31T07:57:09Z</time>
      </trkpt>
      <trkpt lat="43.71772" lon="6.96404">
        <ele>777</ele>
        <time>2014-08-31T07:57:14Z</time>
      </trkpt>
      <trkpt lat="43.71785" lon="6.9637">
        <ele>774</ele>
        <time>2014-08-31T07:57:19Z</time>
      </trkpt>
      <trkpt lat="43.71795" lon="6.96325">
        <ele>770</ele>
        <time>2014-08-31T07:57:24Z</time>
      </trkpt>
      <trkpt lat="43.71804" lon="6.96278">
        <ele>768</ele>
        <time>2014-08-31T07:57:29Z</time>
      </trkpt>
      <trkpt lat="43.71818" lon="6.96244">
        <ele>769</ele>
        <time>2014-08-31T07:57:34Z</time>
      </trkpt>
      <trkpt lat="43.71833" lon="6.96228">
        <ele>769</ele>
        <time>2014-08-31T07:57:39Z</time>
      </trkpt>
      <trkpt lat="43.71846" lon="6.96205">
        <ele>770</ele>
        <time>2014-08-31T07:57:44Z</time>
      </trkpt>
      <trkpt lat="43.7186" lon="6.9619">
        <ele>768</ele>
        <time>2014-08-31T07:57:49Z</time>
      </trkpt>
      <trkpt lat="43.71877" lon="6.96184">
        <ele>767</ele>
        <time>2014-08-31T07:57:54Z</time>
      </trkpt>
      <trkpt lat="43.71898" lon="6.9618">
        <ele>766</ele>
        <time>2014-08-31T07:57:59Z</time>
      </trkpt>
      <trkpt lat="43.71926" lon="6.96175">
        <ele>763</ele>
        <time>2014-08-31T07:58:05Z</time>
      </trkpt>
      <trkpt lat="43.71941" lon="6.96172">
        <ele>763</ele>
        <time>2014-08-31T07:58:09Z</time>
      </trkpt>
      <trkpt lat="43.7196" lon="6.96174">
        <ele>767</ele>
        <time>2014-08-31T07:58:14Z</time>
      </trkpt>
      <trkpt lat="43.71977" lon="6.96187">
        <ele>770</ele>
        <time>2014-08-31T07:58:19Z</time>
      </trkpt>
      <trkpt lat="43.71995" lon="6.96196">
        <ele>771</ele>
        <time>2014-08-31T07:58:24Z</time>
      </trkpt>
      <trkpt lat="43.72006" lon="6.96206">
        <ele>769</ele>
        <time>2014-08-31T07:58:29Z</time>
      </trkpt>
      <trkpt lat="43.72007" lon="6.9622">
        <ele>768</ele>
        <time>2014-08-31T07:58:34Z</time>
      </trkpt>
      <trkpt lat="43.72011" lon="6.96239">
        <ele>770</ele>
        <time>2014-08-31T07:58:43Z</time>
      </trkpt>
      <trkpt lat="43.72011" lon="6.96239">
        <ele>771</ele>
        <time>2014-08-31T07:58:44Z</time>
      </trkpt>
      <trkpt lat="43.72011" lon="6.96239">
        <ele>769</ele>
        <time>2014-08-31T07:58:49Z</time>
      </trkpt>
      <trkpt lat="43.72011" lon="6.96239">
        <ele>768</ele>
        <time>2014-08-31T07:58:54Z</time>
      </trkpt>
      <trkpt lat="43.72011" lon="6.96238">
        <ele>768</ele>
        <time>2014-08-31T07:58:59Z</time>
      </trkpt>
      <trkpt lat="43.72011" lon="6.96238">
        <ele>768</ele>
        <time>2014-08-31T07:59:04Z</time>
      </trkpt>
      <trkpt lat="43.72011" lon="6.96238">
        <ele>768</ele>
        <time>2014-08-31T07:59:09Z</time>
      </trkpt>
      <trkpt lat="43.72011" lon="6.96238">
        <ele>768</ele>
        <time>2014-08-31T07:59:14Z</time>
      </trkpt>
      <trkpt lat="43.72011" lon="6.96238">
        <ele>768</ele>
        <time>2014-08-31T07:59:19Z</time>
      </trkpt>
      <trkpt lat="43.72011" lon="6.96238">
        <ele>768</ele>
        <time>2014-08-31T07:59:25Z</time>
      </trkpt>
      <trkpt lat="43.72011" lon="6.96238">
        <ele>768</ele>
        <time>2014-08-31T07:59:29Z</time>
      </trkpt>
      <trkpt lat="43.72011" lon="6.96238">
        <ele>768</ele>
        <time>2014-08-31T07:59:34Z</time>
      </trkpt>
      <trkpt lat="43.72011" lon="6.96238">
        <ele>768</ele>
        <time>2014-08-31T07:59:39Z</time>
      </trkpt>
      <trkpt lat="43.72011" lon="6.96238">
        <ele>768</ele>
        <time>2014-08-31T07:59:46Z</time>
      </trkpt>
      <trkpt lat="43.72011" lon="6.96238">
        <ele>767</ele>
        <time>2014-08-31T07:59:49Z</time>
      </trkpt>
      <trkpt lat="43.72011" lon="6.96237">
        <ele>766</ele>
        <time>2014-08-31T07:59:54Z</time>
      </trkpt>
      <trkpt lat="43.72011" lon="6.96237">
        <ele>766</ele>
        <time>2014-08-31T07:59:59Z</time>
      </trkpt>
      <trkpt lat="43.72012" lon="6.96243">
        <ele>766</ele>
        <time>2014-08-31T08:00:05Z</time>
      </trkpt>
      <trkpt lat="43.72015" lon="6.96263">
        <ele>764</ele>
        <time>2014-08-31T08:00:09Z</time>
      </trkpt>
      <trkpt lat="43.72027" lon="6.96293">
        <ele>762</ele>
        <time>2014-08-31T08:00:14Z</time>
      </trkpt>
      <trkpt lat="43.72029" lon="6.96331">
        <ele>760</ele>
        <time>2014-08-31T08:00:19Z</time>
      </trkpt>
      <trkpt lat="43.72041" lon="6.9638">
        <ele>757</ele>
        <time>2014-08-31T08:00:24Z</time>
      </trkpt>
      <trkpt lat="43.72054" lon="6.96426">
        <ele>757</ele>
        <time>2014-08-31T08:00:29Z</time>
      </trkpt>
      <trkpt lat="43.72057" lon="6.96463">
        <ele>757</ele>
        <time>2014-08-31T08:00:34Z</time>
      </trkpt>
      <trkpt lat="43.72058" lon="6.9649">
        <ele>758</ele>
        <time>2014-08-31T08:00:39Z</time>
      </trkpt>
      <trkpt lat="43.72061" lon="6.96511">
        <ele>759</ele>
        <time>2014-08-31T08:00:44Z</time>
      </trkpt>
      <trkpt lat="43.72066" lon="6.96533">
        <ele>762</ele>
        <time>2014-08-31T08:00:49Z</time>
      </trkpt>
      <trkpt lat="43.72075" lon="6.96554">
        <ele>764</ele>
        <time>2014-08-31T08:00:54Z</time>
      </trkpt>
      <trkpt lat="43.72086" lon="6.96557">
        <ele>764</ele>
        <time>2014-08-31T08:00:59Z</time>
      </trkpt>
      <trkpt lat="43.72097" lon="6.96552">
        <ele>764</ele>
        <time>2014-08-31T08:01:04Z</time>
      </trkpt>
      <trkpt lat="43.72108" lon="6.96546">
        <ele>764</ele>
        <time>2014-08-31T08:01:09Z</time>
      </trkpt>
      <trkpt lat="43.7212" lon="6.96543">
        <ele>765</ele>
        <time>2014-08-31T08:01:14Z</time>
      </trkpt>
      <trkpt lat="43.72133" lon="6.96535">
        <ele>764</ele>
        <time>2014-08-31T08:01:19Z</time>
      </trkpt>
      <trkpt lat="43.72146" lon="6.96523">
        <ele>764</ele>
        <time>2014-08-31T08:01:25Z</time>
      </trkpt>
      <trkpt lat="43.72165" lon="6.96506">
        <ele>763</ele>
        <time>2014-08-31T08:01:30Z</time>
      </trkpt>
      <trkpt lat="43.72186" lon="6.96491">
        <ele>762</ele>
        <time>2014-08-31T08:01:35Z</time>
      </trkpt>
      <trkpt lat="43.72199" lon="6.96494">
        <ele>762</ele>
        <time>2014-08-31T08:01:39Z</time>
      </trkpt>
      <trkpt lat="43.72208" lon="6.96491">
        <ele>762</ele>
        <time>2014-08-31T08:01:44Z</time>
      </trkpt>
      <trkpt lat="43.72207" lon="6.96481">
        <ele>762</ele>
        <time>2014-08-31T08:01:50Z</time>
      </trkpt>
      <trkpt lat="43.72212" lon="6.96476">
        <ele>762</ele>
        <time>2014-08-31T08:01:55Z</time>
      </trkpt>
      <trkpt lat="43.72209" lon="6.96475">
        <ele>763</ele>
        <time>2014-08-31T08:01:59Z</time>
      </trkpt>
      <trkpt lat="43.72207" lon="6.96484">
        <ele>762</ele>
        <time>2014-08-31T08:02:04Z</time>
      </trkpt>
      <trkpt lat="43.7221" lon="6.96501">
        <ele>762</ele>
        <time>2014-08-31T08:02:09Z</time>
      </trkpt>
      <trkpt lat="43.72216" lon="6.96522">
        <ele>762</ele>
        <time>2014-08-31T08:02:14Z</time>
      </trkpt>
      <trkpt lat="43.72221" lon="6.96543">
        <ele>764</ele>
        <time>2014-08-31T08:02:19Z</time>
      </trkpt>
      <trkpt lat="43.72227" lon="6.96561">
        <ele>765</ele>
        <time>2014-08-31T08:02:24Z</time>
      </trkpt>
      <trkpt lat="43.72231" lon="6.96577">
        <ele>767</ele>
        <time>2014-08-31T08:02:29Z</time>
      </trkpt>
      <trkpt lat="43.72234" lon="6.96592">
        <ele>767</ele>
        <time>2014-08-31T08:02:34Z</time>
      </trkpt>
      <trkpt lat="43.72235" lon="6.96607">
        <ele>769</ele>
        <time>2014-08-31T08:02:39Z</time>
      </trkpt>
      <trkpt lat="43.72234" lon="6.96618">
        <ele>768</ele>
        <time>2014-08-31T08:02:45Z</time>
      </trkpt>
      <trkpt lat="43.72232" lon="6.96626">
        <ele>769</ele>
        <time>2014-08-31T08:02:49Z</time>
      </trkpt>
      <trkpt lat="43.72228" lon="6.96636">
        <ele>770</ele>
        <time>2014-08-31T08:02:54Z</time>
      </trkpt>
      <trkpt lat="43.72225" lon="6.96648">
        <ele>770</ele>
        <time>2014-08-31T08:02:59Z</time>
      </trkpt>
      <trkpt lat="43.72225" lon="6.9666">
        <ele>772</ele>
        <time>2014-08-31T08:03:04Z</time>
      </trkpt>
      <trkpt lat="43.72226" lon="6.96673">
        <ele>772</ele>
        <time>2014-08-31T08:03:09Z</time>
      </trkpt>
      <trkpt lat="43.72229" lon="6.96685">
        <ele>773</ele>
        <time>2014-08-31T08:03:14Z</time>
      </trkpt>
      <trkpt lat="43.72232" lon="6.96699">
        <ele>772</ele>
        <time>2014-08-31T08:03:19Z</time>
      </trkpt>
      <trkpt lat="43.72236" lon="6.96713">
        <ele>771</ele>
        <time>2014-08-31T08:03:24Z</time>
      </trkpt>
      <trkpt lat="43.72239" lon="6.96729">
        <ele>771</ele>
        <time>2014-08-31T08:03:29Z</time>
      </trkpt>
      <trkpt lat="43.72241" lon="6.96744">
        <ele>771</ele>
        <time>2014-08-31T08:03:34Z</time>
      </trkpt>
      <trkpt lat="43.72243" lon="6.9676">
        <ele>772</ele>
        <time>2014-08-31T08:03:39Z</time>
      </trkpt>
      <trkpt lat="43.72246" lon="6.96773">
        <ele>773</ele>
        <time>2014-08-31T08:03:44Z</time>
      </trkpt>
      <trkpt lat="43.72246" lon="6.96776">
        <ele>773</ele>
        <time>2014-08-31T08:03:49Z</time>
      </trkpt>
      <trkpt lat="43.72247" lon="6.96777">
        <ele>773</ele>
        <time>2014-08-31T08:03:54Z</time>
      </trkpt>
      <trkpt lat="43.72249" lon="6.96785">
        <ele>773</ele>
        <time>2014-08-31T08:03:59Z</time>
      </trkpt>
      <trkpt lat="43.72251" lon="6.96777">
        <ele>773</ele>
        <time>2014-08-31T08:04:04Z</time>
      </trkpt>
      <trkpt lat="43.7225" lon="6.96763">
        <ele>774</ele>
        <time>2014-08-31T08:04:09Z</time>
      </trkpt>
      <trkpt lat="43.72251" lon="6.96749">
        <ele>777</ele>
        <time>2014-08-31T08:04:14Z</time>
      </trkpt>
      <trkpt lat="43.72252" lon="6.96736">
        <ele>777</ele>
        <time>2014-08-31T08:04:19Z</time>
      </trkpt>
      <trkpt lat="43.72254" lon="6.96723">
        <ele>781</ele>
        <time>2014-08-31T08:04:24Z</time>
      </trkpt>
      <trkpt lat="43.72261" lon="6.96719">
        <ele>781</ele>
        <time>2014-08-31T08:04:29Z</time>
      </trkpt>
      <trkpt lat="43.72271" lon="6.96717">
        <ele>785</ele>
        <time>2014-08-31T08:04:34Z</time>
      </trkpt>
      <trkpt lat="43.7228" lon="6.96714">
        <ele>784</ele>
        <time>2014-08-31T08:04:39Z</time>
      </trkpt>
      <trkpt lat="43.72291" lon="6.9671">
        <ele>782</ele>
        <time>2014-08-31T08:04:44Z</time>
      </trkpt>
      <trkpt lat="43.72302" lon="6.96706">
        <ele>783</ele>
        <time>2014-08-31T08:04:49Z</time>
      </trkpt>
      <trkpt lat="43.72325" lon="6.96707">
        <ele>783</ele>
        <time>2014-08-31T08:04:58Z</time>
      </trkpt>
      <trkpt lat="43.72327" lon="6.96707">
        <ele>783</ele>
        <time>2014-08-31T08:04:59Z</time>
      </trkpt>
      <trkpt lat="43.72337" lon="6.96708">
        <ele>782</ele>
        <time>2014-08-31T08:05:04Z</time>
      </trkpt>
      <trkpt lat="43.72348" lon="6.96708">
        <ele>781</ele>
        <time>2014-08-31T08:05:09Z</time>
      </trkpt>
      <trkpt lat="43.72357" lon="6.96701">
        <ele>783</ele>
        <time>2014-08-31T08:05:15Z</time>
      </trkpt>
      <trkpt lat="43.7236" lon="6.96689">
        <ele>784</ele>
        <time>2014-08-31T08:05:19Z</time>
      </trkpt>
      <trkpt lat="43.72366" lon="6.96675">
        <ele>785</ele>
        <time>2014-08-31T08:05:24Z</time>
      </trkpt>
      <trkpt lat="43.72371" lon="6.96663">
        <ele>782</ele>
        <time>2014-08-31T08:05:29Z</time>
      </trkpt>
      <trkpt lat="43.72375" lon="6.96649">
        <ele>784</ele>
        <time>2014-08-31T08:05:34Z</time>
      </trkpt>
      <trkpt lat="43.72376" lon="6.96636">
        <ele>782</ele>
        <time>2014-08-31T08:05:39Z</time>
      </trkpt>
      <trkpt lat="43.72377" lon="6.96621">
        <ele>784</ele>
        <time>2014-08-31T08:05:46Z</time>
      </trkpt>
      <trkpt lat="43.72379" lon="6.96614">
        <ele>785</ele>
        <time>2014-08-31T08:05:49Z</time>
      </trkpt>
      <trkpt lat="43.72388" lon="6.96607">
        <ele>786</ele>
        <time>2014-08-31T08:05:54Z</time>
      </trkpt>
      <trkpt lat="43.72395" lon="6.96607">
        <ele>786</ele>
        <time>2014-08-31T08:05:59Z</time>
      </trkpt>
      <trkpt lat="43.72398" lon="6.96605">
        <ele>787</ele>
        <time>2014-08-31T08:06:04Z</time>
      </trkpt>
      <trkpt lat="43.72397" lon="6.96606">
        <ele>786</ele>
        <time>2014-08-31T08:06:09Z</time>
      </trkpt>
      <trkpt lat="43.724" lon="6.96604">
        <ele>786</ele>
        <time>2014-08-31T08:06:14Z</time>
      </trkpt>
      <trkpt lat="43.72403" lon="6.96605">
        <ele>789</ele>
        <time>2014-08-31T08:06:20Z</time>
      </trkpt>
      <trkpt lat="43.72409" lon="6.96606">
        <ele>790</ele>
        <time>2014-08-31T08:06:26Z</time>
      </trkpt>
      <trkpt lat="43.72412" lon="6.96607">
        <ele>790</ele>
        <time>2014-08-31T08:06:29Z</time>
      </trkpt>
      <trkpt lat="43.72416" lon="6.96609">
        <ele>790</ele>
        <time>2014-08-31T08:06:34Z</time>
      </trkpt>
      <trkpt lat="43.72416" lon="6.9661">
        <ele>790</ele>
        <time>2014-08-31T08:06:39Z</time>
      </trkpt>
      <trkpt lat="43.72419" lon="6.96614">
        <ele>792</ele>
        <time>2014-08-31T08:06:44Z</time>
      </trkpt>
      <trkpt lat="43.72423" lon="6.96622">
        <ele>793</ele>
        <time>2014-08-31T08:06:49Z</time>
      </trkpt>
      <trkpt lat="43.72426" lon="6.96637">
        <ele>795</ele>
        <time>2014-08-31T08:06:54Z</time>
      </trkpt>
      <trkpt lat="43.72428" lon="6.9665">
        <ele>797</ele>
        <time>2014-08-31T08:06:59Z</time>
      </trkpt>
      <trkpt lat="43.7243" lon="6.96661">
        <ele>798</ele>
        <time>2014-08-31T08:07:04Z</time>
      </trkpt>
      <trkpt lat="43.72437" lon="6.96677">
        <ele>800</ele>
        <time>2014-08-31T08:07:13Z</time>
      </trkpt>
      <trkpt lat="43.72438" lon="6.96678">
        <ele>800</ele>
        <time>2014-08-31T08:07:14Z</time>
      </trkpt>
      <trkpt lat="43.7245" lon="6.96689">
        <ele>801</ele>
        <time>2014-08-31T08:07:23Z</time>
      </trkpt>
      <trkpt lat="43.72451" lon="6.9669">
        <ele>801</ele>
        <time>2014-08-31T08:07:24Z</time>
      </trkpt>
      <trkpt lat="43.72458" lon="6.96696">
        <ele>802</ele>
        <time>2014-08-31T08:07:29Z</time>
      </trkpt>
      <trkpt lat="43.72463" lon="6.96704">
        <ele>804</ele>
        <time>2014-08-31T08:07:34Z</time>
      </trkpt>
      <trkpt lat="43.72467" lon="6.96711">
        <ele>805</ele>
        <time>2014-08-31T08:07:39Z</time>
      </trkpt>
      <trkpt lat="43.72473" lon="6.96716">
        <ele>807</ele>
        <time>2014-08-31T08:07:44Z</time>
      </trkpt>
      <trkpt lat="43.7248" lon="6.96727">
        <ele>811</ele>
        <time>2014-08-31T08:07:53Z</time>
      </trkpt>
      <trkpt lat="43.7248" lon="6.96728">
        <ele>811</ele>
        <time>2014-08-31T08:07:54Z</time>
      </trkpt>
      <trkpt lat="43.72481" lon="6.96737">
        <ele>814</ele>
        <time>2014-08-31T08:07:59Z</time>
      </trkpt>
      <trkpt lat="43.72483" lon="6.96747">
        <ele>814</ele>
        <time>2014-08-31T08:08:04Z</time>
      </trkpt>
      <trkpt lat="43.72485" lon="6.96757">
        <ele>815</ele>
        <time>2014-08-31T08:08:09Z</time>
      </trkpt>
      <trkpt lat="43.72491" lon="6.96768">
        <ele>817</ele>
        <time>2014-08-31T08:08:15Z</time>
      </trkpt>
      <trkpt lat="43.72496" lon="6.96773">
        <ele>817</ele>
        <time>2014-08-31T08:08:19Z</time>
      </trkpt>
      <trkpt lat="43.72501" lon="6.96767">
        <ele>819</ele>
        <time>2014-08-31T08:08:24Z</time>
      </trkpt>
      <trkpt lat="43.72498" lon="6.96757">
        <ele>817</ele>
        <time>2014-08-31T08:08:29Z</time>
      </trkpt>
      <trkpt lat="43.72502" lon="6.9675">
        <ele>819</ele>
        <time>2014-08-31T08:08:34Z</time>
      </trkpt>
      <trkpt lat="43.72509" lon="6.96754">
        <ele>819</ele>
        <time>2014-08-31T08:08:39Z</time>
      </trkpt>
      <trkpt lat="43.72519" lon="6.96762">
        <ele>820</ele>
        <time>2014-08-31T08:08:47Z</time>
      </trkpt>
      <trkpt lat="43.72521" lon="6.96764">
        <ele>819</ele>
        <time>2014-08-31T08:08:49Z</time>
      </trkpt>
      <trkpt lat="43.72532" lon="6.96773">
        <ele>822</ele>
        <time>2014-08-31T08:08:58Z</time>
      </trkpt>
      <trkpt lat="43.72535" lon="6.96775">
        <ele>822</ele>
        <time>2014-08-31T08:09:00Z</time>
      </trkpt>
      <trkpt lat="43.72543" lon="6.96781">
        <ele>824</ele>
        <time>2014-08-31T08:09:07Z</time>
      </trkpt>
      <trkpt lat="43.72548" lon="6.96786">
        <ele>825</ele>
        <time>2014-08-31T08:09:11Z</time>
      </trkpt>
      <trkpt lat="43.72551" lon="6.96788">
        <ele>826</ele>
        <time>2014-08-31T08:09:14Z</time>
      </trkpt>
      <trkpt lat="43.72557" lon="6.96794">
        <ele>826</ele>
        <time>2014-08-31T08:09:19Z</time>
      </trkpt>
      <trkpt lat="43.72563" lon="6.96798">
        <ele>826</ele>
        <time>2014-08-31T08:09:24Z</time>
      </trkpt>
      <trkpt lat="43.72569" lon="6.96803">
        <ele>827</ele>
        <time>2014-08-31T08:09:29Z</time>
      </trkpt>
      <trkpt lat="43.72575" lon="6.96809">
        <ele>828</ele>
        <time>2014-08-31T08:09:34Z</time>
      </trkpt>
      <trkpt lat="43.7258" lon="6.96818">
        <ele>829</ele>
        <time>2014-08-31T08:09:40Z</time>
      </trkpt>
      <trkpt lat="43.72585" lon="6.96824">
        <ele>829</ele>
        <time>2014-08-31T08:09:44Z</time>
      </trkpt>
      <trkpt lat="43.72591" lon="6.9683">
        <ele>829</ele>
        <time>2014-08-31T08:09:49Z</time>
      </trkpt>
      <trkpt lat="43.72597" lon="6.96836">
        <ele>832</ele>
        <time>2014-08-31T08:09:54Z</time>
      </trkpt>
      <trkpt lat="43.72603" lon="6.96841">
        <ele>832</ele>
        <time>2014-08-31T08:09:59Z</time>
      </trkpt>
      <trkpt lat="43.72611" lon="6.96845">
        <ele>832</ele>
        <time>2014-08-31T08:10:04Z</time>
      </trkpt>
      <trkpt lat="43.72617" lon="6.96849">
        <ele>834</ele>
        <time>2014-08-31T08:10:09Z</time>
      </trkpt>
      <trkpt lat="43.72622" lon="6.96854">
        <ele>836</ele>
        <time>2014-08-31T08:10:14Z</time>
      </trkpt>
      <trkpt lat="43.72625" lon="6.96861">
        <ele>838</ele>
        <time>2014-08-31T08:10:19Z</time>
      </trkpt>
      <trkpt lat="43.72631" lon="6.96864">
        <ele>841</ele>
        <time>2014-08-31T08:10:24Z</time>
      </trkpt>
      <trkpt lat="43.72637" lon="6.96861">
        <ele>841</ele>
        <time>2014-08-31T08:10:29Z</time>
      </trkpt>
      <trkpt lat="43.72642" lon="6.96854">
        <ele>839</ele>
        <time>2014-08-31T08:10:34Z</time>
      </trkpt>
      <trkpt lat="43.72646" lon="6.96848">
        <ele>840</ele>
        <time>2014-08-31T08:10:39Z</time>
      </trkpt>
      <trkpt lat="43.72652" lon="6.96846">
        <ele>842</ele>
        <time>2014-08-31T08:10:44Z</time>
      </trkpt>
      <trkpt lat="43.72661" lon="6.96842">
        <ele>843</ele>
        <time>2014-08-31T08:10:51Z</time>
      </trkpt>
      <trkpt lat="43.72664" lon="6.9684">
        <ele>844</ele>
        <time>2014-08-31T08:10:54Z</time>
      </trkpt>
      <trkpt lat="43.72671" lon="6.96835">
        <ele>844</ele>
        <time>2014-08-31T08:10:59Z</time>
      </trkpt>
      <trkpt lat="43.72679" lon="6.96836">
        <ele>843</ele>
        <time>2014-08-31T08:11:06Z</time>
      </trkpt>
      <trkpt lat="43.72678" lon="6.96836">
        <ele>844</ele>
        <time>2014-08-31T08:11:09Z</time>
      </trkpt>
      <trkpt lat="43.72679" lon="6.96836">
        <ele>843</ele>
        <time>2014-08-31T08:11:14Z</time>
      </trkpt>
      <trkpt lat="43.72678" lon="6.96836">
        <ele>844</ele>
        <time>2014-08-31T08:11:19Z</time>
      </trkpt>
      <trkpt lat="43.72678" lon="6.96835">
        <ele>844</ele>
        <time>2014-08-31T08:11:24Z</time>
      </trkpt>
      <trkpt lat="43.72678" lon="6.96835">
        <ele>845</ele>
        <time>2014-08-31T08:11:29Z</time>
      </trkpt>
      <trkpt lat="43.72678" lon="6.96835">
        <ele>846</ele>
        <time>2014-08-31T08:11:34Z</time>
      </trkpt>
      <trkpt lat="43.72678" lon="6.96835">
        <ele>846</ele>
        <time>2014-08-31T08:11:39Z</time>
      </trkpt>
      <trkpt lat="43.72679" lon="6.96835">
        <ele>846</ele>
        <time>2014-08-31T08:11:44Z</time>
      </trkpt>
      <trkpt lat="43.72682" lon="6.96835">
        <ele>846</ele>
        <time>2014-08-31T08:11:49Z</time>
      </trkpt>
      <trkpt lat="43.72686" lon="6.96829">
        <ele>848</ele>
        <time>2014-08-31T08:11:54Z</time>
      </trkpt>
      <trkpt lat="43.72691" lon="6.96826">
        <ele>847</ele>
        <time>2014-08-31T08:11:59Z</time>
      </trkpt>
      <trkpt lat="43.72694" lon="6.9682">
        <ele>845</ele>
        <time>2014-08-31T08:12:04Z</time>
      </trkpt>
      <trkpt lat="43.72697" lon="6.96814">
        <ele>845</ele>
        <time>2014-08-31T08:12:10Z</time>
      </trkpt>
      <trkpt lat="43.72697" lon="6.96815">
        <ele>845</ele>
        <time>2014-08-31T08:12:14Z</time>
      </trkpt>
      <trkpt lat="43.72697" lon="6.96816">
        <ele>845</ele>
        <time>2014-08-31T08:12:19Z</time>
      </trkpt>
      <trkpt lat="43.72697" lon="6.96817">
        <ele>845</ele>
        <time>2014-08-31T08:12:25Z</time>
      </trkpt>
      <trkpt lat="43.72697" lon="6.96817">
        <ele>845</ele>
        <time>2014-08-31T08:12:29Z</time>
      </trkpt>
      <trkpt lat="43.72697" lon="6.96817">
        <ele>845</ele>
        <time>2014-08-31T08:12:34Z</time>
      </trkpt>
      <trkpt lat="43.72697" lon="6.96817">
        <ele>845</ele>
        <time>2014-08-31T08:12:39Z</time>
      </trkpt>
      <trkpt lat="43.72697" lon="6.96817">
        <ele>845</ele>
        <time>2014-08-31T08:12:44Z</time>
      </trkpt>
      <trkpt lat="43.72697" lon="6.96817">
        <ele>845</ele>
        <time>2014-08-31T08:12:49Z</time>
      </trkpt>
      <trkpt lat="43.72697" lon="6.96817">
        <ele>845</ele>
        <time>2014-08-31T08:12:54Z</time>
      </trkpt>
      <trkpt lat="43.72697" lon="6.96817">
        <ele>845</ele>
        <time>2014-08-31T08:12:59Z</time>
      </trkpt>
      <trkpt lat="43.72697" lon="6.96817">
        <ele>845</ele>
        <time>2014-08-31T08:13:04Z</time>
      </trkpt>
      <trkpt lat="43.72697" lon="6.96817">
        <ele>845</ele>
        <time>2014-08-31T08:13:09Z</time>
      </trkpt>
      <trkpt lat="43.72697" lon="6.96817">
        <ele>845</ele>
        <time>2014-08-31T08:13:14Z</time>
      </trkpt>
      <trkpt lat="43.72697" lon="6.96817">
        <ele>845</ele>
        <time>2014-08-31T08:13:19Z</time>
      </trkpt>
      <trkpt lat="43.72697" lon="6.96817">
        <ele>845</ele>
        <time>2014-08-31T08:13:24Z</time>
      </trkpt>
      <trkpt lat="43.72697" lon="6.96817">
        <ele>845</ele>
        <time>2014-08-31T08:13:29Z</time>
      </trkpt>
      <trkpt lat="43.72697" lon="6.96817">
        <ele>845</ele>
        <time>2014-08-31T08:13:34Z</time>
      </trkpt>
      <trkpt lat="43.72697" lon="6.96817">
        <ele>845</ele>
        <time>2014-08-31T08:13:39Z</time>
      </trkpt>
      <trkpt lat="43.72697" lon="6.96817">
        <ele>845</ele>
        <time>2014-08-31T08:13:44Z</time>
      </trkpt>
      <trkpt lat="43.72697" lon="6.96817">
        <ele>845</ele>
        <time>2014-08-31T08:13:49Z</time>
      </trkpt>
      <trkpt lat="43.72697" lon="6.96817">
        <ele>845</ele>
        <time>2014-08-31T08:13:54Z</time>
      </trkpt>
      <trkpt lat="43.72697" lon="6.96817">
        <ele>845</ele>
        <time>2014-08-31T08:13:59Z</time>
      </trkpt>
      <trkpt lat="43.72697" lon="6.96817">
        <ele>845</ele>
        <time>2014-08-31T08:14:04Z</time>
      </trkpt>
      <trkpt lat="43.72697" lon="6.96817">
        <ele>845</ele>
        <time>2014-08-31T08:14:09Z</time>
      </trkpt>
      <trkpt lat="43.72697" lon="6.96817">
        <ele>845</ele>
        <time>2014-08-31T08:14:14Z</time>
      </trkpt>
      <trkpt lat="43.72697" lon="6.96817">
        <ele>845</ele>
        <time>2014-08-31T08:14:19Z</time>
      </trkpt>
      <trkpt lat="43.72697" lon="6.96817">
        <ele>845</ele>
        <time>2014-08-31T08:14:24Z</time>
      </trkpt>
      <trkpt lat="43.72697" lon="6.96817">
        <ele>845</ele>
        <time>2014-08-31T08:14:29Z</time>
      </trkpt>
      <trkpt lat="43.72697" lon="6.96817">
        <ele>845</ele>
        <time>2014-08-31T08:14:34Z</time>
      </trkpt>
      <trkpt lat="43.72697" lon="6.96817">
        <ele>845</ele>
        <time>2014-08-31T08:14:40Z</time>
      </trkpt>
      <trkpt lat="43.72697" lon="6.96817">
        <ele>845</ele>
        <time>2014-08-31T08:14:44Z</time>
      </trkpt>
      <trkpt lat="43.72697" lon="6.96817">
        <ele>845</ele>
        <time>2014-08-31T08:14:49Z</time>
      </trkpt>
      <trkpt lat="43.72697" lon="6.96817">
        <ele>845</ele>
        <time>2014-08-31T08:14:54Z</time>
      </trkpt>
      <trkpt lat="43.72697" lon="6.96817">
        <ele>845</ele>
        <time>2014-08-31T08:15:01Z</time>
      </trkpt>
      <trkpt lat="43.72697" lon="6.96817">
        <ele>845</ele>
        <time>2014-08-31T08:15:04Z</time>
      </trkpt>
      <trkpt lat="43.72697" lon="6.96817">
        <ele>845</ele>
        <time>2014-08-31T08:15:09Z</time>
      </trkpt>
      <trkpt lat="43.72698" lon="6.96817">
        <ele>843</ele>
        <time>2014-08-31T08:15:14Z</time>
      </trkpt>
      <trkpt lat="43.72697" lon="6.96817">
        <ele>843</ele>
        <time>2014-08-31T08:15:19Z</time>
      </trkpt>
      <trkpt lat="43.72697" lon="6.96818">
        <ele>843</ele>
        <time>2014-08-31T08:15:27Z</time>
      </trkpt>
      <trkpt lat="43.72697" lon="6.96818">
        <ele>843</ele>
        <time>2014-08-31T08:15:30Z</time>
      </trkpt>
      <trkpt lat="43.72697" lon="6.96814">
        <ele>843</ele>
        <time>2014-08-31T08:15:34Z</time>
      </trkpt>
      <trkpt lat="43.72702" lon="6.96799">
        <ele>845</ele>
        <time>2014-08-31T08:15:39Z</time>
      </trkpt>
      <trkpt lat="43.72708" lon="6.96782">
        <ele>846</ele>
        <time>2014-08-31T08:15:44Z</time>
      </trkpt>
      <trkpt lat="43.72712" lon="6.96764">
        <ele>848</ele>
        <time>2014-08-31T08:15:49Z</time>
      </trkpt>
      <trkpt lat="43.72715" lon="6.96745">
        <ele>849</ele>
        <time>2014-08-31T08:15:54Z</time>
      </trkpt>
      <trkpt lat="43.72718" lon="6.96727">
        <ele>850</ele>
        <time>2014-08-31T08:15:59Z</time>
      </trkpt>
      <trkpt lat="43.72721" lon="6.96709">
        <ele>851</ele>
        <time>2014-08-31T08:16:04Z</time>
      </trkpt>
      <trkpt lat="43.72723" lon="6.9669">
        <ele>852</ele>
        <time>2014-08-31T08:16:09Z</time>
      </trkpt>
      <trkpt lat="43.72726" lon="6.96673">
        <ele>852</ele>
        <time>2014-08-31T08:16:14Z</time>
      </trkpt>
      <trkpt lat="43.72729" lon="6.96655">
        <ele>854</ele>
        <time>2014-08-31T08:16:19Z</time>
      </trkpt>
      <trkpt lat="43.7273" lon="6.96637">
        <ele>854</ele>
        <time>2014-08-31T08:16:24Z</time>
      </trkpt>
      <trkpt lat="43.72732" lon="6.96618">
        <ele>855</ele>
        <time>2014-08-31T08:16:29Z</time>
      </trkpt>
      <trkpt lat="43.72734" lon="6.96599">
        <ele>857</ele>
        <time>2014-08-31T08:16:34Z</time>
      </trkpt>
      <trkpt lat="43.72735" lon="6.9658">
        <ele>858</ele>
        <time>2014-08-31T08:16:39Z</time>
      </trkpt>
      <trkpt lat="43.72736" lon="6.9656">
        <ele>859</ele>
        <time>2014-08-31T08:16:44Z</time>
      </trkpt>
      <trkpt lat="43.72736" lon="6.96539">
        <ele>860</ele>
        <time>2014-08-31T08:16:49Z</time>
      </trkpt>
      <trkpt lat="43.72735" lon="6.96518">
        <ele>861</ele>
        <time>2014-08-31T08:16:54Z</time>
      </trkpt>
      <trkpt lat="43.72735" lon="6.96497">
        <ele>862</ele>
        <time>2014-08-31T08:16:59Z</time>
      </trkpt>
      <trkpt lat="43.72734" lon="6.96476">
        <ele>863</ele>
        <time>2014-08-31T08:17:04Z</time>
      </trkpt>
      <trkpt lat="43.72734" lon="6.96456">
        <ele>865</ele>
        <time>2014-08-31T08:17:09Z</time>
      </trkpt>
      <trkpt lat="43.72733" lon="6.96435">
        <ele>866</ele>
        <time>2014-08-31T08:17:14Z</time>
      </trkpt>
      <trkpt lat="43.72732" lon="6.96415">
        <ele>866</ele>
        <time>2014-08-31T08:17:19Z</time>
      </trkpt>
      <trkpt lat="43.72732" lon="6.96395">
        <ele>867</ele>
        <time>2014-08-31T08:17:24Z</time>
      </trkpt>
      <trkpt lat="43.72732" lon="6.96375">
        <ele>868</ele>
        <time>2014-08-31T08:17:29Z</time>
      </trkpt>
      <trkpt lat="43.72731" lon="6.96355">
        <ele>869</ele>
        <time>2014-08-31T08:17:34Z</time>
      </trkpt>
      <trkpt lat="43.72731" lon="6.96334">
        <ele>870</ele>
        <time>2014-08-31T08:17:39Z</time>
      </trkpt>
      <trkpt lat="43.7273" lon="6.96313">
        <ele>871</ele>
        <time>2014-08-31T08:17:44Z</time>
      </trkpt>
      <trkpt lat="43.7273" lon="6.96293">
        <ele>872</ele>
        <time>2014-08-31T08:17:49Z</time>
      </trkpt>
      <trkpt lat="43.7273" lon="6.96272">
        <ele>873</ele>
        <time>2014-08-31T08:17:54Z</time>
      </trkpt>
      <trkpt lat="43.72731" lon="6.96251">
        <ele>875</ele>
        <time>2014-08-31T08:17:59Z</time>
      </trkpt>
      <trkpt lat="43.72735" lon="6.96232">
        <ele>877</ele>
        <time>2014-08-31T08:18:04Z</time>
      </trkpt>
      <trkpt lat="43.7274" lon="6.96214">
        <ele>878</ele>
        <time>2014-08-31T08:18:09Z</time>
      </trkpt>
      <trkpt lat="43.72746" lon="6.96197">
        <ele>879</ele>
        <time>2014-08-31T08:18:14Z</time>
      </trkpt>
      <trkpt lat="43.72754" lon="6.9618">
        <ele>879</ele>
        <time>2014-08-31T08:18:19Z</time>
      </trkpt>
      <trkpt lat="43.72764" lon="6.96164">
        <ele>880</ele>
        <time>2014-08-31T08:18:24Z</time>
      </trkpt>
      <trkpt lat="43.72773" lon="6.96149">
        <ele>880</ele>
        <time>2014-08-31T08:18:29Z</time>
      </trkpt>
      <trkpt lat="43.72783" lon="6.96135">
        <ele>881</ele>
        <time>2014-08-31T08:18:34Z</time>
      </trkpt>
      <trkpt lat="43.72794" lon="6.96122">
        <ele>882</ele>
        <time>2014-08-31T08:18:39Z</time>
      </trkpt>
      <trkpt lat="43.72808" lon="6.96109">
        <ele>882</ele>
        <time>2014-08-31T08:18:45Z</time>
      </trkpt>
      <trkpt lat="43.72817" lon="6.96101">
        <ele>882</ele>
        <time>2014-08-31T08:18:49Z</time>
      </trkpt>
      <trkpt lat="43.72832" lon="6.96091">
        <ele>882</ele>
        <time>2014-08-31T08:18:55Z</time>
      </trkpt>
      <trkpt lat="43.7285" lon="6.9608">
        <ele>885</ele>
        <time>2014-08-31T08:19:02Z</time>
      </trkpt>
      <trkpt lat="43.72855" lon="6.96076">
        <ele>886</ele>
        <time>2014-08-31T08:19:04Z</time>
      </trkpt>
      <trkpt lat="43.72869" lon="6.96068">
        <ele>888</ele>
        <time>2014-08-31T08:19:10Z</time>
      </trkpt>
      <trkpt lat="43.72878" lon="6.96063">
        <ele>890</ele>
        <time>2014-08-31T08:19:14Z</time>
      </trkpt>
      <trkpt lat="43.72893" lon="6.96055">
        <ele>891</ele>
        <time>2014-08-31T08:19:20Z</time>
      </trkpt>
      <trkpt lat="43.72903" lon="6.9605">
        <ele>890</ele>
        <time>2014-08-31T08:19:24Z</time>
      </trkpt>
      <trkpt lat="43.72919" lon="6.96041">
        <ele>890</ele>
        <time>2014-08-31T08:19:30Z</time>
      </trkpt>
      <trkpt lat="43.7293" lon="6.96035">
        <ele>891</ele>
        <time>2014-08-31T08:19:34Z</time>
      </trkpt>
      <trkpt lat="43.72942" lon="6.96027">
        <ele>892</ele>
        <time>2014-08-31T08:19:39Z</time>
      </trkpt>
      <trkpt lat="43.72957" lon="6.96018">
        <ele>894</ele>
        <time>2014-08-31T08:19:45Z</time>
      </trkpt>
      <trkpt lat="43.72967" lon="6.96011">
        <ele>895</ele>
        <time>2014-08-31T08:19:49Z</time>
      </trkpt>
      <trkpt lat="43.7298" lon="6.96005">
        <ele>895</ele>
        <time>2014-08-31T08:19:54Z</time>
      </trkpt>
      <trkpt lat="43.72997" lon="6.95994">
        <ele>897</ele>
        <time>2014-08-31T08:20:01Z</time>
      </trkpt>
      <trkpt lat="43.73005" lon="6.95991">
        <ele>897</ele>
        <time>2014-08-31T08:20:04Z</time>
      </trkpt>
      <trkpt lat="43.73018" lon="6.95987">
        <ele>898</ele>
        <time>2014-08-31T08:20:09Z</time>
      </trkpt>
      <trkpt lat="43.73032" lon="6.95984">
        <ele>899</ele>
        <time>2014-08-31T08:20:14Z</time>
      </trkpt>
      <trkpt lat="43.73045" lon="6.95982">
        <ele>900</ele>
        <time>2014-08-31T08:20:19Z</time>
      </trkpt>
      <trkpt lat="43.73059" lon="6.95978">
        <ele>900</ele>
        <time>2014-08-31T08:20:24Z</time>
      </trkpt>
      <trkpt lat="43.73072" lon="6.95972">
        <ele>900</ele>
        <time>2014-08-31T08:20:29Z</time>
      </trkpt>
      <trkpt lat="43.73085" lon="6.95964">
        <ele>901</ele>
        <time>2014-08-31T08:20:34Z</time>
      </trkpt>
      <trkpt lat="43.73097" lon="6.95956">
        <ele>904</ele>
        <time>2014-08-31T08:20:39Z</time>
      </trkpt>
      <trkpt lat="43.7311" lon="6.95947">
        <ele>903</ele>
        <time>2014-08-31T08:20:44Z</time>
      </trkpt>
      <trkpt lat="43.73123" lon="6.95938">
        <ele>904</ele>
        <time>2014-08-31T08:20:49Z</time>
      </trkpt>
      <trkpt lat="43.73135" lon="6.95928">
        <ele>906</ele>
        <time>2014-08-31T08:20:54Z</time>
      </trkpt>
      <trkpt lat="43.73147" lon="6.95921">
        <ele>907</ele>
        <time>2014-08-31T08:20:59Z</time>
      </trkpt>
      <trkpt lat="43.73159" lon="6.95912">
        <ele>909</ele>
        <time>2014-08-31T08:21:04Z</time>
      </trkpt>
      <trkpt lat="43.73172" lon="6.95904">
        <ele>909</ele>
        <time>2014-08-31T08:21:09Z</time>
      </trkpt>
      <trkpt lat="43.73184" lon="6.95895">
        <ele>909</ele>
        <time>2014-08-31T08:21:14Z</time>
      </trkpt>
      <trkpt lat="43.73195" lon="6.95885">
        <ele>912</ele>
        <time>2014-08-31T08:21:19Z</time>
      </trkpt>
      <trkpt lat="43.73205" lon="6.95872">
        <ele>912</ele>
        <time>2014-08-31T08:21:24Z</time>
      </trkpt>
      <trkpt lat="43.7322" lon="6.95855">
        <ele>912</ele>
        <time>2014-08-31T08:21:31Z</time>
      </trkpt>
      <trkpt lat="43.73226" lon="6.95848">
        <ele>913</ele>
        <time>2014-08-31T08:21:34Z</time>
      </trkpt>
      <trkpt lat="43.73237" lon="6.95836">
        <ele>915</ele>
        <time>2014-08-31T08:21:39Z</time>
      </trkpt>
      <trkpt lat="43.73248" lon="6.95824">
        <ele>916</ele>
        <time>2014-08-31T08:21:44Z</time>
      </trkpt>
      <trkpt lat="43.7326" lon="6.95814">
        <ele>917</ele>
        <time>2014-08-31T08:21:49Z</time>
      </trkpt>
      <trkpt lat="43.73274" lon="6.95808">
        <ele>919</ele>
        <time>2014-08-31T08:21:54Z</time>
      </trkpt>
      <trkpt lat="43.73288" lon="6.95806">
        <ele>920</ele>
        <time>2014-08-31T08:21:59Z</time>
      </trkpt>
      <trkpt lat="43.73302" lon="6.95808">
        <ele>921</ele>
        <time>2014-08-31T08:22:04Z</time>
      </trkpt>
      <trkpt lat="43.73316" lon="6.9581">
        <ele>922</ele>
        <time>2014-08-31T08:22:09Z</time>
      </trkpt>
      <trkpt lat="43.73337" lon="6.95815">
        <ele>926</ele>
        <time>2014-08-31T08:22:17Z</time>
      </trkpt>
      <trkpt lat="43.73343" lon="6.95815">
        <ele>929</ele>
        <time>2014-08-31T08:22:19Z</time>
      </trkpt>
      <trkpt lat="43.73358" lon="6.95817">
        <ele>931</ele>
        <time>2014-08-31T08:22:25Z</time>
      </trkpt>
      <trkpt lat="43.73369" lon="6.95817">
        <ele>929</ele>
        <time>2014-08-31T08:22:29Z</time>
      </trkpt>
      <trkpt lat="43.73383" lon="6.95813">
        <ele>928</ele>
        <time>2014-08-31T08:22:34Z</time>
      </trkpt>
      <trkpt lat="43.73394" lon="6.958">
        <ele>928</ele>
        <time>2014-08-31T08:22:39Z</time>
      </trkpt>
      <trkpt lat="43.73398" lon="6.95782">
        <ele>930</ele>
        <time>2014-08-31T08:22:44Z</time>
      </trkpt>
      <trkpt lat="43.73397" lon="6.95763">
        <ele>931</ele>
        <time>2014-08-31T08:22:49Z</time>
      </trkpt>
      <trkpt lat="43.73389" lon="6.95747">
        <ele>932</ele>
        <time>2014-08-31T08:22:54Z</time>
      </trkpt>
      <trkpt lat="43.73382" lon="6.9573">
        <ele>934</ele>
        <time>2014-08-31T08:22:59Z</time>
      </trkpt>
      <trkpt lat="43.73377" lon="6.95713">
        <ele>935</ele>
        <time>2014-08-31T08:23:04Z</time>
      </trkpt>
      <trkpt lat="43.7338" lon="6.95694">
        <ele>935</ele>
        <time>2014-08-31T08:23:09Z</time>
      </trkpt>
      <trkpt lat="43.73388" lon="6.95677">
        <ele>935</ele>
        <time>2014-08-31T08:23:14Z</time>
      </trkpt>
      <trkpt lat="43.73395" lon="6.9566">
        <ele>935</ele>
        <time>2014-08-31T08:23:19Z</time>
      </trkpt>
      <trkpt lat="43.73409" lon="6.95632">
        <ele>936</ele>
        <time>2014-08-31T08:23:28Z</time>
      </trkpt>
      <trkpt lat="43.73411" lon="6.95629">
        <ele>937</ele>
        <time>2014-08-31T08:23:29Z</time>
      </trkpt>
      <trkpt lat="43.7342" lon="6.95618">
        <ele>938</ele>
        <time>2014-08-31T08:23:34Z</time>
      </trkpt>
      <trkpt lat="43.7343" lon="6.95607">
        <ele>937</ele>
        <time>2014-08-31T08:23:39Z</time>
      </trkpt>
      <trkpt lat="43.73438" lon="6.95598">
        <ele>938</ele>
        <time>2014-08-31T08:23:44Z</time>
      </trkpt>
      <trkpt lat="43.73452" lon="6.95581">
        <ele>939</ele>
        <time>2014-08-31T08:23:52Z</time>
      </trkpt>
      <trkpt lat="43.73455" lon="6.95575">
        <ele>938</ele>
        <time>2014-08-31T08:23:54Z</time>
      </trkpt>
      <trkpt lat="43.73459" lon="6.95559">
        <ele>940</ele>
        <time>2014-08-31T08:23:59Z</time>
      </trkpt>
      <trkpt lat="43.7346" lon="6.95542">
        <ele>941</ele>
        <time>2014-08-31T08:24:04Z</time>
      </trkpt>
      <trkpt lat="43.73459" lon="6.95515">
        <ele>944</ele>
        <time>2014-08-31T08:24:12Z</time>
      </trkpt>
      <trkpt lat="43.73459" lon="6.95508">
        <ele>945</ele>
        <time>2014-08-31T08:24:14Z</time>
      </trkpt>
      <trkpt lat="43.7346" lon="6.95491">
        <ele>947</ele>
        <time>2014-08-31T08:24:19Z</time>
      </trkpt>
      <trkpt lat="43.7346" lon="6.95475">
        <ele>947</ele>
        <time>2014-08-31T08:24:24Z</time>
      </trkpt>
      <trkpt lat="43.73461" lon="6.95458">
        <ele>951</ele>
        <time>2014-08-31T08:24:29Z</time>
      </trkpt>
      <trkpt lat="43.73461" lon="6.9544">
        <ele>951</ele>
        <time>2014-08-31T08:24:34Z</time>
      </trkpt>
      <trkpt lat="43.73461" lon="6.95423">
        <ele>953</ele>
        <time>2014-08-31T08:24:39Z</time>
      </trkpt>
      <trkpt lat="43.73462" lon="6.95396">
        <ele>953</ele>
        <time>2014-08-31T08:24:47Z</time>
      </trkpt>
      <trkpt lat="43.73462" lon="6.95389">
        <ele>952</ele>
        <time>2014-08-31T08:24:49Z</time>
      </trkpt>
      <trkpt lat="43.73465" lon="6.95371">
        <ele>952</ele>
        <time>2014-08-31T08:24:54Z</time>
      </trkpt>
      <trkpt lat="43.73468" lon="6.95354">
        <ele>951</ele>
        <time>2014-08-31T08:24:59Z</time>
      </trkpt>
      <trkpt lat="43.73473" lon="6.95338">
        <ele>951</ele>
        <time>2014-08-31T08:25:04Z</time>
      </trkpt>
      <trkpt lat="43.73478" lon="6.95323">
        <ele>953</ele>
        <time>2014-08-31T08:25:09Z</time>
      </trkpt>
      <trkpt lat="43.73484" lon="6.95308">
        <ele>955</ele>
        <time>2014-08-31T08:25:14Z</time>
      </trkpt>
      <trkpt lat="43.73492" lon="6.95295">
        <ele>957</ele>
        <time>2014-08-31T08:25:19Z</time>
      </trkpt>
      <trkpt lat="43.73501" lon="6.95282">
        <ele>958</ele>
        <time>2014-08-31T08:25:24Z</time>
      </trkpt>
      <trkpt lat="43.73509" lon="6.9527">
        <ele>957</ele>
        <time>2014-08-31T08:25:29Z</time>
      </trkpt>
      <trkpt lat="43.73517" lon="6.95256">
        <ele>958</ele>
        <time>2014-08-31T08:25:34Z</time>
      </trkpt>
      <trkpt lat="43.73526" lon="6.95244">
        <ele>958</ele>
        <time>2014-08-31T08:25:39Z</time>
      </trkpt>
      <trkpt lat="43.73536" lon="6.95231">
        <ele>960</ele>
        <time>2014-08-31T08:25:44Z</time>
      </trkpt>
      <trkpt lat="43.73545" lon="6.95219">
        <ele>961</ele>
        <time>2014-08-31T08:25:49Z</time>
      </trkpt>
      <trkpt lat="43.73553" lon="6.95207">
        <ele>961</ele>
        <time>2014-08-31T08:25:54Z</time>
      </trkpt>
      <trkpt lat="43.73562" lon="6.95196">
        <ele>961</ele>
        <time>2014-08-31T08:25:59Z</time>
      </trkpt>
      <trkpt lat="43.73571" lon="6.95185">
        <ele>962</ele>
        <time>2014-08-31T08:26:04Z</time>
      </trkpt>
      <trkpt lat="43.73583" lon="6.95175">
        <ele>964</ele>
        <time>2014-08-31T08:26:10Z</time>
      </trkpt>
      <trkpt lat="43.73591" lon="6.95169">
        <ele>964</ele>
        <time>2014-08-31T08:26:14Z</time>
      </trkpt>
      <trkpt lat="43.73605" lon="6.95157">
        <ele>964</ele>
        <time>2014-08-31T08:26:21Z</time>
      </trkpt>
      <trkpt lat="43.73611" lon="6.95151">
        <ele>962</ele>
        <time>2014-08-31T08:26:24Z</time>
      </trkpt>
      <trkpt lat="43.73617" lon="6.95136">
        <ele>964</ele>
        <time>2014-08-31T08:26:29Z</time>
      </trkpt>
      <trkpt lat="43.73613" lon="6.95121">
        <ele>966</ele>
        <time>2014-08-31T08:26:34Z</time>
      </trkpt>
      <trkpt lat="43.73604" lon="6.95109">
        <ele>967</ele>
        <time>2014-08-31T08:26:39Z</time>
      </trkpt>
      <trkpt lat="43.7359" lon="6.95106">
        <ele>969</ele>
        <time>2014-08-31T08:26:45Z</time>
      </trkpt>
      <trkpt lat="43.73581" lon="6.95106">
        <ele>969</ele>
        <time>2014-08-31T08:26:49Z</time>
      </trkpt>
      <trkpt lat="43.73569" lon="6.95105">
        <ele>970</ele>
        <time>2014-08-31T08:26:54Z</time>
      </trkpt>
      <trkpt lat="43.73556" lon="6.95106">
        <ele>973</ele>
        <time>2014-08-31T08:26:59Z</time>
      </trkpt>
      <trkpt lat="43.73536" lon="6.95107">
        <ele>973</ele>
        <time>2014-08-31T08:27:07Z</time>
      </trkpt>
      <trkpt lat="43.73531" lon="6.95107">
        <ele>973</ele>
        <time>2014-08-31T08:27:09Z</time>
      </trkpt>
      <trkpt lat="43.73513" lon="6.95108">
        <ele>977</ele>
        <time>2014-08-31T08:27:16Z</time>
      </trkpt>
      <trkpt lat="43.73506" lon="6.95108">
        <ele>977</ele>
        <time>2014-08-31T08:27:19Z</time>
      </trkpt>
      <trkpt lat="43.73493" lon="6.95108">
        <ele>977</ele>
        <time>2014-08-31T08:27:24Z</time>
      </trkpt>
      <trkpt lat="43.7348" lon="6.95108">
        <ele>978</ele>
        <time>2014-08-31T08:27:29Z</time>
      </trkpt>
      <trkpt lat="43.73468" lon="6.95108">
        <ele>978</ele>
        <time>2014-08-31T08:27:34Z</time>
      </trkpt>
      <trkpt lat="43.73453" lon="6.95106">
        <ele>978</ele>
        <time>2014-08-31T08:27:40Z</time>
      </trkpt>
      <trkpt lat="43.73444" lon="6.95104">
        <ele>978</ele>
        <time>2014-08-31T08:27:44Z</time>
      </trkpt>
      <trkpt lat="43.73433" lon="6.95099">
        <ele>979</ele>
        <time>2014-08-31T08:27:49Z</time>
      </trkpt>
      <trkpt lat="43.73422" lon="6.95093">
        <ele>978</ele>
        <time>2014-08-31T08:27:54Z</time>
      </trkpt>
      <trkpt lat="43.73411" lon="6.95086">
        <ele>979</ele>
        <time>2014-08-31T08:27:59Z</time>
      </trkpt>
      <trkpt lat="43.734" lon="6.95084">
        <ele>980</ele>
        <time>2014-08-31T08:28:04Z</time>
      </trkpt>
      <trkpt lat="43.73389" lon="6.95089">
        <ele>981</ele>
        <time>2014-08-31T08:28:09Z</time>
      </trkpt>
      <trkpt lat="43.7338" lon="6.95099">
        <ele>982</ele>
        <time>2014-08-31T08:28:14Z</time>
      </trkpt>
      <trkpt lat="43.73372" lon="6.95113">
        <ele>983</ele>
        <time>2014-08-31T08:28:19Z</time>
      </trkpt>
      <trkpt lat="43.73364" lon="6.95128">
        <ele>984</ele>
        <time>2014-08-31T08:28:24Z</time>
      </trkpt>
      <trkpt lat="43.73351" lon="6.95147">
        <ele>986</ele>
        <time>2014-08-31T08:28:32Z</time>
      </trkpt>
      <trkpt lat="43.73347" lon="6.95153">
        <ele>986</ele>
        <time>2014-08-31T08:28:34Z</time>
      </trkpt>
      <trkpt lat="43.73337" lon="6.95163">
        <ele>987</ele>
        <time>2014-08-31T08:28:39Z</time>
      </trkpt>
      <trkpt lat="43.73328" lon="6.95171">
        <ele>987</ele>
        <time>2014-08-31T08:28:44Z</time>
      </trkpt>
      <trkpt lat="43.73314" lon="6.95179">
        <ele>988</ele>
        <time>2014-08-31T08:28:50Z</time>
      </trkpt>
      <trkpt lat="43.73305" lon="6.95184">
        <ele>989</ele>
        <time>2014-08-31T08:28:54Z</time>
      </trkpt>
      <trkpt lat="43.7329" lon="6.95185">
        <ele>990</ele>
        <time>2014-08-31T08:29:00Z</time>
      </trkpt>
      <trkpt lat="43.7328" lon="6.95184">
        <ele>991</ele>
        <time>2014-08-31T08:29:04Z</time>
      </trkpt>
      <trkpt lat="43.73259" lon="6.9518">
        <ele>992</ele>
        <time>2014-08-31T08:29:12Z</time>
      </trkpt>
      <trkpt lat="43.73254" lon="6.95179">
        <ele>992</ele>
        <time>2014-08-31T08:29:14Z</time>
      </trkpt>
      <trkpt lat="43.73239" lon="6.95178">
        <ele>995</ele>
        <time>2014-08-31T08:29:20Z</time>
      </trkpt>
      <trkpt lat="43.73221" lon="6.95175">
        <ele>993</ele>
        <time>2014-08-31T08:29:27Z</time>
      </trkpt>
      <trkpt lat="43.73216" lon="6.95174">
        <ele>993</ele>
        <time>2014-08-31T08:29:29Z</time>
      </trkpt>
      <trkpt lat="43.732" lon="6.95171">
        <ele>997</ele>
        <time>2014-08-31T08:29:36Z</time>
      </trkpt>
      <trkpt lat="43.73193" lon="6.9517">
        <ele>998</ele>
        <time>2014-08-31T08:29:39Z</time>
      </trkpt>
      <trkpt lat="43.73182" lon="6.95175">
        <ele>998</ele>
        <time>2014-08-31T08:29:44Z</time>
      </trkpt>
      <trkpt lat="43.73172" lon="6.95186">
        <ele>1000</ele>
        <time>2014-08-31T08:29:49Z</time>
      </trkpt>
      <trkpt lat="43.73167" lon="6.95202">
        <ele>1001</ele>
        <time>2014-08-31T08:29:54Z</time>
      </trkpt>
      <trkpt lat="43.73167" lon="6.95225">
        <ele>1002</ele>
        <time>2014-08-31T08:30:01Z</time>
      </trkpt>
      <trkpt lat="43.73167" lon="6.95235">
        <ele>1001</ele>
        <time>2014-08-31T08:30:04Z</time>
      </trkpt>
      <trkpt lat="43.73167" lon="6.95251">
        <ele>1002</ele>
        <time>2014-08-31T08:30:09Z</time>
      </trkpt>
      <trkpt lat="43.73165" lon="6.95267">
        <ele>1003</ele>
        <time>2014-08-31T08:30:14Z</time>
      </trkpt>
      <trkpt lat="43.73158" lon="6.95291">
        <ele>1006</ele>
        <time>2014-08-31T08:30:22Z</time>
      </trkpt>
      <trkpt lat="43.73154" lon="6.95296">
        <ele>1007</ele>
        <time>2014-08-31T08:30:24Z</time>
      </trkpt>
      <trkpt lat="43.73147" lon="6.95309">
        <ele>1008</ele>
        <time>2014-08-31T08:30:29Z</time>
      </trkpt>
      <trkpt lat="43.7314" lon="6.95321">
        <ele>1009</ele>
        <time>2014-08-31T08:30:34Z</time>
      </trkpt>
      <trkpt lat="43.73132" lon="6.95334">
        <ele>1011</ele>
        <time>2014-08-31T08:30:39Z</time>
      </trkpt>
      <trkpt lat="43.7312" lon="6.9534">
        <ele>1012</ele>
        <time>2014-08-31T08:30:44Z</time>
      </trkpt>
      <trkpt lat="43.7311" lon="6.95329">
        <ele>1013</ele>
        <time>2014-08-31T08:30:49Z</time>
      </trkpt>
      <trkpt lat="43.73113" lon="6.95313">
        <ele>1013</ele>
        <time>2014-08-31T08:30:54Z</time>
      </trkpt>
      <trkpt lat="43.73121" lon="6.95298">
        <ele>1013</ele>
        <time>2014-08-31T08:30:59Z</time>
      </trkpt>
      <trkpt lat="43.73126" lon="6.95281">
        <ele>1014</ele>
        <time>2014-08-31T08:31:04Z</time>
      </trkpt>
      <trkpt lat="43.7313" lon="6.95263">
        <ele>1014</ele>
        <time>2014-08-31T08:31:09Z</time>
      </trkpt>
      <trkpt lat="43.73131" lon="6.95246">
        <ele>1015</ele>
        <time>2014-08-31T08:31:14Z</time>
      </trkpt>
      <trkpt lat="43.73114" lon="6.95245">
        <ele>1018</ele>
        <time>2014-08-31T08:31:23Z</time>
      </trkpt>
      <trkpt lat="43.73112" lon="6.95247">
        <ele>1017</ele>
        <time>2014-08-31T08:31:24Z</time>
      </trkpt>
      <trkpt lat="43.73105" lon="6.95257">
        <ele>1018</ele>
        <time>2014-08-31T08:31:29Z</time>
      </trkpt>
      <trkpt lat="43.73096" lon="6.95268">
        <ele>1019</ele>
        <time>2014-08-31T08:31:34Z</time>
      </trkpt>
      <trkpt lat="43.73089" lon="6.95281">
        <ele>1020</ele>
        <time>2014-08-31T08:31:39Z</time>
      </trkpt>
      <trkpt lat="43.7308" lon="6.95291">
        <ele>1021</ele>
        <time>2014-08-31T08:31:44Z</time>
      </trkpt>
      <trkpt lat="43.73068" lon="6.95288">
        <ele>1022</ele>
        <time>2014-08-31T08:31:49Z</time>
      </trkpt>
      <trkpt lat="43.73058" lon="6.95286">
        <ele>1023</ele>
        <time>2014-08-31T08:31:54Z</time>
      </trkpt>
      <trkpt lat="43.73057" lon="6.95285">
        <ele>1022</ele>
        <time>2014-08-31T08:31:59Z</time>
      </trkpt>
      <trkpt lat="43.73059" lon="6.95284">
        <ele>1022</ele>
        <time>2014-08-31T08:32:04Z</time>
      </trkpt>
      <trkpt lat="43.73059" lon="6.95284">
        <ele>1023</ele>
        <time>2014-08-31T08:32:09Z</time>
      </trkpt>
      <trkpt lat="43.73059" lon="6.95284">
        <ele>1023</ele>
        <time>2014-08-31T08:32:14Z</time>
      </trkpt>
      <trkpt lat="43.73059" lon="6.95284">
        <ele>1023</ele>
        <time>2014-08-31T08:32:19Z</time>
      </trkpt>
      <trkpt lat="43.73059" lon="6.95284">
        <ele>1023</ele>
        <time>2014-08-31T08:32:24Z</time>
      </trkpt>
      <trkpt lat="43.73059" lon="6.95284">
        <ele>1023</ele>
        <time>2014-08-31T08:32:29Z</time>
      </trkpt>
      <trkpt lat="43.73059" lon="6.95284">
        <ele>1023</ele>
        <time>2014-08-31T08:32:35Z</time>
      </trkpt>
      <trkpt lat="43.73059" lon="6.95284">
        <ele>1023</ele>
        <time>2014-08-31T08:32:43Z</time>
      </trkpt>
      <trkpt lat="43.73059" lon="6.95284">
        <ele>1023</ele>
        <time>2014-08-31T08:32:44Z</time>
      </trkpt>
      <trkpt lat="43.73059" lon="6.95284">
        <ele>1023</ele>
        <time>2014-08-31T08:32:49Z</time>
      </trkpt>
      <trkpt lat="43.73059" lon="6.95284">
        <ele>1023</ele>
        <time>2014-08-31T08:32:56Z</time>
      </trkpt>
      <trkpt lat="43.73059" lon="6.95284">
        <ele>1023</ele>
        <time>2014-08-31T08:32:59Z</time>
      </trkpt>
      <trkpt lat="43.73059" lon="6.95284">
        <ele>1023</ele>
        <time>2014-08-31T08:33:05Z</time>
      </trkpt>
      <trkpt lat="43.73059" lon="6.95284">
        <ele>1023</ele>
        <time>2014-08-31T08:33:10Z</time>
      </trkpt>
      <trkpt lat="43.73059" lon="6.95284">
        <ele>1023</ele>
        <time>2014-08-31T08:33:15Z</time>
      </trkpt>
      <trkpt lat="43.73059" lon="6.95284">
        <ele>1023</ele>
        <time>2014-08-31T08:33:19Z</time>
      </trkpt>
      <trkpt lat="43.73059" lon="6.95284">
        <ele>1023</ele>
        <time>2014-08-31T08:33:24Z</time>
      </trkpt>
      <trkpt lat="43.73059" lon="6.95284">
        <ele>1023</ele>
        <time>2014-08-31T08:33:29Z</time>
      </trkpt>
      <trkpt lat="43.73059" lon="6.95284">
        <ele>1023</ele>
        <time>2014-08-31T08:33:34Z</time>
      </trkpt>
      <trkpt lat="43.73059" lon="6.95284">
        <ele>1023</ele>
        <time>2014-08-31T08:33:39Z</time>
      </trkpt>
      <trkpt lat="43.73059" lon="6.95284">
        <ele>1023</ele>
        <time>2014-08-31T08:33:44Z</time>
      </trkpt>
      <trkpt lat="43.73059" lon="6.95284">
        <ele>1023</ele>
        <time>2014-08-31T08:33:49Z</time>
      </trkpt>
      <trkpt lat="43.73059" lon="6.95284">
        <ele>1023</ele>
        <time>2014-08-31T08:33:54Z</time>
      </trkpt>
      <trkpt lat="43.73059" lon="6.95284">
        <ele>1023</ele>
        <time>2014-08-31T08:33:59Z</time>
      </trkpt>
      <trkpt lat="43.73059" lon="6.95284">
        <ele>1023</ele>
        <time>2014-08-31T08:34:04Z</time>
      </trkpt>
      <trkpt lat="43.73059" lon="6.95284">
        <ele>1023</ele>
        <time>2014-08-31T08:34:09Z</time>
      </trkpt>
      <trkpt lat="43.73059" lon="6.95284">
        <ele>1023</ele>
        <time>2014-08-31T08:34:14Z</time>
      </trkpt>
      <trkpt lat="43.73059" lon="6.95284">
        <ele>1023</ele>
        <time>2014-08-31T08:34:19Z</time>
      </trkpt>
      <trkpt lat="43.73059" lon="6.95284">
        <ele>1023</ele>
        <time>2014-08-31T08:34:24Z</time>
      </trkpt>
      <trkpt lat="43.73059" lon="6.95284">
        <ele>1023</ele>
        <time>2014-08-31T08:34:29Z</time>
      </trkpt>
      <trkpt lat="43.73059" lon="6.95284">
        <ele>1023</ele>
        <time>2014-08-31T08:34:34Z</time>
      </trkpt>
      <trkpt lat="43.73059" lon="6.95284">
        <ele>1023</ele>
        <time>2014-08-31T08:34:39Z</time>
      </trkpt>
      <trkpt lat="43.73059" lon="6.95284">
        <ele>1023</ele>
        <time>2014-08-31T08:34:44Z</time>
      </trkpt>
      <trkpt lat="43.73059" lon="6.95284">
        <ele>1023</ele>
        <time>2014-08-31T08:34:52Z</time>
      </trkpt>
      <trkpt lat="43.73059" lon="6.95284">
        <ele>1023</ele>
        <time>2014-08-31T08:34:54Z</time>
      </trkpt>
      <trkpt lat="43.73059" lon="6.95284">
        <ele>1023</ele>
        <time>2014-08-31T08:34:59Z</time>
      </trkpt>
      <trkpt lat="43.73058" lon="6.95284">
        <ele>1024</ele>
        <time>2014-08-31T08:35:04Z</time>
      </trkpt>
      <trkpt lat="43.73057" lon="6.95285">
        <ele>1022</ele>
        <time>2014-08-31T08:35:09Z</time>
      </trkpt>
      <trkpt lat="43.73056" lon="6.95285">
        <ele>1021</ele>
        <time>2014-08-31T08:35:14Z</time>
      </trkpt>
      <trkpt lat="43.73056" lon="6.95285">
        <ele>1021</ele>
        <time>2014-08-31T08:35:19Z</time>
      </trkpt>
      <trkpt lat="43.73056" lon="6.95286">
        <ele>1021</ele>
        <time>2014-08-31T08:35:24Z</time>
      </trkpt>
      <trkpt lat="43.73055" lon="6.95285">
        <ele>1020</ele>
        <time>2014-08-31T08:35:29Z</time>
      </trkpt>
      <trkpt lat="43.73055" lon="6.95285">
        <ele>1019</ele>
        <time>2014-08-31T08:35:35Z</time>
      </trkpt>
      <trkpt lat="43.73055" lon="6.95285">
        <ele>1019</ele>
        <time>2014-08-31T08:35:39Z</time>
      </trkpt>
      <trkpt lat="43.73055" lon="6.95285">
        <ele>1019</ele>
        <time>2014-08-31T08:35:44Z</time>
      </trkpt>
      <trkpt lat="43.73055" lon="6.95285">
        <ele>1019</ele>
        <time>2014-08-31T08:35:49Z</time>
      </trkpt>
      <trkpt lat="43.73055" lon="6.95285">
        <ele>1020</ele>
        <time>2014-08-31T08:35:57Z</time>
      </trkpt>
      <trkpt lat="43.73054" lon="6.95286">
        <ele>1020</ele>
        <time>2014-08-31T08:35:59Z</time>
      </trkpt>
      <trkpt lat="43.73054" lon="6.95286">
        <ele>1021</ele>
        <time>2014-08-31T08:36:04Z</time>
      </trkpt>
      <trkpt lat="43.73054" lon="6.95286">
        <ele>1021</ele>
        <time>2014-08-31T08:36:13Z</time>
      </trkpt>
      <trkpt lat="43.73054" lon="6.95286">
        <ele>1021</ele>
        <time>2014-08-31T08:36:14Z</time>
      </trkpt>
      <trkpt lat="43.73054" lon="6.95286">
        <ele>1021</ele>
        <time>2014-08-31T08:36:19Z</time>
      </trkpt>
      <trkpt lat="43.73054" lon="6.95286">
        <ele>1021</ele>
        <time>2014-08-31T08:36:24Z</time>
      </trkpt>
      <trkpt lat="43.73053" lon="6.95288">
        <ele>1020</ele>
        <time>2014-08-31T08:36:29Z</time>
      </trkpt>
      <trkpt lat="43.73052" lon="6.95287">
        <ele>1021</ele>
        <time>2014-08-31T08:36:34Z</time>
      </trkpt>
      <trkpt lat="43.73053" lon="6.95287">
        <ele>1022</ele>
        <time>2014-08-31T08:36:39Z</time>
      </trkpt>
      <trkpt lat="43.73053" lon="6.95287">
        <ele>1022</ele>
        <time>2014-08-31T08:36:44Z</time>
      </trkpt>
      <trkpt lat="43.73053" lon="6.95287">
        <ele>1022</ele>
        <time>2014-08-31T08:36:49Z</time>
      </trkpt>
      <trkpt lat="43.73053" lon="6.95287">
        <ele>1022</ele>
        <time>2014-08-31T08:36:54Z</time>
      </trkpt>
      <trkpt lat="43.73053" lon="6.95287">
        <ele>1022</ele>
        <time>2014-08-31T08:36:59Z</time>
      </trkpt>
      <trkpt lat="43.73053" lon="6.95287">
        <ele>1022</ele>
        <time>2014-08-31T08:37:04Z</time>
      </trkpt>
      <trkpt lat="43.73053" lon="6.95287">
        <ele>1022</ele>
        <time>2014-08-31T08:37:09Z</time>
      </trkpt>
      <trkpt lat="43.73052" lon="6.95287">
        <ele>1022</ele>
        <time>2014-08-31T08:37:14Z</time>
      </trkpt>
      <trkpt lat="43.73052" lon="6.95286">
        <ele>1023</ele>
        <time>2014-08-31T08:37:19Z</time>
      </trkpt>
      <trkpt lat="43.73053" lon="6.95286">
        <ele>1023</ele>
        <time>2014-08-31T08:37:24Z</time>
      </trkpt>
      <trkpt lat="43.73053" lon="6.95286">
        <ele>1023</ele>
        <time>2014-08-31T08:37:29Z</time>
      </trkpt>
      <trkpt lat="43.73053" lon="6.95286">
        <ele>1023</ele>
        <time>2014-08-31T08:37:34Z</time>
      </trkpt>
      <trkpt lat="43.73053" lon="6.95286">
        <ele>1023</ele>
        <time>2014-08-31T08:37:39Z</time>
      </trkpt>
      <trkpt lat="43.73053" lon="6.95286">
        <ele>1023</ele>
        <time>2014-08-31T08:37:44Z</time>
      </trkpt>
      <trkpt lat="43.73053" lon="6.95286">
        <ele>1023</ele>
        <time>2014-08-31T08:37:49Z</time>
      </trkpt>
      <trkpt lat="43.73053" lon="6.95286">
        <ele>1023</ele>
        <time>2014-08-31T08:37:54Z</time>
      </trkpt>
      <trkpt lat="43.73053" lon="6.95286">
        <ele>1023</ele>
        <time>2014-08-31T08:37:59Z</time>
      </trkpt>
      <trkpt lat="43.73053" lon="6.95286">
        <ele>1023</ele>
        <time>2014-08-31T08:38:04Z</time>
      </trkpt>
      <trkpt lat="43.73053" lon="6.95286">
        <ele>1023</ele>
        <time>2014-08-31T08:38:09Z</time>
      </trkpt>
      <trkpt lat="43.73053" lon="6.95286">
        <ele>1023</ele>
        <time>2014-08-31T08:38:14Z</time>
      </trkpt>
      <trkpt lat="43.73053" lon="6.95286">
        <ele>1023</ele>
        <time>2014-08-31T08:38:19Z</time>
      </trkpt>
      <trkpt lat="43.73053" lon="6.95286">
        <ele>1023</ele>
        <time>2014-08-31T08:38:24Z</time>
      </trkpt>
      <trkpt lat="43.73053" lon="6.95286">
        <ele>1023</ele>
        <time>2014-08-31T08:38:29Z</time>
      </trkpt>
      <trkpt lat="43.73053" lon="6.95286">
        <ele>1023</ele>
        <time>2014-08-31T08:38:34Z</time>
      </trkpt>
      <trkpt lat="43.73053" lon="6.95286">
        <ele>1023</ele>
        <time>2014-08-31T08:38:39Z</time>
      </trkpt>
      <trkpt lat="43.73053" lon="6.95286">
        <ele>1023</ele>
        <time>2014-08-31T08:38:44Z</time>
      </trkpt>
      <trkpt lat="43.73053" lon="6.95286">
        <ele>1023</ele>
        <time>2014-08-31T08:38:49Z</time>
      </trkpt>
      <trkpt lat="43.73053" lon="6.95286">
        <ele>1023</ele>
        <time>2014-08-31T08:38:54Z</time>
      </trkpt>
      <trkpt lat="43.73053" lon="6.95286">
        <ele>1023</ele>
        <time>2014-08-31T08:38:59Z</time>
      </trkpt>
      <trkpt lat="43.73053" lon="6.95286">
        <ele>1023</ele>
        <time>2014-08-31T08:39:04Z</time>
      </trkpt>
      <trkpt lat="43.73053" lon="6.95286">
        <ele>1023</ele>
        <time>2014-08-31T08:39:09Z</time>
      </trkpt>
      <trkpt lat="43.73053" lon="6.95286">
        <ele>1023</ele>
        <time>2014-08-31T08:39:14Z</time>
      </trkpt>
      <trkpt lat="43.73053" lon="6.95286">
        <ele>1023</ele>
        <time>2014-08-31T08:39:19Z</time>
      </trkpt>
      <trkpt lat="43.73053" lon="6.95286">
        <ele>1023</ele>
        <time>2014-08-31T08:39:24Z</time>
      </trkpt>
      <trkpt lat="43.73053" lon="6.95286">
        <ele>1023</ele>
        <time>2014-08-31T08:39:29Z</time>
      </trkpt>
      <trkpt lat="43.73053" lon="6.95286">
        <ele>1023</ele>
        <time>2014-08-31T08:39:38Z</time>
      </trkpt>
      <trkpt lat="43.73053" lon="6.95286">
        <ele>1023</ele>
        <time>2014-08-31T08:39:41Z</time>
      </trkpt>
      <trkpt lat="43.73053" lon="6.95285">
        <ele>1024</ele>
        <time>2014-08-31T08:39:47Z</time>
      </trkpt>
      <trkpt lat="43.73052" lon="6.95284">
        <ele>1025</ele>
        <time>2014-08-31T08:39:49Z</time>
      </trkpt>
      <trkpt lat="43.73052" lon="6.95284">
        <ele>1025</ele>
        <time>2014-08-31T08:39:54Z</time>
      </trkpt>
      <trkpt lat="43.73052" lon="6.95285">
        <ele>1026</ele>
        <time>2014-08-31T08:39:59Z</time>
      </trkpt>
      <trkpt lat="43.73053" lon="6.95285">
        <ele>1025</ele>
        <time>2014-08-31T08:40:04Z</time>
      </trkpt>
      <trkpt lat="43.73054" lon="6.95285">
        <ele>1025</ele>
        <time>2014-08-31T08:40:09Z</time>
      </trkpt>
      <trkpt lat="43.73054" lon="6.95284">
        <ele>1024</ele>
        <time>2014-08-31T08:40:14Z</time>
      </trkpt>
      <trkpt lat="43.73054" lon="6.95285">
        <ele>1025</ele>
        <time>2014-08-31T08:40:19Z</time>
      </trkpt>
      <trkpt lat="43.73054" lon="6.95285">
        <ele>1025</ele>
        <time>2014-08-31T08:40:24Z</time>
      </trkpt>
      <trkpt lat="43.73054" lon="6.95285">
        <ele>1025</ele>
        <time>2014-08-31T08:40:31Z</time>
      </trkpt>
      <trkpt lat="43.73054" lon="6.95285">
        <ele>1025</ele>
        <time>2014-08-31T08:40:34Z</time>
      </trkpt>
      <trkpt lat="43.73054" lon="6.95285">
        <ele>1025</ele>
        <time>2014-08-31T08:40:39Z</time>
      </trkpt>
      <trkpt lat="43.73055" lon="6.95286">
        <ele>1025</ele>
        <time>2014-08-31T08:40:44Z</time>
      </trkpt>
      <trkpt lat="43.73054" lon="6.95285">
        <ele>1025</ele>
        <time>2014-08-31T08:40:49Z</time>
      </trkpt>
      <trkpt lat="43.73054" lon="6.95285">
        <ele>1025</ele>
        <time>2014-08-31T08:40:54Z</time>
      </trkpt>
      <trkpt lat="43.73054" lon="6.95285">
        <ele>1025</ele>
        <time>2014-08-31T08:40:59Z</time>
      </trkpt>
      <trkpt lat="43.73054" lon="6.95285">
        <ele>1025</ele>
        <time>2014-08-31T08:41:04Z</time>
      </trkpt>
      <trkpt lat="43.73054" lon="6.95285">
        <ele>1025</ele>
        <time>2014-08-31T08:41:09Z</time>
      </trkpt>
      <trkpt lat="43.73054" lon="6.95285">
        <ele>1025</ele>
        <time>2014-08-31T08:41:14Z</time>
      </trkpt>
      <trkpt lat="43.73054" lon="6.95285">
        <ele>1025</ele>
        <time>2014-08-31T08:41:20Z</time>
      </trkpt>
      <trkpt lat="43.73054" lon="6.95285">
        <ele>1025</ele>
        <time>2014-08-31T08:41:24Z</time>
      </trkpt>
      <trkpt lat="43.73054" lon="6.95285">
        <ele>1025</ele>
        <time>2014-08-31T08:41:29Z</time>
      </trkpt>
      <trkpt lat="43.73054" lon="6.95285">
        <ele>1025</ele>
        <time>2014-08-31T08:41:34Z</time>
      </trkpt>
      <trkpt lat="43.73054" lon="6.95285">
        <ele>1025</ele>
        <time>2014-08-31T08:41:39Z</time>
      </trkpt>
      <trkpt lat="43.73054" lon="6.95285">
        <ele>1025</ele>
        <time>2014-08-31T08:41:46Z</time>
      </trkpt>
      <trkpt lat="43.73054" lon="6.95285">
        <ele>1025</ele>
        <time>2014-08-31T08:41:49Z</time>
      </trkpt>
      <trkpt lat="43.73054" lon="6.95285">
        <ele>1025</ele>
        <time>2014-08-31T08:41:54Z</time>
      </trkpt>
      <trkpt lat="43.73054" lon="6.95285">
        <ele>1025</ele>
        <time>2014-08-31T08:41:59Z</time>
      </trkpt>
      <trkpt lat="43.73054" lon="6.95285">
        <ele>1025</ele>
        <time>2014-08-31T08:42:05Z</time>
      </trkpt>
      <trkpt lat="43.73054" lon="6.95285">
        <ele>1025</ele>
        <time>2014-08-31T08:42:09Z</time>
      </trkpt>
      <trkpt lat="43.73055" lon="6.95285">
        <ele>1026</ele>
        <time>2014-08-31T08:42:15Z</time>
      </trkpt>
      <trkpt lat="43.73054" lon="6.95285">
        <ele>1025</ele>
        <time>2014-08-31T08:42:19Z</time>
      </trkpt>
      <trkpt lat="43.73054" lon="6.95285">
        <ele>1025</ele>
        <time>2014-08-31T08:42:27Z</time>
      </trkpt>
      <trkpt lat="43.73054" lon="6.95285">
        <ele>1025</ele>
        <time>2014-08-31T08:42:29Z</time>
      </trkpt>
      <trkpt lat="43.73054" lon="6.95285">
        <ele>1025</ele>
        <time>2014-08-31T08:42:34Z</time>
      </trkpt>
      <trkpt lat="43.73054" lon="6.95285">
        <ele>1024</ele>
        <time>2014-08-31T08:42:39Z</time>
      </trkpt>
      <trkpt lat="43.73054" lon="6.95285">
        <ele>1024</ele>
        <time>2014-08-31T08:42:44Z</time>
      </trkpt>
      <trkpt lat="43.73054" lon="6.95286">
        <ele>1025</ele>
        <time>2014-08-31T08:42:50Z</time>
      </trkpt>
      <trkpt lat="43.73054" lon="6.95286">
        <ele>1025</ele>
        <time>2014-08-31T08:42:54Z</time>
      </trkpt>
      <trkpt lat="43.73054" lon="6.95286">
        <ele>1025</ele>
        <time>2014-08-31T08:43:03Z</time>
      </trkpt>
      <trkpt lat="43.73054" lon="6.95286">
        <ele>1025</ele>
        <time>2014-08-31T08:43:04Z</time>
      </trkpt>
      <trkpt lat="43.73054" lon="6.95286">
        <ele>1025</ele>
        <time>2014-08-31T08:43:09Z</time>
      </trkpt>
      <trkpt lat="43.73054" lon="6.95286">
        <ele>1025</ele>
        <time>2014-08-31T08:43:14Z</time>
      </trkpt>
      <trkpt lat="43.73054" lon="6.95286">
        <ele>1025</ele>
        <time>2014-08-31T08:43:19Z</time>
      </trkpt>
      <trkpt lat="43.73054" lon="6.95286">
        <ele>1025</ele>
        <time>2014-08-31T08:43:25Z</time>
      </trkpt>
      <trkpt lat="43.73054" lon="6.95286">
        <ele>1025</ele>
        <time>2014-08-31T08:43:29Z</time>
      </trkpt>
      <trkpt lat="43.73054" lon="6.95286">
        <ele>1025</ele>
        <time>2014-08-31T08:43:36Z</time>
      </trkpt>
      <trkpt lat="43.73054" lon="6.95286">
        <ele>1025</ele>
        <time>2014-08-31T08:43:39Z</time>
      </trkpt>
      <trkpt lat="43.73054" lon="6.95286">
        <ele>1025</ele>
        <time>2014-08-31T08:43:44Z</time>
      </trkpt>
      <trkpt lat="43.73054" lon="6.95286">
        <ele>1025</ele>
        <time>2014-08-31T08:43:49Z</time>
      </trkpt>
      <trkpt lat="43.73054" lon="6.95286">
        <ele>1025</ele>
        <time>2014-08-31T08:43:56Z</time>
      </trkpt>
      <trkpt lat="43.73054" lon="6.95286">
        <ele>1025</ele>
        <time>2014-08-31T08:44:00Z</time>
      </trkpt>
      <trkpt lat="43.73054" lon="6.95286">
        <ele>1025</ele>
        <time>2014-08-31T08:44:04Z</time>
      </trkpt>
      <trkpt lat="43.73054" lon="6.95286">
        <ele>1025</ele>
        <time>2014-08-31T08:44:09Z</time>
      </trkpt>
      <trkpt lat="43.73054" lon="6.95286">
        <ele>1025</ele>
        <time>2014-08-31T08:44:14Z</time>
      </trkpt>
      <trkpt lat="43.73054" lon="6.95286">
        <ele>1025</ele>
        <time>2014-08-31T08:44:19Z</time>
      </trkpt>
      <trkpt lat="43.73054" lon="6.95286">
        <ele>1025</ele>
        <time>2014-08-31T08:44:24Z</time>
      </trkpt>
      <trkpt lat="43.73054" lon="6.95286">
        <ele>1025</ele>
        <time>2014-08-31T08:44:29Z</time>
      </trkpt>
      <trkpt lat="43.73054" lon="6.95286">
        <ele>1025</ele>
        <time>2014-08-31T08:44:34Z</time>
      </trkpt>
      <trkpt lat="43.73054" lon="6.95286">
        <ele>1025</ele>
        <time>2014-08-31T08:44:39Z</time>
      </trkpt>
      <trkpt lat="43.73054" lon="6.95286">
        <ele>1025</ele>
        <time>2014-08-31T08:44:46Z</time>
      </trkpt>
      <trkpt lat="43.73054" lon="6.95286">
        <ele>1025</ele>
        <time>2014-08-31T08:44:49Z</time>
      </trkpt>
      <trkpt lat="43.73054" lon="6.95286">
        <ele>1025</ele>
        <time>2014-08-31T08:44:54Z</time>
      </trkpt>
      <trkpt lat="43.73054" lon="6.95286">
        <ele>1025</ele>
        <time>2014-08-31T08:44:59Z</time>
      </trkpt>
      <trkpt lat="43.73054" lon="6.95286">
        <ele>1025</ele>
        <time>2014-08-31T08:45:05Z</time>
      </trkpt>
      <trkpt lat="43.73054" lon="6.95286">
        <ele>1025</ele>
        <time>2014-08-31T08:45:12Z</time>
      </trkpt>
      <trkpt lat="43.73053" lon="6.95285">
        <ele>1024</ele>
        <time>2014-08-31T08:45:14Z</time>
      </trkpt>
      <trkpt lat="43.73053" lon="6.95286">
        <ele>1024</ele>
        <time>2014-08-31T08:45:19Z</time>
      </trkpt>
      <trkpt lat="43.73053" lon="6.95286">
        <ele>1025</ele>
        <time>2014-08-31T08:45:24Z</time>
      </trkpt>
      <trkpt lat="43.73053" lon="6.95286">
        <ele>1025</ele>
        <time>2014-08-31T08:45:29Z</time>
      </trkpt>
      <trkpt lat="43.73053" lon="6.95286">
        <ele>1025</ele>
        <time>2014-08-31T08:45:34Z</time>
      </trkpt>
      <trkpt lat="43.73053" lon="6.95286">
        <ele>1025</ele>
        <time>2014-08-31T08:45:39Z</time>
      </trkpt>
      <trkpt lat="43.73053" lon="6.95286">
        <ele>1025</ele>
        <time>2014-08-31T08:45:46Z</time>
      </trkpt>
      <trkpt lat="43.73053" lon="6.95286">
        <ele>1025</ele>
        <time>2014-08-31T08:45:51Z</time>
      </trkpt>
      <trkpt lat="43.73053" lon="6.95286">
        <ele>1025</ele>
        <time>2014-08-31T08:45:55Z</time>
      </trkpt>
      <trkpt lat="43.73053" lon="6.95286">
        <ele>1025</ele>
        <time>2014-08-31T08:46:00Z</time>
      </trkpt>
      <trkpt lat="43.73053" lon="6.95286">
        <ele>1025</ele>
        <time>2014-08-31T08:46:04Z</time>
      </trkpt>
      <trkpt lat="43.73053" lon="6.95285">
        <ele>1025</ele>
        <time>2014-08-31T08:46:13Z</time>
      </trkpt>
      <trkpt lat="43.73053" lon="6.95285">
        <ele>1025</ele>
        <time>2014-08-31T08:46:14Z</time>
      </trkpt>
      <trkpt lat="43.73053" lon="6.95285">
        <ele>1025</ele>
        <time>2014-08-31T08:46:19Z</time>
      </trkpt>
      <trkpt lat="43.73053" lon="6.95285">
        <ele>1025</ele>
        <time>2014-08-31T08:46:24Z</time>
      </trkpt>
      <trkpt lat="43.73053" lon="6.95285">
        <ele>1025</ele>
        <time>2014-08-31T08:46:29Z</time>
      </trkpt>
      <trkpt lat="43.73053" lon="6.95285">
        <ele>1025</ele>
        <time>2014-08-31T08:46:34Z</time>
      </trkpt>
      <trkpt lat="43.73053" lon="6.95285">
        <ele>1025</ele>
        <time>2014-08-31T08:46:39Z</time>
      </trkpt>
      <trkpt lat="43.73053" lon="6.95285">
        <ele>1025</ele>
        <time>2014-08-31T08:46:44Z</time>
      </trkpt>
      <trkpt lat="43.73053" lon="6.95285">
        <ele>1025</ele>
        <time>2014-08-31T08:46:49Z</time>
      </trkpt>
      <trkpt lat="43.73053" lon="6.95285">
        <ele>1025</ele>
        <time>2014-08-31T08:46:54Z</time>
      </trkpt>
      <trkpt lat="43.73053" lon="6.95285">
        <ele>1025</ele>
        <time>2014-08-31T08:47:00Z</time>
      </trkpt>
      <trkpt lat="43.73053" lon="6.95285">
        <ele>1025</ele>
        <time>2014-08-31T08:47:04Z</time>
      </trkpt>
      <trkpt lat="43.73053" lon="6.95285">
        <ele>1025</ele>
        <time>2014-08-31T08:47:09Z</time>
      </trkpt>
      <trkpt lat="43.73053" lon="6.95285">
        <ele>1025</ele>
        <time>2014-08-31T08:47:14Z</time>
      </trkpt>
      <trkpt lat="43.73053" lon="6.95285">
        <ele>1025</ele>
        <time>2014-08-31T08:47:19Z</time>
      </trkpt>
      <trkpt lat="43.73053" lon="6.95285">
        <ele>1025</ele>
        <time>2014-08-31T08:47:24Z</time>
      </trkpt>
      <trkpt lat="43.73053" lon="6.95286">
        <ele>1025</ele>
        <time>2014-08-31T08:47:32Z</time>
      </trkpt>
      <trkpt lat="43.73053" lon="6.95286">
        <ele>1025</ele>
        <time>2014-08-31T08:47:36Z</time>
      </trkpt>
      <trkpt lat="43.73053" lon="6.95286">
        <ele>1026</ele>
        <time>2014-08-31T08:47:39Z</time>
      </trkpt>
      <trkpt lat="43.73053" lon="6.95286">
        <ele>1024</ele>
        <time>2014-08-31T08:47:44Z</time>
      </trkpt>
      <trkpt lat="43.73053" lon="6.95287">
        <ele>1026</ele>
        <time>2014-08-31T08:47:50Z</time>
      </trkpt>
      <trkpt lat="43.73053" lon="6.95287">
        <ele>1027</ele>
        <time>2014-08-31T08:47:54Z</time>
      </trkpt>
      <trkpt lat="43.73053" lon="6.95287">
        <ele>1027</ele>
        <time>2014-08-31T08:47:59Z</time>
      </trkpt>
      <trkpt lat="43.73053" lon="6.95287">
        <ele>1027</ele>
        <time>2014-08-31T08:48:04Z</time>
      </trkpt>
      <trkpt lat="43.73053" lon="6.95287">
        <ele>1027</ele>
        <time>2014-08-31T08:48:09Z</time>
      </trkpt>
      <trkpt lat="43.73053" lon="6.95287">
        <ele>1027</ele>
        <time>2014-08-31T08:48:14Z</time>
      </trkpt>
      <trkpt lat="43.73053" lon="6.95287">
        <ele>1027</ele>
        <time>2014-08-31T08:48:19Z</time>
      </trkpt>
      <trkpt lat="43.73053" lon="6.95287">
        <ele>1027</ele>
        <time>2014-08-31T08:48:24Z</time>
      </trkpt>
      <trkpt lat="43.73053" lon="6.95287">
        <ele>1027</ele>
        <time>2014-08-31T08:48:30Z</time>
      </trkpt>
      <trkpt lat="43.73053" lon="6.95287">
        <ele>1027</ele>
        <time>2014-08-31T08:48:34Z</time>
      </trkpt>
      <trkpt lat="43.73053" lon="6.95287">
        <ele>1027</ele>
        <time>2014-08-31T08:48:39Z</time>
      </trkpt>
      <trkpt lat="43.73053" lon="6.95287">
        <ele>1027</ele>
        <time>2014-08-31T08:48:44Z</time>
      </trkpt>
      <trkpt lat="43.73053" lon="6.95287">
        <ele>1027</ele>
        <time>2014-08-31T08:48:49Z</time>
      </trkpt>
      <trkpt lat="43.73053" lon="6.95287">
        <ele>1027</ele>
        <time>2014-08-31T08:48:54Z</time>
      </trkpt>
      <trkpt lat="43.73053" lon="6.95287">
        <ele>1027</ele>
        <time>2014-08-31T08:48:59Z</time>
      </trkpt>
      <trkpt lat="43.73053" lon="6.95287">
        <ele>1027</ele>
        <time>2014-08-31T08:49:04Z</time>
      </trkpt>
      <trkpt lat="43.73053" lon="6.95287">
        <ele>1027</ele>
        <time>2014-08-31T08:49:09Z</time>
      </trkpt>
      <trkpt lat="43.73053" lon="6.95287">
        <ele>1027</ele>
        <time>2014-08-31T08:49:14Z</time>
      </trkpt>
      <trkpt lat="43.73053" lon="6.95287">
        <ele>1027</ele>
        <time>2014-08-31T08:49:19Z</time>
      </trkpt>
      <trkpt lat="43.73053" lon="6.95287">
        <ele>1027</ele>
        <time>2014-08-31T08:49:24Z</time>
      </trkpt>
      <trkpt lat="43.73053" lon="6.95287">
        <ele>1027</ele>
        <time>2014-08-31T08:49:29Z</time>
      </trkpt>
      <trkpt lat="43.73053" lon="6.95287">
        <ele>1027</ele>
        <time>2014-08-31T08:49:35Z</time>
      </trkpt>
      <trkpt lat="43.73053" lon="6.95287">
        <ele>1027</ele>
        <time>2014-08-31T08:49:39Z</time>
      </trkpt>
      <trkpt lat="43.73053" lon="6.95287">
        <ele>1027</ele>
        <time>2014-08-31T08:49:44Z</time>
      </trkpt>
      <trkpt lat="43.73053" lon="6.95287">
        <ele>1027</ele>
        <time>2014-08-31T08:49:49Z</time>
      </trkpt>
      <trkpt lat="43.73053" lon="6.95287">
        <ele>1027</ele>
        <time>2014-08-31T08:49:54Z</time>
      </trkpt>
      <trkpt lat="43.73053" lon="6.95287">
        <ele>1027</ele>
        <time>2014-08-31T08:49:59Z</time>
      </trkpt>
      <trkpt lat="43.73053" lon="6.95287">
        <ele>1027</ele>
        <time>2014-08-31T08:50:06Z</time>
      </trkpt>
      <trkpt lat="43.73053" lon="6.95287">
        <ele>1027</ele>
        <time>2014-08-31T08:50:09Z</time>
      </trkpt>
      <trkpt lat="43.73053" lon="6.95287">
        <ele>1027</ele>
        <time>2014-08-31T08:50:14Z</time>
      </trkpt>
      <trkpt lat="43.73053" lon="6.95287">
        <ele>1027</ele>
        <time>2014-08-31T08:50:19Z</time>
      </trkpt>
      <trkpt lat="43.73053" lon="6.95287">
        <ele>1027</ele>
        <time>2014-08-31T08:50:24Z</time>
      </trkpt>
      <trkpt lat="43.73053" lon="6.95287">
        <ele>1027</ele>
        <time>2014-08-31T08:50:29Z</time>
      </trkpt>
      <trkpt lat="43.73053" lon="6.95287">
        <ele>1027</ele>
        <time>2014-08-31T08:50:37Z</time>
      </trkpt>
      <trkpt lat="43.73053" lon="6.95287">
        <ele>1026</ele>
        <time>2014-08-31T08:50:39Z</time>
      </trkpt>
      <trkpt lat="43.73053" lon="6.95287">
        <ele>1026</ele>
        <time>2014-08-31T08:50:44Z</time>
      </trkpt>
      <trkpt lat="43.73053" lon="6.95287">
        <ele>1026</ele>
        <time>2014-08-31T08:50:49Z</time>
      </trkpt>
      <trkpt lat="43.73053" lon="6.95287">
        <ele>1026</ele>
        <time>2014-08-31T08:50:54Z</time>
      </trkpt>
      <trkpt lat="43.73053" lon="6.95287">
        <ele>1026</ele>
        <time>2014-08-31T08:50:59Z</time>
      </trkpt>
      <trkpt lat="43.73053" lon="6.95287">
        <ele>1026</ele>
        <time>2014-08-31T08:51:04Z</time>
      </trkpt>
      <trkpt lat="43.73053" lon="6.95287">
        <ele>1026</ele>
        <time>2014-08-31T08:51:09Z</time>
      </trkpt>
      <trkpt lat="43.73053" lon="6.95287">
        <ele>1026</ele>
        <time>2014-08-31T08:51:14Z</time>
      </trkpt>
      <trkpt lat="43.73053" lon="6.95287">
        <ele>1026</ele>
        <time>2014-08-31T08:51:19Z</time>
      </trkpt>
      <trkpt lat="43.73053" lon="6.95287">
        <ele>1026</ele>
        <time>2014-08-31T08:51:24Z</time>
      </trkpt>
      <trkpt lat="43.73053" lon="6.95287">
        <ele>1026</ele>
        <time>2014-08-31T08:51:29Z</time>
      </trkpt>
      <trkpt lat="43.73053" lon="6.95287">
        <ele>1026</ele>
        <time>2014-08-31T08:51:34Z</time>
      </trkpt>
      <trkpt lat="43.73053" lon="6.95287">
        <ele>1026</ele>
        <time>2014-08-31T08:51:39Z</time>
      </trkpt>
      <trkpt lat="43.73053" lon="6.95287">
        <ele>1026</ele>
        <time>2014-08-31T08:51:45Z</time>
      </trkpt>
      <trkpt lat="43.73053" lon="6.95287">
        <ele>1026</ele>
        <time>2014-08-31T08:51:49Z</time>
      </trkpt>
      <trkpt lat="43.73053" lon="6.95287">
        <ele>1026</ele>
        <time>2014-08-31T08:51:55Z</time>
      </trkpt>
      <trkpt lat="43.73053" lon="6.95287">
        <ele>1026</ele>
        <time>2014-08-31T08:51:59Z</time>
      </trkpt>
      <trkpt lat="43.73053" lon="6.95287">
        <ele>1026</ele>
        <time>2014-08-31T08:52:04Z</time>
      </trkpt>
      <trkpt lat="43.73053" lon="6.95287">
        <ele>1026</ele>
        <time>2014-08-31T08:52:09Z</time>
      </trkpt>
      <trkpt lat="43.73053" lon="6.95287">
        <ele>1026</ele>
        <time>2014-08-31T08:52:16Z</time>
      </trkpt>
      <trkpt lat="43.73053" lon="6.95287">
        <ele>1026</ele>
        <time>2014-08-31T08:52:19Z</time>
      </trkpt>
      <trkpt lat="43.73053" lon="6.95287">
        <ele>1026</ele>
        <time>2014-08-31T08:52:24Z</time>
      </trkpt>
      <trkpt lat="43.73053" lon="6.95287">
        <ele>1026</ele>
        <time>2014-08-31T08:52:29Z</time>
      </trkpt>
      <trkpt lat="43.73053" lon="6.95287">
        <ele>1026</ele>
        <time>2014-08-31T08:52:34Z</time>
      </trkpt>
      <trkpt lat="43.73053" lon="6.95287">
        <ele>1026</ele>
        <time>2014-08-31T08:52:39Z</time>
      </trkpt>
      <trkpt lat="43.73053" lon="6.95287">
        <ele>1026</ele>
        <time>2014-08-31T08:52:44Z</time>
      </trkpt>
      <trkpt lat="43.73053" lon="6.95287">
        <ele>1026</ele>
        <time>2014-08-31T08:52:49Z</time>
      </trkpt>
      <trkpt lat="43.73053" lon="6.95287">
        <ele>1026</ele>
        <time>2014-08-31T08:52:54Z</time>
      </trkpt>
      <trkpt lat="43.73053" lon="6.95287">
        <ele>1026</ele>
        <time>2014-08-31T08:52:59Z</time>
      </trkpt>
      <trkpt lat="43.73053" lon="6.95287">
        <ele>1026</ele>
        <time>2014-08-31T08:53:04Z</time>
      </trkpt>
      <trkpt lat="43.73053" lon="6.95287">
        <ele>1026</ele>
        <time>2014-08-31T08:53:09Z</time>
      </trkpt>
      <trkpt lat="43.73053" lon="6.95287">
        <ele>1026</ele>
        <time>2014-08-31T08:53:14Z</time>
      </trkpt>
      <trkpt lat="43.73053" lon="6.95287">
        <ele>1026</ele>
        <time>2014-08-31T08:53:19Z</time>
      </trkpt>
      <trkpt lat="43.73053" lon="6.95287">
        <ele>1026</ele>
        <time>2014-08-31T08:53:24Z</time>
      </trkpt>
      <trkpt lat="43.73053" lon="6.95287">
        <ele>1026</ele>
        <time>2014-08-31T08:53:29Z</time>
      </trkpt>
      <trkpt lat="43.73053" lon="6.95287">
        <ele>1026</ele>
        <time>2014-08-31T08:53:34Z</time>
      </trkpt>
      <trkpt lat="43.73053" lon="6.95287">
        <ele>1026</ele>
        <time>2014-08-31T08:53:39Z</time>
      </trkpt>
      <trkpt lat="43.73053" lon="6.95287">
        <ele>1026</ele>
        <time>2014-08-31T08:53:44Z</time>
      </trkpt>
      <trkpt lat="43.73053" lon="6.95287">
        <ele>1026</ele>
        <time>2014-08-31T08:53:49Z</time>
      </trkpt>
      <trkpt lat="43.73053" lon="6.95287">
        <ele>1026</ele>
        <time>2014-08-31T08:53:54Z</time>
      </trkpt>
      <trkpt lat="43.73053" lon="6.95287">
        <ele>1026</ele>
        <time>2014-08-31T08:53:59Z</time>
      </trkpt>
      <trkpt lat="43.73053" lon="6.95287">
        <ele>1026</ele>
        <time>2014-08-31T08:54:04Z</time>
      </trkpt>
      <trkpt lat="43.73053" lon="6.95287">
        <ele>1026</ele>
        <time>2014-08-31T08:54:09Z</time>
      </trkpt>
      <trkpt lat="43.73053" lon="6.95287">
        <ele>1026</ele>
        <time>2014-08-31T08:54:15Z</time>
      </trkpt>
      <trkpt lat="43.73053" lon="6.95287">
        <ele>1026</ele>
        <time>2014-08-31T08:54:19Z</time>
      </trkpt>
      <trkpt lat="43.73053" lon="6.95287">
        <ele>1026</ele>
        <time>2014-08-31T08:54:24Z</time>
      </trkpt>
      <trkpt lat="43.73053" lon="6.95287">
        <ele>1026</ele>
        <time>2014-08-31T08:54:29Z</time>
      </trkpt>
      <trkpt lat="43.73053" lon="6.95287">
        <ele>1026</ele>
        <time>2014-08-31T08:54:34Z</time>
      </trkpt>
      <trkpt lat="43.73053" lon="6.95287">
        <ele>1026</ele>
        <time>2014-08-31T08:54:39Z</time>
      </trkpt>
      <trkpt lat="43.73053" lon="6.95287">
        <ele>1026</ele>
        <time>2014-08-31T08:54:45Z</time>
      </trkpt>
      <trkpt lat="43.73053" lon="6.95287">
        <ele>1026</ele>
        <time>2014-08-31T08:54:49Z</time>
      </trkpt>
      <trkpt lat="43.73053" lon="6.95287">
        <ele>1026</ele>
        <time>2014-08-31T08:54:54Z</time>
      </trkpt>
      <trkpt lat="43.73053" lon="6.95287">
        <ele>1026</ele>
        <time>2014-08-31T08:55:01Z</time>
      </trkpt>
      <trkpt lat="43.73053" lon="6.95287">
        <ele>1026</ele>
        <time>2014-08-31T08:55:04Z</time>
      </trkpt>
      <trkpt lat="43.73053" lon="6.95287">
        <ele>1026</ele>
        <time>2014-08-31T08:55:09Z</time>
      </trkpt>
      <trkpt lat="43.73053" lon="6.95287">
        <ele>1026</ele>
        <time>2014-08-31T08:55:14Z</time>
      </trkpt>
      <trkpt lat="43.73053" lon="6.95287">
        <ele>1026</ele>
        <time>2014-08-31T08:55:19Z</time>
      </trkpt>
      <trkpt lat="43.73053" lon="6.95287">
        <ele>1026</ele>
        <time>2014-08-31T08:55:24Z</time>
      </trkpt>
      <trkpt lat="43.73053" lon="6.95287">
        <ele>1026</ele>
        <time>2014-08-31T08:55:29Z</time>
      </trkpt>
      <trkpt lat="43.73053" lon="6.95287">
        <ele>1026</ele>
        <time>2014-08-31T08:55:34Z</time>
      </trkpt>
      <trkpt lat="43.73053" lon="6.95287">
        <ele>1026</ele>
        <time>2014-08-31T08:55:39Z</time>
      </trkpt>
      <trkpt lat="43.73053" lon="6.95287">
        <ele>1026</ele>
        <time>2014-08-31T08:55:44Z</time>
      </trkpt>
      <trkpt lat="43.73053" lon="6.95287">
        <ele>1026</ele>
        <time>2014-08-31T08:55:51Z</time>
      </trkpt>
      <trkpt lat="43.73053" lon="6.95287">
        <ele>1026</ele>
        <time>2014-08-31T08:55:54Z</time>
      </trkpt>
      <trkpt lat="43.73053" lon="6.95287">
        <ele>1026</ele>
        <time>2014-08-31T08:55:59Z</time>
      </trkpt>
      <trkpt lat="43.73053" lon="6.95287">
        <ele>1026</ele>
        <time>2014-08-31T08:56:04Z</time>
      </trkpt>
    </trkseg>
  </trk>
  <trk>
    <name><![CDATA[Sequence 2]]></name>
    <trkseg>
      <trkpt lat="43.73053" lon="6.95287">
        <ele>1026</ele>
        <time>2014-08-31T08:56:19Z</time>
      </trkpt>
      <trkpt lat="43.73053" lon="6.95287">
        <ele>1026</ele>
        <time>2014-08-31T08:56:23Z</time>
      </trkpt>
      <trkpt lat="43.73053" lon="6.95287">
        <ele>1026</ele>
        <time>2014-08-31T08:56:28Z</time>
      </trkpt>
      <trkpt lat="43.73053" lon="6.95286">
        <ele>1025</ele>
        <time>2014-08-31T08:56:33Z</time>
      </trkpt>
      <trkpt lat="43.73053" lon="6.95286">
        <ele>1026</ele>
        <time>2014-08-31T08:56:38Z</time>
      </trkpt>
      <trkpt lat="43.73054" lon="6.95286">
        <ele>1025</ele>
        <time>2014-08-31T08:56:43Z</time>
      </trkpt>
      <trkpt lat="43.73055" lon="6.95286">
        <ele>1025</ele>
        <time>2014-08-31T08:56:48Z</time>
      </trkpt>
      <trkpt lat="43.73056" lon="6.95285">
        <ele>1024</ele>
        <time>2014-08-31T08:56:53Z</time>
      </trkpt>
      <trkpt lat="43.73056" lon="6.95285">
        <ele>1024</ele>
        <time>2014-08-31T08:56:58Z</time>
      </trkpt>
      <trkpt lat="43.73056" lon="6.95285">
        <ele>1024</ele>
        <time>2014-08-31T08:57:03Z</time>
      </trkpt>
      <trkpt lat="43.73056" lon="6.95285">
        <ele>1024</ele>
        <time>2014-08-31T08:57:08Z</time>
      </trkpt>
      <trkpt lat="43.73056" lon="6.95285">
        <ele>1024</ele>
        <time>2014-08-31T08:57:13Z</time>
      </trkpt>
      <trkpt lat="43.73056" lon="6.95285">
        <ele>1024</ele>
        <time>2014-08-31T08:57:18Z</time>
      </trkpt>
      <trkpt lat="43.73056" lon="6.95285">
        <ele>1024</ele>
        <time>2014-08-31T08:57:23Z</time>
      </trkpt>
      <trkpt lat="43.73056" lon="6.95285">
        <ele>1024</ele>
        <time>2014-08-31T08:57:28Z</time>
      </trkpt>
      <trkpt lat="43.73056" lon="6.95285">
        <ele>1024</ele>
        <time>2014-08-31T08:57:33Z</time>
      </trkpt>
      <trkpt lat="43.73056" lon="6.95285">
        <ele>1024</ele>
        <time>2014-08-31T08:57:38Z</time>
      </trkpt>
      <trkpt lat="43.73056" lon="6.95285">
        <ele>1024</ele>
        <time>2014-08-31T08:57:43Z</time>
      </trkpt>
      <trkpt lat="43.73056" lon="6.95285">
        <ele>1024</ele>
        <time>2014-08-31T08:57:48Z</time>
      </trkpt>
      <trkpt lat="43.73056" lon="6.95285">
        <ele>1024</ele>
        <time>2014-08-31T08:57:57Z</time>
      </trkpt>
      <trkpt lat="43.73056" lon="6.95285">
        <ele>1024</ele>
        <time>2014-08-31T08:57:58Z</time>
      </trkpt>
      <trkpt lat="43.73056" lon="6.95285">
        <ele>1024</ele>
        <time>2014-08-31T08:58:03Z</time>
      </trkpt>
      <trkpt lat="43.73056" lon="6.95285">
        <ele>1024</ele>
        <time>2014-08-31T08:58:08Z</time>
      </trkpt>
      <trkpt lat="43.73056" lon="6.95285">
        <ele>1024</ele>
        <time>2014-08-31T08:58:13Z</time>
      </trkpt>
      <trkpt lat="43.73056" lon="6.95285">
        <ele>1024</ele>
        <time>2014-08-31T08:58:18Z</time>
      </trkpt>
      <trkpt lat="43.73056" lon="6.95285">
        <ele>1024</ele>
        <time>2014-08-31T08:58:23Z</time>
      </trkpt>
      <trkpt lat="43.73056" lon="6.95285">
        <ele>1024</ele>
        <time>2014-08-31T08:58:29Z</time>
      </trkpt>
      <trkpt lat="43.73056" lon="6.95285">
        <ele>1024</ele>
        <time>2014-08-31T08:58:33Z</time>
      </trkpt>
      <trkpt lat="43.73056" lon="6.95285">
        <ele>1024</ele>
        <time>2014-08-31T08:58:38Z</time>
      </trkpt>
      <trkpt lat="43.73056" lon="6.95285">
        <ele>1024</ele>
        <time>2014-08-31T08:58:43Z</time>
      </trkpt>
      <trkpt lat="43.73056" lon="6.95285">
        <ele>1024</ele>
        <time>2014-08-31T08:58:48Z</time>
      </trkpt>
      <trkpt lat="43.73056" lon="6.95285">
        <ele>1024</ele>
        <time>2014-08-31T08:58:53Z</time>
      </trkpt>
      <trkpt lat="43.73056" lon="6.95285">
        <ele>1024</ele>
        <time>2014-08-31T08:58:58Z</time>
      </trkpt>
      <trkpt lat="43.73056" lon="6.95285">
        <ele>1024</ele>
        <time>2014-08-31T08:59:03Z</time>
      </trkpt>
      <trkpt lat="43.73056" lon="6.95285">
        <ele>1024</ele>
        <time>2014-08-31T08:59:08Z</time>
      </trkpt>
      <trkpt lat="43.73056" lon="6.95285">
        <ele>1024</ele>
        <time>2014-08-31T08:59:13Z</time>
      </trkpt>
      <trkpt lat="43.73056" lon="6.95285">
        <ele>1024</ele>
        <time>2014-08-31T08:59:18Z</time>
      </trkpt>
      <trkpt lat="43.73056" lon="6.95285">
        <ele>1024</ele>
        <time>2014-08-31T08:59:23Z</time>
      </trkpt>
      <trkpt lat="43.73056" lon="6.95285">
        <ele>1024</ele>
        <time>2014-08-31T08:59:28Z</time>
      </trkpt>
      <trkpt lat="43.73056" lon="6.95285">
        <ele>1024</ele>
        <time>2014-08-31T08:59:35Z</time>
      </trkpt>
      <trkpt lat="43.73056" lon="6.95285">
        <ele>1024</ele>
        <time>2014-08-31T08:59:38Z</time>
      </trkpt>
      <trkpt lat="43.73056" lon="6.95285">
        <ele>1024</ele>
        <time>2014-08-31T08:59:43Z</time>
      </trkpt>
      <trkpt lat="43.73056" lon="6.95285">
        <ele>1024</ele>
        <time>2014-08-31T08:59:48Z</time>
      </trkpt>
      <trkpt lat="43.73056" lon="6.95285">
        <ele>1024</ele>
        <time>2014-08-31T08:59:53Z</time>
      </trkpt>
      <trkpt lat="43.73056" lon="6.95285">
        <ele>1024</ele>
        <time>2014-08-31T08:59:58Z</time>
      </trkpt>
      <trkpt lat="43.73056" lon="6.95285">
        <ele>1024</ele>
        <time>2014-08-31T09:00:03Z</time>
      </trkpt>
      <trkpt lat="43.73056" lon="6.95285">
        <ele>1024</ele>
        <time>2014-08-31T09:00:08Z</time>
      </trkpt>
      <trkpt lat="43.73056" lon="6.95285">
        <ele>1024</ele>
        <time>2014-08-31T09:00:13Z</time>
      </trkpt>
      <trkpt lat="43.73056" lon="6.95285">
        <ele>1024</ele>
        <time>2014-08-31T09:00:18Z</time>
      </trkpt>
      <trkpt lat="43.73056" lon="6.95285">
        <ele>1024</ele>
        <time>2014-08-31T09:00:23Z</time>
      </trkpt>
      <trkpt lat="43.73056" lon="6.95285">
        <ele>1024</ele>
        <time>2014-08-31T09:00:28Z</time>
      </trkpt>
      <trkpt lat="43.73056" lon="6.95285">
        <ele>1024</ele>
        <time>2014-08-31T09:00:33Z</time>
      </trkpt>
      <trkpt lat="43.73056" lon="6.95285">
        <ele>1024</ele>
        <time>2014-08-31T09:00:38Z</time>
      </trkpt>
      <trkpt lat="43.73056" lon="6.95285">
        <ele>1024</ele>
        <time>2014-08-31T09:00:44Z</time>
      </trkpt>
      <trkpt lat="43.73056" lon="6.95285">
        <ele>1024</ele>
        <time>2014-08-31T09:00:48Z</time>
      </trkpt>
      <trkpt lat="43.73056" lon="6.95285">
        <ele>1024</ele>
        <time>2014-08-31T09:00:53Z</time>
      </trkpt>
      <trkpt lat="43.73056" lon="6.95285">
        <ele>1024</ele>
        <time>2014-08-31T09:00:58Z</time>
      </trkpt>
      <trkpt lat="43.73056" lon="6.95285">
        <ele>1024</ele>
        <time>2014-08-31T09:01:03Z</time>
      </trkpt>
      <trkpt lat="43.73056" lon="6.95285">
        <ele>1024</ele>
        <time>2014-08-31T09:01:08Z</time>
      </trkpt>
      <trkpt lat="43.73056" lon="6.95285">
        <ele>1024</ele>
        <time>2014-08-31T09:01:14Z</time>
      </trkpt>
      <trkpt lat="43.73056" lon="6.95285">
        <ele>1024</ele>
        <time>2014-08-31T09:01:18Z</time>
      </trkpt>
      <trkpt lat="43.73056" lon="6.95285">
        <ele>1024</ele>
        <time>2014-08-31T09:01:23Z</time>
      </trkpt>
      <trkpt lat="43.73056" lon="6.95285">
        <ele>1024</ele>
        <time>2014-08-31T09:01:28Z</time>
      </trkpt>
      <trkpt lat="43.73056" lon="6.95285">
        <ele>1024</ele>
        <time>2014-08-31T09:01:33Z</time>
      </trkpt>
      <trkpt lat="43.73056" lon="6.95285">
        <ele>1024</ele>
        <time>2014-08-31T09:01:38Z</time>
      </trkpt>
      <trkpt lat="43.73055" lon="6.95285">
        <ele>1024</ele>
        <time>2014-08-31T09:01:43Z</time>
      </trkpt>
      <trkpt lat="43.73056" lon="6.95285">
        <ele>1024</ele>
        <time>2014-08-31T09:01:48Z</time>
      </trkpt>
      <trkpt lat="43.73056" lon="6.95285">
        <ele>1024</ele>
        <time>2014-08-31T09:01:53Z</time>
      </trkpt>
      <trkpt lat="43.73056" lon="6.95285">
        <ele>1024</ele>
        <time>2014-08-31T09:01:58Z</time>
      </trkpt>
      <trkpt lat="43.73055" lon="6.95285">
        <ele>1024</ele>
        <time>2014-08-31T09:02:03Z</time>
      </trkpt>
      <trkpt lat="43.73055" lon="6.95285">
        <ele>1024</ele>
        <time>2014-08-31T09:02:08Z</time>
      </trkpt>
      <trkpt lat="43.73056" lon="6.95285">
        <ele>1024</ele>
        <time>2014-08-31T09:02:13Z</time>
      </trkpt>
      <trkpt lat="43.73056" lon="6.95285">
        <ele>1024</ele>
        <time>2014-08-31T09:02:18Z</time>
      </trkpt>
      <trkpt lat="43.73056" lon="6.95285">
        <ele>1024</ele>
        <time>2014-08-31T09:02:27Z</time>
      </trkpt>
      <trkpt lat="43.73056" lon="6.95285">
        <ele>1024</ele>
        <time>2014-08-31T09:02:28Z</time>
      </trkpt>
      <trkpt lat="43.73056" lon="6.95285">
        <ele>1024</ele>
        <time>2014-08-31T09:02:33Z</time>
      </trkpt>
      <trkpt lat="43.73056" lon="6.95285">
        <ele>1024</ele>
        <time>2014-08-31T09:02:38Z</time>
      </trkpt>
      <trkpt lat="43.73056" lon="6.95285">
        <ele>1024</ele>
        <time>2014-08-31T09:02:43Z</time>
      </trkpt>
      <trkpt lat="43.73056" lon="6.95285">
        <ele>1024</ele>
        <time>2014-08-31T09:02:48Z</time>
      </trkpt>
      <trkpt lat="43.73056" lon="6.95286">
        <ele>1024</ele>
        <time>2014-08-31T09:02:53Z</time>
      </trkpt>
      <trkpt lat="43.73056" lon="6.95286">
        <ele>1024</ele>
        <time>2014-08-31T09:02:58Z</time>
      </trkpt>
      <trkpt lat="43.73055" lon="6.95286">
        <ele>1024</ele>
        <time>2014-08-31T09:03:03Z</time>
      </trkpt>
      <trkpt lat="43.73055" lon="6.95285">
        <ele>1024</ele>
        <time>2014-08-31T09:03:08Z</time>
      </trkpt>
      <trkpt lat="43.73055" lon="6.95285">
        <ele>1024</ele>
        <time>2014-08-31T09:03:13Z</time>
      </trkpt>
      <trkpt lat="43.73055" lon="6.95285">
        <ele>1024</ele>
        <time>2014-08-31T09:03:18Z</time>
      </trkpt>
      <trkpt lat="43.73055" lon="6.95285">
        <ele>1024</ele>
        <time>2014-08-31T09:03:23Z</time>
      </trkpt>
      <trkpt lat="43.73055" lon="6.95285">
        <ele>1024</ele>
        <time>2014-08-31T09:03:28Z</time>
      </trkpt>
      <trkpt lat="43.73055" lon="6.95285">
        <ele>1024</ele>
        <time>2014-08-31T09:03:33Z</time>
      </trkpt>
      <trkpt lat="43.73055" lon="6.95285">
        <ele>1024</ele>
        <time>2014-08-31T09:03:38Z</time>
      </trkpt>
      <trkpt lat="43.73055" lon="6.95285">
        <ele>1024</ele>
        <time>2014-08-31T09:03:45Z</time>
      </trkpt>
      <trkpt lat="43.73055" lon="6.95285">
        <ele>1024</ele>
        <time>2014-08-31T09:03:48Z</time>
      </trkpt>
      <trkpt lat="43.73055" lon="6.95285">
        <ele>1024</ele>
        <time>2014-08-31T09:03:54Z</time>
      </trkpt>
      <trkpt lat="43.73055" lon="6.95285">
        <ele>1024</ele>
        <time>2014-08-31T09:03:58Z</time>
      </trkpt>
      <trkpt lat="43.73055" lon="6.95285">
        <ele>1024</ele>
        <time>2014-08-31T09:04:05Z</time>
      </trkpt>
      <trkpt lat="43.73055" lon="6.95285">
        <ele>1024</ele>
        <time>2014-08-31T09:04:08Z</time>
      </trkpt>
      <trkpt lat="43.73055" lon="6.95285">
        <ele>1024</ele>
        <time>2014-08-31T09:04:13Z</time>
      </trkpt>
      <trkpt lat="43.73055" lon="6.95285">
        <ele>1024</ele>
        <time>2014-08-31T09:04:18Z</time>
      </trkpt>
      <trkpt lat="43.73055" lon="6.95285">
        <ele>1024</ele>
        <time>2014-08-31T09:04:23Z</time>
      </trkpt>
      <trkpt lat="43.73055" lon="6.95285">
        <ele>1024</ele>
        <time>2014-08-31T09:04:28Z</time>
      </trkpt>
      <trkpt lat="43.73055" lon="6.95286">
        <ele>1024</ele>
        <time>2014-08-31T09:04:33Z</time>
      </trkpt>
      <trkpt lat="43.73055" lon="6.95286">
        <ele>1024</ele>
        <time>2014-08-31T09:04:38Z</time>
      </trkpt>
      <trkpt lat="43.73055" lon="6.95286">
        <ele>1024</ele>
        <time>2014-08-31T09:04:43Z</time>
      </trkpt>
      <trkpt lat="43.73055" lon="6.95286">
        <ele>1024</ele>
        <time>2014-08-31T09:04:48Z</time>
      </trkpt>
      <trkpt lat="43.73055" lon="6.95286">
        <ele>1024</ele>
        <time>2014-08-31T09:04:56Z</time>
      </trkpt>
      <trkpt lat="43.73055" lon="6.95286">
        <ele>1024</ele>
        <time>2014-08-31T09:04:58Z</time>
      </trkpt>
      <trkpt lat="43.73055" lon="6.95286">
        <ele>1024</ele>
        <time>2014-08-31T09:05:03Z</time>
      </trkpt>
      <trkpt lat="43.73055" lon="6.95286">
        <ele>1024</ele>
        <time>2014-08-31T09:05:08Z</time>
      </trkpt>
      <trkpt lat="43.73055" lon="6.95286">
        <ele>1024</ele>
        <time>2014-08-31T09:05:14Z</time>
      </trkpt>
      <trkpt lat="43.73055" lon="6.95286">
        <ele>1024</ele>
        <time>2014-08-31T09:05:18Z</time>
      </trkpt>
      <trkpt lat="43.73055" lon="6.95286">
        <ele>1024</ele>
        <time>2014-08-31T09:05:23Z</time>
      </trkpt>
      <trkpt lat="43.73055" lon="6.95286">
        <ele>1024</ele>
        <time>2014-08-31T09:05:29Z</time>
      </trkpt>
      <trkpt lat="43.73055" lon="6.95286">
        <ele>1024</ele>
        <time>2014-08-31T09:05:33Z</time>
      </trkpt>
      <trkpt lat="43.73055" lon="6.95286">
        <ele>1024</ele>
        <time>2014-08-31T09:05:38Z</time>
      </trkpt>
      <trkpt lat="43.73055" lon="6.95286">
        <ele>1024</ele>
        <time>2014-08-31T09:05:43Z</time>
      </trkpt>
      <trkpt lat="43.73055" lon="6.95286">
        <ele>1024</ele>
        <time>2014-08-31T09:05:48Z</time>
      </trkpt>
      <trkpt lat="43.73055" lon="6.95286">
        <ele>1024</ele>
        <time>2014-08-31T09:05:54Z</time>
      </trkpt>
      <trkpt lat="43.73055" lon="6.95286">
        <ele>1024</ele>
        <time>2014-08-31T09:05:58Z</time>
      </trkpt>
      <trkpt lat="43.73055" lon="6.95286">
        <ele>1024</ele>
        <time>2014-08-31T09:06:03Z</time>
      </trkpt>
      <trkpt lat="43.73055" lon="6.95286">
        <ele>1024</ele>
        <time>2014-08-31T09:06:08Z</time>
      </trkpt>
      <trkpt lat="43.73055" lon="6.95286">
        <ele>1024</ele>
        <time>2014-08-31T09:06:13Z</time>
      </trkpt>
      <trkpt lat="43.73055" lon="6.95286">
        <ele>1024</ele>
        <time>2014-08-31T09:06:18Z</time>
      </trkpt>
      <trkpt lat="43.73055" lon="6.95286">
        <ele>1024</ele>
        <time>2014-08-31T09:06:24Z</time>
      </trkpt>
      <trkpt lat="43.73055" lon="6.95286">
        <ele>1024</ele>
        <time>2014-08-31T09:06:28Z</time>
      </trkpt>
      <trkpt lat="43.73055" lon="6.95286">
        <ele>1024</ele>
        <time>2014-08-31T09:06:37Z</time>
      </trkpt>
      <trkpt lat="43.73055" lon="6.95286">
        <ele>1024</ele>
        <time>2014-08-31T09:06:38Z</time>
      </trkpt>
      <trkpt lat="43.73055" lon="6.95286">
        <ele>1024</ele>
        <time>2014-08-31T09:06:43Z</time>
      </trkpt>
      <trkpt lat="43.73055" lon="6.95286">
        <ele>1024</ele>
        <time>2014-08-31T09:06:49Z</time>
      </trkpt>
      <trkpt lat="43.73055" lon="6.95286">
        <ele>1024</ele>
        <time>2014-08-31T09:06:54Z</time>
      </trkpt>
      <trkpt lat="43.73055" lon="6.95286">
        <ele>1024</ele>
        <time>2014-08-31T09:06:58Z</time>
      </trkpt>
      <trkpt lat="43.73055" lon="6.95286">
        <ele>1024</ele>
        <time>2014-08-31T09:07:03Z</time>
      </trkpt>
      <trkpt lat="43.73055" lon="6.95286">
        <ele>1024</ele>
        <time>2014-08-31T09:07:12Z</time>
      </trkpt>
      <trkpt lat="43.73055" lon="6.95286">
        <ele>1024</ele>
        <time>2014-08-31T09:07:13Z</time>
      </trkpt>
      <trkpt lat="43.73055" lon="6.95286">
        <ele>1024</ele>
        <time>2014-08-31T09:07:18Z</time>
      </trkpt>
      <trkpt lat="43.73055" lon="6.95286">
        <ele>1024</ele>
        <time>2014-08-31T09:07:23Z</time>
      </trkpt>
      <trkpt lat="43.73055" lon="6.95286">
        <ele>1024</ele>
        <time>2014-08-31T09:07:28Z</time>
      </trkpt>
      <trkpt lat="43.73055" lon="6.95286">
        <ele>1024</ele>
        <time>2014-08-31T09:07:33Z</time>
      </trkpt>
      <trkpt lat="43.73055" lon="6.95286">
        <ele>1024</ele>
        <time>2014-08-31T09:07:38Z</time>
      </trkpt>
      <trkpt lat="43.73055" lon="6.95286">
        <ele>1024</ele>
        <time>2014-08-31T09:07:44Z</time>
      </trkpt>
      <trkpt lat="43.73055" lon="6.95286">
        <ele>1024</ele>
        <time>2014-08-31T09:07:51Z</time>
      </trkpt>
      <trkpt lat="43.73055" lon="6.95286">
        <ele>1024</ele>
        <time>2014-08-31T09:07:53Z</time>
      </trkpt>
      <trkpt lat="43.73055" lon="6.95286">
        <ele>1024</ele>
        <time>2014-08-31T09:07:58Z</time>
      </trkpt>
      <trkpt lat="43.73055" lon="6.95286">
        <ele>1024</ele>
        <time>2014-08-31T09:08:03Z</time>
      </trkpt>
      <trkpt lat="43.73055" lon="6.95286">
        <ele>1024</ele>
        <time>2014-08-31T09:08:08Z</time>
      </trkpt>
      <trkpt lat="43.73055" lon="6.95286">
        <ele>1024</ele>
        <time>2014-08-31T09:08:13Z</time>
      </trkpt>
      <trkpt lat="43.73055" lon="6.95286">
        <ele>1024</ele>
        <time>2014-08-31T09:08:18Z</time>
      </trkpt>
      <trkpt lat="43.73055" lon="6.95286">
        <ele>1024</ele>
        <time>2014-08-31T09:08:23Z</time>
      </trkpt>
      <trkpt lat="43.73055" lon="6.95286">
        <ele>1024</ele>
        <time>2014-08-31T09:08:32Z</time>
      </trkpt>
      <trkpt lat="43.73055" lon="6.95286">
        <ele>1024</ele>
        <time>2014-08-31T09:08:33Z</time>
      </trkpt>
      <trkpt lat="43.73055" lon="6.95286">
        <ele>1024</ele>
        <time>2014-08-31T09:08:38Z</time>
      </trkpt>
      <trkpt lat="43.73055" lon="6.95286">
        <ele>1024</ele>
        <time>2014-08-31T09:08:43Z</time>
      </trkpt>
      <trkpt lat="43.73055" lon="6.95286">
        <ele>1024</ele>
        <time>2014-08-31T09:08:48Z</time>
      </trkpt>
      <trkpt lat="43.73055" lon="6.95286">
        <ele>1024</ele>
        <time>2014-08-31T09:08:53Z</time>
      </trkpt>
      <trkpt lat="43.73055" lon="6.95286">
        <ele>1024</ele>
        <time>2014-08-31T09:08:58Z</time>
      </trkpt>
      <trkpt lat="43.73055" lon="6.95286">
        <ele>1024</ele>
        <time>2014-08-31T09:09:03Z</time>
      </trkpt>
      <trkpt lat="43.73055" lon="6.95286">
        <ele>1024</ele>
        <time>2014-08-31T09:09:08Z</time>
      </trkpt>
      <trkpt lat="43.73055" lon="6.95286">
        <ele>1024</ele>
        <time>2014-08-31T09:09:13Z</time>
      </trkpt>
      <trkpt lat="43.73055" lon="6.95286">
        <ele>1024</ele>
        <time>2014-08-31T09:09:18Z</time>
      </trkpt>
      <trkpt lat="43.73055" lon="6.95286">
        <ele>1024</ele>
        <time>2014-08-31T09:09:23Z</time>
      </trkpt>
      <trkpt lat="43.73055" lon="6.95286">
        <ele>1024</ele>
        <time>2014-08-31T09:09:28Z</time>
      </trkpt>
      <trkpt lat="43.73055" lon="6.95286">
        <ele>1024</ele>
        <time>2014-08-31T09:09:33Z</time>
      </trkpt>
      <trkpt lat="43.73055" lon="6.95286">
        <ele>1024</ele>
        <time>2014-08-31T09:09:38Z</time>
      </trkpt>
      <trkpt lat="43.73055" lon="6.95286">
        <ele>1024</ele>
        <time>2014-08-31T09:09:43Z</time>
      </trkpt>
      <trkpt lat="43.73055" lon="6.95286">
        <ele>1024</ele>
        <time>2014-08-31T09:09:48Z</time>
      </trkpt>
      <trkpt lat="43.73055" lon="6.95286">
        <ele>1024</ele>
        <time>2014-08-31T09:09:53Z</time>
      </trkpt>
      <trkpt lat="43.73055" lon="6.95286">
        <ele>1024</ele>
        <time>2014-08-31T09:09:58Z</time>
      </trkpt>
      <trkpt lat="43.73055" lon="6.95286">
        <ele>1024</ele>
        <time>2014-08-31T09:10:06Z</time>
      </trkpt>
      <trkpt lat="43.73055" lon="6.95286">
        <ele>1024</ele>
        <time>2014-08-31T09:10:10Z</time>
      </trkpt>
      <trkpt lat="43.73055" lon="6.95286">
        <ele>1024</ele>
        <time>2014-08-31T09:10:13Z</time>
      </trkpt>
      <trkpt lat="43.73055" lon="6.95286">
        <ele>1024</ele>
        <time>2014-08-31T09:10:18Z</time>
      </trkpt>
      <trkpt lat="43.73055" lon="6.95286">
        <ele>1024</ele>
        <time>2014-08-31T09:10:23Z</time>
      </trkpt>
      <trkpt lat="43.73055" lon="6.95286">
        <ele>1024</ele>
        <time>2014-08-31T09:10:28Z</time>
      </trkpt>
      <trkpt lat="43.73055" lon="6.95286">
        <ele>1024</ele>
        <time>2014-08-31T09:10:33Z</time>
      </trkpt>
      <trkpt lat="43.73055" lon="6.95286">
        <ele>1024</ele>
        <time>2014-08-31T09:10:38Z</time>
      </trkpt>
      <trkpt lat="43.73055" lon="6.95286">
        <ele>1024</ele>
        <time>2014-08-31T09:10:43Z</time>
      </trkpt>
      <trkpt lat="43.73055" lon="6.95286">
        <ele>1024</ele>
        <time>2014-08-31T09:10:48Z</time>
      </trkpt>
      <trkpt lat="43.73055" lon="6.95286">
        <ele>1024</ele>
        <time>2014-08-31T09:10:53Z</time>
      </trkpt>
      <trkpt lat="43.73055" lon="6.95286">
        <ele>1024</ele>
        <time>2014-08-31T09:10:58Z</time>
      </trkpt>
      <trkpt lat="43.73055" lon="6.95286">
        <ele>1024</ele>
        <time>2014-08-31T09:11:03Z</time>
      </trkpt>
      <trkpt lat="43.73055" lon="6.95286">
        <ele>1024</ele>
        <time>2014-08-31T09:11:08Z</time>
      </trkpt>
      <trkpt lat="43.73055" lon="6.95286">
        <ele>1024</ele>
        <time>2014-08-31T09:11:13Z</time>
      </trkpt>
      <trkpt lat="43.73055" lon="6.95286">
        <ele>1024</ele>
        <time>2014-08-31T09:11:18Z</time>
      </trkpt>
      <trkpt lat="43.73055" lon="6.95286">
        <ele>1024</ele>
        <time>2014-08-31T09:11:23Z</time>
      </trkpt>
      <trkpt lat="43.73055" lon="6.95286">
        <ele>1024</ele>
        <time>2014-08-31T09:11:29Z</time>
      </trkpt>
      <trkpt lat="43.73055" lon="6.95286">
        <ele>1024</ele>
        <time>2014-08-31T09:11:33Z</time>
      </trkpt>
      <trkpt lat="43.73055" lon="6.95286">
        <ele>1024</ele>
        <time>2014-08-31T09:11:38Z</time>
      </trkpt>
      <trkpt lat="43.73055" lon="6.95286">
        <ele>1024</ele>
        <time>2014-08-31T09:11:43Z</time>
      </trkpt>
      <trkpt lat="43.73055" lon="6.95286">
        <ele>1024</ele>
        <time>2014-08-31T09:11:50Z</time>
      </trkpt>
      <trkpt lat="43.73055" lon="6.95286">
        <ele>1024</ele>
        <time>2014-08-31T09:11:53Z</time>
      </trkpt>
      <trkpt lat="43.73055" lon="6.95286">
        <ele>1024</ele>
        <time>2014-08-31T09:11:58Z</time>
      </trkpt>
      <trkpt lat="43.73055" lon="6.95286">
        <ele>1024</ele>
        <time>2014-08-31T09:12:03Z</time>
      </trkpt>
      <trkpt lat="43.73055" lon="6.95286">
        <ele>1024</ele>
        <time>2014-08-31T09:12:08Z</time>
      </trkpt>
      <trkpt lat="43.73055" lon="6.95286">
        <ele>1024</ele>
        <time>2014-08-31T09:12:16Z</time>
      </trkpt>
      <trkpt lat="43.73055" lon="6.95286">
        <ele>1024</ele>
        <time>2014-08-31T09:12:20Z</time>
      </trkpt>
      <trkpt lat="43.73055" lon="6.95286">
        <ele>1024</ele>
        <time>2014-08-31T09:12:23Z</time>
      </trkpt>
      <trkpt lat="43.73055" lon="6.95286">
        <ele>1024</ele>
        <time>2014-08-31T09:12:28Z</time>
      </trkpt>
      <trkpt lat="43.73055" lon="6.95286">
        <ele>1024</ele>
        <time>2014-08-31T09:12:33Z</time>
      </trkpt>
      <trkpt lat="43.73055" lon="6.95286">
        <ele>1024</ele>
        <time>2014-08-31T09:12:38Z</time>
      </trkpt>
      <trkpt lat="43.73055" lon="6.95286">
        <ele>1024</ele>
        <time>2014-08-31T09:12:45Z</time>
      </trkpt>
      <trkpt lat="43.73055" lon="6.95286">
        <ele>1024</ele>
        <time>2014-08-31T09:12:50Z</time>
      </trkpt>
      <trkpt lat="43.73055" lon="6.95286">
        <ele>1024</ele>
        <time>2014-08-31T09:12:53Z</time>
      </trkpt>
      <trkpt lat="43.73055" lon="6.95286">
        <ele>1024</ele>
        <time>2014-08-31T09:12:58Z</time>
      </trkpt>
      <trkpt lat="43.73055" lon="6.95286">
        <ele>1024</ele>
        <time>2014-08-31T09:13:03Z</time>
      </trkpt>
      <trkpt lat="43.73055" lon="6.95286">
        <ele>1024</ele>
        <time>2014-08-31T09:13:08Z</time>
      </trkpt>
      <trkpt lat="43.73055" lon="6.95286">
        <ele>1024</ele>
        <time>2014-08-31T09:13:13Z</time>
      </trkpt>
      <trkpt lat="43.73055" lon="6.95286">
        <ele>1024</ele>
        <time>2014-08-31T09:13:18Z</time>
      </trkpt>
      <trkpt lat="43.73055" lon="6.95286">
        <ele>1024</ele>
        <time>2014-08-31T09:13:25Z</time>
      </trkpt>
      <trkpt lat="43.73055" lon="6.95286">
        <ele>1024</ele>
        <time>2014-08-31T09:13:28Z</time>
      </trkpt>
      <trkpt lat="43.73055" lon="6.95286">
        <ele>1024</ele>
        <time>2014-08-31T09:13:33Z</time>
      </trkpt>
      <trkpt lat="43.73055" lon="6.95286">
        <ele>1024</ele>
        <time>2014-08-31T09:13:38Z</time>
      </trkpt>
      <trkpt lat="43.73055" lon="6.95286">
        <ele>1024</ele>
        <time>2014-08-31T09:13:44Z</time>
      </trkpt>
      <trkpt lat="43.73055" lon="6.95286">
        <ele>1024</ele>
        <time>2014-08-31T09:13:48Z</time>
      </trkpt>
      <trkpt lat="43.73055" lon="6.95286">
        <ele>1024</ele>
        <time>2014-08-31T09:13:53Z</time>
      </trkpt>
      <trkpt lat="43.73055" lon="6.95286">
        <ele>1024</ele>
        <time>2014-08-31T09:13:58Z</time>
      </trkpt>
      <trkpt lat="43.73055" lon="6.95286">
        <ele>1024</ele>
        <time>2014-08-31T09:14:03Z</time>
      </trkpt>
      <trkpt lat="43.73055" lon="6.95286">
        <ele>1024</ele>
        <time>2014-08-31T09:14:08Z</time>
      </trkpt>
      <trkpt lat="43.73055" lon="6.95286">
        <ele>1024</ele>
        <time>2014-08-31T09:14:13Z</time>
      </trkpt>
      <trkpt lat="43.73055" lon="6.95286">
        <ele>1024</ele>
        <time>2014-08-31T09:14:18Z</time>
      </trkpt>
      <trkpt lat="43.73055" lon="6.95286">
        <ele>1024</ele>
        <time>2014-08-31T09:14:23Z</time>
      </trkpt>
      <trkpt lat="43.73055" lon="6.95286">
        <ele>1024</ele>
        <time>2014-08-31T09:14:28Z</time>
      </trkpt>
      <trkpt lat="43.73055" lon="6.95286">
        <ele>1024</ele>
        <time>2014-08-31T09:14:33Z</time>
      </trkpt>
      <trkpt lat="43.73055" lon="6.95286">
        <ele>1024</ele>
        <time>2014-08-31T09:14:38Z</time>
      </trkpt>
      <trkpt lat="43.73055" lon="6.95286">
        <ele>1024</ele>
        <time>2014-08-31T09:14:43Z</time>
      </trkpt>
      <trkpt lat="43.73055" lon="6.95286">
        <ele>1024</ele>
        <time>2014-08-31T09:14:48Z</time>
      </trkpt>
      <trkpt lat="43.73055" lon="6.95286">
        <ele>1024</ele>
        <time>2014-08-31T09:14:53Z</time>
      </trkpt>
      <trkpt lat="43.73055" lon="6.95286">
        <ele>1024</ele>
        <time>2014-08-31T09:14:58Z</time>
      </trkpt>
      <trkpt lat="43.73055" lon="6.95286">
        <ele>1023</ele>
        <time>2014-08-31T09:15:03Z</time>
      </trkpt>
      <trkpt lat="43.73055" lon="6.95286">
        <ele>1023</ele>
        <time>2014-08-31T09:15:08Z</time>
      </trkpt>
      <trkpt lat="43.73055" lon="6.95286">
        <ele>1023</ele>
        <time>2014-08-31T09:15:13Z</time>
      </trkpt>
      <trkpt lat="43.73055" lon="6.95286">
        <ele>1023</ele>
        <time>2014-08-31T09:15:18Z</time>
      </trkpt>
      <trkpt lat="43.73055" lon="6.95286">
        <ele>1023</ele>
        <time>2014-08-31T09:15:23Z</time>
      </trkpt>
      <trkpt lat="43.73055" lon="6.95286">
        <ele>1023</ele>
        <time>2014-08-31T09:15:29Z</time>
      </trkpt>
      <trkpt lat="43.73055" lon="6.95286">
        <ele>1023</ele>
        <time>2014-08-31T09:15:33Z</time>
      </trkpt>
      <trkpt lat="43.73055" lon="6.95286">
        <ele>1023</ele>
        <time>2014-08-31T09:15:38Z</time>
      </trkpt>
      <trkpt lat="43.73055" lon="6.95286">
        <ele>1023</ele>
        <time>2014-08-31T09:15:43Z</time>
      </trkpt>
      <trkpt lat="43.73055" lon="6.95286">
        <ele>1023</ele>
        <time>2014-08-31T09:15:49Z</time>
      </trkpt>
      <trkpt lat="43.73055" lon="6.95286">
        <ele>1023</ele>
        <time>2014-08-31T09:15:53Z</time>
      </trkpt>
      <trkpt lat="43.73055" lon="6.95286">
        <ele>1023</ele>
        <time>2014-08-31T09:15:58Z</time>
      </trkpt>
      <trkpt lat="43.73055" lon="6.95286">
        <ele>1023</ele>
        <time>2014-08-31T09:16:03Z</time>
      </trkpt>
      <trkpt lat="43.73055" lon="6.95286">
        <ele>1023</ele>
        <time>2014-08-31T09:16:08Z</time>
      </trkpt>
      <trkpt lat="43.73055" lon="6.95286">
        <ele>1023</ele>
        <time>2014-08-31T09:16:16Z</time>
      </trkpt>
      <trkpt lat="43.73055" lon="6.95286">
        <ele>1023</ele>
        <time>2014-08-31T09:16:18Z</time>
      </trkpt>
      <trkpt lat="43.73055" lon="6.95286">
        <ele>1023</ele>
        <time>2014-08-31T09:16:23Z</time>
      </trkpt>
      <trkpt lat="43.73055" lon="6.95286">
        <ele>1023</ele>
        <time>2014-08-31T09:16:28Z</time>
      </trkpt>
      <trkpt lat="43.73055" lon="6.95286">
        <ele>1023</ele>
        <time>2014-08-31T09:16:33Z</time>
      </trkpt>
      <trkpt lat="43.73055" lon="6.95286">
        <ele>1023</ele>
        <time>2014-08-31T09:16:39Z</time>
      </trkpt>
      <trkpt lat="43.73055" lon="6.95286">
        <ele>1023</ele>
        <time>2014-08-31T09:16:43Z</time>
      </trkpt>
      <trkpt lat="43.73055" lon="6.95286">
        <ele>1023</ele>
        <time>2014-08-31T09:16:48Z</time>
      </trkpt>
      <trkpt lat="43.73055" lon="6.95286">
        <ele>1023</ele>
        <time>2014-08-31T09:16:53Z</time>
      </trkpt>
      <trkpt lat="43.73055" lon="6.95286">
        <ele>1023</ele>
        <time>2014-08-31T09:16:59Z</time>
      </trkpt>
      <trkpt lat="43.73055" lon="6.95286">
        <ele>1023</ele>
        <time>2014-08-31T09:17:06Z</time>
      </trkpt>
      <trkpt lat="43.73055" lon="6.95286">
        <ele>1023</ele>
        <time>2014-08-31T09:17:08Z</time>
      </trkpt>
      <trkpt lat="43.73055" lon="6.95286">
        <ele>1023</ele>
        <time>2014-08-31T09:17:16Z</time>
      </trkpt>
      <trkpt lat="43.73055" lon="6.95286">
        <ele>1023</ele>
        <time>2014-08-31T09:17:19Z</time>
      </trkpt>
      <trkpt lat="43.73055" lon="6.95286">
        <ele>1023</ele>
        <time>2014-08-31T09:17:25Z</time>
      </trkpt>
      <trkpt lat="43.73055" lon="6.95286">
        <ele>1023</ele>
        <time>2014-08-31T09:17:28Z</time>
      </trkpt>
      <trkpt lat="43.73055" lon="6.95286">
        <ele>1023</ele>
        <time>2014-08-31T09:17:33Z</time>
      </trkpt>
      <trkpt lat="43.73055" lon="6.95286">
        <ele>1023</ele>
        <time>2014-08-31T09:17:40Z</time>
      </trkpt>
      <trkpt lat="43.73055" lon="6.95286">
        <ele>1023</ele>
        <time>2014-08-31T09:17:43Z</time>
      </trkpt>
      <trkpt lat="43.73055" lon="6.95286">
        <ele>1023</ele>
        <time>2014-08-31T09:17:48Z</time>
      </trkpt>
      <trkpt lat="43.73055" lon="6.95286">
        <ele>1023</ele>
        <time>2014-08-31T09:17:53Z</time>
      </trkpt>
      <trkpt lat="43.73055" lon="6.95286">
        <ele>1023</ele>
        <time>2014-08-31T09:17:59Z</time>
      </trkpt>
      <trkpt lat="43.73055" lon="6.95286">
        <ele>1023</ele>
        <time>2014-08-31T09:18:03Z</time>
      </trkpt>
      <trkpt lat="43.73055" lon="6.95286">
        <ele>1023</ele>
        <time>2014-08-31T09:18:08Z</time>
      </trkpt>
      <trkpt lat="43.73055" lon="6.95286">
        <ele>1023</ele>
        <time>2014-08-31T09:18:13Z</time>
      </trkpt>
      <trkpt lat="43.73055" lon="6.95286">
        <ele>1023</ele>
        <time>2014-08-31T09:18:18Z</time>
      </trkpt>
      <trkpt lat="43.73055" lon="6.95286">
        <ele>1023</ele>
        <time>2014-08-31T09:18:24Z</time>
      </trkpt>
      <trkpt lat="43.73055" lon="6.95286">
        <ele>1023</ele>
        <time>2014-08-31T09:18:28Z</time>
      </trkpt>
      <trkpt lat="43.73055" lon="6.95286">
        <ele>1023</ele>
        <time>2014-08-31T09:18:33Z</time>
      </trkpt>
      <trkpt lat="43.73055" lon="6.95286">
        <ele>1023</ele>
        <time>2014-08-31T09:18:38Z</time>
      </trkpt>
      <trkpt lat="43.73055" lon="6.95286">
        <ele>1023</ele>
        <time>2014-08-31T09:18:43Z</time>
      </trkpt>
      <trkpt lat="43.73055" lon="6.95286">
        <ele>1023</ele>
        <time>2014-08-31T09:18:52Z</time>
      </trkpt>
      <trkpt lat="43.73055" lon="6.95286">
        <ele>1023</ele>
        <time>2014-08-31T09:18:54Z</time>
      </trkpt>
      <trkpt lat="43.73055" lon="6.95286">
        <ele>1023</ele>
        <time>2014-08-31T09:18:58Z</time>
      </trkpt>
      <trkpt lat="43.73055" lon="6.95286">
        <ele>1023</ele>
        <time>2014-08-31T09:19:05Z</time>
      </trkpt>
      <trkpt lat="43.73055" lon="6.95286">
        <ele>1023</ele>
        <time>2014-08-31T09:19:08Z</time>
      </trkpt>
      <trkpt lat="43.73055" lon="6.95286">
        <ele>1023</ele>
        <time>2014-08-31T09:19:13Z</time>
      </trkpt>
      <trkpt lat="43.73055" lon="6.95286">
        <ele>1023</ele>
        <time>2014-08-31T09:19:18Z</time>
      </trkpt>
      <trkpt lat="43.73055" lon="6.95286">
        <ele>1023</ele>
        <time>2014-08-31T09:19:23Z</time>
      </trkpt>
      <trkpt lat="43.73055" lon="6.95286">
        <ele>1023</ele>
        <time>2014-08-31T09:19:28Z</time>
      </trkpt>
      <trkpt lat="43.73055" lon="6.95286">
        <ele>1023</ele>
        <time>2014-08-31T09:19:33Z</time>
      </trkpt>
      <trkpt lat="43.73055" lon="6.95286">
        <ele>1023</ele>
        <time>2014-08-31T09:19:38Z</time>
      </trkpt>
      <trkpt lat="43.73055" lon="6.95286">
        <ele>1023</ele>
        <time>2014-08-31T09:19:43Z</time>
      </trkpt>
      <trkpt lat="43.73055" lon="6.95286">
        <ele>1023</ele>
        <time>2014-08-31T09:19:48Z</time>
      </trkpt>
      <trkpt lat="43.73055" lon="6.95286">
        <ele>1023</ele>
        <time>2014-08-31T09:19:54Z</time>
      </trkpt>
      <trkpt lat="43.73055" lon="6.95286">
        <ele>1023</ele>
        <time>2014-08-31T09:19:58Z</time>
      </trkpt>
      <trkpt lat="43.73055" lon="6.95286">
        <ele>1023</ele>
        <time>2014-08-31T09:20:03Z</time>
      </trkpt>
      <trkpt lat="43.73055" lon="6.95286">
        <ele>1023</ele>
        <time>2014-08-31T09:20:08Z</time>
      </trkpt>
      <trkpt lat="43.73055" lon="6.95286">
        <ele>1023</ele>
        <time>2014-08-31T09:20:14Z</time>
      </trkpt>
      <trkpt lat="43.73055" lon="6.95286">
        <ele>1023</ele>
        <time>2014-08-31T09:20:18Z</time>
      </trkpt>
      <trkpt lat="43.73055" lon="6.95286">
        <ele>1023</ele>
        <time>2014-08-31T09:20:23Z</time>
      </trkpt>
      <trkpt lat="43.73055" lon="6.95286">
        <ele>1023</ele>
        <time>2014-08-31T09:20:28Z</time>
      </trkpt>
      <trkpt lat="43.73055" lon="6.95286">
        <ele>1023</ele>
        <time>2014-08-31T09:20:33Z</time>
      </trkpt>
      <trkpt lat="43.73055" lon="6.95286">
        <ele>1023</ele>
        <time>2014-08-31T09:20:38Z</time>
      </trkpt>
      <trkpt lat="43.73055" lon="6.95286">
        <ele>1023</ele>
        <time>2014-08-31T09:20:43Z</time>
      </trkpt>
      <trkpt lat="43.73055" lon="6.95286">
        <ele>1023</ele>
        <time>2014-08-31T09:20:48Z</time>
      </trkpt>
      <trkpt lat="43.73055" lon="6.95286">
        <ele>1023</ele>
        <time>2014-08-31T09:20:53Z</time>
      </trkpt>
      <trkpt lat="43.73055" lon="6.95286">
        <ele>1023</ele>
        <time>2014-08-31T09:20:58Z</time>
      </trkpt>
      <trkpt lat="43.73055" lon="6.95286">
        <ele>1023</ele>
        <time>2014-08-31T09:21:03Z</time>
      </trkpt>
      <trkpt lat="43.73055" lon="6.95286">
        <ele>1023</ele>
        <time>2014-08-31T09:21:08Z</time>
      </trkpt>
      <trkpt lat="43.73055" lon="6.95286">
        <ele>1023</ele>
        <time>2014-08-31T09:21:13Z</time>
      </trkpt>
      <trkpt lat="43.73055" lon="6.95286">
        <ele>1023</ele>
        <time>2014-08-31T09:21:18Z</time>
      </trkpt>
      <trkpt lat="43.73055" lon="6.95286">
        <ele>1023</ele>
        <time>2014-08-31T09:21:23Z</time>
      </trkpt>
      <trkpt lat="43.73055" lon="6.95286">
        <ele>1023</ele>
        <time>2014-08-31T09:21:29Z</time>
      </trkpt>
      <trkpt lat="43.73055" lon="6.95286">
        <ele>1023</ele>
        <time>2014-08-31T09:21:33Z</time>
      </trkpt>
      <trkpt lat="43.73055" lon="6.95286">
        <ele>1023</ele>
        <time>2014-08-31T09:21:38Z</time>
      </trkpt>
      <trkpt lat="43.73055" lon="6.95286">
        <ele>1023</ele>
        <time>2014-08-31T09:21:43Z</time>
      </trkpt>
      <trkpt lat="43.73055" lon="6.95286">
        <ele>1023</ele>
        <time>2014-08-31T09:21:48Z</time>
      </trkpt>
      <trkpt lat="43.73055" lon="6.95286">
        <ele>1023</ele>
        <time>2014-08-31T09:21:53Z</time>
      </trkpt>
      <trkpt lat="43.73055" lon="6.95286">
        <ele>1023</ele>
        <time>2014-08-31T09:21:58Z</time>
      </trkpt>
      <trkpt lat="43.73055" lon="6.95286">
        <ele>1023</ele>
        <time>2014-08-31T09:22:03Z</time>
      </trkpt>
      <trkpt lat="43.73055" lon="6.95286">
        <ele>1023</ele>
        <time>2014-08-31T09:22:08Z</time>
      </trkpt>
      <trkpt lat="43.73055" lon="6.95286">
        <ele>1023</ele>
        <time>2014-08-31T09:22:13Z</time>
      </trkpt>
      <trkpt lat="43.73055" lon="6.95286">
        <ele>1023</ele>
        <time>2014-08-31T09:22:18Z</time>
      </trkpt>
      <trkpt lat="43.73055" lon="6.95286">
        <ele>1023</ele>
        <time>2014-08-31T09:22:25Z</time>
      </trkpt>
      <trkpt lat="43.73055" lon="6.95286">
        <ele>1023</ele>
        <time>2014-08-31T09:22:28Z</time>
      </trkpt>
      <trkpt lat="43.73055" lon="6.95286">
        <ele>1023</ele>
        <time>2014-08-31T09:22:33Z</time>
      </trkpt>
      <trkpt lat="43.73055" lon="6.95286">
        <ele>1023</ele>
        <time>2014-08-31T09:22:38Z</time>
      </trkpt>
      <trkpt lat="43.73055" lon="6.95286">
        <ele>1023</ele>
        <time>2014-08-31T09:22:43Z</time>
      </trkpt>
      <trkpt lat="43.73055" lon="6.95286">
        <ele>1023</ele>
        <time>2014-08-31T09:22:48Z</time>
      </trkpt>
      <trkpt lat="43.73055" lon="6.95286">
        <ele>1023</ele>
        <time>2014-08-31T09:22:53Z</time>
      </trkpt>
      <trkpt lat="43.73055" lon="6.95286">
        <ele>1023</ele>
        <time>2014-08-31T09:22:58Z</time>
      </trkpt>
      <trkpt lat="43.73055" lon="6.95286">
        <ele>1023</ele>
        <time>2014-08-31T09:23:03Z</time>
      </trkpt>
      <trkpt lat="43.73055" lon="6.95286">
        <ele>1023</ele>
        <time>2014-08-31T09:23:08Z</time>
      </trkpt>
      <trkpt lat="43.73055" lon="6.95286">
        <ele>1023</ele>
        <time>2014-08-31T09:23:13Z</time>
      </trkpt>
      <trkpt lat="43.73055" lon="6.95286">
        <ele>1023</ele>
        <time>2014-08-31T09:23:18Z</time>
      </trkpt>
      <trkpt lat="43.73055" lon="6.95286">
        <ele>1023</ele>
        <time>2014-08-31T09:23:23Z</time>
      </trkpt>
      <trkpt lat="43.73055" lon="6.95286">
        <ele>1023</ele>
        <time>2014-08-31T09:23:28Z</time>
      </trkpt>
      <trkpt lat="43.73055" lon="6.95286">
        <ele>1023</ele>
        <time>2014-08-31T09:23:33Z</time>
      </trkpt>
      <trkpt lat="43.73055" lon="6.95286">
        <ele>1023</ele>
        <time>2014-08-31T09:23:38Z</time>
      </trkpt>
      <trkpt lat="43.73055" lon="6.95286">
        <ele>1023</ele>
        <time>2014-08-31T09:23:43Z</time>
      </trkpt>
      <trkpt lat="43.73055" lon="6.95286">
        <ele>1023</ele>
        <time>2014-08-31T09:23:48Z</time>
      </trkpt>
      <trkpt lat="43.73055" lon="6.95286">
        <ele>1023</ele>
        <time>2014-08-31T09:23:53Z</time>
      </trkpt>
      <trkpt lat="43.73055" lon="6.95286">
        <ele>1023</ele>
        <time>2014-08-31T09:23:58Z</time>
      </trkpt>
      <trkpt lat="43.73055" lon="6.95286">
        <ele>1023</ele>
        <time>2014-08-31T09:24:03Z</time>
      </trkpt>
      <trkpt lat="43.73055" lon="6.95286">
        <ele>1023</ele>
        <time>2014-08-31T09:24:08Z</time>
      </trkpt>
      <trkpt lat="43.73055" lon="6.95286">
        <ele>1023</ele>
        <time>2014-08-31T09:24:13Z</time>
      </trkpt>
      <trkpt lat="43.73055" lon="6.95286">
        <ele>1023</ele>
        <time>2014-08-31T09:24:18Z</time>
      </trkpt>
      <trkpt lat="43.73055" lon="6.95286">
        <ele>1023</ele>
        <time>2014-08-31T09:24:23Z</time>
      </trkpt>
      <trkpt lat="43.73055" lon="6.95286">
        <ele>1023</ele>
        <time>2014-08-31T09:24:28Z</time>
      </trkpt>
      <trkpt lat="43.73055" lon="6.95286">
        <ele>1023</ele>
        <time>2014-08-31T09:24:33Z</time>
      </trkpt>
      <trkpt lat="43.73055" lon="6.95286">
        <ele>1023</ele>
        <time>2014-08-31T09:24:38Z</time>
      </trkpt>
      <trkpt lat="43.73055" lon="6.95286">
        <ele>1023</ele>
        <time>2014-08-31T09:24:43Z</time>
      </trkpt>
      <trkpt lat="43.73055" lon="6.95286">
        <ele>1023</ele>
        <time>2014-08-31T09:24:48Z</time>
      </trkpt>
      <trkpt lat="43.73055" lon="6.95286">
        <ele>1023</ele>
        <time>2014-08-31T09:24:53Z</time>
      </trkpt>
      <trkpt lat="43.73055" lon="6.95286">
        <ele>1023</ele>
        <time>2014-08-31T09:24:58Z</time>
      </trkpt>
      <trkpt lat="43.73055" lon="6.95286">
        <ele>1023</ele>
        <time>2014-08-31T09:25:03Z</time>
      </trkpt>
      <trkpt lat="43.73055" lon="6.95286">
        <ele>1023</ele>
        <time>2014-08-31T09:25:08Z</time>
      </trkpt>
      <trkpt lat="43.73055" lon="6.95286">
        <ele>1023</ele>
        <time>2014-08-31T09:25:13Z</time>
      </trkpt>
      <trkpt lat="43.73055" lon="6.95286">
        <ele>1023</ele>
        <time>2014-08-31T09:25:18Z</time>
      </trkpt>
      <trkpt lat="43.73055" lon="6.95286">
        <ele>1023</ele>
        <time>2014-08-31T09:25:23Z</time>
      </trkpt>
      <trkpt lat="43.73055" lon="6.95286">
        <ele>1023</ele>
        <time>2014-08-31T09:25:29Z</time>
      </trkpt>
      <trkpt lat="43.73055" lon="6.95286">
        <ele>1023</ele>
        <time>2014-08-31T09:25:33Z</time>
      </trkpt>
      <trkpt lat="43.73055" lon="6.95286">
        <ele>1023</ele>
        <time>2014-08-31T09:25:38Z</time>
      </trkpt>
      <trkpt lat="43.73055" lon="6.95286">
        <ele>1023</ele>
        <time>2014-08-31T09:25:43Z</time>
      </trkpt>
      <trkpt lat="43.73055" lon="6.95286">
        <ele>1023</ele>
        <time>2014-08-31T09:25:48Z</time>
      </trkpt>
      <trkpt lat="43.73055" lon="6.95286">
        <ele>1023</ele>
        <time>2014-08-31T09:25:57Z</time>
      </trkpt>
      <trkpt lat="43.73055" lon="6.95286">
        <ele>1023</ele>
        <time>2014-08-31T09:25:58Z</time>
      </trkpt>
      <trkpt lat="43.73055" lon="6.95286">
        <ele>1023</ele>
        <time>2014-08-31T09:26:03Z</time>
      </trkpt>
      <trkpt lat="43.73054" lon="6.95286">
        <ele>1023</ele>
        <time>2014-08-31T09:26:08Z</time>
      </trkpt>
      <trkpt lat="43.73054" lon="6.95286">
        <ele>1023</ele>
        <time>2014-08-31T09:26:13Z</time>
      </trkpt>
      <trkpt lat="43.73054" lon="6.95286">
        <ele>1023</ele>
        <time>2014-08-31T09:26:18Z</time>
      </trkpt>
      <trkpt lat="43.73054" lon="6.95286">
        <ele>1023</ele>
        <time>2014-08-31T09:26:24Z</time>
      </trkpt>
      <trkpt lat="43.73054" lon="6.95286">
        <ele>1023</ele>
        <time>2014-08-31T09:26:28Z</time>
      </trkpt>
      <trkpt lat="43.73054" lon="6.95286">
        <ele>1023</ele>
        <time>2014-08-31T09:26:33Z</time>
      </trkpt>
      <trkpt lat="43.73054" lon="6.95286">
        <ele>1023</ele>
        <time>2014-08-31T09:26:42Z</time>
      </trkpt>
      <trkpt lat="43.73054" lon="6.95286">
        <ele>1023</ele>
        <time>2014-08-31T09:26:43Z</time>
      </trkpt>
      <trkpt lat="43.73054" lon="6.95286">
        <ele>1023</ele>
        <time>2014-08-31T09:26:48Z</time>
      </trkpt>
      <trkpt lat="43.73054" lon="6.95286">
        <ele>1023</ele>
        <time>2014-08-31T09:26:56Z</time>
      </trkpt>
      <trkpt lat="43.73054" lon="6.95286">
        <ele>1023</ele>
        <time>2014-08-31T09:26:58Z</time>
      </trkpt>
      <trkpt lat="43.73054" lon="6.95286">
        <ele>1023</ele>
        <time>2014-08-31T09:27:03Z</time>
      </trkpt>
      <trkpt lat="43.73054" lon="6.95286">
        <ele>1023</ele>
        <time>2014-08-31T09:27:09Z</time>
      </trkpt>
      <trkpt lat="43.73054" lon="6.95286">
        <ele>1023</ele>
        <time>2014-08-31T09:27:13Z</time>
      </trkpt>
      <trkpt lat="43.73054" lon="6.95286">
        <ele>1023</ele>
        <time>2014-08-31T09:27:18Z</time>
      </trkpt>
      <trkpt lat="43.73054" lon="6.95286">
        <ele>1023</ele>
        <time>2014-08-31T09:27:24Z</time>
      </trkpt>
      <trkpt lat="43.73054" lon="6.95286">
        <ele>1023</ele>
        <time>2014-08-31T09:27:29Z</time>
      </trkpt>
      <trkpt lat="43.73054" lon="6.95286">
        <ele>1023</ele>
        <time>2014-08-31T09:27:33Z</time>
      </trkpt>
      <trkpt lat="43.73054" lon="6.95286">
        <ele>1023</ele>
        <time>2014-08-31T09:27:39Z</time>
      </trkpt>
      <trkpt lat="43.73054" lon="6.95286">
        <ele>1023</ele>
        <time>2014-08-31T09:27:43Z</time>
      </trkpt>
      <trkpt lat="43.73054" lon="6.95286">
        <ele>1023</ele>
        <time>2014-08-31T09:27:48Z</time>
      </trkpt>
      <trkpt lat="43.73054" lon="6.95286">
        <ele>1023</ele>
        <time>2014-08-31T09:27:53Z</time>
      </trkpt>
      <trkpt lat="43.73054" lon="6.95286">
        <ele>1023</ele>
        <time>2014-08-31T09:27:58Z</time>
      </trkpt>
      <trkpt lat="43.73054" lon="6.95286">
        <ele>1023</ele>
        <time>2014-08-31T09:28:03Z</time>
      </trkpt>
      <trkpt lat="43.73054" lon="6.95286">
        <ele>1023</ele>
        <time>2014-08-31T09:28:08Z</time>
      </trkpt>
      <trkpt lat="43.73054" lon="6.95286">
        <ele>1023</ele>
        <time>2014-08-31T09:28:13Z</time>
      </trkpt>
      <trkpt lat="43.73054" lon="6.95286">
        <ele>1023</ele>
        <time>2014-08-31T09:28:18Z</time>
      </trkpt>
      <trkpt lat="43.73054" lon="6.95286">
        <ele>1023</ele>
        <time>2014-08-31T09:28:26Z</time>
      </trkpt>
      <trkpt lat="43.73054" lon="6.95286">
        <ele>1023</ele>
        <time>2014-08-31T09:28:28Z</time>
      </trkpt>
      <trkpt lat="43.73054" lon="6.95286">
        <ele>1023</ele>
        <time>2014-08-31T09:28:33Z</time>
      </trkpt>
      <trkpt lat="43.73054" lon="6.95286">
        <ele>1023</ele>
        <time>2014-08-31T09:28:38Z</time>
      </trkpt>
      <trkpt lat="43.73054" lon="6.95286">
        <ele>1023</ele>
        <time>2014-08-31T09:28:44Z</time>
      </trkpt>
      <trkpt lat="43.73054" lon="6.95286">
        <ele>1023</ele>
        <time>2014-08-31T09:28:48Z</time>
      </trkpt>
      <trkpt lat="43.73054" lon="6.95286">
        <ele>1023</ele>
        <time>2014-08-31T09:28:53Z</time>
      </trkpt>
      <trkpt lat="43.73054" lon="6.95286">
        <ele>1023</ele>
        <time>2014-08-31T09:29:01Z</time>
      </trkpt>
      <trkpt lat="43.73054" lon="6.95286">
        <ele>1023</ele>
        <time>2014-08-31T09:29:03Z</time>
      </trkpt>
      <trkpt lat="43.73054" lon="6.95286">
        <ele>1023</ele>
        <time>2014-08-31T09:29:08Z</time>
      </trkpt>
      <trkpt lat="43.73054" lon="6.95286">
        <ele>1023</ele>
        <time>2014-08-31T09:29:13Z</time>
      </trkpt>
      <trkpt lat="43.73054" lon="6.95286">
        <ele>1023</ele>
        <time>2014-08-31T09:29:18Z</time>
      </trkpt>
      <trkpt lat="43.73054" lon="6.95286">
        <ele>1023</ele>
        <time>2014-08-31T09:29:23Z</time>
      </trkpt>
      <trkpt lat="43.73054" lon="6.95286">
        <ele>1023</ele>
        <time>2014-08-31T09:29:28Z</time>
      </trkpt>
      <trkpt lat="43.73054" lon="6.95286">
        <ele>1023</ele>
        <time>2014-08-31T09:29:33Z</time>
      </trkpt>
      <trkpt lat="43.73054" lon="6.95286">
        <ele>1023</ele>
        <time>2014-08-31T09:29:38Z</time>
      </trkpt>
      <trkpt lat="43.73054" lon="6.95286">
        <ele>1023</ele>
        <time>2014-08-31T09:29:43Z</time>
      </trkpt>
      <trkpt lat="43.73054" lon="6.95286">
        <ele>1023</ele>
        <time>2014-08-31T09:29:48Z</time>
      </trkpt>
      <trkpt lat="43.73054" lon="6.95286">
        <ele>1023</ele>
        <time>2014-08-31T09:29:57Z</time>
      </trkpt>
      <trkpt lat="43.73054" lon="6.95286">
        <ele>1023</ele>
        <time>2014-08-31T09:29:58Z</time>
      </trkpt>
      <trkpt lat="43.73054" lon="6.95286">
        <ele>1023</ele>
        <time>2014-08-31T09:30:03Z</time>
      </trkpt>
      <trkpt lat="43.73054" lon="6.95286">
        <ele>1023</ele>
        <time>2014-08-31T09:30:08Z</time>
      </trkpt>
      <trkpt lat="43.73054" lon="6.95286">
        <ele>1023</ele>
        <time>2014-08-31T09:30:13Z</time>
      </trkpt>
      <trkpt lat="43.73054" lon="6.95286">
        <ele>1023</ele>
        <time>2014-08-31T09:30:18Z</time>
      </trkpt>
      <trkpt lat="43.73054" lon="6.95286">
        <ele>1023</ele>
        <time>2014-08-31T09:30:23Z</time>
      </trkpt>
      <trkpt lat="43.73054" lon="6.95286">
        <ele>1023</ele>
        <time>2014-08-31T09:30:28Z</time>
      </trkpt>
      <trkpt lat="43.73054" lon="6.95286">
        <ele>1023</ele>
        <time>2014-08-31T09:30:33Z</time>
      </trkpt>
      <trkpt lat="43.73054" lon="6.95286">
        <ele>1023</ele>
        <time>2014-08-31T09:30:38Z</time>
      </trkpt>
      <trkpt lat="43.73054" lon="6.95286">
        <ele>1023</ele>
        <time>2014-08-31T09:30:43Z</time>
      </trkpt>
      <trkpt lat="43.73054" lon="6.95286">
        <ele>1023</ele>
        <time>2014-08-31T09:30:48Z</time>
      </trkpt>
      <trkpt lat="43.73054" lon="6.95286">
        <ele>1023</ele>
        <time>2014-08-31T09:30:53Z</time>
      </trkpt>
      <trkpt lat="43.73054" lon="6.95286">
        <ele>1023</ele>
        <time>2014-08-31T09:30:58Z</time>
      </trkpt>
      <trkpt lat="43.73054" lon="6.95286">
        <ele>1023</ele>
        <time>2014-08-31T09:31:03Z</time>
      </trkpt>
      <trkpt lat="43.73054" lon="6.95286">
        <ele>1023</ele>
        <time>2014-08-31T09:31:08Z</time>
      </trkpt>
      <trkpt lat="43.73054" lon="6.95286">
        <ele>1023</ele>
        <time>2014-08-31T09:31:13Z</time>
      </trkpt>
      <trkpt lat="43.73054" lon="6.95286">
        <ele>1023</ele>
        <time>2014-08-31T09:31:18Z</time>
      </trkpt>
      <trkpt lat="43.73054" lon="6.95286">
        <ele>1023</ele>
        <time>2014-08-31T09:31:23Z</time>
      </trkpt>
      <trkpt lat="43.73054" lon="6.95286">
        <ele>1023</ele>
        <time>2014-08-31T09:31:28Z</time>
      </trkpt>
      <trkpt lat="43.73054" lon="6.95286">
        <ele>1023</ele>
        <time>2014-08-31T09:31:33Z</time>
      </trkpt>
      <trkpt lat="43.73054" lon="6.95286">
        <ele>1023</ele>
        <time>2014-08-31T09:31:38Z</time>
      </trkpt>
      <trkpt lat="43.73054" lon="6.95286">
        <ele>1023</ele>
        <time>2014-08-31T09:31:43Z</time>
      </trkpt>
      <trkpt lat="43.73054" lon="6.95286">
        <ele>1023</ele>
        <time>2014-08-31T09:31:48Z</time>
      </trkpt>
      <trkpt lat="43.73054" lon="6.95286">
        <ele>1023</ele>
        <time>2014-08-31T09:31:53Z</time>
      </trkpt>
      <trkpt lat="43.73054" lon="6.95286">
        <ele>1023</ele>
        <time>2014-08-31T09:31:58Z</time>
      </trkpt>
      <trkpt lat="43.73054" lon="6.95286">
        <ele>1023</ele>
        <time>2014-08-31T09:32:03Z</time>
      </trkpt>
      <trkpt lat="43.73054" lon="6.95286">
        <ele>1023</ele>
        <time>2014-08-31T09:32:08Z</time>
      </trkpt>
      <trkpt lat="43.73054" lon="6.95286">
        <ele>1023</ele>
        <time>2014-08-31T09:32:13Z</time>
      </trkpt>
      <trkpt lat="43.73054" lon="6.95286">
        <ele>1023</ele>
        <time>2014-08-31T09:32:18Z</time>
      </trkpt>
      <trkpt lat="43.73054" lon="6.95286">
        <ele>1023</ele>
        <time>2014-08-31T09:32:23Z</time>
      </trkpt>
      <trkpt lat="43.73054" lon="6.95286">
        <ele>1023</ele>
        <time>2014-08-31T09:32:28Z</time>
      </trkpt>
      <trkpt lat="43.73054" lon="6.95286">
        <ele>1023</ele>
        <time>2014-08-31T09:32:33Z</time>
      </trkpt>
      <trkpt lat="43.73054" lon="6.95286">
        <ele>1023</ele>
        <time>2014-08-31T09:32:38Z</time>
      </trkpt>
      <trkpt lat="43.73054" lon="6.95286">
        <ele>1023</ele>
        <time>2014-08-31T09:32:43Z</time>
      </trkpt>
      <trkpt lat="43.73054" lon="6.95286">
        <ele>1023</ele>
        <time>2014-08-31T09:32:48Z</time>
      </trkpt>
      <trkpt lat="43.73054" lon="6.95286">
        <ele>1023</ele>
        <time>2014-08-31T09:32:53Z</time>
      </trkpt>
      <trkpt lat="43.73054" lon="6.95286">
        <ele>1023</ele>
        <time>2014-08-31T09:33:00Z</time>
      </trkpt>
      <trkpt lat="43.73054" lon="6.95286">
        <ele>1023</ele>
        <time>2014-08-31T09:33:03Z</time>
      </trkpt>
      <trkpt lat="43.73054" lon="6.95286">
        <ele>1023</ele>
        <time>2014-08-31T09:33:08Z</time>
      </trkpt>
      <trkpt lat="43.73054" lon="6.95286">
        <ele>1023</ele>
        <time>2014-08-31T09:33:16Z</time>
      </trkpt>
      <trkpt lat="43.73054" lon="6.95286">
        <ele>1023</ele>
        <time>2014-08-31T09:33:18Z</time>
      </trkpt>
      <trkpt lat="43.73054" lon="6.95286">
        <ele>1023</ele>
        <time>2014-08-31T09:33:23Z</time>
      </trkpt>
      <trkpt lat="43.73054" lon="6.95286">
        <ele>1023</ele>
        <time>2014-08-31T09:33:28Z</time>
      </trkpt>
      <trkpt lat="43.73054" lon="6.95286">
        <ele>1023</ele>
        <time>2014-08-31T09:33:33Z</time>
      </trkpt>
      <trkpt lat="43.73054" lon="6.95286">
        <ele>1023</ele>
        <time>2014-08-31T09:33:38Z</time>
      </trkpt>
      <trkpt lat="43.73054" lon="6.95286">
        <ele>1023</ele>
        <time>2014-08-31T09:33:43Z</time>
      </trkpt>
      <trkpt lat="43.73054" lon="6.95286">
        <ele>1023</ele>
        <time>2014-08-31T09:33:48Z</time>
      </trkpt>
      <trkpt lat="43.73054" lon="6.95286">
        <ele>1023</ele>
        <time>2014-08-31T09:33:53Z</time>
      </trkpt>
      <trkpt lat="43.73054" lon="6.95286">
        <ele>1023</ele>
        <time>2014-08-31T09:33:58Z</time>
      </trkpt>
      <trkpt lat="43.73054" lon="6.95286">
        <ele>1023</ele>
        <time>2014-08-31T09:34:03Z</time>
      </trkpt>
      <trkpt lat="43.73054" lon="6.95286">
        <ele>1023</ele>
        <time>2014-08-31T09:34:08Z</time>
      </trkpt>
      <trkpt lat="43.73054" lon="6.95286">
        <ele>1023</ele>
        <time>2014-08-31T09:34:13Z</time>
      </trkpt>
      <trkpt lat="43.73054" lon="6.95286">
        <ele>1023</ele>
        <time>2014-08-31T09:34:18Z</time>
      </trkpt>
      <trkpt lat="43.73054" lon="6.95286">
        <ele>1023</ele>
        <time>2014-08-31T09:34:23Z</time>
      </trkpt>
      <trkpt lat="43.73054" lon="6.95286">
        <ele>1023</ele>
        <time>2014-08-31T09:34:28Z</time>
      </trkpt>
      <trkpt lat="43.73054" lon="6.95286">
        <ele>1023</ele>
        <time>2014-08-31T09:34:33Z</time>
      </trkpt>
      <trkpt lat="43.73054" lon="6.95286">
        <ele>1023</ele>
        <time>2014-08-31T09:34:39Z</time>
      </trkpt>
      <trkpt lat="43.73054" lon="6.95286">
        <ele>1023</ele>
        <time>2014-08-31T09:34:43Z</time>
      </trkpt>
      <trkpt lat="43.73054" lon="6.95286">
        <ele>1023</ele>
        <time>2014-08-31T09:34:48Z</time>
      </trkpt>
      <trkpt lat="43.73054" lon="6.95286">
        <ele>1023</ele>
        <time>2014-08-31T09:34:53Z</time>
      </trkpt>
      <trkpt lat="43.73054" lon="6.95286">
        <ele>1023</ele>
        <time>2014-08-31T09:34:58Z</time>
      </trkpt>
      <trkpt lat="43.73054" lon="6.95286">
        <ele>1023</ele>
        <time>2014-08-31T09:35:06Z</time>
      </trkpt>
      <trkpt lat="43.73054" lon="6.95286">
        <ele>1023</ele>
        <time>2014-08-31T09:35:08Z</time>
      </trkpt>
      <trkpt lat="43.73054" lon="6.95286">
        <ele>1023</ele>
        <time>2014-08-31T09:35:13Z</time>
      </trkpt>
      <trkpt lat="43.73054" lon="6.95286">
        <ele>1023</ele>
        <time>2014-08-31T09:35:18Z</time>
      </trkpt>
      <trkpt lat="43.73054" lon="6.95286">
        <ele>1023</ele>
        <time>2014-08-31T09:35:23Z</time>
      </trkpt>
      <trkpt lat="43.73054" lon="6.95286">
        <ele>1023</ele>
        <time>2014-08-31T09:35:28Z</time>
      </trkpt>
      <trkpt lat="43.73054" lon="6.95286">
        <ele>1023</ele>
        <time>2014-08-31T09:35:33Z</time>
      </trkpt>
      <trkpt lat="43.73054" lon="6.95286">
        <ele>1023</ele>
        <time>2014-08-31T09:35:41Z</time>
      </trkpt>
      <trkpt lat="43.73054" lon="6.95286">
        <ele>1023</ele>
        <time>2014-08-31T09:35:43Z</time>
      </trkpt>
      <trkpt lat="43.73054" lon="6.95286">
        <ele>1023</ele>
        <time>2014-08-31T09:35:48Z</time>
      </trkpt>
      <trkpt lat="43.73054" lon="6.95286">
        <ele>1023</ele>
        <time>2014-08-31T09:35:53Z</time>
      </trkpt>
      <trkpt lat="43.73054" lon="6.95286">
        <ele>1023</ele>
        <time>2014-08-31T09:35:58Z</time>
      </trkpt>
      <trkpt lat="43.73054" lon="6.95286">
        <ele>1023</ele>
        <time>2014-08-31T09:36:03Z</time>
      </trkpt>
      <trkpt lat="43.73054" lon="6.95286">
        <ele>1023</ele>
        <time>2014-08-31T09:36:08Z</time>
      </trkpt>
      <trkpt lat="43.73054" lon="6.95286">
        <ele>1023</ele>
        <time>2014-08-31T09:36:13Z</time>
      </trkpt>
      <trkpt lat="43.73054" lon="6.95286">
        <ele>1023</ele>
        <time>2014-08-31T09:36:18Z</time>
      </trkpt>
      <trkpt lat="43.73055" lon="6.95288">
        <ele>1024</ele>
        <time>2014-08-31T09:36:23Z</time>
      </trkpt>
      <trkpt lat="43.73055" lon="6.95288">
        <ele>1024</ele>
        <time>2014-08-31T09:36:28Z</time>
      </trkpt>
      <trkpt lat="43.73055" lon="6.95289">
        <ele>1025</ele>
        <time>2014-08-31T09:36:33Z</time>
      </trkpt>
      <trkpt lat="43.73055" lon="6.95288">
        <ele>1025</ele>
        <time>2014-08-31T09:36:38Z</time>
      </trkpt>
      <trkpt lat="43.73056" lon="6.95287">
        <ele>1025</ele>
        <time>2014-08-31T09:36:43Z</time>
      </trkpt>
      <trkpt lat="43.73056" lon="6.95287">
        <ele>1025</ele>
        <time>2014-08-31T09:36:48Z</time>
      </trkpt>
      <trkpt lat="43.73056" lon="6.95287">
        <ele>1025</ele>
        <time>2014-08-31T09:36:53Z</time>
      </trkpt>
      <trkpt lat="43.73056" lon="6.95287">
        <ele>1025</ele>
        <time>2014-08-31T09:36:58Z</time>
      </trkpt>
      <trkpt lat="43.73056" lon="6.95287">
        <ele>1025</ele>
        <time>2014-08-31T09:37:03Z</time>
      </trkpt>
      <trkpt lat="43.73056" lon="6.95287">
        <ele>1025</ele>
        <time>2014-08-31T09:37:09Z</time>
      </trkpt>
      <trkpt lat="43.73056" lon="6.95287">
        <ele>1025</ele>
        <time>2014-08-31T09:37:13Z</time>
      </trkpt>
      <trkpt lat="43.73056" lon="6.95287">
        <ele>1025</ele>
        <time>2014-08-31T09:37:18Z</time>
      </trkpt>
      <trkpt lat="43.73056" lon="6.95287">
        <ele>1025</ele>
        <time>2014-08-31T09:37:23Z</time>
      </trkpt>
      <trkpt lat="43.73055" lon="6.95287">
        <ele>1024</ele>
        <time>2014-08-31T09:37:28Z</time>
      </trkpt>
      <trkpt lat="43.73055" lon="6.95286">
        <ele>1023</ele>
        <time>2014-08-31T09:37:33Z</time>
      </trkpt>
      <trkpt lat="43.73055" lon="6.95286">
        <ele>1023</ele>
        <time>2014-08-31T09:37:38Z</time>
      </trkpt>
      <trkpt lat="43.73055" lon="6.95286">
        <ele>1023</ele>
        <time>2014-08-31T09:37:43Z</time>
      </trkpt>
      <trkpt lat="43.73054" lon="6.95286">
        <ele>1023</ele>
        <time>2014-08-31T09:37:49Z</time>
      </trkpt>
      <trkpt lat="43.73054" lon="6.95287">
        <ele>1023</ele>
        <time>2014-08-31T09:37:53Z</time>
      </trkpt>
      <trkpt lat="43.73053" lon="6.95288">
        <ele>1023</ele>
        <time>2014-08-31T09:37:58Z</time>
      </trkpt>
      <trkpt lat="43.73053" lon="6.95288">
        <ele>1023</ele>
        <time>2014-08-31T09:38:03Z</time>
      </trkpt>
      <trkpt lat="43.73053" lon="6.95288">
        <ele>1023</ele>
        <time>2014-08-31T09:38:08Z</time>
      </trkpt>
      <trkpt lat="43.73053" lon="6.95288">
        <ele>1023</ele>
        <time>2014-08-31T09:38:13Z</time>
      </trkpt>
      <trkpt lat="43.73053" lon="6.95288">
        <ele>1022</ele>
        <time>2014-08-31T09:38:18Z</time>
      </trkpt>
      <trkpt lat="43.73052" lon="6.95288">
        <ele>1022</ele>
        <time>2014-08-31T09:38:23Z</time>
      </trkpt>
      <trkpt lat="43.73052" lon="6.95288">
        <ele>1022</ele>
        <time>2014-08-31T09:38:28Z</time>
      </trkpt>
      <trkpt lat="43.73052" lon="6.95288">
        <ele>1022</ele>
        <time>2014-08-31T09:38:33Z</time>
      </trkpt>
      <trkpt lat="43.73052" lon="6.95288">
        <ele>1022</ele>
        <time>2014-08-31T09:38:38Z</time>
      </trkpt>
      <trkpt lat="43.73052" lon="6.95288">
        <ele>1022</ele>
        <time>2014-08-31T09:38:43Z</time>
      </trkpt>
      <trkpt lat="43.73051" lon="6.95289">
        <ele>1023</ele>
        <time>2014-08-31T09:38:48Z</time>
      </trkpt>
      <trkpt lat="43.73051" lon="6.9529">
        <ele>1024</ele>
        <time>2014-08-31T09:38:53Z</time>
      </trkpt>
      <trkpt lat="43.73051" lon="6.9529">
        <ele>1024</ele>
        <time>2014-08-31T09:38:58Z</time>
      </trkpt>
      <trkpt lat="43.73051" lon="6.9529">
        <ele>1024</ele>
        <time>2014-08-31T09:39:03Z</time>
      </trkpt>
      <trkpt lat="43.73051" lon="6.9529">
        <ele>1024</ele>
        <time>2014-08-31T09:39:08Z</time>
      </trkpt>
      <trkpt lat="43.73051" lon="6.9529">
        <ele>1024</ele>
        <time>2014-08-31T09:39:14Z</time>
      </trkpt>
      <trkpt lat="43.73051" lon="6.9529">
        <ele>1024</ele>
        <time>2014-08-31T09:39:18Z</time>
      </trkpt>
      <trkpt lat="43.73051" lon="6.9529">
        <ele>1024</ele>
        <time>2014-08-31T09:39:23Z</time>
      </trkpt>
      <trkpt lat="43.73051" lon="6.9529">
        <ele>1024</ele>
        <time>2014-08-31T09:39:28Z</time>
      </trkpt>
      <trkpt lat="43.73051" lon="6.9529">
        <ele>1024</ele>
        <time>2014-08-31T09:39:33Z</time>
      </trkpt>
      <trkpt lat="43.73051" lon="6.95289">
        <ele>1023</ele>
        <time>2014-08-31T09:39:38Z</time>
      </trkpt>
      <trkpt lat="43.73051" lon="6.95288">
        <ele>1023</ele>
        <time>2014-08-31T09:39:43Z</time>
      </trkpt>
      <trkpt lat="43.73046" lon="6.95285">
        <ele>1023</ele>
        <time>2014-08-31T09:39:48Z</time>
      </trkpt>
      <trkpt lat="43.73039" lon="6.95281">
        <ele>1025</ele>
        <time>2014-08-31T09:39:53Z</time>
      </trkpt>
      <trkpt lat="43.7303" lon="6.95275">
        <ele>1026</ele>
        <time>2014-08-31T09:39:58Z</time>
      </trkpt>
      <trkpt lat="43.73019" lon="6.9527">
        <ele>1026</ele>
        <time>2014-08-31T09:40:03Z</time>
      </trkpt>
      <trkpt lat="43.73004" lon="6.95268">
        <ele>1026</ele>
        <time>2014-08-31T09:40:10Z</time>
      </trkpt>
      <trkpt lat="43.72997" lon="6.95271">
        <ele>1030</ele>
        <time>2014-08-31T09:40:13Z</time>
      </trkpt>
      <trkpt lat="43.72984" lon="6.95271">
        <ele>1031</ele>
        <time>2014-08-31T09:40:19Z</time>
      </trkpt>
      <trkpt lat="43.72976" lon="6.95265">
        <ele>1032</ele>
        <time>2014-08-31T09:40:23Z</time>
      </trkpt>
      <trkpt lat="43.72959" lon="6.95263">
        <ele>1033</ele>
        <time>2014-08-31T09:40:32Z</time>
      </trkpt>
      <trkpt lat="43.72956" lon="6.95262">
        <ele>1035</ele>
        <time>2014-08-31T09:40:34Z</time>
      </trkpt>
      <trkpt lat="43.72953" lon="6.95245">
        <ele>1032</ele>
        <time>2014-08-31T09:40:40Z</time>
      </trkpt>
      <trkpt lat="43.72957" lon="6.95239">
        <ele>1032</ele>
        <time>2014-08-31T09:40:43Z</time>
      </trkpt>
      <trkpt lat="43.72968" lon="6.95219">
        <ele>1037</ele>
        <time>2014-08-31T09:40:52Z</time>
      </trkpt>
      <trkpt lat="43.72969" lon="6.95217">
        <ele>1038</ele>
        <time>2014-08-31T09:40:53Z</time>
      </trkpt>
      <trkpt lat="43.72973" lon="6.95205">
        <ele>1040</ele>
        <time>2014-08-31T09:40:58Z</time>
      </trkpt>
      <trkpt lat="43.7298" lon="6.95195">
        <ele>1042</ele>
        <time>2014-08-31T09:41:04Z</time>
      </trkpt>
      <trkpt lat="43.72986" lon="6.95189">
        <ele>1042</ele>
        <time>2014-08-31T09:41:08Z</time>
      </trkpt>
      <trkpt lat="43.72994" lon="6.9518">
        <ele>1041</ele>
        <time>2014-08-31T09:41:13Z</time>
      </trkpt>
      <trkpt lat="43.72996" lon="6.95168">
        <ele>1042</ele>
        <time>2014-08-31T09:41:18Z</time>
      </trkpt>
      <trkpt lat="43.72993" lon="6.95157">
        <ele>1043</ele>
        <time>2014-08-31T09:41:23Z</time>
      </trkpt>
      <trkpt lat="43.72984" lon="6.95149">
        <ele>1042</ele>
        <time>2014-08-31T09:41:28Z</time>
      </trkpt>
      <trkpt lat="43.72974" lon="6.95146">
        <ele>1040</ele>
        <time>2014-08-31T09:41:33Z</time>
      </trkpt>
      <trkpt lat="43.72963" lon="6.95148">
        <ele>1041</ele>
        <time>2014-08-31T09:41:38Z</time>
      </trkpt>
      <trkpt lat="43.72952" lon="6.95146">
        <ele>1043</ele>
        <time>2014-08-31T09:41:43Z</time>
      </trkpt>
      <trkpt lat="43.72939" lon="6.95139">
        <ele>1043</ele>
        <time>2014-08-31T09:41:50Z</time>
      </trkpt>
      <trkpt lat="43.72929" lon="6.95139">
        <ele>1046</ele>
        <time>2014-08-31T09:41:56Z</time>
      </trkpt>
      <trkpt lat="43.72919" lon="6.95139">
        <ele>1046</ele>
        <time>2014-08-31T09:42:01Z</time>
      </trkpt>
      <trkpt lat="43.72915" lon="6.95139">
        <ele>1048</ele>
        <time>2014-08-31T09:42:03Z</time>
      </trkpt>
      <trkpt lat="43.72905" lon="6.95139">
        <ele>1051</ele>
        <time>2014-08-31T09:42:08Z</time>
      </trkpt>
      <trkpt lat="43.72895" lon="6.95138">
        <ele>1055</ele>
        <time>2014-08-31T09:42:13Z</time>
      </trkpt>
      <trkpt lat="43.72882" lon="6.95127">
        <ele>1054</ele>
        <time>2014-08-31T09:42:22Z</time>
      </trkpt>
      <trkpt lat="43.72882" lon="6.95124">
        <ele>1054</ele>
        <time>2014-08-31T09:42:23Z</time>
      </trkpt>
      <trkpt lat="43.72887" lon="6.95106">
        <ele>1056</ele>
        <time>2014-08-31T09:42:30Z</time>
      </trkpt>
      <trkpt lat="43.72892" lon="6.95101">
        <ele>1057</ele>
        <time>2014-08-31T09:42:33Z</time>
      </trkpt>
      <trkpt lat="43.729" lon="6.95092">
        <ele>1058</ele>
        <time>2014-08-31T09:42:38Z</time>
      </trkpt>
      <trkpt lat="43.72907" lon="6.95081">
        <ele>1060</ele>
        <time>2014-08-31T09:42:43Z</time>
      </trkpt>
      <trkpt lat="43.72916" lon="6.9507">
        <ele>1060</ele>
        <time>2014-08-31T09:42:49Z</time>
      </trkpt>
      <trkpt lat="43.72929" lon="6.95055">
        <ele>1058</ele>
        <time>2014-08-31T09:42:57Z</time>
      </trkpt>
      <trkpt lat="43.72932" lon="6.95051">
        <ele>1058</ele>
        <time>2014-08-31T09:42:59Z</time>
      </trkpt>
      <trkpt lat="43.72938" lon="6.95043">
        <ele>1059</ele>
        <time>2014-08-31T09:43:03Z</time>
      </trkpt>
      <trkpt lat="43.72946" lon="6.95037">
        <ele>1062</ele>
        <time>2014-08-31T09:43:08Z</time>
      </trkpt>
      <trkpt lat="43.72954" lon="6.95032">
        <ele>1063</ele>
        <time>2014-08-31T09:43:13Z</time>
      </trkpt>
      <trkpt lat="43.72961" lon="6.95022">
        <ele>1063</ele>
        <time>2014-08-31T09:43:18Z</time>
      </trkpt>
      <trkpt lat="43.72967" lon="6.95014">
        <ele>1064</ele>
        <time>2014-08-31T09:43:23Z</time>
      </trkpt>
      <trkpt lat="43.72972" lon="6.95002">
        <ele>1064</ele>
        <time>2014-08-31T09:43:28Z</time>
      </trkpt>
      <trkpt lat="43.72977" lon="6.9499">
        <ele>1065</ele>
        <time>2014-08-31T09:43:33Z</time>
      </trkpt>
      <trkpt lat="43.72982" lon="6.94978">
        <ele>1065</ele>
        <time>2014-08-31T09:43:38Z</time>
      </trkpt>
      <trkpt lat="43.72986" lon="6.94965">
        <ele>1066</ele>
        <time>2014-08-31T09:43:43Z</time>
      </trkpt>
      <trkpt lat="43.7299" lon="6.94952">
        <ele>1065</ele>
        <time>2014-08-31T09:43:48Z</time>
      </trkpt>
      <trkpt lat="43.72985" lon="6.9494">
        <ele>1065</ele>
        <time>2014-08-31T09:43:54Z</time>
      </trkpt>
      <trkpt lat="43.7298" lon="6.94934">
        <ele>1066</ele>
        <time>2014-08-31T09:43:58Z</time>
      </trkpt>
      <trkpt lat="43.72971" lon="6.94929">
        <ele>1068</ele>
        <time>2014-08-31T09:44:03Z</time>
      </trkpt>
      <trkpt lat="43.72963" lon="6.94927">
        <ele>1066</ele>
        <time>2014-08-31T09:44:08Z</time>
      </trkpt>
      <trkpt lat="43.72953" lon="6.94924">
        <ele>1065</ele>
        <time>2014-08-31T09:44:13Z</time>
      </trkpt>
      <trkpt lat="43.72942" lon="6.94922">
        <ele>1065</ele>
        <time>2014-08-31T09:44:18Z</time>
      </trkpt>
      <trkpt lat="43.72923" lon="6.94924">
        <ele>1067</ele>
        <time>2014-08-31T09:44:27Z</time>
      </trkpt>
      <trkpt lat="43.72915" lon="6.94926">
        <ele>1069</ele>
        <time>2014-08-31T09:44:31Z</time>
      </trkpt>
      <trkpt lat="43.72911" lon="6.94925">
        <ele>1069</ele>
        <time>2014-08-31T09:44:33Z</time>
      </trkpt>
      <trkpt lat="43.729" lon="6.94925">
        <ele>1071</ele>
        <time>2014-08-31T09:44:38Z</time>
      </trkpt>
      <trkpt lat="43.72889" lon="6.94926">
        <ele>1071</ele>
        <time>2014-08-31T09:44:43Z</time>
      </trkpt>
      <trkpt lat="43.7288" lon="6.94923">
        <ele>1073</ele>
        <time>2014-08-31T09:44:48Z</time>
      </trkpt>
      <trkpt lat="43.72872" lon="6.94916">
        <ele>1075</ele>
        <time>2014-08-31T09:44:53Z</time>
      </trkpt>
      <trkpt lat="43.72865" lon="6.94908">
        <ele>1076</ele>
        <time>2014-08-31T09:44:58Z</time>
      </trkpt>
      <trkpt lat="43.72858" lon="6.94902">
        <ele>1078</ele>
        <time>2014-08-31T09:45:03Z</time>
      </trkpt>
      <trkpt lat="43.72853" lon="6.94893">
        <ele>1079</ele>
        <time>2014-08-31T09:45:08Z</time>
      </trkpt>
      <trkpt lat="43.72853" lon="6.94882">
        <ele>1082</ele>
        <time>2014-08-31T09:45:13Z</time>
      </trkpt>
      <trkpt lat="43.72855" lon="6.9487">
        <ele>1083</ele>
        <time>2014-08-31T09:45:18Z</time>
      </trkpt>
      <trkpt lat="43.72856" lon="6.94859">
        <ele>1084</ele>
        <time>2014-08-31T09:45:23Z</time>
      </trkpt>
      <trkpt lat="43.72854" lon="6.94849">
        <ele>1086</ele>
        <time>2014-08-31T09:45:28Z</time>
      </trkpt>
      <trkpt lat="43.72847" lon="6.94842">
        <ele>1088</ele>
        <time>2014-08-31T09:45:33Z</time>
      </trkpt>
      <trkpt lat="43.72839" lon="6.94833">
        <ele>1088</ele>
        <time>2014-08-31T09:45:38Z</time>
      </trkpt>
      <trkpt lat="43.72831" lon="6.94813">
        <ele>1087</ele>
        <time>2014-08-31T09:45:46Z</time>
      </trkpt>
      <trkpt lat="43.72831" lon="6.94802">
        <ele>1088</ele>
        <time>2014-08-31T09:45:50Z</time>
      </trkpt>
      <trkpt lat="43.72833" lon="6.94794">
        <ele>1089</ele>
        <time>2014-08-31T09:45:53Z</time>
      </trkpt>
      <trkpt lat="43.72835" lon="6.94781">
        <ele>1092</ele>
        <time>2014-08-31T09:45:58Z</time>
      </trkpt>
      <trkpt lat="43.72834" lon="6.9477">
        <ele>1093</ele>
        <time>2014-08-31T09:46:03Z</time>
      </trkpt>
      <trkpt lat="43.7283" lon="6.94759">
        <ele>1094</ele>
        <time>2014-08-31T09:46:08Z</time>
      </trkpt>
      <trkpt lat="43.72824" lon="6.94745">
        <ele>1095</ele>
        <time>2014-08-31T09:46:15Z</time>
      </trkpt>
      <trkpt lat="43.72817" lon="6.94733">
        <ele>1096</ele>
        <time>2014-08-31T09:46:22Z</time>
      </trkpt>
      <trkpt lat="43.72816" lon="6.94732">
        <ele>1096</ele>
        <time>2014-08-31T09:46:23Z</time>
      </trkpt>
      <trkpt lat="43.72811" lon="6.94723">
        <ele>1096</ele>
        <time>2014-08-31T09:46:28Z</time>
      </trkpt>
      <trkpt lat="43.72803" lon="6.94716">
        <ele>1099</ele>
        <time>2014-08-31T09:46:34Z</time>
      </trkpt>
      <trkpt lat="43.72799" lon="6.94709">
        <ele>1100</ele>
        <time>2014-08-31T09:46:38Z</time>
      </trkpt>
      <trkpt lat="43.72796" lon="6.94694">
        <ele>1104</ele>
        <time>2014-08-31T09:46:45Z</time>
      </trkpt>
      <trkpt lat="43.72794" lon="6.94687">
        <ele>1105</ele>
        <time>2014-08-31T09:46:48Z</time>
      </trkpt>
      <trkpt lat="43.72793" lon="6.94675">
        <ele>1106</ele>
        <time>2014-08-31T09:46:53Z</time>
      </trkpt>
      <trkpt lat="43.7279" lon="6.94664">
        <ele>1106</ele>
        <time>2014-08-31T09:46:58Z</time>
      </trkpt>
      <trkpt lat="43.72785" lon="6.94649">
        <ele>1108</ele>
        <time>2014-08-31T09:47:05Z</time>
      </trkpt>
      <trkpt lat="43.72781" lon="6.94643">
        <ele>1108</ele>
        <time>2014-08-31T09:47:08Z</time>
      </trkpt>
      <trkpt lat="43.72775" lon="6.94634">
        <ele>1110</ele>
        <time>2014-08-31T09:47:13Z</time>
      </trkpt>
      <trkpt lat="43.72767" lon="6.94627">
        <ele>1110</ele>
        <time>2014-08-31T09:47:20Z</time>
      </trkpt>
      <trkpt lat="43.72766" lon="6.9462">
        <ele>1110</ele>
        <time>2014-08-31T09:47:23Z</time>
      </trkpt>
      <trkpt lat="43.72774" lon="6.9461">
        <ele>1110</ele>
        <time>2014-08-31T09:47:28Z</time>
      </trkpt>
      <trkpt lat="43.7278" lon="6.94596">
        <ele>1112</ele>
        <time>2014-08-31T09:47:35Z</time>
      </trkpt>
      <trkpt lat="43.72781" lon="6.94584">
        <ele>1113</ele>
        <time>2014-08-31T09:47:40Z</time>
      </trkpt>
      <trkpt lat="43.7278" lon="6.94576">
        <ele>1114</ele>
        <time>2014-08-31T09:47:43Z</time>
      </trkpt>
      <trkpt lat="43.7278" lon="6.94553">
        <ele>1113</ele>
        <time>2014-08-31T09:47:52Z</time>
      </trkpt>
      <trkpt lat="43.7278" lon="6.9455">
        <ele>1113</ele>
        <time>2014-08-31T09:47:53Z</time>
      </trkpt>
      <trkpt lat="43.72781" lon="6.94537">
        <ele>1115</ele>
        <time>2014-08-31T09:47:58Z</time>
      </trkpt>
      <trkpt lat="43.72782" lon="6.94522">
        <ele>1114</ele>
        <time>2014-08-31T09:48:03Z</time>
      </trkpt>
      <trkpt lat="43.72784" lon="6.94507">
        <ele>1113</ele>
        <time>2014-08-31T09:48:08Z</time>
      </trkpt>
      <trkpt lat="43.72787" lon="6.94486">
        <ele>1114</ele>
        <time>2014-08-31T09:48:13Z</time>
      </trkpt>
      <trkpt lat="43.7279" lon="6.94464">
        <ele>1114</ele>
        <time>2014-08-31T09:48:18Z</time>
      </trkpt>
      <trkpt lat="43.72795" lon="6.94441">
        <ele>1113</ele>
        <time>2014-08-31T09:48:23Z</time>
      </trkpt>
      <trkpt lat="43.72801" lon="6.94415">
        <ele>1111</ele>
        <time>2014-08-31T09:48:29Z</time>
      </trkpt>
      <trkpt lat="43.72794" lon="6.94399">
        <ele>1111</ele>
        <time>2014-08-31T09:48:33Z</time>
      </trkpt>
      <trkpt lat="43.7279" lon="6.94385">
        <ele>1114</ele>
        <time>2014-08-31T09:48:38Z</time>
      </trkpt>
      <trkpt lat="43.72795" lon="6.94366">
        <ele>1114</ele>
        <time>2014-08-31T09:48:43Z</time>
      </trkpt>
      <trkpt lat="43.72798" lon="6.94347">
        <ele>1115</ele>
        <time>2014-08-31T09:48:48Z</time>
      </trkpt>
      <trkpt lat="43.72796" lon="6.94328">
        <ele>1115</ele>
        <time>2014-08-31T09:48:53Z</time>
      </trkpt>
      <trkpt lat="43.72792" lon="6.94309">
        <ele>1115</ele>
        <time>2014-08-31T09:48:58Z</time>
      </trkpt>
      <trkpt lat="43.72794" lon="6.9429">
        <ele>1116</ele>
        <time>2014-08-31T09:49:03Z</time>
      </trkpt>
      <trkpt lat="43.72793" lon="6.9427">
        <ele>1117</ele>
        <time>2014-08-31T09:49:08Z</time>
      </trkpt>
      <trkpt lat="43.72788" lon="6.94246">
        <ele>1117</ele>
        <time>2014-08-31T09:49:14Z</time>
      </trkpt>
      <trkpt lat="43.72785" lon="6.94228">
        <ele>1118</ele>
        <time>2014-08-31T09:49:19Z</time>
      </trkpt>
      <trkpt lat="43.72782" lon="6.94207">
        <ele>1123</ele>
        <time>2014-08-31T09:49:27Z</time>
      </trkpt>
      <trkpt lat="43.72785" lon="6.94206">
        <ele>1127</ele>
        <time>2014-08-31T09:49:30Z</time>
      </trkpt>
      <trkpt lat="43.72786" lon="6.94197">
        <ele>1127</ele>
        <time>2014-08-31T09:49:34Z</time>
      </trkpt>
      <trkpt lat="43.72784" lon="6.94182">
        <ele>1127</ele>
        <time>2014-08-31T09:49:39Z</time>
      </trkpt>
      <trkpt lat="43.72784" lon="6.94175">
        <ele>1128</ele>
        <time>2014-08-31T09:49:43Z</time>
      </trkpt>
      <trkpt lat="43.72785" lon="6.94165">
        <ele>1130</ele>
        <time>2014-08-31T09:49:48Z</time>
      </trkpt>
      <trkpt lat="43.7278" lon="6.94157">
        <ele>1131</ele>
        <time>2014-08-31T09:49:53Z</time>
      </trkpt>
      <trkpt lat="43.72778" lon="6.94151">
        <ele>1134</ele>
        <time>2014-08-31T09:49:58Z</time>
      </trkpt>
      <trkpt lat="43.72778" lon="6.94144">
        <ele>1136</ele>
        <time>2014-08-31T09:50:03Z</time>
      </trkpt>
      <trkpt lat="43.72779" lon="6.94135">
        <ele>1134</ele>
        <time>2014-08-31T09:50:08Z</time>
      </trkpt>
      <trkpt lat="43.7278" lon="6.94117">
        <ele>1133</ele>
        <time>2014-08-31T09:50:14Z</time>
      </trkpt>
      <trkpt lat="43.72783" lon="6.94104">
        <ele>1134</ele>
        <time>2014-08-31T09:50:21Z</time>
      </trkpt>
      <trkpt lat="43.72787" lon="6.94098">
        <ele>1136</ele>
        <time>2014-08-31T09:50:25Z</time>
      </trkpt>
      <trkpt lat="43.72792" lon="6.94091">
        <ele>1140</ele>
        <time>2014-08-31T09:50:30Z</time>
      </trkpt>
      <trkpt lat="43.72794" lon="6.94084">
        <ele>1138</ele>
        <time>2014-08-31T09:50:33Z</time>
      </trkpt>
      <trkpt lat="43.72795" lon="6.9407">
        <ele>1138</ele>
        <time>2014-08-31T09:50:38Z</time>
      </trkpt>
      <trkpt lat="43.72797" lon="6.94058">
        <ele>1137</ele>
        <time>2014-08-31T09:50:43Z</time>
      </trkpt>
      <trkpt lat="43.728" lon="6.94046">
        <ele>1136</ele>
        <time>2014-08-31T09:50:48Z</time>
      </trkpt>
      <trkpt lat="43.72804" lon="6.94036">
        <ele>1137</ele>
        <time>2014-08-31T09:50:53Z</time>
      </trkpt>
      <trkpt lat="43.72809" lon="6.94027">
        <ele>1136</ele>
        <time>2014-08-31T09:50:58Z</time>
      </trkpt>
      <trkpt lat="43.72816" lon="6.94017">
        <ele>1137</ele>
        <time>2014-08-31T09:51:03Z</time>
      </trkpt>
      <trkpt lat="43.72823" lon="6.94009">
        <ele>1136</ele>
        <time>2014-08-31T09:51:08Z</time>
      </trkpt>
      <trkpt lat="43.72828" lon="6.93997">
        <ele>1138</ele>
        <time>2014-08-31T09:51:13Z</time>
      </trkpt>
      <trkpt lat="43.72832" lon="6.93988">
        <ele>1139</ele>
        <time>2014-08-31T09:51:18Z</time>
      </trkpt>
      <trkpt lat="43.72827" lon="6.93984">
        <ele>1141</ele>
        <time>2014-08-31T09:51:23Z</time>
      </trkpt>
      <trkpt lat="43.72819" lon="6.93983">
        <ele>1141</ele>
        <time>2014-08-31T09:51:28Z</time>
      </trkpt>
      <trkpt lat="43.72805" lon="6.93981">
        <ele>1139</ele>
        <time>2014-08-31T09:51:37Z</time>
      </trkpt>
      <trkpt lat="43.72803" lon="6.93981">
        <ele>1139</ele>
        <time>2014-08-31T09:51:38Z</time>
      </trkpt>
      <trkpt lat="43.72795" lon="6.93982">
        <ele>1140</ele>
        <time>2014-08-31T09:51:43Z</time>
      </trkpt>
      <trkpt lat="43.72786" lon="6.93981">
        <ele>1139</ele>
        <time>2014-08-31T09:51:48Z</time>
      </trkpt>
      <trkpt lat="43.72777" lon="6.93979">
        <ele>1140</ele>
        <time>2014-08-31T09:51:53Z</time>
      </trkpt>
      <trkpt lat="43.72768" lon="6.93978">
        <ele>1140</ele>
        <time>2014-08-31T09:51:58Z</time>
      </trkpt>
      <trkpt lat="43.72757" lon="6.93976">
        <ele>1140</ele>
        <time>2014-08-31T09:52:03Z</time>
      </trkpt>
      <trkpt lat="43.72744" lon="6.93973">
        <ele>1141</ele>
        <time>2014-08-31T09:52:09Z</time>
      </trkpt>
      <trkpt lat="43.72736" lon="6.93971">
        <ele>1141</ele>
        <time>2014-08-31T09:52:13Z</time>
      </trkpt>
      <trkpt lat="43.72727" lon="6.93967">
        <ele>1142</ele>
        <time>2014-08-31T09:52:18Z</time>
      </trkpt>
      <trkpt lat="43.72718" lon="6.93965">
        <ele>1142</ele>
        <time>2014-08-31T09:52:23Z</time>
      </trkpt>
      <trkpt lat="43.72709" lon="6.93963">
        <ele>1143</ele>
        <time>2014-08-31T09:52:28Z</time>
      </trkpt>
      <trkpt lat="43.727" lon="6.93961">
        <ele>1144</ele>
        <time>2014-08-31T09:52:33Z</time>
      </trkpt>
      <trkpt lat="43.72691" lon="6.93959">
        <ele>1146</ele>
        <time>2014-08-31T09:52:38Z</time>
      </trkpt>
      <trkpt lat="43.72682" lon="6.93956">
        <ele>1147</ele>
        <time>2014-08-31T09:52:43Z</time>
      </trkpt>
      <trkpt lat="43.72674" lon="6.93955">
        <ele>1147</ele>
        <time>2014-08-31T09:52:48Z</time>
      </trkpt>
      <trkpt lat="43.72666" lon="6.93953">
        <ele>1148</ele>
        <time>2014-08-31T09:52:53Z</time>
      </trkpt>
      <trkpt lat="43.72657" lon="6.9395">
        <ele>1149</ele>
        <time>2014-08-31T09:52:58Z</time>
      </trkpt>
      <trkpt lat="43.72649" lon="6.93948">
        <ele>1150</ele>
        <time>2014-08-31T09:53:03Z</time>
      </trkpt>
      <trkpt lat="43.72641" lon="6.93947">
        <ele>1151</ele>
        <time>2014-08-31T09:53:08Z</time>
      </trkpt>
      <trkpt lat="43.72632" lon="6.93945">
        <ele>1152</ele>
        <time>2014-08-31T09:53:13Z</time>
      </trkpt>
      <trkpt lat="43.72623" lon="6.93943">
        <ele>1153</ele>
        <time>2014-08-31T09:53:18Z</time>
      </trkpt>
      <trkpt lat="43.72615" lon="6.93942">
        <ele>1154</ele>
        <time>2014-08-31T09:53:23Z</time>
      </trkpt>
      <trkpt lat="43.72607" lon="6.9394">
        <ele>1155</ele>
        <time>2014-08-31T09:53:28Z</time>
      </trkpt>
      <trkpt lat="43.72599" lon="6.93939">
        <ele>1156</ele>
        <time>2014-08-31T09:53:33Z</time>
      </trkpt>
      <trkpt lat="43.72591" lon="6.93937">
        <ele>1158</ele>
        <time>2014-08-31T09:53:38Z</time>
      </trkpt>
      <trkpt lat="43.72584" lon="6.93936">
        <ele>1159</ele>
        <time>2014-08-31T09:53:43Z</time>
      </trkpt>
      <trkpt lat="43.72576" lon="6.93934">
        <ele>1160</ele>
        <time>2014-08-31T09:53:48Z</time>
      </trkpt>
      <trkpt lat="43.72568" lon="6.93933">
        <ele>1161</ele>
        <time>2014-08-31T09:53:53Z</time>
      </trkpt>
      <trkpt lat="43.7256" lon="6.93932">
        <ele>1162</ele>
        <time>2014-08-31T09:53:58Z</time>
      </trkpt>
      <trkpt lat="43.72553" lon="6.9393">
        <ele>1163</ele>
        <time>2014-08-31T09:54:03Z</time>
      </trkpt>
      <trkpt lat="43.72545" lon="6.93928">
        <ele>1164</ele>
        <time>2014-08-31T09:54:08Z</time>
      </trkpt>
      <trkpt lat="43.72538" lon="6.93927">
        <ele>1165</ele>
        <time>2014-08-31T09:54:13Z</time>
      </trkpt>
      <trkpt lat="43.7253" lon="6.93924">
        <ele>1167</ele>
        <time>2014-08-31T09:54:18Z</time>
      </trkpt>
      <trkpt lat="43.72523" lon="6.93924">
        <ele>1168</ele>
        <time>2014-08-31T09:54:23Z</time>
      </trkpt>
      <trkpt lat="43.72516" lon="6.93922">
        <ele>1170</ele>
        <time>2014-08-31T09:54:28Z</time>
      </trkpt>
      <trkpt lat="43.72509" lon="6.9392">
        <ele>1171</ele>
        <time>2014-08-31T09:54:33Z</time>
      </trkpt>
      <trkpt lat="43.72502" lon="6.93916">
        <ele>1172</ele>
        <time>2014-08-31T09:54:38Z</time>
      </trkpt>
      <trkpt lat="43.72495" lon="6.93911">
        <ele>1173</ele>
        <time>2014-08-31T09:54:43Z</time>
      </trkpt>
      <trkpt lat="43.72488" lon="6.93904">
        <ele>1174</ele>
        <time>2014-08-31T09:54:49Z</time>
      </trkpt>
      <trkpt lat="43.72484" lon="6.93898">
        <ele>1175</ele>
        <time>2014-08-31T09:54:53Z</time>
      </trkpt>
      <trkpt lat="43.72477" lon="6.93892">
        <ele>1176</ele>
        <time>2014-08-31T09:54:58Z</time>
      </trkpt>
      <trkpt lat="43.7247" lon="6.93885">
        <ele>1177</ele>
        <time>2014-08-31T09:55:03Z</time>
      </trkpt>
      <trkpt lat="43.72463" lon="6.93878">
        <ele>1179</ele>
        <time>2014-08-31T09:55:08Z</time>
      </trkpt>
      <trkpt lat="43.72456" lon="6.93871">
        <ele>1181</ele>
        <time>2014-08-31T09:55:13Z</time>
      </trkpt>
      <trkpt lat="43.72448" lon="6.93863">
        <ele>1182</ele>
        <time>2014-08-31T09:55:18Z</time>
      </trkpt>
      <trkpt lat="43.72441" lon="6.93854">
        <ele>1182</ele>
        <time>2014-08-31T09:55:23Z</time>
      </trkpt>
      <trkpt lat="43.72434" lon="6.93845">
        <ele>1183</ele>
        <time>2014-08-31T09:55:28Z</time>
      </trkpt>
      <trkpt lat="43.72426" lon="6.93837">
        <ele>1183</ele>
        <time>2014-08-31T09:55:33Z</time>
      </trkpt>
      <trkpt lat="43.72418" lon="6.9383">
        <ele>1184</ele>
        <time>2014-08-31T09:55:38Z</time>
      </trkpt>
      <trkpt lat="43.72411" lon="6.93823">
        <ele>1185</ele>
        <time>2014-08-31T09:55:43Z</time>
      </trkpt>
      <trkpt lat="43.72403" lon="6.93817">
        <ele>1186</ele>
        <time>2014-08-31T09:55:48Z</time>
      </trkpt>
      <trkpt lat="43.72395" lon="6.93812">
        <ele>1186</ele>
        <time>2014-08-31T09:55:53Z</time>
      </trkpt>
      <trkpt lat="43.72386" lon="6.93805">
        <ele>1187</ele>
        <time>2014-08-31T09:55:59Z</time>
      </trkpt>
      <trkpt lat="43.72379" lon="6.938">
        <ele>1188</ele>
        <time>2014-08-31T09:56:03Z</time>
      </trkpt>
      <trkpt lat="43.72372" lon="6.93795">
        <ele>1189</ele>
        <time>2014-08-31T09:56:08Z</time>
      </trkpt>
      <trkpt lat="43.72365" lon="6.93791">
        <ele>1190</ele>
        <time>2014-08-31T09:56:13Z</time>
      </trkpt>
      <trkpt lat="43.72358" lon="6.93787">
        <ele>1191</ele>
        <time>2014-08-31T09:56:18Z</time>
      </trkpt>
      <trkpt lat="43.72351" lon="6.93783">
        <ele>1193</ele>
        <time>2014-08-31T09:56:23Z</time>
      </trkpt>
      <trkpt lat="43.72341" lon="6.9378">
        <ele>1195</ele>
        <time>2014-08-31T09:56:29Z</time>
      </trkpt>
      <trkpt lat="43.72335" lon="6.93778">
        <ele>1196</ele>
        <time>2014-08-31T09:56:33Z</time>
      </trkpt>
      <trkpt lat="43.72325" lon="6.93778">
        <ele>1197</ele>
        <time>2014-08-31T09:56:39Z</time>
      </trkpt>
      <trkpt lat="43.72318" lon="6.93779">
        <ele>1197</ele>
        <time>2014-08-31T09:56:43Z</time>
      </trkpt>
      <trkpt lat="43.7231" lon="6.93781">
        <ele>1198</ele>
        <time>2014-08-31T09:56:48Z</time>
      </trkpt>
      <trkpt lat="43.72302" lon="6.93783">
        <ele>1199</ele>
        <time>2014-08-31T09:56:53Z</time>
      </trkpt>
      <trkpt lat="43.72294" lon="6.93787">
        <ele>1200</ele>
        <time>2014-08-31T09:56:58Z</time>
      </trkpt>
      <trkpt lat="43.72286" lon="6.93792">
        <ele>1201</ele>
        <time>2014-08-31T09:57:03Z</time>
      </trkpt>
      <trkpt lat="43.72279" lon="6.93799">
        <ele>1201</ele>
        <time>2014-08-31T09:57:08Z</time>
      </trkpt>
      <trkpt lat="43.72273" lon="6.93807">
        <ele>1202</ele>
        <time>2014-08-31T09:57:13Z</time>
      </trkpt>
      <trkpt lat="43.72267" lon="6.93815">
        <ele>1202</ele>
        <time>2014-08-31T09:57:18Z</time>
      </trkpt>
      <trkpt lat="43.7226" lon="6.93822">
        <ele>1203</ele>
        <time>2014-08-31T09:57:23Z</time>
      </trkpt>
      <trkpt lat="43.72253" lon="6.93827">
        <ele>1203</ele>
        <time>2014-08-31T09:57:28Z</time>
      </trkpt>
      <trkpt lat="43.72245" lon="6.9383">
        <ele>1204</ele>
        <time>2014-08-31T09:57:33Z</time>
      </trkpt>
      <trkpt lat="43.72237" lon="6.93834">
        <ele>1205</ele>
        <time>2014-08-31T09:57:38Z</time>
      </trkpt>
      <trkpt lat="43.7223" lon="6.93837">
        <ele>1206</ele>
        <time>2014-08-31T09:57:43Z</time>
      </trkpt>
      <trkpt lat="43.7222" lon="6.93842">
        <ele>1207</ele>
        <time>2014-08-31T09:57:49Z</time>
      </trkpt>
      <trkpt lat="43.72213" lon="6.93844">
        <ele>1208</ele>
        <time>2014-08-31T09:57:53Z</time>
      </trkpt>
      <trkpt lat="43.72205" lon="6.93844">
        <ele>1210</ele>
        <time>2014-08-31T09:57:58Z</time>
      </trkpt>
      <trkpt lat="43.72197" lon="6.93843">
        <ele>1211</ele>
        <time>2014-08-31T09:58:03Z</time>
      </trkpt>
      <trkpt lat="43.72188" lon="6.93841">
        <ele>1213</ele>
        <time>2014-08-31T09:58:08Z</time>
      </trkpt>
      <trkpt lat="43.7218" lon="6.93839">
        <ele>1216</ele>
        <time>2014-08-31T09:58:13Z</time>
      </trkpt>
      <trkpt lat="43.72173" lon="6.93837">
        <ele>1218</ele>
        <time>2014-08-31T09:58:18Z</time>
      </trkpt>
      <trkpt lat="43.72161" lon="6.93827">
        <ele>1219</ele>
        <time>2014-08-31T09:58:27Z</time>
      </trkpt>
      <trkpt lat="43.72155" lon="6.93822">
        <ele>1221</ele>
        <time>2014-08-31T09:58:32Z</time>
      </trkpt>
      <trkpt lat="43.72153" lon="6.93819">
        <ele>1220</ele>
        <time>2014-08-31T09:58:34Z</time>
      </trkpt>
      <trkpt lat="43.72148" lon="6.93813">
        <ele>1221</ele>
        <time>2014-08-31T09:58:38Z</time>
      </trkpt>
      <trkpt lat="43.72143" lon="6.93807">
        <ele>1224</ele>
        <time>2014-08-31T09:58:43Z</time>
      </trkpt>
      <trkpt lat="43.72137" lon="6.93801">
        <ele>1224</ele>
        <time>2014-08-31T09:58:48Z</time>
      </trkpt>
      <trkpt lat="43.72131" lon="6.93794">
        <ele>1225</ele>
        <time>2014-08-31T09:58:53Z</time>
      </trkpt>
      <trkpt lat="43.72125" lon="6.93787">
        <ele>1225</ele>
        <time>2014-08-31T09:58:58Z</time>
      </trkpt>
      <trkpt lat="43.72118" lon="6.93779">
        <ele>1227</ele>
        <time>2014-08-31T09:59:04Z</time>
      </trkpt>
      <trkpt lat="43.72113" lon="6.93773">
        <ele>1228</ele>
        <time>2014-08-31T09:59:09Z</time>
      </trkpt>
      <trkpt lat="43.72108" lon="6.93769">
        <ele>1229</ele>
        <time>2014-08-31T09:59:13Z</time>
      </trkpt>
      <trkpt lat="43.72104" lon="6.93763">
        <ele>1230</ele>
        <time>2014-08-31T09:59:19Z</time>
      </trkpt>
      <trkpt lat="43.72104" lon="6.93761">
        <ele>1230</ele>
        <time>2014-08-31T09:59:23Z</time>
      </trkpt>
      <trkpt lat="43.72103" lon="6.93762">
        <ele>1230</ele>
        <time>2014-08-31T09:59:28Z</time>
      </trkpt>
      <trkpt lat="43.72104" lon="6.93762">
        <ele>1230</ele>
        <time>2014-08-31T09:59:35Z</time>
      </trkpt>
      <trkpt lat="43.72104" lon="6.93762">
        <ele>1230</ele>
        <time>2014-08-31T09:59:38Z</time>
      </trkpt>
      <trkpt lat="43.72104" lon="6.93763">
        <ele>1229</ele>
        <time>2014-08-31T09:59:43Z</time>
      </trkpt>
      <trkpt lat="43.72105" lon="6.93767">
        <ele>1228</ele>
        <time>2014-08-31T09:59:48Z</time>
      </trkpt>
      <trkpt lat="43.72104" lon="6.93768">
        <ele>1225</ele>
        <time>2014-08-31T09:59:53Z</time>
      </trkpt>
      <trkpt lat="43.72104" lon="6.93769">
        <ele>1224</ele>
        <time>2014-08-31T09:59:58Z</time>
      </trkpt>
      <trkpt lat="43.72104" lon="6.9377">
        <ele>1225</ele>
        <time>2014-08-31T10:00:03Z</time>
      </trkpt>
      <trkpt lat="43.72104" lon="6.9377">
        <ele>1225</ele>
        <time>2014-08-31T10:00:08Z</time>
      </trkpt>
      <trkpt lat="43.72104" lon="6.9377">
        <ele>1225</ele>
        <time>2014-08-31T10:00:13Z</time>
      </trkpt>
      <trkpt lat="43.72104" lon="6.9377">
        <ele>1225</ele>
        <time>2014-08-31T10:00:18Z</time>
      </trkpt>
      <trkpt lat="43.72106" lon="6.93771">
        <ele>1227</ele>
        <time>2014-08-31T10:00:23Z</time>
      </trkpt>
      <trkpt lat="43.72107" lon="6.93767">
        <ele>1226</ele>
        <time>2014-08-31T10:00:28Z</time>
      </trkpt>
      <trkpt lat="43.72104" lon="6.93764">
        <ele>1227</ele>
        <time>2014-08-31T10:00:33Z</time>
      </trkpt>
      <trkpt lat="43.72105" lon="6.93765">
        <ele>1227</ele>
        <time>2014-08-31T10:00:38Z</time>
      </trkpt>
      <trkpt lat="43.72106" lon="6.93765">
        <ele>1227</ele>
        <time>2014-08-31T10:00:43Z</time>
      </trkpt>
      <trkpt lat="43.72106" lon="6.93765">
        <ele>1227</ele>
        <time>2014-08-31T10:00:48Z</time>
      </trkpt>
      <trkpt lat="43.72106" lon="6.93766">
        <ele>1228</ele>
        <time>2014-08-31T10:00:53Z</time>
      </trkpt>
      <trkpt lat="43.72106" lon="6.93766">
        <ele>1228</ele>
        <time>2014-08-31T10:00:58Z</time>
      </trkpt>
      <trkpt lat="43.72106" lon="6.93766">
        <ele>1228</ele>
        <time>2014-08-31T10:01:03Z</time>
      </trkpt>
      <trkpt lat="43.72106" lon="6.93766">
        <ele>1228</ele>
        <time>2014-08-31T10:01:08Z</time>
      </trkpt>
      <trkpt lat="43.72106" lon="6.93766">
        <ele>1228</ele>
        <time>2014-08-31T10:01:13Z</time>
      </trkpt>
      <trkpt lat="43.72106" lon="6.93766">
        <ele>1228</ele>
        <time>2014-08-31T10:01:18Z</time>
      </trkpt>
      <trkpt lat="43.72106" lon="6.93766">
        <ele>1228</ele>
        <time>2014-08-31T10:01:24Z</time>
      </trkpt>
      <trkpt lat="43.72106" lon="6.93766">
        <ele>1228</ele>
        <time>2014-08-31T10:01:28Z</time>
      </trkpt>
      <trkpt lat="43.72106" lon="6.93766">
        <ele>1228</ele>
        <time>2014-08-31T10:01:33Z</time>
      </trkpt>
      <trkpt lat="43.72106" lon="6.93766">
        <ele>1228</ele>
        <time>2014-08-31T10:01:38Z</time>
      </trkpt>
      <trkpt lat="43.72106" lon="6.93766">
        <ele>1228</ele>
        <time>2014-08-31T10:01:43Z</time>
      </trkpt>
      <trkpt lat="43.72106" lon="6.93766">
        <ele>1228</ele>
        <time>2014-08-31T10:01:48Z</time>
      </trkpt>
      <trkpt lat="43.72106" lon="6.93766">
        <ele>1228</ele>
        <time>2014-08-31T10:01:55Z</time>
      </trkpt>
      <trkpt lat="43.72106" lon="6.93766">
        <ele>1228</ele>
        <time>2014-08-31T10:02:00Z</time>
      </trkpt>
      <trkpt lat="43.72106" lon="6.93766">
        <ele>1228</ele>
        <time>2014-08-31T10:02:03Z</time>
      </trkpt>
      <trkpt lat="43.72105" lon="6.93765">
        <ele>1227</ele>
        <time>2014-08-31T10:02:08Z</time>
      </trkpt>
      <trkpt lat="43.72104" lon="6.93761">
        <ele>1227</ele>
        <time>2014-08-31T10:02:15Z</time>
      </trkpt>
      <trkpt lat="43.72104" lon="6.9376">
        <ele>1227</ele>
        <time>2014-08-31T10:02:19Z</time>
      </trkpt>
      <trkpt lat="43.72104" lon="6.93759">
        <ele>1227</ele>
        <time>2014-08-31T10:02:23Z</time>
      </trkpt>
      <trkpt lat="43.72104" lon="6.93759">
        <ele>1228</ele>
        <time>2014-08-31T10:02:28Z</time>
      </trkpt>
      <trkpt lat="43.72104" lon="6.93759">
        <ele>1228</ele>
        <time>2014-08-31T10:02:33Z</time>
      </trkpt>
      <trkpt lat="43.72104" lon="6.93759">
        <ele>1228</ele>
        <time>2014-08-31T10:02:37Z</time>
      </trkpt>
      <trkpt lat="43.72099" lon="6.93755">
        <ele>1229</ele>
        <time>2014-08-31T10:02:43Z</time>
      </trkpt>
      <trkpt lat="43.72094" lon="6.93751">
        <ele>1230</ele>
        <time>2014-08-31T10:02:47Z</time>
      </trkpt>
      <trkpt lat="43.7209" lon="6.93747">
        <ele>1231</ele>
        <time>2014-08-31T10:02:53Z</time>
      </trkpt>
      <trkpt lat="43.72084" lon="6.93742">
        <ele>1233</ele>
        <time>2014-08-31T10:02:57Z</time>
      </trkpt>
      <trkpt lat="43.72078" lon="6.93737">
        <ele>1236</ele>
        <time>2014-08-31T10:03:03Z</time>
      </trkpt>
      <trkpt lat="43.72073" lon="6.93732">
        <ele>1236</ele>
        <time>2014-08-31T10:03:07Z</time>
      </trkpt>
      <trkpt lat="43.72067" lon="6.93728">
        <ele>1237</ele>
        <time>2014-08-31T10:03:13Z</time>
      </trkpt>
      <trkpt lat="43.72062" lon="6.93723">
        <ele>1240</ele>
        <time>2014-08-31T10:03:17Z</time>
      </trkpt>
      <trkpt lat="43.72057" lon="6.93719">
        <ele>1241</ele>
        <time>2014-08-31T10:03:22Z</time>
      </trkpt>
      <trkpt lat="43.72054" lon="6.93713">
        <ele>1240</ele>
        <time>2014-08-31T10:03:28Z</time>
      </trkpt>
      <trkpt lat="43.7205" lon="6.9371">
        <ele>1242</ele>
        <time>2014-08-31T10:03:33Z</time>
      </trkpt>
      <trkpt lat="43.72043" lon="6.93702">
        <ele>1243</ele>
        <time>2014-08-31T10:03:40Z</time>
      </trkpt>
      <trkpt lat="43.7204" lon="6.937">
        <ele>1245</ele>
        <time>2014-08-31T10:03:43Z</time>
      </trkpt>
      <trkpt lat="43.72035" lon="6.93696">
        <ele>1247</ele>
        <time>2014-08-31T10:03:49Z</time>
      </trkpt>
      <trkpt lat="43.72032" lon="6.93693">
        <ele>1248</ele>
        <time>2014-08-31T10:03:52Z</time>
      </trkpt>
      <trkpt lat="43.72027" lon="6.93687">
        <ele>1250</ele>
        <time>2014-08-31T10:04:00Z</time>
      </trkpt>
      <trkpt lat="43.72025" lon="6.93685">
        <ele>1249</ele>
        <time>2014-08-31T10:04:03Z</time>
      </trkpt>
      <trkpt lat="43.72023" lon="6.93683">
        <ele>1249</ele>
        <time>2014-08-31T10:04:12Z</time>
      </trkpt>
      <trkpt lat="43.72023" lon="6.93683">
        <ele>1249</ele>
        <time>2014-08-31T10:04:13Z</time>
      </trkpt>
      <trkpt lat="43.72018" lon="6.9368">
        <ele>1249</ele>
        <time>2014-08-31T10:04:18Z</time>
      </trkpt>
      <trkpt lat="43.72013" lon="6.93674">
        <ele>1251</ele>
        <time>2014-08-31T10:04:22Z</time>
      </trkpt>
      <trkpt lat="43.72008" lon="6.93668">
        <ele>1252</ele>
        <time>2014-08-31T10:04:27Z</time>
      </trkpt>
      <trkpt lat="43.72001" lon="6.9366">
        <ele>1251</ele>
        <time>2014-08-31T10:04:33Z</time>
      </trkpt>
      <trkpt lat="43.71995" lon="6.93652">
        <ele>1252</ele>
        <time>2014-08-31T10:04:37Z</time>
      </trkpt>
      <trkpt lat="43.71989" lon="6.93646">
        <ele>1254</ele>
        <time>2014-08-31T10:04:43Z</time>
      </trkpt>
      <trkpt lat="43.71982" lon="6.93639">
        <ele>1255</ele>
        <time>2014-08-31T10:04:48Z</time>
      </trkpt>
      <trkpt lat="43.71979" lon="6.93638">
        <ele>1257</ele>
        <time>2014-08-31T10:04:52Z</time>
      </trkpt>
      <trkpt lat="43.71977" lon="6.93637">
        <ele>1257</ele>
        <time>2014-08-31T10:04:58Z</time>
      </trkpt>
      <trkpt lat="43.71977" lon="6.93636">
        <ele>1256</ele>
        <time>2014-08-31T10:05:03Z</time>
      </trkpt>
      <trkpt lat="43.71977" lon="6.93635">
        <ele>1256</ele>
        <time>2014-08-31T10:05:09Z</time>
      </trkpt>
      <trkpt lat="43.71977" lon="6.93635">
        <ele>1256</ele>
        <time>2014-08-31T10:05:13Z</time>
      </trkpt>
      <trkpt lat="43.71977" lon="6.93635">
        <ele>1255</ele>
        <time>2014-08-31T10:05:18Z</time>
      </trkpt>
      <trkpt lat="43.71977" lon="6.93635">
        <ele>1254</ele>
        <time>2014-08-31T10:05:23Z</time>
      </trkpt>
      <trkpt lat="43.71977" lon="6.93634">
        <ele>1253</ele>
        <time>2014-08-31T10:05:28Z</time>
      </trkpt>
      <trkpt lat="43.71977" lon="6.93634">
        <ele>1253</ele>
        <time>2014-08-31T10:05:33Z</time>
      </trkpt>
      <trkpt lat="43.71977" lon="6.93634">
        <ele>1253</ele>
        <time>2014-08-31T10:05:38Z</time>
      </trkpt>
      <trkpt lat="43.71977" lon="6.93634">
        <ele>1253</ele>
        <time>2014-08-31T10:05:43Z</time>
      </trkpt>
      <trkpt lat="43.71977" lon="6.93634">
        <ele>1253</ele>
        <time>2014-08-31T10:05:48Z</time>
      </trkpt>
      <trkpt lat="43.71977" lon="6.93634">
        <ele>1253</ele>
        <time>2014-08-31T10:05:53Z</time>
      </trkpt>
      <trkpt lat="43.71977" lon="6.93634">
        <ele>1253</ele>
        <time>2014-08-31T10:05:58Z</time>
      </trkpt>
      <trkpt lat="43.71977" lon="6.93634">
        <ele>1253</ele>
        <time>2014-08-31T10:06:03Z</time>
      </trkpt>
      <trkpt lat="43.71977" lon="6.93633">
        <ele>1253</ele>
        <time>2014-08-31T10:06:09Z</time>
      </trkpt>
      <trkpt lat="43.71977" lon="6.93633">
        <ele>1252</ele>
        <time>2014-08-31T10:06:13Z</time>
      </trkpt>
      <trkpt lat="43.71977" lon="6.93632">
        <ele>1250</ele>
        <time>2014-08-31T10:06:17Z</time>
      </trkpt>
      <trkpt lat="43.71977" lon="6.93632">
        <ele>1251</ele>
        <time>2014-08-31T10:06:23Z</time>
      </trkpt>
      <trkpt lat="43.71977" lon="6.93632">
        <ele>1251</ele>
        <time>2014-08-31T10:06:28Z</time>
      </trkpt>
      <trkpt lat="43.71977" lon="6.93632">
        <ele>1251</ele>
        <time>2014-08-31T10:06:33Z</time>
      </trkpt>
      <trkpt lat="43.71977" lon="6.93632">
        <ele>1251</ele>
        <time>2014-08-31T10:06:38Z</time>
      </trkpt>
      <trkpt lat="43.71975" lon="6.93632">
        <ele>1251</ele>
        <time>2014-08-31T10:06:43Z</time>
      </trkpt>
      <trkpt lat="43.71972" lon="6.9363">
        <ele>1250</ele>
        <time>2014-08-31T10:06:47Z</time>
      </trkpt>
      <trkpt lat="43.71972" lon="6.93629">
        <ele>1250</ele>
        <time>2014-08-31T10:06:52Z</time>
      </trkpt>
      <trkpt lat="43.71972" lon="6.93629">
        <ele>1250</ele>
        <time>2014-08-31T10:06:58Z</time>
      </trkpt>
      <trkpt lat="43.71972" lon="6.9363">
        <ele>1250</ele>
        <time>2014-08-31T10:07:02Z</time>
      </trkpt>
      <trkpt lat="43.71972" lon="6.9363">
        <ele>1250</ele>
        <time>2014-08-31T10:07:07Z</time>
      </trkpt>
      <trkpt lat="43.71972" lon="6.9363">
        <ele>1250</ele>
        <time>2014-08-31T10:07:12Z</time>
      </trkpt>
      <trkpt lat="43.71972" lon="6.9363">
        <ele>1250</ele>
        <time>2014-08-31T10:07:17Z</time>
      </trkpt>
      <trkpt lat="43.71972" lon="6.9363">
        <ele>1250</ele>
        <time>2014-08-31T10:07:22Z</time>
      </trkpt>
      <trkpt lat="43.71972" lon="6.9363">
        <ele>1250</ele>
        <time>2014-08-31T10:07:28Z</time>
      </trkpt>
      <trkpt lat="43.71973" lon="6.9363">
        <ele>1250</ele>
        <time>2014-08-31T10:07:32Z</time>
      </trkpt>
      <trkpt lat="43.71974" lon="6.93632">
        <ele>1251</ele>
        <time>2014-08-31T10:07:37Z</time>
      </trkpt>
      <trkpt lat="43.71974" lon="6.93636">
        <ele>1250</ele>
        <time>2014-08-31T10:07:43Z</time>
      </trkpt>
      <trkpt lat="43.71974" lon="6.93642">
        <ele>1250</ele>
        <time>2014-08-31T10:07:48Z</time>
      </trkpt>
      <trkpt lat="43.71974" lon="6.93642">
        <ele>1250</ele>
        <time>2014-08-31T10:07:53Z</time>
      </trkpt>
      <trkpt lat="43.71974" lon="6.93642">
        <ele>1250</ele>
        <time>2014-08-31T10:07:58Z</time>
      </trkpt>
      <trkpt lat="43.71974" lon="6.93642">
        <ele>1250</ele>
        <time>2014-08-31T10:08:02Z</time>
      </trkpt>
      <trkpt lat="43.71974" lon="6.93642">
        <ele>1250</ele>
        <time>2014-08-31T10:08:08Z</time>
      </trkpt>
      <trkpt lat="43.71974" lon="6.93642">
        <ele>1250</ele>
        <time>2014-08-31T10:08:12Z</time>
      </trkpt>
      <trkpt lat="43.71975" lon="6.93647">
        <ele>1250</ele>
        <time>2014-08-31T10:08:17Z</time>
      </trkpt>
      <trkpt lat="43.71978" lon="6.93662">
        <ele>1248</ele>
        <time>2014-08-31T10:08:22Z</time>
      </trkpt>
      <trkpt lat="43.71979" lon="6.93687">
        <ele>1248</ele>
        <time>2014-08-31T10:08:27Z</time>
      </trkpt>
      <trkpt lat="43.71975" lon="6.93703">
        <ele>1246</ele>
        <time>2014-08-31T10:08:32Z</time>
      </trkpt>
      <trkpt lat="43.71964" lon="6.93713">
        <ele>1245</ele>
        <time>2014-08-31T10:08:37Z</time>
      </trkpt>
      <trkpt lat="43.71958" lon="6.93728">
        <ele>1244</ele>
        <time>2014-08-31T10:08:42Z</time>
      </trkpt>
      <trkpt lat="43.71976" lon="6.93752">
        <ele>1240</ele>
        <time>2014-08-31T10:08:47Z</time>
      </trkpt>
      <trkpt lat="43.71991" lon="6.93775">
        <ele>1242</ele>
        <time>2014-08-31T10:08:53Z</time>
      </trkpt>
      <trkpt lat="43.72002" lon="6.93802">
        <ele>1238</ele>
        <time>2014-08-31T10:08:58Z</time>
      </trkpt>
      <trkpt lat="43.72029" lon="6.93802">
        <ele>1234</ele>
        <time>2014-08-31T10:09:03Z</time>
      </trkpt>
      <trkpt lat="43.72062" lon="6.9381">
        <ele>1232</ele>
        <time>2014-08-31T10:09:09Z</time>
      </trkpt>
      <trkpt lat="43.72064" lon="6.93848">
        <ele>1224</ele>
        <time>2014-08-31T10:09:12Z</time>
      </trkpt>
      <trkpt lat="43.72074" lon="6.93894">
        <ele>1217</ele>
        <time>2014-08-31T10:09:18Z</time>
      </trkpt>
      <trkpt lat="43.72098" lon="6.93915">
        <ele>1213</ele>
        <time>2014-08-31T10:09:22Z</time>
      </trkpt>
      <trkpt lat="43.72123" lon="6.9394">
        <ele>1210</ele>
        <time>2014-08-31T10:09:27Z</time>
      </trkpt>
      <trkpt lat="43.72149" lon="6.93976">
        <ele>1204</ele>
        <time>2014-08-31T10:09:32Z</time>
      </trkpt>
      <trkpt lat="43.72173" lon="6.93991">
        <ele>1203</ele>
        <time>2014-08-31T10:09:38Z</time>
      </trkpt>
      <trkpt lat="43.72197" lon="6.93995">
        <ele>1200</ele>
        <time>2014-08-31T10:09:43Z</time>
      </trkpt>
      <trkpt lat="43.72226" lon="6.94014">
        <ele>1198</ele>
        <time>2014-08-31T10:09:48Z</time>
      </trkpt>
      <trkpt lat="43.72253" lon="6.94037">
        <ele>1196</ele>
        <time>2014-08-31T10:09:53Z</time>
      </trkpt>
      <trkpt lat="43.72277" lon="6.94052">
        <ele>1195</ele>
        <time>2014-08-31T10:09:57Z</time>
      </trkpt>
      <trkpt lat="43.72286" lon="6.94064">
        <ele>1194</ele>
        <time>2014-08-31T10:10:02Z</time>
      </trkpt>
      <trkpt lat="43.72294" lon="6.94076">
        <ele>1194</ele>
        <time>2014-08-31T10:10:08Z</time>
      </trkpt>
      <trkpt lat="43.72296" lon="6.94089">
        <ele>1193</ele>
        <time>2014-08-31T10:10:12Z</time>
      </trkpt>
      <trkpt lat="43.72291" lon="6.94104">
        <ele>1191</ele>
        <time>2014-08-31T10:10:17Z</time>
      </trkpt>
      <trkpt lat="43.72289" lon="6.94108">
        <ele>1190</ele>
        <time>2014-08-31T10:10:22Z</time>
      </trkpt>
      <trkpt lat="43.72289" lon="6.9411">
        <ele>1190</ele>
        <time>2014-08-31T10:10:28Z</time>
      </trkpt>
      <trkpt lat="43.72291" lon="6.94114">
        <ele>1189</ele>
        <time>2014-08-31T10:10:32Z</time>
      </trkpt>
      <trkpt lat="43.72291" lon="6.94122">
        <ele>1188</ele>
        <time>2014-08-31T10:10:38Z</time>
      </trkpt>
      <trkpt lat="43.72291" lon="6.94143">
        <ele>1186</ele>
        <time>2014-08-31T10:10:42Z</time>
      </trkpt>
      <trkpt lat="43.72298" lon="6.94157">
        <ele>1186</ele>
        <time>2014-08-31T10:10:47Z</time>
      </trkpt>
      <trkpt lat="43.72303" lon="6.94176">
        <ele>1184</ele>
        <time>2014-08-31T10:10:52Z</time>
      </trkpt>
      <trkpt lat="43.72303" lon="6.94199">
        <ele>1182</ele>
        <time>2014-08-31T10:10:57Z</time>
      </trkpt>
      <trkpt lat="43.72312" lon="6.94215">
        <ele>1182</ele>
        <time>2014-08-31T10:11:02Z</time>
      </trkpt>
      <trkpt lat="43.7232" lon="6.94231">
        <ele>1182</ele>
        <time>2014-08-31T10:11:07Z</time>
      </trkpt>
      <trkpt lat="43.72332" lon="6.94255">
        <ele>1183</ele>
        <time>2014-08-31T10:11:14Z</time>
      </trkpt>
      <trkpt lat="43.72337" lon="6.94264">
        <ele>1183</ele>
        <time>2014-08-31T10:11:17Z</time>
      </trkpt>
      <trkpt lat="43.72339" lon="6.94282">
        <ele>1182</ele>
        <time>2014-08-31T10:11:22Z</time>
      </trkpt>
      <trkpt lat="43.72336" lon="6.94299">
        <ele>1181</ele>
        <time>2014-08-31T10:11:27Z</time>
      </trkpt>
      <trkpt lat="43.72336" lon="6.94326">
        <ele>1179</ele>
        <time>2014-08-31T10:11:32Z</time>
      </trkpt>
      <trkpt lat="43.72344" lon="6.94354">
        <ele>1177</ele>
        <time>2014-08-31T10:11:37Z</time>
      </trkpt>
      <trkpt lat="43.72351" lon="6.94379">
        <ele>1176</ele>
        <time>2014-08-31T10:11:42Z</time>
      </trkpt>
      <trkpt lat="43.72371" lon="6.94394">
        <ele>1176</ele>
        <time>2014-08-31T10:11:47Z</time>
      </trkpt>
      <trkpt lat="43.7239" lon="6.94399">
        <ele>1175</ele>
        <time>2014-08-31T10:11:52Z</time>
      </trkpt>
      <trkpt lat="43.72401" lon="6.94396">
        <ele>1176</ele>
        <time>2014-08-31T10:11:57Z</time>
      </trkpt>
      <trkpt lat="43.72402" lon="6.94395">
        <ele>1176</ele>
        <time>2014-08-31T10:12:02Z</time>
      </trkpt>
      <trkpt lat="43.72396" lon="6.94404">
        <ele>1174</ele>
        <time>2014-08-31T10:12:07Z</time>
      </trkpt>
      <trkpt lat="43.72382" lon="6.94416">
        <ele>1172</ele>
        <time>2014-08-31T10:12:12Z</time>
      </trkpt>
      <trkpt lat="43.72376" lon="6.94428">
        <ele>1170</ele>
        <time>2014-08-31T10:12:17Z</time>
      </trkpt>
      <trkpt lat="43.72369" lon="6.94435">
        <ele>1167</ele>
        <time>2014-08-31T10:12:22Z</time>
      </trkpt>
      <trkpt lat="43.72357" lon="6.9445">
        <ele>1164</ele>
        <time>2014-08-31T10:12:28Z</time>
      </trkpt>
      <trkpt lat="43.72365" lon="6.94469">
        <ele>1159</ele>
        <time>2014-08-31T10:12:32Z</time>
      </trkpt>
      <trkpt lat="43.72395" lon="6.9448">
        <ele>1157</ele>
        <time>2014-08-31T10:12:37Z</time>
      </trkpt>
      <trkpt lat="43.72412" lon="6.94498">
        <ele>1152</ele>
        <time>2014-08-31T10:12:42Z</time>
      </trkpt>
      <trkpt lat="43.72437" lon="6.94516">
        <ele>1147</ele>
        <time>2014-08-31T10:12:48Z</time>
      </trkpt>
      <trkpt lat="43.72465" lon="6.94522">
        <ele>1145</ele>
        <time>2014-08-31T10:12:52Z</time>
      </trkpt>
      <trkpt lat="43.72472" lon="6.94526">
        <ele>1145</ele>
        <time>2014-08-31T10:12:57Z</time>
      </trkpt>
      <trkpt lat="43.72481" lon="6.94526">
        <ele>1144</ele>
        <time>2014-08-31T10:13:03Z</time>
      </trkpt>
      <trkpt lat="43.72503" lon="6.94532">
        <ele>1142</ele>
        <time>2014-08-31T10:13:07Z</time>
      </trkpt>
      <trkpt lat="43.72535" lon="6.94574">
        <ele>1139</ele>
        <time>2014-08-31T10:13:15Z</time>
      </trkpt>
      <trkpt lat="43.72544" lon="6.94578">
        <ele>1137</ele>
        <time>2014-08-31T10:13:17Z</time>
      </trkpt>
      <trkpt lat="43.72564" lon="6.94588">
        <ele>1132</ele>
        <time>2014-08-31T10:13:22Z</time>
      </trkpt>
      <trkpt lat="43.72594" lon="6.94606">
        <ele>1126</ele>
        <time>2014-08-31T10:13:28Z</time>
      </trkpt>
      <trkpt lat="43.72636" lon="6.94636">
        <ele>1119</ele>
        <time>2014-08-31T10:13:32Z</time>
      </trkpt>
      <trkpt lat="43.72655" lon="6.94671">
        <ele>1113</ele>
        <time>2014-08-31T10:13:38Z</time>
      </trkpt>
      <trkpt lat="43.72669" lon="6.94711">
        <ele>1106</ele>
        <time>2014-08-31T10:13:43Z</time>
      </trkpt>
      <trkpt lat="43.72645" lon="6.94733">
        <ele>1103</ele>
        <time>2014-08-31T10:13:47Z</time>
      </trkpt>
      <trkpt lat="43.72615" lon="6.94736">
        <ele>1100</ele>
        <time>2014-08-31T10:13:53Z</time>
      </trkpt>
      <trkpt lat="43.72592" lon="6.94755">
        <ele>1100</ele>
        <time>2014-08-31T10:13:57Z</time>
      </trkpt>
      <trkpt lat="43.72583" lon="6.94784">
        <ele>1098</ele>
        <time>2014-08-31T10:14:02Z</time>
      </trkpt>
      <trkpt lat="43.7258" lon="6.94822">
        <ele>1096</ele>
        <time>2014-08-31T10:14:07Z</time>
      </trkpt>
      <trkpt lat="43.7257" lon="6.94846">
        <ele>1095</ele>
        <time>2014-08-31T10:14:12Z</time>
      </trkpt>
      <trkpt lat="43.72564" lon="6.94846">
        <ele>1096</ele>
        <time>2014-08-31T10:14:17Z</time>
      </trkpt>
      <trkpt lat="43.72563" lon="6.94843">
        <ele>1096</ele>
        <time>2014-08-31T10:14:22Z</time>
      </trkpt>
      <trkpt lat="43.72563" lon="6.94842">
        <ele>1096</ele>
        <time>2014-08-31T10:14:27Z</time>
      </trkpt>
      <trkpt lat="43.72564" lon="6.94844">
        <ele>1096</ele>
        <time>2014-08-31T10:14:33Z</time>
      </trkpt>
      <trkpt lat="43.72563" lon="6.94847">
        <ele>1095</ele>
        <time>2014-08-31T10:14:37Z</time>
      </trkpt>
      <trkpt lat="43.72563" lon="6.94847">
        <ele>1096</ele>
        <time>2014-08-31T10:14:42Z</time>
      </trkpt>
      <trkpt lat="43.72563" lon="6.94847">
        <ele>1097</ele>
        <time>2014-08-31T10:14:47Z</time>
      </trkpt>
      <trkpt lat="43.72563" lon="6.94847">
        <ele>1097</ele>
        <time>2014-08-31T10:14:53Z</time>
      </trkpt>
      <trkpt lat="43.72563" lon="6.94847">
        <ele>1097</ele>
        <time>2014-08-31T10:14:57Z</time>
      </trkpt>
      <trkpt lat="43.72563" lon="6.94847">
        <ele>1098</ele>
        <time>2014-08-31T10:15:02Z</time>
      </trkpt>
      <trkpt lat="43.72567" lon="6.94845">
        <ele>1097</ele>
        <time>2014-08-31T10:15:07Z</time>
      </trkpt>
      <trkpt lat="43.72563" lon="6.9485">
        <ele>1097</ele>
        <time>2014-08-31T10:15:12Z</time>
      </trkpt>
      <trkpt lat="43.72553" lon="6.94847">
        <ele>1093</ele>
        <time>2014-08-31T10:15:17Z</time>
      </trkpt>
      <trkpt lat="43.72553" lon="6.94826">
        <ele>1089</ele>
        <time>2014-08-31T10:15:22Z</time>
      </trkpt>
      <trkpt lat="43.72544" lon="6.94827">
        <ele>1084</ele>
        <time>2014-08-31T10:15:27Z</time>
      </trkpt>
      <trkpt lat="43.72528" lon="6.94804">
        <ele>1080</ele>
        <time>2014-08-31T10:15:32Z</time>
      </trkpt>
      <trkpt lat="43.72523" lon="6.94796">
        <ele>1079</ele>
        <time>2014-08-31T10:15:37Z</time>
      </trkpt>
      <trkpt lat="43.72524" lon="6.94796">
        <ele>1079</ele>
        <time>2014-08-31T10:15:42Z</time>
      </trkpt>
      <trkpt lat="43.72524" lon="6.94796">
        <ele>1078</ele>
        <time>2014-08-31T10:15:47Z</time>
      </trkpt>
      <trkpt lat="43.72524" lon="6.94796">
        <ele>1078</ele>
        <time>2014-08-31T10:15:54Z</time>
      </trkpt>
      <trkpt lat="43.72524" lon="6.94797">
        <ele>1078</ele>
        <time>2014-08-31T10:15:57Z</time>
      </trkpt>
      <trkpt lat="43.72524" lon="6.94795">
        <ele>1077</ele>
        <time>2014-08-31T10:16:03Z</time>
      </trkpt>
      <trkpt lat="43.72524" lon="6.94795">
        <ele>1077</ele>
        <time>2014-08-31T10:16:07Z</time>
      </trkpt>
      <trkpt lat="43.72525" lon="6.94794">
        <ele>1077</ele>
        <time>2014-08-31T10:16:12Z</time>
      </trkpt>
      <trkpt lat="43.72525" lon="6.94794">
        <ele>1077</ele>
        <time>2014-08-31T10:16:17Z</time>
      </trkpt>
      <trkpt lat="43.72525" lon="6.94794">
        <ele>1077</ele>
        <time>2014-08-31T10:16:23Z</time>
      </trkpt>
      <trkpt lat="43.72525" lon="6.94794">
        <ele>1077</ele>
        <time>2014-08-31T10:16:27Z</time>
      </trkpt>
      <trkpt lat="43.72525" lon="6.94794">
        <ele>1077</ele>
        <time>2014-08-31T10:16:32Z</time>
      </trkpt>
      <trkpt lat="43.72525" lon="6.94794">
        <ele>1077</ele>
        <time>2014-08-31T10:16:37Z</time>
      </trkpt>
      <trkpt lat="43.72525" lon="6.94794">
        <ele>1076</ele>
        <time>2014-08-31T10:16:42Z</time>
      </trkpt>
      <trkpt lat="43.72526" lon="6.94793">
        <ele>1075</ele>
        <time>2014-08-31T10:16:47Z</time>
      </trkpt>
      <trkpt lat="43.72526" lon="6.94793">
        <ele>1074</ele>
        <time>2014-08-31T10:16:52Z</time>
      </trkpt>
      <trkpt lat="43.72526" lon="6.94793">
        <ele>1074</ele>
        <time>2014-08-31T10:16:57Z</time>
      </trkpt>
      <trkpt lat="43.72525" lon="6.94793">
        <ele>1075</ele>
        <time>2014-08-31T10:17:02Z</time>
      </trkpt>
      <trkpt lat="43.72525" lon="6.94793">
        <ele>1075</ele>
        <time>2014-08-31T10:17:07Z</time>
      </trkpt>
      <trkpt lat="43.72525" lon="6.94793">
        <ele>1075</ele>
        <time>2014-08-31T10:17:13Z</time>
      </trkpt>
      <trkpt lat="43.72525" lon="6.94794">
        <ele>1075</ele>
        <time>2014-08-31T10:17:17Z</time>
      </trkpt>
      <trkpt lat="43.72521" lon="6.94823">
        <ele>1070</ele>
        <time>2014-08-31T10:17:22Z</time>
      </trkpt>
      <trkpt lat="43.72515" lon="6.94839">
        <ele>1068</ele>
        <time>2014-08-31T10:17:27Z</time>
      </trkpt>
      <trkpt lat="43.72501" lon="6.94808">
        <ele>1063</ele>
        <time>2014-08-31T10:17:32Z</time>
      </trkpt>
      <trkpt lat="43.72479" lon="6.94785">
        <ele>1059</ele>
        <time>2014-08-31T10:17:37Z</time>
      </trkpt>
      <trkpt lat="43.72458" lon="6.94771">
        <ele>1056</ele>
        <time>2014-08-31T10:17:43Z</time>
      </trkpt>
      <trkpt lat="43.72432" lon="6.94772">
        <ele>1051</ele>
        <time>2014-08-31T10:17:47Z</time>
      </trkpt>
      <trkpt lat="43.72402" lon="6.94765">
        <ele>1050</ele>
        <time>2014-08-31T10:17:52Z</time>
      </trkpt>
      <trkpt lat="43.72376" lon="6.94769">
        <ele>1048</ele>
        <time>2014-08-31T10:17:57Z</time>
      </trkpt>
      <trkpt lat="43.72354" lon="6.94763">
        <ele>1048</ele>
        <time>2014-08-31T10:18:02Z</time>
      </trkpt>
      <trkpt lat="43.72328" lon="6.94768">
        <ele>1044</ele>
        <time>2014-08-31T10:18:07Z</time>
      </trkpt>
      <trkpt lat="43.72308" lon="6.94766">
        <ele>1041</ele>
        <time>2014-08-31T10:18:13Z</time>
      </trkpt>
      <trkpt lat="43.72308" lon="6.94766">
        <ele>1041</ele>
        <time>2014-08-31T10:18:17Z</time>
      </trkpt>
      <trkpt lat="43.72302" lon="6.94764">
        <ele>1040</ele>
        <time>2014-08-31T10:18:22Z</time>
      </trkpt>
      <trkpt lat="43.72272" lon="6.94733">
        <ele>1037</ele>
        <time>2014-08-31T10:18:28Z</time>
      </trkpt>
      <trkpt lat="43.72251" lon="6.94713">
        <ele>1036</ele>
        <time>2014-08-31T10:18:32Z</time>
      </trkpt>
      <trkpt lat="43.72225" lon="6.94689">
        <ele>1036</ele>
        <time>2014-08-31T10:18:37Z</time>
      </trkpt>
      <trkpt lat="43.72202" lon="6.94668">
        <ele>1035</ele>
        <time>2014-08-31T10:18:42Z</time>
      </trkpt>
      <trkpt lat="43.72185" lon="6.94649">
        <ele>1035</ele>
        <time>2014-08-31T10:18:47Z</time>
      </trkpt>
      <trkpt lat="43.72176" lon="6.9464">
        <ele>1035</ele>
        <time>2014-08-31T10:18:52Z</time>
      </trkpt>
      <trkpt lat="43.72166" lon="6.94626">
        <ele>1035</ele>
        <time>2014-08-31T10:18:57Z</time>
      </trkpt>
      <trkpt lat="43.72159" lon="6.94612">
        <ele>1034</ele>
        <time>2014-08-31T10:19:02Z</time>
      </trkpt>
      <trkpt lat="43.72153" lon="6.94607">
        <ele>1034</ele>
        <time>2014-08-31T10:19:07Z</time>
      </trkpt>
      <trkpt lat="43.72154" lon="6.94608">
        <ele>1034</ele>
        <time>2014-08-31T10:19:12Z</time>
      </trkpt>
      <trkpt lat="43.72154" lon="6.94608">
        <ele>1033</ele>
        <time>2014-08-31T10:19:17Z</time>
      </trkpt>
      <trkpt lat="43.72154" lon="6.94609">
        <ele>1032</ele>
        <time>2014-08-31T10:19:24Z</time>
      </trkpt>
      <trkpt lat="43.72154" lon="6.94609">
        <ele>1032</ele>
        <time>2014-08-31T10:19:27Z</time>
      </trkpt>
      <trkpt lat="43.72154" lon="6.94609">
        <ele>1032</ele>
        <time>2014-08-31T10:19:32Z</time>
      </trkpt>
      <trkpt lat="43.72154" lon="6.94609">
        <ele>1032</ele>
        <time>2014-08-31T10:19:37Z</time>
      </trkpt>
      <trkpt lat="43.72154" lon="6.94609">
        <ele>1032</ele>
        <time>2014-08-31T10:19:42Z</time>
      </trkpt>
      <trkpt lat="43.72154" lon="6.94609">
        <ele>1032</ele>
        <time>2014-08-31T10:19:47Z</time>
      </trkpt>
      <trkpt lat="43.72154" lon="6.94609">
        <ele>1032</ele>
        <time>2014-08-31T10:19:52Z</time>
      </trkpt>
      <trkpt lat="43.72154" lon="6.94609">
        <ele>1032</ele>
        <time>2014-08-31T10:19:57Z</time>
      </trkpt>
      <trkpt lat="43.72154" lon="6.94609">
        <ele>1032</ele>
        <time>2014-08-31T10:20:02Z</time>
      </trkpt>
      <trkpt lat="43.72154" lon="6.94609">
        <ele>1032</ele>
        <time>2014-08-31T10:20:07Z</time>
      </trkpt>
      <trkpt lat="43.72153" lon="6.94609">
        <ele>1032</ele>
        <time>2014-08-31T10:20:13Z</time>
      </trkpt>
      <trkpt lat="43.72152" lon="6.94609">
        <ele>1031</ele>
        <time>2014-08-31T10:20:17Z</time>
      </trkpt>
      <trkpt lat="43.72152" lon="6.94608">
        <ele>1031</ele>
        <time>2014-08-31T10:20:22Z</time>
      </trkpt>
      <trkpt lat="43.72152" lon="6.94608">
        <ele>1031</ele>
        <time>2014-08-31T10:20:27Z</time>
      </trkpt>
      <trkpt lat="43.72152" lon="6.94608">
        <ele>1031</ele>
        <time>2014-08-31T10:20:33Z</time>
      </trkpt>
      <trkpt lat="43.72152" lon="6.94608">
        <ele>1031</ele>
        <time>2014-08-31T10:20:38Z</time>
      </trkpt>
      <trkpt lat="43.72152" lon="6.94608">
        <ele>1031</ele>
        <time>2014-08-31T10:20:42Z</time>
      </trkpt>
      <trkpt lat="43.72152" lon="6.94608">
        <ele>1031</ele>
        <time>2014-08-31T10:20:47Z</time>
      </trkpt>
      <trkpt lat="43.72152" lon="6.94608">
        <ele>1031</ele>
        <time>2014-08-31T10:20:54Z</time>
      </trkpt>
      <trkpt lat="43.72152" lon="6.94608">
        <ele>1031</ele>
        <time>2014-08-31T10:20:57Z</time>
      </trkpt>
      <trkpt lat="43.72152" lon="6.94608">
        <ele>1031</ele>
        <time>2014-08-31T10:21:02Z</time>
      </trkpt>
      <trkpt lat="43.72152" lon="6.94608">
        <ele>1031</ele>
        <time>2014-08-31T10:21:07Z</time>
      </trkpt>
      <trkpt lat="43.72152" lon="6.94608">
        <ele>1031</ele>
        <time>2014-08-31T10:21:12Z</time>
      </trkpt>
      <trkpt lat="43.72152" lon="6.94609">
        <ele>1031</ele>
        <time>2014-08-31T10:21:18Z</time>
      </trkpt>
      <trkpt lat="43.72152" lon="6.94609">
        <ele>1032</ele>
        <time>2014-08-31T10:21:22Z</time>
      </trkpt>
      <trkpt lat="43.72152" lon="6.94609">
        <ele>1032</ele>
        <time>2014-08-31T10:21:27Z</time>
      </trkpt>
      <trkpt lat="43.72152" lon="6.94609">
        <ele>1032</ele>
        <time>2014-08-31T10:21:33Z</time>
      </trkpt>
      <trkpt lat="43.72152" lon="6.94609">
        <ele>1032</ele>
        <time>2014-08-31T10:21:38Z</time>
      </trkpt>
      <trkpt lat="43.72152" lon="6.94609">
        <ele>1032</ele>
        <time>2014-08-31T10:21:43Z</time>
      </trkpt>
      <trkpt lat="43.72152" lon="6.94609">
        <ele>1032</ele>
        <time>2014-08-31T10:21:47Z</time>
      </trkpt>
      <trkpt lat="43.72152" lon="6.94609">
        <ele>1032</ele>
        <time>2014-08-31T10:21:52Z</time>
      </trkpt>
      <trkpt lat="43.72152" lon="6.94609">
        <ele>1032</ele>
        <time>2014-08-31T10:21:58Z</time>
      </trkpt>
      <trkpt lat="43.72153" lon="6.9461">
        <ele>1031</ele>
        <time>2014-08-31T10:22:02Z</time>
      </trkpt>
      <trkpt lat="43.72163" lon="6.94622">
        <ele>1032</ele>
        <time>2014-08-31T10:22:09Z</time>
      </trkpt>
      <trkpt lat="43.7217" lon="6.94633">
        <ele>1032</ele>
        <time>2014-08-31T10:22:12Z</time>
      </trkpt>
      <trkpt lat="43.72181" lon="6.94647">
        <ele>1033</ele>
        <time>2014-08-31T10:22:17Z</time>
      </trkpt>
      <trkpt lat="43.72193" lon="6.94659">
        <ele>1034</ele>
        <time>2014-08-31T10:22:22Z</time>
      </trkpt>
      <trkpt lat="43.72205" lon="6.94671">
        <ele>1035</ele>
        <time>2014-08-31T10:22:27Z</time>
      </trkpt>
      <trkpt lat="43.72218" lon="6.94684">
        <ele>1036</ele>
        <time>2014-08-31T10:22:32Z</time>
      </trkpt>
      <trkpt lat="43.72232" lon="6.94696">
        <ele>1036</ele>
        <time>2014-08-31T10:22:37Z</time>
      </trkpt>
      <trkpt lat="43.72244" lon="6.94708">
        <ele>1036</ele>
        <time>2014-08-31T10:22:42Z</time>
      </trkpt>
      <trkpt lat="43.72255" lon="6.94718">
        <ele>1037</ele>
        <time>2014-08-31T10:22:47Z</time>
      </trkpt>
      <trkpt lat="43.72265" lon="6.94728">
        <ele>1038</ele>
        <time>2014-08-31T10:22:52Z</time>
      </trkpt>
      <trkpt lat="43.72275" lon="6.94738">
        <ele>1038</ele>
        <time>2014-08-31T10:22:57Z</time>
      </trkpt>
      <trkpt lat="43.72284" lon="6.94751">
        <ele>1039</ele>
        <time>2014-08-31T10:23:03Z</time>
      </trkpt>
      <trkpt lat="43.72295" lon="6.94762">
        <ele>1041</ele>
        <time>2014-08-31T10:23:08Z</time>
      </trkpt>
      <trkpt lat="43.72307" lon="6.94771">
        <ele>1044</ele>
        <time>2014-08-31T10:23:13Z</time>
      </trkpt>
      <trkpt lat="43.72316" lon="6.94773">
        <ele>1044</ele>
        <time>2014-08-31T10:23:17Z</time>
      </trkpt>
      <trkpt lat="43.72323" lon="6.94772">
        <ele>1045</ele>
        <time>2014-08-31T10:23:22Z</time>
      </trkpt>
      <trkpt lat="43.7233" lon="6.94771">
        <ele>1046</ele>
        <time>2014-08-31T10:23:27Z</time>
      </trkpt>
      <trkpt lat="43.72337" lon="6.94769">
        <ele>1046</ele>
        <time>2014-08-31T10:23:32Z</time>
      </trkpt>
      <trkpt lat="43.72343" lon="6.94768">
        <ele>1048</ele>
        <time>2014-08-31T10:23:38Z</time>
      </trkpt>
      <trkpt lat="43.72349" lon="6.94768">
        <ele>1049</ele>
        <time>2014-08-31T10:23:43Z</time>
      </trkpt>
      <trkpt lat="43.72356" lon="6.94766">
        <ele>1050</ele>
        <time>2014-08-31T10:23:48Z</time>
      </trkpt>
      <trkpt lat="43.72363" lon="6.94768">
        <ele>1051</ele>
        <time>2014-08-31T10:23:52Z</time>
      </trkpt>
      <trkpt lat="43.7237" lon="6.94772">
        <ele>1050</ele>
        <time>2014-08-31T10:23:57Z</time>
      </trkpt>
      <trkpt lat="43.7238" lon="6.94771">
        <ele>1051</ele>
        <time>2014-08-31T10:24:02Z</time>
      </trkpt>
      <trkpt lat="43.72386" lon="6.94767">
        <ele>1052</ele>
        <time>2014-08-31T10:24:07Z</time>
      </trkpt>
      <trkpt lat="43.72394" lon="6.94765">
        <ele>1052</ele>
        <time>2014-08-31T10:24:12Z</time>
      </trkpt>
      <trkpt lat="43.72402" lon="6.94767">
        <ele>1053</ele>
        <time>2014-08-31T10:24:17Z</time>
      </trkpt>
      <trkpt lat="43.7241" lon="6.94769">
        <ele>1053</ele>
        <time>2014-08-31T10:24:22Z</time>
      </trkpt>
      <trkpt lat="43.72421" lon="6.94772">
        <ele>1053</ele>
        <time>2014-08-31T10:24:28Z</time>
      </trkpt>
      <trkpt lat="43.72429" lon="6.94774">
        <ele>1054</ele>
        <time>2014-08-31T10:24:33Z</time>
      </trkpt>
      <trkpt lat="43.72431" lon="6.94773">
        <ele>1054</ele>
        <time>2014-08-31T10:24:37Z</time>
      </trkpt>
      <trkpt lat="43.72431" lon="6.94772">
        <ele>1053</ele>
        <time>2014-08-31T10:24:42Z</time>
      </trkpt>
      <trkpt lat="43.7243" lon="6.94772">
        <ele>1052</ele>
        <time>2014-08-31T10:24:47Z</time>
      </trkpt>
      <trkpt lat="43.7243" lon="6.94772">
        <ele>1052</ele>
        <time>2014-08-31T10:24:53Z</time>
      </trkpt>
      <trkpt lat="43.72431" lon="6.94772">
        <ele>1052</ele>
        <time>2014-08-31T10:24:58Z</time>
      </trkpt>
      <trkpt lat="43.72431" lon="6.94774">
        <ele>1052</ele>
        <time>2014-08-31T10:25:03Z</time>
      </trkpt>
      <trkpt lat="43.72432" lon="6.94774">
        <ele>1053</ele>
        <time>2014-08-31T10:25:07Z</time>
      </trkpt>
      <trkpt lat="43.72433" lon="6.94773">
        <ele>1053</ele>
        <time>2014-08-31T10:25:12Z</time>
      </trkpt>
      <trkpt lat="43.72432" lon="6.94773">
        <ele>1053</ele>
        <time>2014-08-31T10:25:17Z</time>
      </trkpt>
      <trkpt lat="43.72432" lon="6.94773">
        <ele>1053</ele>
        <time>2014-08-31T10:25:23Z</time>
      </trkpt>
      <trkpt lat="43.72432" lon="6.94773">
        <ele>1053</ele>
        <time>2014-08-31T10:25:28Z</time>
      </trkpt>
      <trkpt lat="43.72432" lon="6.94773">
        <ele>1053</ele>
        <time>2014-08-31T10:25:33Z</time>
      </trkpt>
      <trkpt lat="43.72432" lon="6.94773">
        <ele>1053</ele>
        <time>2014-08-31T10:25:37Z</time>
      </trkpt>
      <trkpt lat="43.72432" lon="6.94773">
        <ele>1053</ele>
        <time>2014-08-31T10:25:42Z</time>
      </trkpt>
      <trkpt lat="43.72432" lon="6.94773">
        <ele>1052</ele>
        <time>2014-08-31T10:25:47Z</time>
      </trkpt>
      <trkpt lat="43.72432" lon="6.94773">
        <ele>1052</ele>
        <time>2014-08-31T10:25:52Z</time>
      </trkpt>
      <trkpt lat="43.72432" lon="6.94774">
        <ele>1053</ele>
        <time>2014-08-31T10:25:57Z</time>
      </trkpt>
      <trkpt lat="43.72432" lon="6.94773">
        <ele>1053</ele>
        <time>2014-08-31T10:26:02Z</time>
      </trkpt>
      <trkpt lat="43.72432" lon="6.94773">
        <ele>1053</ele>
        <time>2014-08-31T10:26:07Z</time>
      </trkpt>
      <trkpt lat="43.72432" lon="6.94773">
        <ele>1053</ele>
        <time>2014-08-31T10:26:12Z</time>
      </trkpt>
      <trkpt lat="43.72432" lon="6.94773">
        <ele>1053</ele>
        <time>2014-08-31T10:26:17Z</time>
      </trkpt>
      <trkpt lat="43.72432" lon="6.94773">
        <ele>1053</ele>
        <time>2014-08-31T10:26:22Z</time>
      </trkpt>
      <trkpt lat="43.72432" lon="6.94773">
        <ele>1053</ele>
        <time>2014-08-31T10:26:27Z</time>
      </trkpt>
      <trkpt lat="43.72432" lon="6.94773">
        <ele>1053</ele>
        <time>2014-08-31T10:26:32Z</time>
      </trkpt>
      <trkpt lat="43.72432" lon="6.94773">
        <ele>1053</ele>
        <time>2014-08-31T10:26:37Z</time>
      </trkpt>
      <trkpt lat="43.72432" lon="6.94773">
        <ele>1053</ele>
        <time>2014-08-31T10:26:43Z</time>
      </trkpt>
      <trkpt lat="43.72432" lon="6.94773">
        <ele>1053</ele>
        <time>2014-08-31T10:26:47Z</time>
      </trkpt>
      <trkpt lat="43.72432" lon="6.94773">
        <ele>1053</ele>
        <time>2014-08-31T10:26:52Z</time>
      </trkpt>
      <trkpt lat="43.72432" lon="6.94773">
        <ele>1053</ele>
        <time>2014-08-31T10:26:57Z</time>
      </trkpt>
      <trkpt lat="43.72432" lon="6.94773">
        <ele>1053</ele>
        <time>2014-08-31T10:27:02Z</time>
      </trkpt>
      <trkpt lat="43.72432" lon="6.94773">
        <ele>1053</ele>
        <time>2014-08-31T10:27:08Z</time>
      </trkpt>
      <trkpt lat="43.72432" lon="6.94773">
        <ele>1053</ele>
        <time>2014-08-31T10:27:12Z</time>
      </trkpt>
      <trkpt lat="43.72432" lon="6.94773">
        <ele>1052</ele>
        <time>2014-08-31T10:27:18Z</time>
      </trkpt>
      <trkpt lat="43.72433" lon="6.94773">
        <ele>1053</ele>
        <time>2014-08-31T10:27:22Z</time>
      </trkpt>
      <trkpt lat="43.72433" lon="6.94772">
        <ele>1055</ele>
        <time>2014-08-31T10:27:28Z</time>
      </trkpt>
      <trkpt lat="43.72433" lon="6.94772">
        <ele>1054</ele>
        <time>2014-08-31T10:27:32Z</time>
      </trkpt>
      <trkpt lat="43.72433" lon="6.94772">
        <ele>1054</ele>
        <time>2014-08-31T10:27:37Z</time>
      </trkpt>
      <trkpt lat="43.72433" lon="6.94772">
        <ele>1053</ele>
        <time>2014-08-31T10:27:42Z</time>
      </trkpt>
      <trkpt lat="43.72434" lon="6.94771">
        <ele>1053</ele>
        <time>2014-08-31T10:27:47Z</time>
      </trkpt>
      <trkpt lat="43.72434" lon="6.94771">
        <ele>1053</ele>
        <time>2014-08-31T10:27:52Z</time>
      </trkpt>
      <trkpt lat="43.72434" lon="6.9477">
        <ele>1053</ele>
        <time>2014-08-31T10:27:57Z</time>
      </trkpt>
      <trkpt lat="43.72434" lon="6.9477">
        <ele>1053</ele>
        <time>2014-08-31T10:28:02Z</time>
      </trkpt>
      <trkpt lat="43.72434" lon="6.9477">
        <ele>1053</ele>
        <time>2014-08-31T10:28:07Z</time>
      </trkpt>
      <trkpt lat="43.72434" lon="6.9477">
        <ele>1053</ele>
        <time>2014-08-31T10:28:12Z</time>
      </trkpt>
      <trkpt lat="43.72434" lon="6.9477">
        <ele>1053</ele>
        <time>2014-08-31T10:28:17Z</time>
      </trkpt>
      <trkpt lat="43.72434" lon="6.9477">
        <ele>1053</ele>
        <time>2014-08-31T10:28:22Z</time>
      </trkpt>
      <trkpt lat="43.72434" lon="6.9477">
        <ele>1053</ele>
        <time>2014-08-31T10:28:27Z</time>
      </trkpt>
      <trkpt lat="43.72434" lon="6.9477">
        <ele>1053</ele>
        <time>2014-08-31T10:28:32Z</time>
      </trkpt>
      <trkpt lat="43.72434" lon="6.9477">
        <ele>1053</ele>
        <time>2014-08-31T10:28:37Z</time>
      </trkpt>
      <trkpt lat="43.72434" lon="6.9477">
        <ele>1053</ele>
        <time>2014-08-31T10:28:42Z</time>
      </trkpt>
      <trkpt lat="43.72434" lon="6.9477">
        <ele>1053</ele>
        <time>2014-08-31T10:28:47Z</time>
      </trkpt>
      <trkpt lat="43.72434" lon="6.9477">
        <ele>1053</ele>
        <time>2014-08-31T10:28:53Z</time>
      </trkpt>
      <trkpt lat="43.72434" lon="6.9477">
        <ele>1053</ele>
        <time>2014-08-31T10:28:57Z</time>
      </trkpt>
      <trkpt lat="43.72434" lon="6.9477">
        <ele>1053</ele>
        <time>2014-08-31T10:29:03Z</time>
      </trkpt>
      <trkpt lat="43.72434" lon="6.9477">
        <ele>1053</ele>
        <time>2014-08-31T10:29:08Z</time>
      </trkpt>
      <trkpt lat="43.72434" lon="6.9477">
        <ele>1053</ele>
        <time>2014-08-31T10:29:15Z</time>
      </trkpt>
      <trkpt lat="43.72434" lon="6.9477">
        <ele>1053</ele>
        <time>2014-08-31T10:29:17Z</time>
      </trkpt>
      <trkpt lat="43.72433" lon="6.94771">
        <ele>1051</ele>
        <time>2014-08-31T10:29:22Z</time>
      </trkpt>
      <trkpt lat="43.72431" lon="6.94771">
        <ele>1051</ele>
        <time>2014-08-31T10:29:27Z</time>
      </trkpt>
      <trkpt lat="43.72431" lon="6.94771">
        <ele>1052</ele>
        <time>2014-08-31T10:29:32Z</time>
      </trkpt>
      <trkpt lat="43.72432" lon="6.94772">
        <ele>1052</ele>
        <time>2014-08-31T10:29:37Z</time>
      </trkpt>
      <trkpt lat="43.72432" lon="6.94772">
        <ele>1051</ele>
        <time>2014-08-31T10:29:42Z</time>
      </trkpt>
      <trkpt lat="43.72428" lon="6.94772">
        <ele>1051</ele>
        <time>2014-08-31T10:29:47Z</time>
      </trkpt>
      <trkpt lat="43.72404" lon="6.94765">
        <ele>1051</ele>
        <time>2014-08-31T10:29:52Z</time>
      </trkpt>
      <trkpt lat="43.72384" lon="6.94767">
        <ele>1050</ele>
        <time>2014-08-31T10:29:57Z</time>
      </trkpt>
      <trkpt lat="43.72365" lon="6.94765">
        <ele>1049</ele>
        <time>2014-08-31T10:30:02Z</time>
      </trkpt>
      <trkpt lat="43.72336" lon="6.94766">
        <ele>1045</ele>
        <time>2014-08-31T10:30:07Z</time>
      </trkpt>
      <trkpt lat="43.72291" lon="6.94752">
        <ele>1038</ele>
        <time>2014-08-31T10:30:12Z</time>
      </trkpt>
      <trkpt lat="43.7225" lon="6.94709">
        <ele>1037</ele>
        <time>2014-08-31T10:30:17Z</time>
      </trkpt>
      <trkpt lat="43.72215" lon="6.94676">
        <ele>1036</ele>
        <time>2014-08-31T10:30:22Z</time>
      </trkpt>
      <trkpt lat="43.72188" lon="6.94649">
        <ele>1035</ele>
        <time>2014-08-31T10:30:27Z</time>
      </trkpt>
      <trkpt lat="43.72163" lon="6.94615">
        <ele>1034</ele>
        <time>2014-08-31T10:30:33Z</time>
      </trkpt>
      <trkpt lat="43.72148" lon="6.94607">
        <ele>1032</ele>
        <time>2014-08-31T10:30:37Z</time>
      </trkpt>
      <trkpt lat="43.72129" lon="6.94603">
        <ele>1031</ele>
        <time>2014-08-31T10:30:42Z</time>
      </trkpt>
      <trkpt lat="43.72107" lon="6.94595">
        <ele>1031</ele>
        <time>2014-08-31T10:30:47Z</time>
      </trkpt>
      <trkpt lat="43.72086" lon="6.94584">
        <ele>1031</ele>
        <time>2014-08-31T10:30:52Z</time>
      </trkpt>
      <trkpt lat="43.72069" lon="6.94579">
        <ele>1031</ele>
        <time>2014-08-31T10:30:57Z</time>
      </trkpt>
      <trkpt lat="43.72051" lon="6.94576">
        <ele>1031</ele>
        <time>2014-08-31T10:31:03Z</time>
      </trkpt>
      <trkpt lat="43.72037" lon="6.94571">
        <ele>1032</ele>
        <time>2014-08-31T10:31:08Z</time>
      </trkpt>
      <trkpt lat="43.72024" lon="6.94574">
        <ele>1030</ele>
        <time>2014-08-31T10:31:13Z</time>
      </trkpt>
      <trkpt lat="43.72005" lon="6.94579">
        <ele>1027</ele>
        <time>2014-08-31T10:31:17Z</time>
      </trkpt>
      <trkpt lat="43.72001" lon="6.94584">
        <ele>1025</ele>
        <time>2014-08-31T10:31:22Z</time>
      </trkpt>
      <trkpt lat="43.71992" lon="6.94594">
        <ele>1024</ele>
        <time>2014-08-31T10:31:28Z</time>
      </trkpt>
      <trkpt lat="43.71977" lon="6.94583">
        <ele>1021</ele>
        <time>2014-08-31T10:31:32Z</time>
      </trkpt>
      <trkpt lat="43.71956" lon="6.94564">
        <ele>1019</ele>
        <time>2014-08-31T10:31:37Z</time>
      </trkpt>
      <trkpt lat="43.71934" lon="6.94552">
        <ele>1017</ele>
        <time>2014-08-31T10:31:42Z</time>
      </trkpt>
      <trkpt lat="43.71915" lon="6.94555">
        <ele>1017</ele>
        <time>2014-08-31T10:31:47Z</time>
      </trkpt>
      <trkpt lat="43.71897" lon="6.94579">
        <ele>1015</ele>
        <time>2014-08-31T10:31:52Z</time>
      </trkpt>
      <trkpt lat="43.7188" lon="6.94608">
        <ele>1013</ele>
        <time>2014-08-31T10:31:58Z</time>
      </trkpt>
      <trkpt lat="43.71873" lon="6.94605">
        <ele>1013</ele>
        <time>2014-08-31T10:32:02Z</time>
      </trkpt>
      <trkpt lat="43.71866" lon="6.94604">
        <ele>1010</ele>
        <time>2014-08-31T10:32:07Z</time>
      </trkpt>
      <trkpt lat="43.71853" lon="6.94614">
        <ele>1007</ele>
        <time>2014-08-31T10:32:12Z</time>
      </trkpt>
      <trkpt lat="43.71839" lon="6.94643">
        <ele>1002</ele>
        <time>2014-08-31T10:32:18Z</time>
      </trkpt>
      <trkpt lat="43.71825" lon="6.94655">
        <ele>998</ele>
        <time>2014-08-31T10:32:22Z</time>
      </trkpt>
      <trkpt lat="43.71794" lon="6.94674">
        <ele>995</ele>
        <time>2014-08-31T10:32:27Z</time>
      </trkpt>
      <trkpt lat="43.71753" lon="6.94698">
        <ele>991</ele>
        <time>2014-08-31T10:32:32Z</time>
      </trkpt>
      <trkpt lat="43.71725" lon="6.94756">
        <ele>988</ele>
        <time>2014-08-31T10:32:40Z</time>
      </trkpt>
      <trkpt lat="43.71725" lon="6.94768">
        <ele>988</ele>
        <time>2014-08-31T10:32:42Z</time>
      </trkpt>
      <trkpt lat="43.71727" lon="6.94789">
        <ele>985</ele>
        <time>2014-08-31T10:32:47Z</time>
      </trkpt>
      <trkpt lat="43.71722" lon="6.94812">
        <ele>984</ele>
        <time>2014-08-31T10:32:52Z</time>
      </trkpt>
      <trkpt lat="43.71715" lon="6.9484">
        <ele>984</ele>
        <time>2014-08-31T10:32:57Z</time>
      </trkpt>
      <trkpt lat="43.71704" lon="6.94865">
        <ele>984</ele>
        <time>2014-08-31T10:33:02Z</time>
      </trkpt>
      <trkpt lat="43.71692" lon="6.94893">
        <ele>983</ele>
        <time>2014-08-31T10:33:07Z</time>
      </trkpt>
      <trkpt lat="43.71685" lon="6.94922">
        <ele>982</ele>
        <time>2014-08-31T10:33:12Z</time>
      </trkpt>
      <trkpt lat="43.71675" lon="6.94946">
        <ele>980</ele>
        <time>2014-08-31T10:33:17Z</time>
      </trkpt>
      <trkpt lat="43.71657" lon="6.94965">
        <ele>978</ele>
        <time>2014-08-31T10:33:22Z</time>
      </trkpt>
      <trkpt lat="43.71648" lon="6.94986">
        <ele>979</ele>
        <time>2014-08-31T10:33:27Z</time>
      </trkpt>
      <trkpt lat="43.71646" lon="6.95001">
        <ele>979</ele>
        <time>2014-08-31T10:33:32Z</time>
      </trkpt>
      <trkpt lat="43.71649" lon="6.95013">
        <ele>979</ele>
        <time>2014-08-31T10:33:37Z</time>
      </trkpt>
      <trkpt lat="43.71652" lon="6.95022">
        <ele>979</ele>
        <time>2014-08-31T10:33:42Z</time>
      </trkpt>
      <trkpt lat="43.7165" lon="6.95035">
        <ele>979</ele>
        <time>2014-08-31T10:33:47Z</time>
      </trkpt>
      <trkpt lat="43.71646" lon="6.95052">
        <ele>979</ele>
        <time>2014-08-31T10:33:52Z</time>
      </trkpt>
      <trkpt lat="43.7164" lon="6.95068">
        <ele>979</ele>
        <time>2014-08-31T10:33:57Z</time>
      </trkpt>
      <trkpt lat="43.71632" lon="6.95085">
        <ele>979</ele>
        <time>2014-08-31T10:34:02Z</time>
      </trkpt>
      <trkpt lat="43.71626" lon="6.95103">
        <ele>980</ele>
        <time>2014-08-31T10:34:07Z</time>
      </trkpt>
      <trkpt lat="43.71617" lon="6.9512">
        <ele>978</ele>
        <time>2014-08-31T10:34:12Z</time>
      </trkpt>
      <trkpt lat="43.71601" lon="6.95138">
        <ele>978</ele>
        <time>2014-08-31T10:34:17Z</time>
      </trkpt>
      <trkpt lat="43.71584" lon="6.95156">
        <ele>978</ele>
        <time>2014-08-31T10:34:22Z</time>
      </trkpt>
      <trkpt lat="43.71573" lon="6.95169">
        <ele>978</ele>
        <time>2014-08-31T10:34:27Z</time>
      </trkpt>
      <trkpt lat="43.71561" lon="6.95178">
        <ele>976</ele>
        <time>2014-08-31T10:34:32Z</time>
      </trkpt>
      <trkpt lat="43.71539" lon="6.95188">
        <ele>973</ele>
        <time>2014-08-31T10:34:38Z</time>
      </trkpt>
      <trkpt lat="43.71517" lon="6.95187">
        <ele>971</ele>
        <time>2014-08-31T10:34:42Z</time>
      </trkpt>
      <trkpt lat="43.71497" lon="6.95183">
        <ele>969</ele>
        <time>2014-08-31T10:34:47Z</time>
      </trkpt>
      <trkpt lat="43.71474" lon="6.95177">
        <ele>965</ele>
        <time>2014-08-31T10:34:52Z</time>
      </trkpt>
      <trkpt lat="43.71448" lon="6.95173">
        <ele>962</ele>
        <time>2014-08-31T10:34:57Z</time>
      </trkpt>
      <trkpt lat="43.71426" lon="6.95177">
        <ele>959</ele>
        <time>2014-08-31T10:35:02Z</time>
      </trkpt>
      <trkpt lat="43.71401" lon="6.95187">
        <ele>954</ele>
        <time>2014-08-31T10:35:07Z</time>
      </trkpt>
      <trkpt lat="43.71374" lon="6.952">
        <ele>952</ele>
        <time>2014-08-31T10:35:12Z</time>
      </trkpt>
      <trkpt lat="43.71355" lon="6.95214">
        <ele>948</ele>
        <time>2014-08-31T10:35:17Z</time>
      </trkpt>
      <trkpt lat="43.71336" lon="6.95235">
        <ele>943</ele>
        <time>2014-08-31T10:35:22Z</time>
      </trkpt>
      <trkpt lat="43.71311" lon="6.95249">
        <ele>939</ele>
        <time>2014-08-31T10:35:27Z</time>
      </trkpt>
      <trkpt lat="43.71291" lon="6.95267">
        <ele>935</ele>
        <time>2014-08-31T10:35:32Z</time>
      </trkpt>
      <trkpt lat="43.71268" lon="6.95285">
        <ele>932</ele>
        <time>2014-08-31T10:35:38Z</time>
      </trkpt>
      <trkpt lat="43.71248" lon="6.95301">
        <ele>928</ele>
        <time>2014-08-31T10:35:42Z</time>
      </trkpt>
      <trkpt lat="43.71229" lon="6.95303">
        <ele>925</ele>
        <time>2014-08-31T10:35:47Z</time>
      </trkpt>
      <trkpt lat="43.71212" lon="6.95314">
        <ele>922</ele>
        <time>2014-08-31T10:35:52Z</time>
      </trkpt>
      <trkpt lat="43.7119" lon="6.95317">
        <ele>921</ele>
        <time>2014-08-31T10:35:57Z</time>
      </trkpt>
      <trkpt lat="43.71176" lon="6.95328">
        <ele>920</ele>
        <time>2014-08-31T10:36:02Z</time>
      </trkpt>
      <trkpt lat="43.7117" lon="6.95331">
        <ele>919</ele>
        <time>2014-08-31T10:36:07Z</time>
      </trkpt>
      <trkpt lat="43.71171" lon="6.95331">
        <ele>918</ele>
        <time>2014-08-31T10:36:12Z</time>
      </trkpt>
      <trkpt lat="43.71171" lon="6.95331">
        <ele>918</ele>
        <time>2014-08-31T10:36:17Z</time>
      </trkpt>
      <trkpt lat="43.7117" lon="6.95331">
        <ele>918</ele>
        <time>2014-08-31T10:36:22Z</time>
      </trkpt>
      <trkpt lat="43.71171" lon="6.9533">
        <ele>918</ele>
        <time>2014-08-31T10:36:27Z</time>
      </trkpt>
      <trkpt lat="43.71171" lon="6.95331">
        <ele>918</ele>
        <time>2014-08-31T10:36:32Z</time>
      </trkpt>
      <trkpt lat="43.71171" lon="6.95331">
        <ele>918</ele>
        <time>2014-08-31T10:36:37Z</time>
      </trkpt>
      <trkpt lat="43.71171" lon="6.95331">
        <ele>918</ele>
        <time>2014-08-31T10:36:42Z</time>
      </trkpt>
      <trkpt lat="43.71171" lon="6.95331">
        <ele>918</ele>
        <time>2014-08-31T10:36:47Z</time>
      </trkpt>
      <trkpt lat="43.71171" lon="6.95331">
        <ele>918</ele>
        <time>2014-08-31T10:36:52Z</time>
      </trkpt>
      <trkpt lat="43.71171" lon="6.95331">
        <ele>918</ele>
        <time>2014-08-31T10:36:57Z</time>
      </trkpt>
      <trkpt lat="43.71171" lon="6.95331">
        <ele>918</ele>
        <time>2014-08-31T10:37:02Z</time>
      </trkpt>
      <trkpt lat="43.71171" lon="6.95331">
        <ele>918</ele>
        <time>2014-08-31T10:37:07Z</time>
      </trkpt>
      <trkpt lat="43.71171" lon="6.95331">
        <ele>918</ele>
        <time>2014-08-31T10:37:12Z</time>
      </trkpt>
      <trkpt lat="43.71171" lon="6.95331">
        <ele>918</ele>
        <time>2014-08-31T10:37:17Z</time>
      </trkpt>
      <trkpt lat="43.71171" lon="6.95331">
        <ele>918</ele>
        <time>2014-08-31T10:37:22Z</time>
      </trkpt>
      <trkpt lat="43.71171" lon="6.95331">
        <ele>918</ele>
        <time>2014-08-31T10:37:27Z</time>
      </trkpt>
      <trkpt lat="43.71171" lon="6.95331">
        <ele>918</ele>
        <time>2014-08-31T10:37:32Z</time>
      </trkpt>
      <trkpt lat="43.71171" lon="6.95331">
        <ele>918</ele>
        <time>2014-08-31T10:37:37Z</time>
      </trkpt>
      <trkpt lat="43.71171" lon="6.95331">
        <ele>918</ele>
        <time>2014-08-31T10:37:42Z</time>
      </trkpt>
      <trkpt lat="43.71171" lon="6.95331">
        <ele>918</ele>
        <time>2014-08-31T10:37:48Z</time>
      </trkpt>
      <trkpt lat="43.71171" lon="6.95331">
        <ele>918</ele>
        <time>2014-08-31T10:37:52Z</time>
      </trkpt>
      <trkpt lat="43.71171" lon="6.95331">
        <ele>918</ele>
        <time>2014-08-31T10:37:57Z</time>
      </trkpt>
      <trkpt lat="43.71171" lon="6.95331">
        <ele>918</ele>
        <time>2014-08-31T10:38:02Z</time>
      </trkpt>
      <trkpt lat="43.71171" lon="6.95331">
        <ele>918</ele>
        <time>2014-08-31T10:38:08Z</time>
      </trkpt>
      <trkpt lat="43.71171" lon="6.95331">
        <ele>918</ele>
        <time>2014-08-31T10:38:13Z</time>
      </trkpt>
      <trkpt lat="43.71171" lon="6.95331">
        <ele>918</ele>
        <time>2014-08-31T10:38:17Z</time>
      </trkpt>
      <trkpt lat="43.71171" lon="6.95331">
        <ele>918</ele>
        <time>2014-08-31T10:38:22Z</time>
      </trkpt>
      <trkpt lat="43.71171" lon="6.95331">
        <ele>918</ele>
        <time>2014-08-31T10:38:27Z</time>
      </trkpt>
      <trkpt lat="43.71171" lon="6.95331">
        <ele>918</ele>
        <time>2014-08-31T10:38:32Z</time>
      </trkpt>
      <trkpt lat="43.71171" lon="6.95331">
        <ele>918</ele>
        <time>2014-08-31T10:38:37Z</time>
      </trkpt>
      <trkpt lat="43.71171" lon="6.95331">
        <ele>918</ele>
        <time>2014-08-31T10:38:42Z</time>
      </trkpt>
      <trkpt lat="43.71171" lon="6.95331">
        <ele>918</ele>
        <time>2014-08-31T10:38:47Z</time>
      </trkpt>
      <trkpt lat="43.71171" lon="6.95331">
        <ele>918</ele>
        <time>2014-08-31T10:38:52Z</time>
      </trkpt>
      <trkpt lat="43.71171" lon="6.95331">
        <ele>918</ele>
        <time>2014-08-31T10:38:57Z</time>
      </trkpt>
      <trkpt lat="43.71171" lon="6.95331">
        <ele>918</ele>
        <time>2014-08-31T10:39:02Z</time>
      </trkpt>
      <trkpt lat="43.71171" lon="6.95331">
        <ele>918</ele>
        <time>2014-08-31T10:39:07Z</time>
      </trkpt>
      <trkpt lat="43.71171" lon="6.95331">
        <ele>918</ele>
        <time>2014-08-31T10:39:12Z</time>
      </trkpt>
      <trkpt lat="43.71171" lon="6.95331">
        <ele>918</ele>
        <time>2014-08-31T10:39:17Z</time>
      </trkpt>
      <trkpt lat="43.71171" lon="6.95331">
        <ele>918</ele>
        <time>2014-08-31T10:39:22Z</time>
      </trkpt>
      <trkpt lat="43.71171" lon="6.95331">
        <ele>918</ele>
        <time>2014-08-31T10:39:27Z</time>
      </trkpt>
      <trkpt lat="43.71171" lon="6.95331">
        <ele>918</ele>
        <time>2014-08-31T10:39:32Z</time>
      </trkpt>
      <trkpt lat="43.71171" lon="6.95331">
        <ele>918</ele>
        <time>2014-08-31T10:39:37Z</time>
      </trkpt>
      <trkpt lat="43.71171" lon="6.95331">
        <ele>918</ele>
        <time>2014-08-31T10:39:42Z</time>
      </trkpt>
      <trkpt lat="43.71171" lon="6.95331">
        <ele>918</ele>
        <time>2014-08-31T10:39:47Z</time>
      </trkpt>
      <trkpt lat="43.71171" lon="6.95331">
        <ele>918</ele>
        <time>2014-08-31T10:39:52Z</time>
      </trkpt>
      <trkpt lat="43.71171" lon="6.95331">
        <ele>918</ele>
        <time>2014-08-31T10:39:57Z</time>
      </trkpt>
      <trkpt lat="43.71171" lon="6.95331">
        <ele>918</ele>
        <time>2014-08-31T10:40:02Z</time>
      </trkpt>
      <trkpt lat="43.71171" lon="6.95331">
        <ele>918</ele>
        <time>2014-08-31T10:40:07Z</time>
      </trkpt>
      <trkpt lat="43.71171" lon="6.95331">
        <ele>918</ele>
        <time>2014-08-31T10:40:12Z</time>
      </trkpt>
      <trkpt lat="43.71171" lon="6.95331">
        <ele>918</ele>
        <time>2014-08-31T10:40:17Z</time>
      </trkpt>
      <trkpt lat="43.71171" lon="6.95331">
        <ele>918</ele>
        <time>2014-08-31T10:40:22Z</time>
      </trkpt>
      <trkpt lat="43.71171" lon="6.95331">
        <ele>918</ele>
        <time>2014-08-31T10:40:27Z</time>
      </trkpt>
      <trkpt lat="43.71171" lon="6.95331">
        <ele>918</ele>
        <time>2014-08-31T10:40:32Z</time>
      </trkpt>
      <trkpt lat="43.71171" lon="6.95331">
        <ele>918</ele>
        <time>2014-08-31T10:40:37Z</time>
      </trkpt>
      <trkpt lat="43.71171" lon="6.95331">
        <ele>918</ele>
        <time>2014-08-31T10:40:42Z</time>
      </trkpt>
      <trkpt lat="43.71171" lon="6.95331">
        <ele>918</ele>
        <time>2014-08-31T10:40:47Z</time>
      </trkpt>
      <trkpt lat="43.71171" lon="6.95331">
        <ele>918</ele>
        <time>2014-08-31T10:40:52Z</time>
      </trkpt>
      <trkpt lat="43.71171" lon="6.95331">
        <ele>918</ele>
        <time>2014-08-31T10:40:57Z</time>
      </trkpt>
      <trkpt lat="43.71171" lon="6.9533">
        <ele>918</ele>
        <time>2014-08-31T10:41:02Z</time>
      </trkpt>
      <trkpt lat="43.71171" lon="6.9533">
        <ele>918</ele>
        <time>2014-08-31T10:41:07Z</time>
      </trkpt>
      <trkpt lat="43.71171" lon="6.9533">
        <ele>918</ele>
        <time>2014-08-31T10:41:12Z</time>
      </trkpt>
      <trkpt lat="43.71171" lon="6.9533">
        <ele>918</ele>
        <time>2014-08-31T10:41:17Z</time>
      </trkpt>
      <trkpt lat="43.71171" lon="6.9533">
        <ele>918</ele>
        <time>2014-08-31T10:41:22Z</time>
      </trkpt>
      <trkpt lat="43.71171" lon="6.9533">
        <ele>918</ele>
        <time>2014-08-31T10:41:27Z</time>
      </trkpt>
      <trkpt lat="43.71171" lon="6.9533">
        <ele>918</ele>
        <time>2014-08-31T10:41:32Z</time>
      </trkpt>
      <trkpt lat="43.71171" lon="6.9533">
        <ele>918</ele>
        <time>2014-08-31T10:41:37Z</time>
      </trkpt>
      <trkpt lat="43.71171" lon="6.9533">
        <ele>918</ele>
        <time>2014-08-31T10:41:42Z</time>
      </trkpt>
      <trkpt lat="43.71171" lon="6.9533">
        <ele>918</ele>
        <time>2014-08-31T10:41:47Z</time>
      </trkpt>
      <trkpt lat="43.71171" lon="6.9533">
        <ele>918</ele>
        <time>2014-08-31T10:41:52Z</time>
      </trkpt>
      <trkpt lat="43.71171" lon="6.9533">
        <ele>918</ele>
        <time>2014-08-31T10:41:57Z</time>
      </trkpt>
      <trkpt lat="43.71171" lon="6.9533">
        <ele>918</ele>
        <time>2014-08-31T10:42:02Z</time>
      </trkpt>
      <trkpt lat="43.71171" lon="6.9533">
        <ele>918</ele>
        <time>2014-08-31T10:42:07Z</time>
      </trkpt>
      <trkpt lat="43.71171" lon="6.9533">
        <ele>918</ele>
        <time>2014-08-31T10:42:13Z</time>
      </trkpt>
      <trkpt lat="43.71171" lon="6.9533">
        <ele>918</ele>
        <time>2014-08-31T10:42:17Z</time>
      </trkpt>
      <trkpt lat="43.71171" lon="6.9533">
        <ele>918</ele>
        <time>2014-08-31T10:42:22Z</time>
      </trkpt>
      <trkpt lat="43.71171" lon="6.9533">
        <ele>918</ele>
        <time>2014-08-31T10:42:27Z</time>
      </trkpt>
      <trkpt lat="43.71171" lon="6.9533">
        <ele>918</ele>
        <time>2014-08-31T10:42:32Z</time>
      </trkpt>
      <trkpt lat="43.71171" lon="6.9533">
        <ele>918</ele>
        <time>2014-08-31T10:42:37Z</time>
      </trkpt>
      <trkpt lat="43.71171" lon="6.9533">
        <ele>918</ele>
        <time>2014-08-31T10:42:42Z</time>
      </trkpt>
      <trkpt lat="43.71171" lon="6.9533">
        <ele>918</ele>
        <time>2014-08-31T10:42:47Z</time>
      </trkpt>
      <trkpt lat="43.71171" lon="6.9533">
        <ele>918</ele>
        <time>2014-08-31T10:42:52Z</time>
      </trkpt>
      <trkpt lat="43.71171" lon="6.9533">
        <ele>918</ele>
        <time>2014-08-31T10:42:57Z</time>
      </trkpt>
      <trkpt lat="43.71171" lon="6.9533">
        <ele>918</ele>
        <time>2014-08-31T10:43:02Z</time>
      </trkpt>
      <trkpt lat="43.71171" lon="6.9533">
        <ele>918</ele>
        <time>2014-08-31T10:43:07Z</time>
      </trkpt>
      <trkpt lat="43.71171" lon="6.9533">
        <ele>918</ele>
        <time>2014-08-31T10:43:12Z</time>
      </trkpt>
      <trkpt lat="43.71171" lon="6.9533">
        <ele>918</ele>
        <time>2014-08-31T10:43:17Z</time>
      </trkpt>
      <trkpt lat="43.71171" lon="6.9533">
        <ele>918</ele>
        <time>2014-08-31T10:43:22Z</time>
      </trkpt>
      <trkpt lat="43.71171" lon="6.9533">
        <ele>918</ele>
        <time>2014-08-31T10:43:30Z</time>
      </trkpt>
      <trkpt lat="43.71171" lon="6.9533">
        <ele>918</ele>
        <time>2014-08-31T10:43:33Z</time>
      </trkpt>
      <trkpt lat="43.71171" lon="6.9533">
        <ele>918</ele>
        <time>2014-08-31T10:43:38Z</time>
      </trkpt>
      <trkpt lat="43.71172" lon="6.9533">
        <ele>918</ele>
        <time>2014-08-31T10:43:42Z</time>
      </trkpt>
      <trkpt lat="43.71172" lon="6.9533">
        <ele>918</ele>
        <time>2014-08-31T10:43:47Z</time>
      </trkpt>
      <trkpt lat="43.71172" lon="6.9533">
        <ele>918</ele>
        <time>2014-08-31T10:43:53Z</time>
      </trkpt>
      <trkpt lat="43.71172" lon="6.9533">
        <ele>918</ele>
        <time>2014-08-31T10:43:57Z</time>
      </trkpt>
      <trkpt lat="43.71172" lon="6.9533">
        <ele>918</ele>
        <time>2014-08-31T10:44:02Z</time>
      </trkpt>
      <trkpt lat="43.71172" lon="6.9533">
        <ele>918</ele>
        <time>2014-08-31T10:44:07Z</time>
      </trkpt>
      <trkpt lat="43.71172" lon="6.9533">
        <ele>918</ele>
        <time>2014-08-31T10:44:12Z</time>
      </trkpt>
      <trkpt lat="43.71172" lon="6.9533">
        <ele>918</ele>
        <time>2014-08-31T10:44:17Z</time>
      </trkpt>
      <trkpt lat="43.71172" lon="6.9533">
        <ele>918</ele>
        <time>2014-08-31T10:44:22Z</time>
      </trkpt>
      <trkpt lat="43.71172" lon="6.9533">
        <ele>918</ele>
        <time>2014-08-31T10:44:27Z</time>
      </trkpt>
      <trkpt lat="43.71172" lon="6.9533">
        <ele>918</ele>
        <time>2014-08-31T10:44:32Z</time>
      </trkpt>
      <trkpt lat="43.71172" lon="6.9533">
        <ele>918</ele>
        <time>2014-08-31T10:44:37Z</time>
      </trkpt>
      <trkpt lat="43.71172" lon="6.9533">
        <ele>918</ele>
        <time>2014-08-31T10:44:42Z</time>
      </trkpt>
      <trkpt lat="43.71172" lon="6.9533">
        <ele>918</ele>
        <time>2014-08-31T10:44:47Z</time>
      </trkpt>
      <trkpt lat="43.71172" lon="6.9533">
        <ele>918</ele>
        <time>2014-08-31T10:44:52Z</time>
      </trkpt>
      <trkpt lat="43.71172" lon="6.9533">
        <ele>918</ele>
        <time>2014-08-31T10:44:57Z</time>
      </trkpt>
      <trkpt lat="43.71172" lon="6.9533">
        <ele>918</ele>
        <time>2014-08-31T10:45:02Z</time>
      </trkpt>
      <trkpt lat="43.71172" lon="6.9533">
        <ele>918</ele>
        <time>2014-08-31T10:45:07Z</time>
      </trkpt>
      <trkpt lat="43.71172" lon="6.9533">
        <ele>918</ele>
        <time>2014-08-31T10:45:12Z</time>
      </trkpt>
      <trkpt lat="43.71172" lon="6.9533">
        <ele>918</ele>
        <time>2014-08-31T10:45:17Z</time>
      </trkpt>
      <trkpt lat="43.71172" lon="6.9533">
        <ele>918</ele>
        <time>2014-08-31T10:45:22Z</time>
      </trkpt>
      <trkpt lat="43.71172" lon="6.9533">
        <ele>918</ele>
        <time>2014-08-31T10:45:27Z</time>
      </trkpt>
      <trkpt lat="43.71172" lon="6.9533">
        <ele>918</ele>
        <time>2014-08-31T10:45:32Z</time>
      </trkpt>
      <trkpt lat="43.71172" lon="6.9533">
        <ele>918</ele>
        <time>2014-08-31T10:45:37Z</time>
      </trkpt>
      <trkpt lat="43.71172" lon="6.9533">
        <ele>918</ele>
        <time>2014-08-31T10:45:42Z</time>
      </trkpt>
      <trkpt lat="43.71172" lon="6.9533">
        <ele>918</ele>
        <time>2014-08-31T10:45:47Z</time>
      </trkpt>
      <trkpt lat="43.71172" lon="6.9533">
        <ele>918</ele>
        <time>2014-08-31T10:45:52Z</time>
      </trkpt>
      <trkpt lat="43.71172" lon="6.9533">
        <ele>918</ele>
        <time>2014-08-31T10:45:57Z</time>
      </trkpt>
      <trkpt lat="43.71172" lon="6.9533">
        <ele>918</ele>
        <time>2014-08-31T10:46:04Z</time>
      </trkpt>
      <trkpt lat="43.71172" lon="6.9533">
        <ele>918</ele>
        <time>2014-08-31T10:46:07Z</time>
      </trkpt>
      <trkpt lat="43.71172" lon="6.9533">
        <ele>918</ele>
        <time>2014-08-31T10:46:12Z</time>
      </trkpt>
      <trkpt lat="43.71172" lon="6.9533">
        <ele>918</ele>
        <time>2014-08-31T10:46:17Z</time>
      </trkpt>
      <trkpt lat="43.71172" lon="6.9533">
        <ele>918</ele>
        <time>2014-08-31T10:46:22Z</time>
      </trkpt>
      <trkpt lat="43.71172" lon="6.9533">
        <ele>918</ele>
        <time>2014-08-31T10:46:27Z</time>
      </trkpt>
      <trkpt lat="43.71172" lon="6.9533">
        <ele>918</ele>
        <time>2014-08-31T10:46:32Z</time>
      </trkpt>
      <trkpt lat="43.71172" lon="6.95331">
        <ele>919</ele>
        <time>2014-08-31T10:46:37Z</time>
      </trkpt>
      <trkpt lat="43.71171" lon="6.95331">
        <ele>919</ele>
        <time>2014-08-31T10:46:42Z</time>
      </trkpt>
      <trkpt lat="43.71171" lon="6.9533">
        <ele>919</ele>
        <time>2014-08-31T10:46:47Z</time>
      </trkpt>
      <trkpt lat="43.71171" lon="6.9533">
        <ele>919</ele>
        <time>2014-08-31T10:46:52Z</time>
      </trkpt>
      <trkpt lat="43.71171" lon="6.9533">
        <ele>918</ele>
        <time>2014-08-31T10:46:57Z</time>
      </trkpt>
      <trkpt lat="43.7117" lon="6.95331">
        <ele>916</ele>
        <time>2014-08-31T10:47:02Z</time>
      </trkpt>
      <trkpt lat="43.71171" lon="6.95331">
        <ele>918</ele>
        <time>2014-08-31T10:47:07Z</time>
      </trkpt>
      <trkpt lat="43.71171" lon="6.95331">
        <ele>919</ele>
        <time>2014-08-31T10:47:12Z</time>
      </trkpt>
      <trkpt lat="43.71171" lon="6.95331">
        <ele>919</ele>
        <time>2014-08-31T10:47:17Z</time>
      </trkpt>
      <trkpt lat="43.71171" lon="6.9533">
        <ele>919</ele>
        <time>2014-08-31T10:47:22Z</time>
      </trkpt>
      <trkpt lat="43.71171" lon="6.95331">
        <ele>920</ele>
        <time>2014-08-31T10:47:27Z</time>
      </trkpt>
      <trkpt lat="43.71165" lon="6.95333">
        <ele>918</ele>
        <time>2014-08-31T10:47:32Z</time>
      </trkpt>
      <trkpt lat="43.71146" lon="6.95345">
        <ele>914</ele>
        <time>2014-08-31T10:47:37Z</time>
      </trkpt>
      <trkpt lat="43.71125" lon="6.95362">
        <ele>909</ele>
        <time>2014-08-31T10:47:42Z</time>
      </trkpt>
      <trkpt lat="43.71106" lon="6.95384">
        <ele>903</ele>
        <time>2014-08-31T10:47:47Z</time>
      </trkpt>
      <trkpt lat="43.71086" lon="6.95393">
        <ele>897</ele>
        <time>2014-08-31T10:47:52Z</time>
      </trkpt>
      <trkpt lat="43.71072" lon="6.95395">
        <ele>893</ele>
        <time>2014-08-31T10:47:57Z</time>
      </trkpt>
      <trkpt lat="43.7106" lon="6.95392">
        <ele>893</ele>
        <time>2014-08-31T10:48:02Z</time>
      </trkpt>
      <trkpt lat="43.71043" lon="6.9539">
        <ele>891</ele>
        <time>2014-08-31T10:48:08Z</time>
      </trkpt>
      <trkpt lat="43.71027" lon="6.954">
        <ele>889</ele>
        <time>2014-08-31T10:48:12Z</time>
      </trkpt>
      <trkpt lat="43.71004" lon="6.95413">
        <ele>887</ele>
        <time>2014-08-31T10:48:17Z</time>
      </trkpt>
      <trkpt lat="43.70983" lon="6.95422">
        <ele>883</ele>
        <time>2014-08-31T10:48:22Z</time>
      </trkpt>
      <trkpt lat="43.7096" lon="6.9544">
        <ele>874</ele>
        <time>2014-08-31T10:48:30Z</time>
      </trkpt>
      <trkpt lat="43.70955" lon="6.95445">
        <ele>872</ele>
        <time>2014-08-31T10:48:32Z</time>
      </trkpt>
      <trkpt lat="43.70945" lon="6.95448">
        <ele>869</ele>
        <time>2014-08-31T10:48:41Z</time>
      </trkpt>
      <trkpt lat="43.70945" lon="6.95448">
        <ele>869</ele>
        <time>2014-08-31T10:48:42Z</time>
      </trkpt>
      <trkpt lat="43.70945" lon="6.95448">
        <ele>870</ele>
        <time>2014-08-31T10:48:47Z</time>
      </trkpt>
      <trkpt lat="43.70944" lon="6.95448">
        <ele>870</ele>
        <time>2014-08-31T10:48:52Z</time>
      </trkpt>
      <trkpt lat="43.70944" lon="6.95448">
        <ele>870</ele>
        <time>2014-08-31T10:48:57Z</time>
      </trkpt>
      <trkpt lat="43.70944" lon="6.95448">
        <ele>870</ele>
        <time>2014-08-31T10:49:02Z</time>
      </trkpt>
      <trkpt lat="43.70944" lon="6.95449">
        <ele>869</ele>
        <time>2014-08-31T10:49:07Z</time>
      </trkpt>
      <trkpt lat="43.70944" lon="6.95449">
        <ele>869</ele>
        <time>2014-08-31T10:49:12Z</time>
      </trkpt>
      <trkpt lat="43.70944" lon="6.95449">
        <ele>869</ele>
        <time>2014-08-31T10:49:17Z</time>
      </trkpt>
      <trkpt lat="43.70944" lon="6.95449">
        <ele>869</ele>
        <time>2014-08-31T10:49:22Z</time>
      </trkpt>
      <trkpt lat="43.70944" lon="6.95449">
        <ele>869</ele>
        <time>2014-08-31T10:49:27Z</time>
      </trkpt>
      <trkpt lat="43.70944" lon="6.95449">
        <ele>869</ele>
        <time>2014-08-31T10:49:32Z</time>
      </trkpt>
      <trkpt lat="43.70944" lon="6.95449">
        <ele>869</ele>
        <time>2014-08-31T10:49:37Z</time>
      </trkpt>
      <trkpt lat="43.70944" lon="6.95449">
        <ele>869</ele>
        <time>2014-08-31T10:49:42Z</time>
      </trkpt>
      <trkpt lat="43.70944" lon="6.95449">
        <ele>869</ele>
        <time>2014-08-31T10:49:47Z</time>
      </trkpt>
      <trkpt lat="43.70944" lon="6.95449">
        <ele>869</ele>
        <time>2014-08-31T10:49:52Z</time>
      </trkpt>
      <trkpt lat="43.70944" lon="6.95449">
        <ele>869</ele>
        <time>2014-08-31T10:49:57Z</time>
      </trkpt>
      <trkpt lat="43.70944" lon="6.95449">
        <ele>869</ele>
        <time>2014-08-31T10:50:02Z</time>
      </trkpt>
      <trkpt lat="43.70944" lon="6.95449">
        <ele>869</ele>
        <time>2014-08-31T10:50:07Z</time>
      </trkpt>
      <trkpt lat="43.70944" lon="6.95449">
        <ele>869</ele>
        <time>2014-08-31T10:50:12Z</time>
      </trkpt>
      <trkpt lat="43.70944" lon="6.95449">
        <ele>869</ele>
        <time>2014-08-31T10:50:17Z</time>
      </trkpt>
      <trkpt lat="43.70944" lon="6.95449">
        <ele>869</ele>
        <time>2014-08-31T10:50:22Z</time>
      </trkpt>
      <trkpt lat="43.70944" lon="6.95449">
        <ele>869</ele>
        <time>2014-08-31T10:50:27Z</time>
      </trkpt>
      <trkpt lat="43.70944" lon="6.95449">
        <ele>869</ele>
        <time>2014-08-31T10:50:32Z</time>
      </trkpt>
      <trkpt lat="43.70944" lon="6.95449">
        <ele>869</ele>
        <time>2014-08-31T10:50:37Z</time>
      </trkpt>
      <trkpt lat="43.70944" lon="6.95449">
        <ele>869</ele>
        <time>2014-08-31T10:50:42Z</time>
      </trkpt>
      <trkpt lat="43.70944" lon="6.95449">
        <ele>868</ele>
        <time>2014-08-31T10:50:47Z</time>
      </trkpt>
      <trkpt lat="43.70944" lon="6.9545">
        <ele>868</ele>
        <time>2014-08-31T10:50:52Z</time>
      </trkpt>
      <trkpt lat="43.70944" lon="6.9545">
        <ele>868</ele>
        <time>2014-08-31T10:50:57Z</time>
      </trkpt>
      <trkpt lat="43.70944" lon="6.9545">
        <ele>868</ele>
        <time>2014-08-31T10:51:02Z</time>
      </trkpt>
      <trkpt lat="43.70944" lon="6.9545">
        <ele>868</ele>
        <time>2014-08-31T10:51:07Z</time>
      </trkpt>
      <trkpt lat="43.70944" lon="6.9545">
        <ele>868</ele>
        <time>2014-08-31T10:51:12Z</time>
      </trkpt>
      <trkpt lat="43.70946" lon="6.95449">
        <ele>870</ele>
        <time>2014-08-31T10:51:17Z</time>
      </trkpt>
      <trkpt lat="43.70948" lon="6.95449">
        <ele>869</ele>
        <time>2014-08-31T10:51:22Z</time>
      </trkpt>
      <trkpt lat="43.70948" lon="6.95448">
        <ele>868</ele>
        <time>2014-08-31T10:51:27Z</time>
      </trkpt>
      <trkpt lat="43.70948" lon="6.95448">
        <ele>868</ele>
        <time>2014-08-31T10:51:32Z</time>
      </trkpt>
      <trkpt lat="43.70948" lon="6.95448">
        <ele>868</ele>
        <time>2014-08-31T10:51:37Z</time>
      </trkpt>
      <trkpt lat="43.70948" lon="6.95448">
        <ele>868</ele>
        <time>2014-08-31T10:51:42Z</time>
      </trkpt>
      <trkpt lat="43.70948" lon="6.95448">
        <ele>868</ele>
        <time>2014-08-31T10:51:47Z</time>
      </trkpt>
      <trkpt lat="43.70948" lon="6.95448">
        <ele>868</ele>
        <time>2014-08-31T10:51:52Z</time>
      </trkpt>
      <trkpt lat="43.70948" lon="6.95448">
        <ele>868</ele>
        <time>2014-08-31T10:51:57Z</time>
      </trkpt>
      <trkpt lat="43.70948" lon="6.95448">
        <ele>868</ele>
        <time>2014-08-31T10:52:02Z</time>
      </trkpt>
      <trkpt lat="43.70948" lon="6.95448">
        <ele>868</ele>
        <time>2014-08-31T10:52:07Z</time>
      </trkpt>
      <trkpt lat="43.70948" lon="6.95448">
        <ele>868</ele>
        <time>2014-08-31T10:52:12Z</time>
      </trkpt>
      <trkpt lat="43.70948" lon="6.95448">
        <ele>868</ele>
        <time>2014-08-31T10:52:17Z</time>
      </trkpt>
      <trkpt lat="43.70948" lon="6.95448">
        <ele>868</ele>
        <time>2014-08-31T10:52:22Z</time>
      </trkpt>
      <trkpt lat="43.70948" lon="6.95448">
        <ele>868</ele>
        <time>2014-08-31T10:52:27Z</time>
      </trkpt>
      <trkpt lat="43.70948" lon="6.95448">
        <ele>868</ele>
        <time>2014-08-31T10:52:32Z</time>
      </trkpt>
      <trkpt lat="43.70948" lon="6.95448">
        <ele>868</ele>
        <time>2014-08-31T10:52:37Z</time>
      </trkpt>
      <trkpt lat="43.70948" lon="6.95448">
        <ele>868</ele>
        <time>2014-08-31T10:52:42Z</time>
      </trkpt>
      <trkpt lat="43.70946" lon="6.95449">
        <ele>868</ele>
        <time>2014-08-31T10:52:47Z</time>
      </trkpt>
      <trkpt lat="43.70946" lon="6.95449">
        <ele>868</ele>
        <time>2014-08-31T10:52:52Z</time>
      </trkpt>
      <trkpt lat="43.70946" lon="6.95449">
        <ele>868</ele>
        <time>2014-08-31T10:52:57Z</time>
      </trkpt>
      <trkpt lat="43.70946" lon="6.95449">
        <ele>868</ele>
        <time>2014-08-31T10:53:02Z</time>
      </trkpt>
      <trkpt lat="43.70946" lon="6.95449">
        <ele>868</ele>
        <time>2014-08-31T10:53:07Z</time>
      </trkpt>
      <trkpt lat="43.70946" lon="6.95449">
        <ele>868</ele>
        <time>2014-08-31T10:53:12Z</time>
      </trkpt>
      <trkpt lat="43.70946" lon="6.95449">
        <ele>868</ele>
        <time>2014-08-31T10:53:17Z</time>
      </trkpt>
      <trkpt lat="43.70946" lon="6.95449">
        <ele>868</ele>
        <time>2014-08-31T10:53:22Z</time>
      </trkpt>
      <trkpt lat="43.70946" lon="6.95449">
        <ele>868</ele>
        <time>2014-08-31T10:53:27Z</time>
      </trkpt>
      <trkpt lat="43.70946" lon="6.95449">
        <ele>868</ele>
        <time>2014-08-31T10:53:32Z</time>
      </trkpt>
      <trkpt lat="43.70946" lon="6.95449">
        <ele>868</ele>
        <time>2014-08-31T10:53:37Z</time>
      </trkpt>
      <trkpt lat="43.70946" lon="6.95449">
        <ele>868</ele>
        <time>2014-08-31T10:53:46Z</time>
      </trkpt>
      <trkpt lat="43.70946" lon="6.95449">
        <ele>868</ele>
        <time>2014-08-31T10:53:47Z</time>
      </trkpt>
      <trkpt lat="43.70946" lon="6.95449">
        <ele>871</ele>
        <time>2014-08-31T10:53:52Z</time>
      </trkpt>
      <trkpt lat="43.70946" lon="6.95448">
        <ele>870</ele>
        <time>2014-08-31T10:53:57Z</time>
      </trkpt>
      <trkpt lat="43.70946" lon="6.95448">
        <ele>869</ele>
        <time>2014-08-31T10:54:02Z</time>
      </trkpt>
      <trkpt lat="43.70946" lon="6.95448">
        <ele>869</ele>
        <time>2014-08-31T10:54:07Z</time>
      </trkpt>
      <trkpt lat="43.70946" lon="6.95448">
        <ele>869</ele>
        <time>2014-08-31T10:54:12Z</time>
      </trkpt>
      <trkpt lat="43.70946" lon="6.95448">
        <ele>869</ele>
        <time>2014-08-31T10:54:17Z</time>
      </trkpt>
      <trkpt lat="43.70946" lon="6.95448">
        <ele>869</ele>
        <time>2014-08-31T10:54:22Z</time>
      </trkpt>
      <trkpt lat="43.70946" lon="6.95449">
        <ele>869</ele>
        <time>2014-08-31T10:54:27Z</time>
      </trkpt>
      <trkpt lat="43.70945" lon="6.95449">
        <ele>869</ele>
        <time>2014-08-31T10:54:32Z</time>
      </trkpt>
      <trkpt lat="43.70946" lon="6.95449">
        <ele>869</ele>
        <time>2014-08-31T10:54:37Z</time>
      </trkpt>
      <trkpt lat="43.70946" lon="6.95449">
        <ele>869</ele>
        <time>2014-08-31T10:54:42Z</time>
      </trkpt>
      <trkpt lat="43.70946" lon="6.95449">
        <ele>869</ele>
        <time>2014-08-31T10:54:47Z</time>
      </trkpt>
      <trkpt lat="43.70946" lon="6.95449">
        <ele>869</ele>
        <time>2014-08-31T10:54:52Z</time>
      </trkpt>
      <trkpt lat="43.70946" lon="6.95449">
        <ele>869</ele>
        <time>2014-08-31T10:54:57Z</time>
      </trkpt>
      <trkpt lat="43.70946" lon="6.95449">
        <ele>870</ele>
        <time>2014-08-31T10:55:02Z</time>
      </trkpt>
      <trkpt lat="43.70942" lon="6.95451">
        <ele>870</ele>
        <time>2014-08-31T10:55:07Z</time>
      </trkpt>
      <trkpt lat="43.70929" lon="6.9546">
        <ele>866</ele>
        <time>2014-08-31T10:55:12Z</time>
      </trkpt>
      <trkpt lat="43.7091" lon="6.95473">
        <ele>863</ele>
        <time>2014-08-31T10:55:17Z</time>
      </trkpt>
      <trkpt lat="43.70897" lon="6.95484">
        <ele>860</ele>
        <time>2014-08-31T10:55:22Z</time>
      </trkpt>
      <trkpt lat="43.70888" lon="6.95508">
        <ele>858</ele>
        <time>2014-08-31T10:55:27Z</time>
      </trkpt>
      <trkpt lat="43.70878" lon="6.95518">
        <ele>855</ele>
        <time>2014-08-31T10:55:32Z</time>
      </trkpt>
      <trkpt lat="43.70859" lon="6.95509">
        <ele>850</ele>
        <time>2014-08-31T10:55:37Z</time>
      </trkpt>
      <trkpt lat="43.70847" lon="6.95537">
        <ele>847</ele>
        <time>2014-08-31T10:55:43Z</time>
      </trkpt>
      <trkpt lat="43.70837" lon="6.95573">
        <ele>844</ele>
        <time>2014-08-31T10:55:47Z</time>
      </trkpt>
      <trkpt lat="43.70832" lon="6.9563">
        <ele>839</ele>
        <time>2014-08-31T10:55:54Z</time>
      </trkpt>
      <trkpt lat="43.70832" lon="6.95638">
        <ele>839</ele>
        <time>2014-08-31T10:55:57Z</time>
      </trkpt>
      <trkpt lat="43.70832" lon="6.95638">
        <ele>839</ele>
        <time>2014-08-31T10:56:02Z</time>
      </trkpt>
      <trkpt lat="43.70832" lon="6.95638">
        <ele>839</ele>
        <time>2014-08-31T10:56:07Z</time>
      </trkpt>
      <trkpt lat="43.70832" lon="6.95639">
        <ele>839</ele>
        <time>2014-08-31T10:56:12Z</time>
      </trkpt>
      <trkpt lat="43.70832" lon="6.95639">
        <ele>839</ele>
        <time>2014-08-31T10:56:17Z</time>
      </trkpt>
      <trkpt lat="43.70828" lon="6.95644">
        <ele>837</ele>
        <time>2014-08-31T10:56:22Z</time>
      </trkpt>
      <trkpt lat="43.70821" lon="6.9567">
        <ele>836</ele>
        <time>2014-08-31T10:56:27Z</time>
      </trkpt>
      <trkpt lat="43.70806" lon="6.95691">
        <ele>831</ele>
        <time>2014-08-31T10:56:32Z</time>
      </trkpt>
      <trkpt lat="43.70796" lon="6.95718">
        <ele>824</ele>
        <time>2014-08-31T10:56:37Z</time>
      </trkpt>
      <trkpt lat="43.70785" lon="6.95742">
        <ele>820</ele>
        <time>2014-08-31T10:56:42Z</time>
      </trkpt>
      <trkpt lat="43.70789" lon="6.95773">
        <ele>820</ele>
        <time>2014-08-31T10:56:49Z</time>
      </trkpt>
      <trkpt lat="43.70786" lon="6.95794">
        <ele>820</ele>
        <time>2014-08-31T10:56:52Z</time>
      </trkpt>
      <trkpt lat="43.70776" lon="6.95836">
        <ele>818</ele>
        <time>2014-08-31T10:56:59Z</time>
      </trkpt>
      <trkpt lat="43.7075" lon="6.95856">
        <ele>817</ele>
        <time>2014-08-31T10:57:05Z</time>
      </trkpt>
      <trkpt lat="43.70739" lon="6.9586">
        <ele>816</ele>
        <time>2014-08-31T10:57:07Z</time>
      </trkpt>
      <trkpt lat="43.70721" lon="6.95886">
        <ele>815</ele>
        <time>2014-08-31T10:57:12Z</time>
      </trkpt>
      <trkpt lat="43.70692" lon="6.95911">
        <ele>808</ele>
        <time>2014-08-31T10:57:19Z</time>
      </trkpt>
      <trkpt lat="43.70684" lon="6.95918">
        <ele>806</ele>
        <time>2014-08-31T10:57:22Z</time>
      </trkpt>
      <trkpt lat="43.70661" lon="6.95935">
        <ele>801</ele>
        <time>2014-08-31T10:57:27Z</time>
      </trkpt>
      <trkpt lat="43.70637" lon="6.95952">
        <ele>797</ele>
        <time>2014-08-31T10:57:32Z</time>
      </trkpt>
      <trkpt lat="43.70639" lon="6.95984">
        <ele>796</ele>
        <time>2014-08-31T10:57:37Z</time>
      </trkpt>
      <trkpt lat="43.7065" lon="6.96043">
        <ele>797</ele>
        <time>2014-08-31T10:57:46Z</time>
      </trkpt>
      <trkpt lat="43.70651" lon="6.96049">
        <ele>797</ele>
        <time>2014-08-31T10:57:47Z</time>
      </trkpt>
      <trkpt lat="43.70673" lon="6.96104">
        <ele>795</ele>
        <time>2014-08-31T10:57:56Z</time>
      </trkpt>
      <trkpt lat="43.70677" lon="6.96108">
        <ele>794</ele>
        <time>2014-08-31T10:57:57Z</time>
      </trkpt>
      <trkpt lat="43.70689" lon="6.9614">
        <ele>793</ele>
        <time>2014-08-31T10:58:03Z</time>
      </trkpt>
      <trkpt lat="43.70706" lon="6.96179">
        <ele>796</ele>
        <time>2014-08-31T10:58:10Z</time>
      </trkpt>
      <trkpt lat="43.70707" lon="6.96192">
        <ele>796</ele>
        <time>2014-08-31T10:58:12Z</time>
      </trkpt>
      <trkpt lat="43.70706" lon="6.96227">
        <ele>792</ele>
        <time>2014-08-31T10:58:17Z</time>
      </trkpt>
      <trkpt lat="43.70722" lon="6.96272">
        <ele>793</ele>
        <time>2014-08-31T10:58:25Z</time>
      </trkpt>
      <trkpt lat="43.70724" lon="6.96281">
        <ele>794</ele>
        <time>2014-08-31T10:58:27Z</time>
      </trkpt>
      <trkpt lat="43.70724" lon="6.9635">
        <ele>788</ele>
        <time>2014-08-31T10:58:36Z</time>
      </trkpt>
      <trkpt lat="43.70719" lon="6.96357">
        <ele>788</ele>
        <time>2014-08-31T10:58:37Z</time>
      </trkpt>
      <trkpt lat="43.70712" lon="6.96392">
        <ele>789</ele>
        <time>2014-08-31T10:58:46Z</time>
      </trkpt>
      <trkpt lat="43.70712" lon="6.96392">
        <ele>789</ele>
        <time>2014-08-31T10:58:47Z</time>
      </trkpt>
      <trkpt lat="43.70712" lon="6.96392">
        <ele>789</ele>
        <time>2014-08-31T10:58:52Z</time>
      </trkpt>
      <trkpt lat="43.70713" lon="6.96392">
        <ele>789</ele>
        <time>2014-08-31T10:58:57Z</time>
      </trkpt>
      <trkpt lat="43.70713" lon="6.96391">
        <ele>789</ele>
        <time>2014-08-31T10:59:02Z</time>
      </trkpt>
      <trkpt lat="43.70713" lon="6.96391">
        <ele>789</ele>
        <time>2014-08-31T10:59:07Z</time>
      </trkpt>
      <trkpt lat="43.70713" lon="6.96391">
        <ele>789</ele>
        <time>2014-08-31T10:59:12Z</time>
      </trkpt>
      <trkpt lat="43.70713" lon="6.96391">
        <ele>789</ele>
        <time>2014-08-31T10:59:17Z</time>
      </trkpt>
      <trkpt lat="43.70713" lon="6.96391">
        <ele>789</ele>
        <time>2014-08-31T10:59:22Z</time>
      </trkpt>
      <trkpt lat="43.70713" lon="6.96391">
        <ele>789</ele>
        <time>2014-08-31T10:59:27Z</time>
      </trkpt>
      <trkpt lat="43.70713" lon="6.96391">
        <ele>789</ele>
        <time>2014-08-31T10:59:32Z</time>
      </trkpt>
      <trkpt lat="43.70713" lon="6.96391">
        <ele>789</ele>
        <time>2014-08-31T10:59:37Z</time>
      </trkpt>
      <trkpt lat="43.70713" lon="6.96391">
        <ele>789</ele>
        <time>2014-08-31T10:59:45Z</time>
      </trkpt>
      <trkpt lat="43.70713" lon="6.96391">
        <ele>789</ele>
        <time>2014-08-31T10:59:51Z</time>
      </trkpt>
      <trkpt lat="43.70713" lon="6.96391">
        <ele>789</ele>
        <time>2014-08-31T10:59:52Z</time>
      </trkpt>
      <trkpt lat="43.70713" lon="6.96391">
        <ele>789</ele>
        <time>2014-08-31T10:59:57Z</time>
      </trkpt>
      <trkpt lat="43.70713" lon="6.96391">
        <ele>789</ele>
        <time>2014-08-31T11:00:02Z</time>
      </trkpt>
      <trkpt lat="43.70713" lon="6.96391">
        <ele>789</ele>
        <time>2014-08-31T11:00:07Z</time>
      </trkpt>
      <trkpt lat="43.70713" lon="6.96391">
        <ele>789</ele>
        <time>2014-08-31T11:00:12Z</time>
      </trkpt>
      <trkpt lat="43.70713" lon="6.96391">
        <ele>789</ele>
        <time>2014-08-31T11:00:17Z</time>
      </trkpt>
      <trkpt lat="43.70713" lon="6.96391">
        <ele>789</ele>
        <time>2014-08-31T11:00:22Z</time>
      </trkpt>
      <trkpt lat="43.70713" lon="6.96391">
        <ele>789</ele>
        <time>2014-08-31T11:00:27Z</time>
      </trkpt>
      <trkpt lat="43.70713" lon="6.96391">
        <ele>789</ele>
        <time>2014-08-31T11:00:36Z</time>
      </trkpt>
      <trkpt lat="43.70713" lon="6.96391">
        <ele>789</ele>
        <time>2014-08-31T11:00:40Z</time>
      </trkpt>
      <trkpt lat="43.70713" lon="6.96391">
        <ele>789</ele>
        <time>2014-08-31T11:00:42Z</time>
      </trkpt>
      <trkpt lat="43.70713" lon="6.96391">
        <ele>789</ele>
        <time>2014-08-31T11:00:47Z</time>
      </trkpt>
      <trkpt lat="43.70713" lon="6.96391">
        <ele>789</ele>
        <time>2014-08-31T11:00:52Z</time>
      </trkpt>
      <trkpt lat="43.70713" lon="6.96391">
        <ele>789</ele>
        <time>2014-08-31T11:01:00Z</time>
      </trkpt>
      <trkpt lat="43.70713" lon="6.96391">
        <ele>789</ele>
        <time>2014-08-31T11:01:05Z</time>
      </trkpt>
      <trkpt lat="43.70712" lon="6.96392">
        <ele>787</ele>
        <time>2014-08-31T11:01:11Z</time>
      </trkpt>
      <trkpt lat="43.70712" lon="6.96392">
        <ele>787</ele>
        <time>2014-08-31T11:01:12Z</time>
      </trkpt>
      <trkpt lat="43.70711" lon="6.96395">
        <ele>783</ele>
        <time>2014-08-31T11:01:17Z</time>
      </trkpt>
      <trkpt lat="43.70711" lon="6.96395">
        <ele>784</ele>
        <time>2014-08-31T11:01:22Z</time>
      </trkpt>
      <trkpt lat="43.70711" lon="6.96395">
        <ele>784</ele>
        <time>2014-08-31T11:01:27Z</time>
      </trkpt>
      <trkpt lat="43.70711" lon="6.96395">
        <ele>784</ele>
        <time>2014-08-31T11:01:32Z</time>
      </trkpt>
      <trkpt lat="43.70711" lon="6.96395">
        <ele>784</ele>
        <time>2014-08-31T11:01:37Z</time>
      </trkpt>
      <trkpt lat="43.70711" lon="6.96395">
        <ele>785</ele>
        <time>2014-08-31T11:01:42Z</time>
      </trkpt>
      <trkpt lat="43.70711" lon="6.96395">
        <ele>785</ele>
        <time>2014-08-31T11:01:47Z</time>
      </trkpt>
      <trkpt lat="43.70711" lon="6.96395">
        <ele>785</ele>
        <time>2014-08-31T11:01:52Z</time>
      </trkpt>
      <trkpt lat="43.70711" lon="6.96395">
        <ele>785</ele>
        <time>2014-08-31T11:01:57Z</time>
      </trkpt>
      <trkpt lat="43.70711" lon="6.96395">
        <ele>785</ele>
        <time>2014-08-31T11:02:02Z</time>
      </trkpt>
      <trkpt lat="43.70711" lon="6.96395">
        <ele>785</ele>
        <time>2014-08-31T11:02:07Z</time>
      </trkpt>
      <trkpt lat="43.70711" lon="6.96395">
        <ele>785</ele>
        <time>2014-08-31T11:02:12Z</time>
      </trkpt>
      <trkpt lat="43.70711" lon="6.96395">
        <ele>785</ele>
        <time>2014-08-31T11:02:20Z</time>
      </trkpt>
      <trkpt lat="43.70711" lon="6.96395">
        <ele>785</ele>
        <time>2014-08-31T11:02:22Z</time>
      </trkpt>
      <trkpt lat="43.70711" lon="6.96395">
        <ele>785</ele>
        <time>2014-08-31T11:02:27Z</time>
      </trkpt>
      <trkpt lat="43.70711" lon="6.96395">
        <ele>785</ele>
        <time>2014-08-31T11:02:33Z</time>
      </trkpt>
      <trkpt lat="43.70711" lon="6.96395">
        <ele>785</ele>
        <time>2014-08-31T11:02:37Z</time>
      </trkpt>
      <trkpt lat="43.70711" lon="6.96395">
        <ele>785</ele>
        <time>2014-08-31T11:02:42Z</time>
      </trkpt>
      <trkpt lat="43.70711" lon="6.96395">
        <ele>785</ele>
        <time>2014-08-31T11:02:47Z</time>
      </trkpt>
      <trkpt lat="43.70711" lon="6.96395">
        <ele>785</ele>
        <time>2014-08-31T11:02:52Z</time>
      </trkpt>
      <trkpt lat="43.70711" lon="6.96395">
        <ele>785</ele>
        <time>2014-08-31T11:02:57Z</time>
      </trkpt>
      <trkpt lat="43.70711" lon="6.96395">
        <ele>785</ele>
        <time>2014-08-31T11:03:02Z</time>
      </trkpt>
      <trkpt lat="43.70711" lon="6.96395">
        <ele>785</ele>
        <time>2014-08-31T11:03:07Z</time>
      </trkpt>
      <trkpt lat="43.70711" lon="6.96395">
        <ele>785</ele>
        <time>2014-08-31T11:03:12Z</time>
      </trkpt>
      <trkpt lat="43.70711" lon="6.96395">
        <ele>785</ele>
        <time>2014-08-31T11:03:17Z</time>
      </trkpt>
      <trkpt lat="43.70711" lon="6.96395">
        <ele>785</ele>
        <time>2014-08-31T11:03:23Z</time>
      </trkpt>
      <trkpt lat="43.70711" lon="6.96395">
        <ele>785</ele>
        <time>2014-08-31T11:03:27Z</time>
      </trkpt>
      <trkpt lat="43.70711" lon="6.96395">
        <ele>785</ele>
        <time>2014-08-31T11:03:32Z</time>
      </trkpt>
      <trkpt lat="43.70711" lon="6.96394">
        <ele>785</ele>
        <time>2014-08-31T11:03:37Z</time>
      </trkpt>
      <trkpt lat="43.70711" lon="6.96394">
        <ele>785</ele>
        <time>2014-08-31T11:03:43Z</time>
      </trkpt>
      <trkpt lat="43.70711" lon="6.96394">
        <ele>785</ele>
        <time>2014-08-31T11:03:47Z</time>
      </trkpt>
      <trkpt lat="43.70711" lon="6.96394">
        <ele>785</ele>
        <time>2014-08-31T11:03:52Z</time>
      </trkpt>
      <trkpt lat="43.70711" lon="6.96394">
        <ele>785</ele>
        <time>2014-08-31T11:03:57Z</time>
      </trkpt>
      <trkpt lat="43.70712" lon="6.96394">
        <ele>785</ele>
        <time>2014-08-31T11:04:03Z</time>
      </trkpt>
      <trkpt lat="43.70712" lon="6.96394">
        <ele>785</ele>
        <time>2014-08-31T11:04:08Z</time>
      </trkpt>
      <trkpt lat="43.70712" lon="6.96394">
        <ele>785</ele>
        <time>2014-08-31T11:04:12Z</time>
      </trkpt>
      <trkpt lat="43.70712" lon="6.96394">
        <ele>785</ele>
        <time>2014-08-31T11:04:17Z</time>
      </trkpt>
      <trkpt lat="43.70712" lon="6.96394">
        <ele>785</ele>
        <time>2014-08-31T11:04:22Z</time>
      </trkpt>
      <trkpt lat="43.70712" lon="6.96394">
        <ele>785</ele>
        <time>2014-08-31T11:04:27Z</time>
      </trkpt>
      <trkpt lat="43.70712" lon="6.96394">
        <ele>785</ele>
        <time>2014-08-31T11:04:35Z</time>
      </trkpt>
      <trkpt lat="43.70712" lon="6.96394">
        <ele>785</ele>
        <time>2014-08-31T11:04:40Z</time>
      </trkpt>
      <trkpt lat="43.70712" lon="6.96394">
        <ele>785</ele>
        <time>2014-08-31T11:04:42Z</time>
      </trkpt>
      <trkpt lat="43.70712" lon="6.96394">
        <ele>785</ele>
        <time>2014-08-31T11:04:47Z</time>
      </trkpt>
      <trkpt lat="43.70712" lon="6.96394">
        <ele>785</ele>
        <time>2014-08-31T11:04:52Z</time>
      </trkpt>
      <trkpt lat="43.70712" lon="6.96394">
        <ele>785</ele>
        <time>2014-08-31T11:04:57Z</time>
      </trkpt>
      <trkpt lat="43.70712" lon="6.96394">
        <ele>785</ele>
        <time>2014-08-31T11:05:02Z</time>
      </trkpt>
      <trkpt lat="43.70712" lon="6.96394">
        <ele>785</ele>
        <time>2014-08-31T11:05:07Z</time>
      </trkpt>
      <trkpt lat="43.70712" lon="6.96394">
        <ele>785</ele>
        <time>2014-08-31T11:05:13Z</time>
      </trkpt>
      <trkpt lat="43.70712" lon="6.96394">
        <ele>785</ele>
        <time>2014-08-31T11:05:17Z</time>
      </trkpt>
      <trkpt lat="43.70712" lon="6.96394">
        <ele>785</ele>
        <time>2014-08-31T11:05:22Z</time>
      </trkpt>
      <trkpt lat="43.70712" lon="6.96394">
        <ele>785</ele>
        <time>2014-08-31T11:05:28Z</time>
      </trkpt>
      <trkpt lat="43.70712" lon="6.96394">
        <ele>785</ele>
        <time>2014-08-31T11:05:33Z</time>
      </trkpt>
      <trkpt lat="43.70712" lon="6.96394">
        <ele>785</ele>
        <time>2014-08-31T11:05:37Z</time>
      </trkpt>
      <trkpt lat="43.70712" lon="6.96394">
        <ele>785</ele>
        <time>2014-08-31T11:05:42Z</time>
      </trkpt>
      <trkpt lat="43.70712" lon="6.96394">
        <ele>785</ele>
        <time>2014-08-31T11:05:47Z</time>
      </trkpt>
      <trkpt lat="43.70711" lon="6.96393">
        <ele>786</ele>
        <time>2014-08-31T11:05:53Z</time>
      </trkpt>
      <trkpt lat="43.70708" lon="6.96391">
        <ele>785</ele>
        <time>2014-08-31T11:06:00Z</time>
      </trkpt>
      <trkpt lat="43.70708" lon="6.96391">
        <ele>784</ele>
        <time>2014-08-31T11:06:02Z</time>
      </trkpt>
      <trkpt lat="43.70708" lon="6.96391">
        <ele>783</ele>
        <time>2014-08-31T11:06:07Z</time>
      </trkpt>
      <trkpt lat="43.70708" lon="6.96391">
        <ele>783</ele>
        <time>2014-08-31T11:06:13Z</time>
      </trkpt>
      <trkpt lat="43.70708" lon="6.96391">
        <ele>783</ele>
        <time>2014-08-31T11:06:17Z</time>
      </trkpt>
      <trkpt lat="43.70708" lon="6.96391">
        <ele>783</ele>
        <time>2014-08-31T11:06:22Z</time>
      </trkpt>
      <trkpt lat="43.70708" lon="6.96391">
        <ele>783</ele>
        <time>2014-08-31T11:06:28Z</time>
      </trkpt>
      <trkpt lat="43.70708" lon="6.96391">
        <ele>783</ele>
        <time>2014-08-31T11:06:32Z</time>
      </trkpt>
      <trkpt lat="43.70708" lon="6.96391">
        <ele>783</ele>
        <time>2014-08-31T11:06:37Z</time>
      </trkpt>
      <trkpt lat="43.70708" lon="6.96391">
        <ele>784</ele>
        <time>2014-08-31T11:06:46Z</time>
      </trkpt>
      <trkpt lat="43.70708" lon="6.96391">
        <ele>784</ele>
        <time>2014-08-31T11:06:50Z</time>
      </trkpt>
      <trkpt lat="43.70708" lon="6.96391">
        <ele>784</ele>
        <time>2014-08-31T11:06:52Z</time>
      </trkpt>
      <trkpt lat="43.70708" lon="6.96391">
        <ele>784</ele>
        <time>2014-08-31T11:06:57Z</time>
      </trkpt>
      <trkpt lat="43.70708" lon="6.96391">
        <ele>784</ele>
        <time>2014-08-31T11:07:02Z</time>
      </trkpt>
      <trkpt lat="43.70708" lon="6.96391">
        <ele>784</ele>
        <time>2014-08-31T11:07:08Z</time>
      </trkpt>
      <trkpt lat="43.70708" lon="6.96391">
        <ele>784</ele>
        <time>2014-08-31T11:07:12Z</time>
      </trkpt>
      <trkpt lat="43.70708" lon="6.96391">
        <ele>784</ele>
        <time>2014-08-31T11:07:20Z</time>
      </trkpt>
      <trkpt lat="43.70708" lon="6.96391">
        <ele>784</ele>
        <time>2014-08-31T11:07:22Z</time>
      </trkpt>
      <trkpt lat="43.70708" lon="6.96391">
        <ele>784</ele>
        <time>2014-08-31T11:07:27Z</time>
      </trkpt>
      <trkpt lat="43.70708" lon="6.96391">
        <ele>784</ele>
        <time>2014-08-31T11:07:32Z</time>
      </trkpt>
      <trkpt lat="43.70708" lon="6.96391">
        <ele>784</ele>
        <time>2014-08-31T11:07:37Z</time>
      </trkpt>
      <trkpt lat="43.70708" lon="6.96391">
        <ele>784</ele>
        <time>2014-08-31T11:07:42Z</time>
      </trkpt>
      <trkpt lat="43.70708" lon="6.96391">
        <ele>784</ele>
        <time>2014-08-31T11:07:48Z</time>
      </trkpt>
      <trkpt lat="43.70708" lon="6.96391">
        <ele>784</ele>
        <time>2014-08-31T11:07:56Z</time>
      </trkpt>
      <trkpt lat="43.70708" lon="6.96391">
        <ele>784</ele>
        <time>2014-08-31T11:08:00Z</time>
      </trkpt>
      <trkpt lat="43.70708" lon="6.96391">
        <ele>784</ele>
        <time>2014-08-31T11:08:02Z</time>
      </trkpt>
      <trkpt lat="43.70708" lon="6.96391">
        <ele>784</ele>
        <time>2014-08-31T11:08:07Z</time>
      </trkpt>
      <trkpt lat="43.70708" lon="6.96391">
        <ele>784</ele>
        <time>2014-08-31T11:08:12Z</time>
      </trkpt>
      <trkpt lat="43.70708" lon="6.96391">
        <ele>784</ele>
        <time>2014-08-31T11:08:17Z</time>
      </trkpt>
      <trkpt lat="43.70708" lon="6.96391">
        <ele>784</ele>
        <time>2014-08-31T11:08:26Z</time>
      </trkpt>
      <trkpt lat="43.70708" lon="6.96391">
        <ele>784</ele>
        <time>2014-08-31T11:08:30Z</time>
      </trkpt>
      <trkpt lat="43.70708" lon="6.96391">
        <ele>784</ele>
        <time>2014-08-31T11:08:33Z</time>
      </trkpt>
      <trkpt lat="43.70708" lon="6.96391">
        <ele>784</ele>
        <time>2014-08-31T11:08:37Z</time>
      </trkpt>
      <trkpt lat="43.70708" lon="6.96391">
        <ele>784</ele>
        <time>2014-08-31T11:08:45Z</time>
      </trkpt>
      <trkpt lat="43.70708" lon="6.96391">
        <ele>784</ele>
        <time>2014-08-31T11:08:47Z</time>
      </trkpt>
      <trkpt lat="43.70708" lon="6.96391">
        <ele>784</ele>
        <time>2014-08-31T11:08:52Z</time>
      </trkpt>
      <trkpt lat="43.70708" lon="6.96393">
        <ele>787</ele>
        <time>2014-08-31T11:08:58Z</time>
      </trkpt>
      <trkpt lat="43.70709" lon="6.96394">
        <ele>789</ele>
        <time>2014-08-31T11:09:02Z</time>
      </trkpt>
      <trkpt lat="43.7071" lon="6.96394">
        <ele>789</ele>
        <time>2014-08-31T11:09:07Z</time>
      </trkpt>
      <trkpt lat="43.7071" lon="6.96394">
        <ele>790</ele>
        <time>2014-08-31T11:09:12Z</time>
      </trkpt>
      <trkpt lat="43.7071" lon="6.96395">
        <ele>790</ele>
        <time>2014-08-31T11:09:18Z</time>
      </trkpt>
      <trkpt lat="43.7071" lon="6.96395">
        <ele>790</ele>
        <time>2014-08-31T11:09:24Z</time>
      </trkpt>
      <trkpt lat="43.7071" lon="6.96395">
        <ele>790</ele>
        <time>2014-08-31T11:09:27Z</time>
      </trkpt>
      <trkpt lat="43.7071" lon="6.96395">
        <ele>790</ele>
        <time>2014-08-31T11:09:32Z</time>
      </trkpt>
      <trkpt lat="43.7071" lon="6.96395">
        <ele>790</ele>
        <time>2014-08-31T11:09:37Z</time>
      </trkpt>
      <trkpt lat="43.7071" lon="6.96395">
        <ele>790</ele>
        <time>2014-08-31T11:09:42Z</time>
      </trkpt>
      <trkpt lat="43.7071" lon="6.96395">
        <ele>790</ele>
        <time>2014-08-31T11:09:47Z</time>
      </trkpt>
      <trkpt lat="43.7071" lon="6.96395">
        <ele>790</ele>
        <time>2014-08-31T11:09:52Z</time>
      </trkpt>
      <trkpt lat="43.7071" lon="6.96395">
        <ele>790</ele>
        <time>2014-08-31T11:09:57Z</time>
      </trkpt>
      <trkpt lat="43.7071" lon="6.96395">
        <ele>790</ele>
        <time>2014-08-31T11:10:04Z</time>
      </trkpt>
      <trkpt lat="43.7071" lon="6.96395">
        <ele>790</ele>
        <time>2014-08-31T11:10:09Z</time>
      </trkpt>
      <trkpt lat="43.7071" lon="6.96395">
        <ele>790</ele>
        <time>2014-08-31T11:10:12Z</time>
      </trkpt>
      <trkpt lat="43.7071" lon="6.96395">
        <ele>790</ele>
        <time>2014-08-31T11:10:17Z</time>
      </trkpt>
      <trkpt lat="43.7071" lon="6.96395">
        <ele>790</ele>
        <time>2014-08-31T11:10:26Z</time>
      </trkpt>
      <trkpt lat="43.7071" lon="6.96395">
        <ele>790</ele>
        <time>2014-08-31T11:10:27Z</time>
      </trkpt>
      <trkpt lat="43.7071" lon="6.96395">
        <ele>790</ele>
        <time>2014-08-31T11:10:32Z</time>
      </trkpt>
      <trkpt lat="43.7071" lon="6.96394">
        <ele>790</ele>
        <time>2014-08-31T11:10:37Z</time>
      </trkpt>
      <trkpt lat="43.7071" lon="6.96394">
        <ele>790</ele>
        <time>2014-08-31T11:10:42Z</time>
      </trkpt>
      <trkpt lat="43.7071" lon="6.96394">
        <ele>790</ele>
        <time>2014-08-31T11:10:47Z</time>
      </trkpt>
      <trkpt lat="43.7071" lon="6.96394">
        <ele>790</ele>
        <time>2014-08-31T11:10:52Z</time>
      </trkpt>
      <trkpt lat="43.7071" lon="6.96394">
        <ele>790</ele>
        <time>2014-08-31T11:10:59Z</time>
      </trkpt>
      <trkpt lat="43.70711" lon="6.96395">
        <ele>790</ele>
        <time>2014-08-31T11:11:06Z</time>
      </trkpt>
      <trkpt lat="43.70711" lon="6.96395">
        <ele>790</ele>
        <time>2014-08-31T11:11:07Z</time>
      </trkpt>
      <trkpt lat="43.70709" lon="6.96393">
        <ele>788</ele>
        <time>2014-08-31T11:11:12Z</time>
      </trkpt>
      <trkpt lat="43.70708" lon="6.96393">
        <ele>790</ele>
        <time>2014-08-31T11:11:17Z</time>
      </trkpt>
      <trkpt lat="43.70708" lon="6.96393">
        <ele>790</ele>
        <time>2014-08-31T11:11:22Z</time>
      </trkpt>
      <trkpt lat="43.70708" lon="6.96393">
        <ele>789</ele>
        <time>2014-08-31T11:11:27Z</time>
      </trkpt>
      <trkpt lat="43.70708" lon="6.96393">
        <ele>789</ele>
        <time>2014-08-31T11:11:32Z</time>
      </trkpt>
      <trkpt lat="43.70708" lon="6.96393">
        <ele>789</ele>
        <time>2014-08-31T11:11:37Z</time>
      </trkpt>
      <trkpt lat="43.70708" lon="6.96393">
        <ele>789</ele>
        <time>2014-08-31T11:11:45Z</time>
      </trkpt>
      <trkpt lat="43.70708" lon="6.96393">
        <ele>789</ele>
        <time>2014-08-31T11:11:47Z</time>
      </trkpt>
      <trkpt lat="43.70708" lon="6.96392">
        <ele>789</ele>
        <time>2014-08-31T11:11:52Z</time>
      </trkpt>
      <trkpt lat="43.70708" lon="6.96394">
        <ele>790</ele>
        <time>2014-08-31T11:11:57Z</time>
      </trkpt>
      <trkpt lat="43.70703" lon="6.96399">
        <ele>787</ele>
        <time>2014-08-31T11:12:02Z</time>
      </trkpt>
      <trkpt lat="43.70692" lon="6.96418">
        <ele>785</ele>
        <time>2014-08-31T11:12:10Z</time>
      </trkpt>
      <trkpt lat="43.70687" lon="6.96433">
        <ele>785</ele>
        <time>2014-08-31T11:12:14Z</time>
      </trkpt>
      <trkpt lat="43.70688" lon="6.96451">
        <ele>785</ele>
        <time>2014-08-31T11:12:17Z</time>
      </trkpt>
      <trkpt lat="43.70688" lon="6.96484">
        <ele>782</ele>
        <time>2014-08-31T11:12:22Z</time>
      </trkpt>
      <trkpt lat="43.70686" lon="6.96503">
        <ele>780</ele>
        <time>2014-08-31T11:12:27Z</time>
      </trkpt>
      <trkpt lat="43.70666" lon="6.96535">
        <ele>779</ele>
        <time>2014-08-31T11:12:34Z</time>
      </trkpt>
      <trkpt lat="43.70658" lon="6.9655">
        <ele>777</ele>
        <time>2014-08-31T11:12:38Z</time>
      </trkpt>
      <trkpt lat="43.70636" lon="6.96565">
        <ele>771</ele>
        <time>2014-08-31T11:12:43Z</time>
      </trkpt>
      <trkpt lat="43.70619" lon="6.96582">
        <ele>767</ele>
        <time>2014-08-31T11:12:47Z</time>
      </trkpt>
      <trkpt lat="43.70599" lon="6.96587">
        <ele>762</ele>
        <time>2014-08-31T11:12:52Z</time>
      </trkpt>
      <trkpt lat="43.70587" lon="6.96603">
        <ele>758</ele>
        <time>2014-08-31T11:12:57Z</time>
      </trkpt>
      <trkpt lat="43.7057" lon="6.96614">
        <ele>751</ele>
        <time>2014-08-31T11:13:02Z</time>
      </trkpt>
      <trkpt lat="43.70555" lon="6.96616">
        <ele>747</ele>
        <time>2014-08-31T11:13:07Z</time>
      </trkpt>
      <trkpt lat="43.70542" lon="6.96631">
        <ele>743</ele>
        <time>2014-08-31T11:13:12Z</time>
      </trkpt>
      <trkpt lat="43.70543" lon="6.96653">
        <ele>742</ele>
        <time>2014-08-31T11:13:17Z</time>
      </trkpt>
      <trkpt lat="43.70545" lon="6.96686">
        <ele>741</ele>
        <time>2014-08-31T11:13:22Z</time>
      </trkpt>
      <trkpt lat="43.70532" lon="6.96724">
        <ele>732</ele>
        <time>2014-08-31T11:13:27Z</time>
      </trkpt>
      <trkpt lat="43.70529" lon="6.9677">
        <ele>727</ele>
        <time>2014-08-31T11:13:32Z</time>
      </trkpt>
      <trkpt lat="43.70528" lon="6.96809">
        <ele>722</ele>
        <time>2014-08-31T11:13:37Z</time>
      </trkpt>
      <trkpt lat="43.70524" lon="6.96852">
        <ele>718</ele>
        <time>2014-08-31T11:13:44Z</time>
      </trkpt>
      <trkpt lat="43.70524" lon="6.96874">
        <ele>717</ele>
        <time>2014-08-31T11:13:47Z</time>
      </trkpt>
      <trkpt lat="43.70528" lon="6.9691">
        <ele>712</ele>
        <time>2014-08-31T11:13:52Z</time>
      </trkpt>
      <trkpt lat="43.70535" lon="6.96953">
        <ele>706</ele>
        <time>2014-08-31T11:13:57Z</time>
      </trkpt>
      <trkpt lat="43.70543" lon="6.96972">
        <ele>705</ele>
        <time>2014-08-31T11:14:02Z</time>
      </trkpt>
      <trkpt lat="43.70552" lon="6.96998">
        <ele>700</ele>
        <time>2014-08-31T11:14:07Z</time>
      </trkpt>
      <trkpt lat="43.7057" lon="6.97041">
        <ele>695</ele>
        <time>2014-08-31T11:14:16Z</time>
      </trkpt>
      <trkpt lat="43.70575" lon="6.97051">
        <ele>693</ele>
        <time>2014-08-31T11:14:18Z</time>
      </trkpt>
      <trkpt lat="43.70573" lon="6.97061">
        <ele>689</ele>
        <time>2014-08-31T11:14:22Z</time>
      </trkpt>
      <trkpt lat="43.70573" lon="6.97061">
        <ele>687</ele>
        <time>2014-08-31T11:14:27Z</time>
      </trkpt>
      <trkpt lat="43.70574" lon="6.97061">
        <ele>686</ele>
        <time>2014-08-31T11:14:32Z</time>
      </trkpt>
      <trkpt lat="43.70574" lon="6.97061">
        <ele>686</ele>
        <time>2014-08-31T11:14:37Z</time>
      </trkpt>
      <trkpt lat="43.70574" lon="6.97061">
        <ele>686</ele>
        <time>2014-08-31T11:14:42Z</time>
      </trkpt>
      <trkpt lat="43.70575" lon="6.97062">
        <ele>686</ele>
        <time>2014-08-31T11:14:51Z</time>
      </trkpt>
      <trkpt lat="43.70575" lon="6.97062">
        <ele>686</ele>
        <time>2014-08-31T11:14:52Z</time>
      </trkpt>
      <trkpt lat="43.70575" lon="6.97063">
        <ele>687</ele>
        <time>2014-08-31T11:14:57Z</time>
      </trkpt>
      <trkpt lat="43.70576" lon="6.97063">
        <ele>688</ele>
        <time>2014-08-31T11:15:02Z</time>
      </trkpt>
      <trkpt lat="43.70576" lon="6.97063">
        <ele>688</ele>
        <time>2014-08-31T11:15:11Z</time>
      </trkpt>
      <trkpt lat="43.70576" lon="6.97063">
        <ele>688</ele>
        <time>2014-08-31T11:15:12Z</time>
      </trkpt>
      <trkpt lat="43.70576" lon="6.97063">
        <ele>688</ele>
        <time>2014-08-31T11:15:17Z</time>
      </trkpt>
      <trkpt lat="43.70576" lon="6.97063">
        <ele>688</ele>
        <time>2014-08-31T11:15:24Z</time>
      </trkpt>
      <trkpt lat="43.70576" lon="6.97063">
        <ele>688</ele>
        <time>2014-08-31T11:15:27Z</time>
      </trkpt>
      <trkpt lat="43.70576" lon="6.97063">
        <ele>688</ele>
        <time>2014-08-31T11:15:33Z</time>
      </trkpt>
      <trkpt lat="43.70574" lon="6.97063">
        <ele>687</ele>
        <time>2014-08-31T11:15:37Z</time>
      </trkpt>
      <trkpt lat="43.70575" lon="6.97063">
        <ele>686</ele>
        <time>2014-08-31T11:15:42Z</time>
      </trkpt>
      <trkpt lat="43.70575" lon="6.97066">
        <ele>687</ele>
        <time>2014-08-31T11:15:47Z</time>
      </trkpt>
      <trkpt lat="43.70574" lon="6.97067">
        <ele>687</ele>
        <time>2014-08-31T11:15:52Z</time>
      </trkpt>
      <trkpt lat="43.70574" lon="6.97067">
        <ele>687</ele>
        <time>2014-08-31T11:15:57Z</time>
      </trkpt>
      <trkpt lat="43.70574" lon="6.97066">
        <ele>687</ele>
        <time>2014-08-31T11:16:02Z</time>
      </trkpt>
      <trkpt lat="43.70573" lon="6.97064">
        <ele>687</ele>
        <time>2014-08-31T11:16:07Z</time>
      </trkpt>
      <trkpt lat="43.70572" lon="6.97062">
        <ele>686</ele>
        <time>2014-08-31T11:16:12Z</time>
      </trkpt>
      <trkpt lat="43.70571" lon="6.97061">
        <ele>686</ele>
        <time>2014-08-31T11:16:17Z</time>
      </trkpt>
      <trkpt lat="43.70571" lon="6.97061">
        <ele>687</ele>
        <time>2014-08-31T11:16:23Z</time>
      </trkpt>
      <trkpt lat="43.7057" lon="6.97062">
        <ele>686</ele>
        <time>2014-08-31T11:16:27Z</time>
      </trkpt>
      <trkpt lat="43.70569" lon="6.97063">
        <ele>687</ele>
        <time>2014-08-31T11:16:33Z</time>
      </trkpt>
      <trkpt lat="43.70569" lon="6.97063">
        <ele>688</ele>
        <time>2014-08-31T11:16:37Z</time>
      </trkpt>
      <trkpt lat="43.70568" lon="6.97063">
        <ele>688</ele>
        <time>2014-08-31T11:16:42Z</time>
      </trkpt>
      <trkpt lat="43.70568" lon="6.97063">
        <ele>688</ele>
        <time>2014-08-31T11:16:47Z</time>
      </trkpt>
      <trkpt lat="43.70568" lon="6.97063">
        <ele>688</ele>
        <time>2014-08-31T11:16:52Z</time>
      </trkpt>
      <trkpt lat="43.70568" lon="6.97063">
        <ele>688</ele>
        <time>2014-08-31T11:16:57Z</time>
      </trkpt>
      <trkpt lat="43.70564" lon="6.97062">
        <ele>684</ele>
        <time>2014-08-31T11:17:04Z</time>
      </trkpt>
      <trkpt lat="43.70564" lon="6.97063">
        <ele>685</ele>
        <time>2014-08-31T11:17:07Z</time>
      </trkpt>
      <trkpt lat="43.70566" lon="6.97063">
        <ele>685</ele>
        <time>2014-08-31T11:17:13Z</time>
      </trkpt>
      <trkpt lat="43.70566" lon="6.97062">
        <ele>685</ele>
        <time>2014-08-31T11:17:17Z</time>
      </trkpt>
      <trkpt lat="43.70567" lon="6.97062">
        <ele>685</ele>
        <time>2014-08-31T11:17:24Z</time>
      </trkpt>
      <trkpt lat="43.70567" lon="6.97062">
        <ele>685</ele>
        <time>2014-08-31T11:17:27Z</time>
      </trkpt>
      <trkpt lat="43.70567" lon="6.97062">
        <ele>685</ele>
        <time>2014-08-31T11:17:32Z</time>
      </trkpt>
      <trkpt lat="43.70567" lon="6.97062">
        <ele>685</ele>
        <time>2014-08-31T11:17:37Z</time>
      </trkpt>
      <trkpt lat="43.70567" lon="6.97062">
        <ele>685</ele>
        <time>2014-08-31T11:17:42Z</time>
      </trkpt>
      <trkpt lat="43.70567" lon="6.97062">
        <ele>685</ele>
        <time>2014-08-31T11:17:47Z</time>
      </trkpt>
      <trkpt lat="43.70567" lon="6.97062">
        <ele>685</ele>
        <time>2014-08-31T11:17:52Z</time>
      </trkpt>
      <trkpt lat="43.70567" lon="6.97062">
        <ele>685</ele>
        <time>2014-08-31T11:17:57Z</time>
      </trkpt>
      <trkpt lat="43.70567" lon="6.97062">
        <ele>685</ele>
        <time>2014-08-31T11:18:02Z</time>
      </trkpt>
      <trkpt lat="43.70567" lon="6.97062">
        <ele>685</ele>
        <time>2014-08-31T11:18:07Z</time>
      </trkpt>
      <trkpt lat="43.70567" lon="6.97062">
        <ele>685</ele>
        <time>2014-08-31T11:18:12Z</time>
      </trkpt>
      <trkpt lat="43.70567" lon="6.97062">
        <ele>685</ele>
        <time>2014-08-31T11:18:17Z</time>
      </trkpt>
      <trkpt lat="43.70567" lon="6.97062">
        <ele>685</ele>
        <time>2014-08-31T11:18:22Z</time>
      </trkpt>
      <trkpt lat="43.70567" lon="6.97062">
        <ele>685</ele>
        <time>2014-08-31T11:18:27Z</time>
      </trkpt>
      <trkpt lat="43.70567" lon="6.97062">
        <ele>685</ele>
        <time>2014-08-31T11:18:32Z</time>
      </trkpt>
      <trkpt lat="43.70568" lon="6.97062">
        <ele>685</ele>
        <time>2014-08-31T11:18:39Z</time>
      </trkpt>
      <trkpt lat="43.70568" lon="6.97062">
        <ele>685</ele>
        <time>2014-08-31T11:18:43Z</time>
      </trkpt>
      <trkpt lat="43.70568" lon="6.97062">
        <ele>685</ele>
        <time>2014-08-31T11:18:47Z</time>
      </trkpt>
      <trkpt lat="43.70568" lon="6.97062">
        <ele>685</ele>
        <time>2014-08-31T11:18:54Z</time>
      </trkpt>
      <trkpt lat="43.70568" lon="6.97062">
        <ele>685</ele>
        <time>2014-08-31T11:18:58Z</time>
      </trkpt>
      <trkpt lat="43.70568" lon="6.97062">
        <ele>685</ele>
        <time>2014-08-31T11:19:02Z</time>
      </trkpt>
      <trkpt lat="43.70568" lon="6.97062">
        <ele>685</ele>
        <time>2014-08-31T11:19:07Z</time>
      </trkpt>
      <trkpt lat="43.70568" lon="6.97062">
        <ele>685</ele>
        <time>2014-08-31T11:19:12Z</time>
      </trkpt>
      <trkpt lat="43.70567" lon="6.97063">
        <ele>685</ele>
        <time>2014-08-31T11:19:19Z</time>
      </trkpt>
      <trkpt lat="43.70568" lon="6.97063">
        <ele>686</ele>
        <time>2014-08-31T11:19:22Z</time>
      </trkpt>
      <trkpt lat="43.70568" lon="6.97062">
        <ele>687</ele>
        <time>2014-08-31T11:19:27Z</time>
      </trkpt>
      <trkpt lat="43.70569" lon="6.97062">
        <ele>687</ele>
        <time>2014-08-31T11:19:32Z</time>
      </trkpt>
      <trkpt lat="43.70569" lon="6.97062">
        <ele>687</ele>
        <time>2014-08-31T11:19:37Z</time>
      </trkpt>
      <trkpt lat="43.70569" lon="6.97062">
        <ele>687</ele>
        <time>2014-08-31T11:19:42Z</time>
      </trkpt>
      <trkpt lat="43.70568" lon="6.97064">
        <ele>684</ele>
        <time>2014-08-31T11:19:48Z</time>
      </trkpt>
      <trkpt lat="43.70568" lon="6.97063">
        <ele>683</ele>
        <time>2014-08-31T11:19:52Z</time>
      </trkpt>
      <trkpt lat="43.70569" lon="6.97062">
        <ele>685</ele>
        <time>2014-08-31T11:19:57Z</time>
      </trkpt>
      <trkpt lat="43.70568" lon="6.97062">
        <ele>687</ele>
        <time>2014-08-31T11:20:04Z</time>
      </trkpt>
      <trkpt lat="43.70568" lon="6.97062">
        <ele>688</ele>
        <time>2014-08-31T11:20:07Z</time>
      </trkpt>
      <trkpt lat="43.70567" lon="6.97063">
        <ele>687</ele>
        <time>2014-08-31T11:20:12Z</time>
      </trkpt>
      <trkpt lat="43.70566" lon="6.97064">
        <ele>686</ele>
        <time>2014-08-31T11:20:17Z</time>
      </trkpt>
      <trkpt lat="43.70566" lon="6.97064">
        <ele>686</ele>
        <time>2014-08-31T11:20:22Z</time>
      </trkpt>
      <trkpt lat="43.70566" lon="6.97064">
        <ele>686</ele>
        <time>2014-08-31T11:20:27Z</time>
      </trkpt>
      <trkpt lat="43.70566" lon="6.97064">
        <ele>686</ele>
        <time>2014-08-31T11:20:32Z</time>
      </trkpt>
      <trkpt lat="43.70566" lon="6.97064">
        <ele>686</ele>
        <time>2014-08-31T11:20:37Z</time>
      </trkpt>
      <trkpt lat="43.70566" lon="6.97064">
        <ele>686</ele>
        <time>2014-08-31T11:20:42Z</time>
      </trkpt>
      <trkpt lat="43.70566" lon="6.97063">
        <ele>686</ele>
        <time>2014-08-31T11:20:47Z</time>
      </trkpt>
      <trkpt lat="43.70567" lon="6.97063">
        <ele>687</ele>
        <time>2014-08-31T11:20:52Z</time>
      </trkpt>
      <trkpt lat="43.70567" lon="6.97063">
        <ele>687</ele>
        <time>2014-08-31T11:20:57Z</time>
      </trkpt>
      <trkpt lat="43.70566" lon="6.97062">
        <ele>688</ele>
        <time>2014-08-31T11:21:02Z</time>
      </trkpt>
      <trkpt lat="43.70566" lon="6.97061">
        <ele>688</ele>
        <time>2014-08-31T11:21:07Z</time>
      </trkpt>
      <trkpt lat="43.70565" lon="6.9706">
        <ele>687</ele>
        <time>2014-08-31T11:21:12Z</time>
      </trkpt>
      <trkpt lat="43.70565" lon="6.9706">
        <ele>686</ele>
        <time>2014-08-31T11:21:17Z</time>
      </trkpt>
      <trkpt lat="43.70565" lon="6.9706">
        <ele>686</ele>
        <time>2014-08-31T11:21:22Z</time>
      </trkpt>
      <trkpt lat="43.70565" lon="6.9706">
        <ele>686</ele>
        <time>2014-08-31T11:21:27Z</time>
      </trkpt>
      <trkpt lat="43.70565" lon="6.9706">
        <ele>686</ele>
        <time>2014-08-31T11:21:32Z</time>
      </trkpt>
      <trkpt lat="43.70565" lon="6.9706">
        <ele>685</ele>
        <time>2014-08-31T11:21:37Z</time>
      </trkpt>
      <trkpt lat="43.70568" lon="6.9706">
        <ele>683</ele>
        <time>2014-08-31T11:21:44Z</time>
      </trkpt>
      <trkpt lat="43.70569" lon="6.9706">
        <ele>684</ele>
        <time>2014-08-31T11:21:47Z</time>
      </trkpt>
      <trkpt lat="43.7057" lon="6.9706">
        <ele>683</ele>
        <time>2014-08-31T11:21:52Z</time>
      </trkpt>
      <trkpt lat="43.70571" lon="6.97059">
        <ele>684</ele>
        <time>2014-08-31T11:21:57Z</time>
      </trkpt>
      <trkpt lat="43.70571" lon="6.97058">
        <ele>684</ele>
        <time>2014-08-31T11:22:02Z</time>
      </trkpt>
      <trkpt lat="43.70571" lon="6.97058">
        <ele>684</ele>
        <time>2014-08-31T11:22:10Z</time>
      </trkpt>
      <trkpt lat="43.70572" lon="6.97057">
        <ele>683</ele>
        <time>2014-08-31T11:22:12Z</time>
      </trkpt>
      <trkpt lat="43.70573" lon="6.97057">
        <ele>683</ele>
        <time>2014-08-31T11:22:17Z</time>
      </trkpt>
      <trkpt lat="43.70573" lon="6.97058">
        <ele>684</ele>
        <time>2014-08-31T11:22:22Z</time>
      </trkpt>
      <trkpt lat="43.70574" lon="6.97058">
        <ele>684</ele>
        <time>2014-08-31T11:22:27Z</time>
      </trkpt>
      <trkpt lat="43.70574" lon="6.97058">
        <ele>684</ele>
        <time>2014-08-31T11:22:32Z</time>
      </trkpt>
      <trkpt lat="43.70574" lon="6.97058">
        <ele>684</ele>
        <time>2014-08-31T11:22:37Z</time>
      </trkpt>
      <trkpt lat="43.70574" lon="6.97058">
        <ele>684</ele>
        <time>2014-08-31T11:22:42Z</time>
      </trkpt>
      <trkpt lat="43.70574" lon="6.97058">
        <ele>684</ele>
        <time>2014-08-31T11:22:47Z</time>
      </trkpt>
      <trkpt lat="43.70574" lon="6.97058">
        <ele>684</ele>
        <time>2014-08-31T11:22:52Z</time>
      </trkpt>
      <trkpt lat="43.70574" lon="6.97058">
        <ele>684</ele>
        <time>2014-08-31T11:22:57Z</time>
      </trkpt>
      <trkpt lat="43.70574" lon="6.97058">
        <ele>684</ele>
        <time>2014-08-31T11:23:02Z</time>
      </trkpt>
      <trkpt lat="43.70574" lon="6.97058">
        <ele>684</ele>
        <time>2014-08-31T11:23:07Z</time>
      </trkpt>
      <trkpt lat="43.70574" lon="6.97058">
        <ele>684</ele>
        <time>2014-08-31T11:23:12Z</time>
      </trkpt>
      <trkpt lat="43.70574" lon="6.97058">
        <ele>684</ele>
        <time>2014-08-31T11:23:17Z</time>
      </trkpt>
      <trkpt lat="43.70574" lon="6.97058">
        <ele>684</ele>
        <time>2014-08-31T11:23:22Z</time>
      </trkpt>
      <trkpt lat="43.70574" lon="6.97058">
        <ele>684</ele>
        <time>2014-08-31T11:23:27Z</time>
      </trkpt>
      <trkpt lat="43.70574" lon="6.97058">
        <ele>684</ele>
        <time>2014-08-31T11:23:32Z</time>
      </trkpt>
      <trkpt lat="43.70574" lon="6.97058">
        <ele>684</ele>
        <time>2014-08-31T11:23:37Z</time>
      </trkpt>
      <trkpt lat="43.70574" lon="6.97058">
        <ele>684</ele>
        <time>2014-08-31T11:23:42Z</time>
      </trkpt>
      <trkpt lat="43.70574" lon="6.97058">
        <ele>684</ele>
        <time>2014-08-31T11:23:47Z</time>
      </trkpt>
      <trkpt lat="43.70574" lon="6.97058">
        <ele>684</ele>
        <time>2014-08-31T11:23:52Z</time>
      </trkpt>
      <trkpt lat="43.70574" lon="6.97058">
        <ele>684</ele>
        <time>2014-08-31T11:23:57Z</time>
      </trkpt>
      <trkpt lat="43.70574" lon="6.97058">
        <ele>684</ele>
        <time>2014-08-31T11:24:02Z</time>
      </trkpt>
      <trkpt lat="43.70574" lon="6.97058">
        <ele>684</ele>
        <time>2014-08-31T11:24:07Z</time>
      </trkpt>
      <trkpt lat="43.70574" lon="6.97058">
        <ele>684</ele>
        <time>2014-08-31T11:24:12Z</time>
      </trkpt>
      <trkpt lat="43.70574" lon="6.97058">
        <ele>684</ele>
        <time>2014-08-31T11:24:17Z</time>
      </trkpt>
      <trkpt lat="43.70574" lon="6.97058">
        <ele>684</ele>
        <time>2014-08-31T11:24:22Z</time>
      </trkpt>
      <trkpt lat="43.70574" lon="6.97058">
        <ele>684</ele>
        <time>2014-08-31T11:24:28Z</time>
      </trkpt>
      <trkpt lat="43.70574" lon="6.97058">
        <ele>684</ele>
        <time>2014-08-31T11:24:32Z</time>
      </trkpt>
      <trkpt lat="43.70574" lon="6.97058">
        <ele>684</ele>
        <time>2014-08-31T11:24:37Z</time>
      </trkpt>
      <trkpt lat="43.70574" lon="6.97058">
        <ele>684</ele>
        <time>2014-08-31T11:24:42Z</time>
      </trkpt>
      <trkpt lat="43.70574" lon="6.97058">
        <ele>684</ele>
        <time>2014-08-31T11:24:47Z</time>
      </trkpt>
      <trkpt lat="43.70574" lon="6.97058">
        <ele>684</ele>
        <time>2014-08-31T11:24:52Z</time>
      </trkpt>
      <trkpt lat="43.70574" lon="6.97058">
        <ele>684</ele>
        <time>2014-08-31T11:24:57Z</time>
      </trkpt>
      <trkpt lat="43.70574" lon="6.97058">
        <ele>684</ele>
        <time>2014-08-31T11:25:02Z</time>
      </trkpt>
      <trkpt lat="43.70574" lon="6.97058">
        <ele>684</ele>
        <time>2014-08-31T11:25:07Z</time>
      </trkpt>
      <trkpt lat="43.70574" lon="6.97058">
        <ele>684</ele>
        <time>2014-08-31T11:25:12Z</time>
      </trkpt>
      <trkpt lat="43.70574" lon="6.97058">
        <ele>684</ele>
        <time>2014-08-31T11:25:17Z</time>
      </trkpt>
      <trkpt lat="43.70574" lon="6.97058">
        <ele>684</ele>
        <time>2014-08-31T11:25:22Z</time>
      </trkpt>
      <trkpt lat="43.70574" lon="6.97058">
        <ele>684</ele>
        <time>2014-08-31T11:25:27Z</time>
      </trkpt>
      <trkpt lat="43.70574" lon="6.97058">
        <ele>684</ele>
        <time>2014-08-31T11:25:32Z</time>
      </trkpt>
      <trkpt lat="43.70574" lon="6.97058">
        <ele>684</ele>
        <time>2014-08-31T11:25:37Z</time>
      </trkpt>
      <trkpt lat="43.70574" lon="6.97058">
        <ele>684</ele>
        <time>2014-08-31T11:25:42Z</time>
      </trkpt>
      <trkpt lat="43.70574" lon="6.97058">
        <ele>684</ele>
        <time>2014-08-31T11:25:47Z</time>
      </trkpt>
      <trkpt lat="43.70573" lon="6.97058">
        <ele>683</ele>
        <time>2014-08-31T11:25:55Z</time>
      </trkpt>
      <trkpt lat="43.70573" lon="6.97059">
        <ele>683</ele>
        <time>2014-08-31T11:25:57Z</time>
      </trkpt>
      <trkpt lat="43.70573" lon="6.9706">
        <ele>683</ele>
        <time>2014-08-31T11:26:02Z</time>
      </trkpt>
      <trkpt lat="43.70573" lon="6.97061">
        <ele>683</ele>
        <time>2014-08-31T11:26:07Z</time>
      </trkpt>
      <trkpt lat="43.70573" lon="6.97061">
        <ele>684</ele>
        <time>2014-08-31T11:26:12Z</time>
      </trkpt>
      <trkpt lat="43.70573" lon="6.97061">
        <ele>683</ele>
        <time>2014-08-31T11:26:17Z</time>
      </trkpt>
      <trkpt lat="43.70573" lon="6.9706">
        <ele>685</ele>
        <time>2014-08-31T11:26:22Z</time>
      </trkpt>
      <trkpt lat="43.70572" lon="6.9706">
        <ele>685</ele>
        <time>2014-08-31T11:26:27Z</time>
      </trkpt>
      <trkpt lat="43.70571" lon="6.9706">
        <ele>685</ele>
        <time>2014-08-31T11:26:32Z</time>
      </trkpt>
      <trkpt lat="43.70571" lon="6.9706">
        <ele>684</ele>
        <time>2014-08-31T11:26:37Z</time>
      </trkpt>
      <trkpt lat="43.7057" lon="6.9706">
        <ele>684</ele>
        <time>2014-08-31T11:26:42Z</time>
      </trkpt>
      <trkpt lat="43.7057" lon="6.9706">
        <ele>684</ele>
        <time>2014-08-31T11:26:47Z</time>
      </trkpt>
      <trkpt lat="43.7057" lon="6.9706">
        <ele>684</ele>
        <time>2014-08-31T11:26:55Z</time>
      </trkpt>
      <trkpt lat="43.7057" lon="6.9706">
        <ele>684</ele>
        <time>2014-08-31T11:26:57Z</time>
      </trkpt>
      <trkpt lat="43.7057" lon="6.9706">
        <ele>684</ele>
        <time>2014-08-31T11:27:06Z</time>
      </trkpt>
      <trkpt lat="43.7057" lon="6.9706">
        <ele>684</ele>
        <time>2014-08-31T11:27:08Z</time>
      </trkpt>
      <trkpt lat="43.7057" lon="6.9706">
        <ele>684</ele>
        <time>2014-08-31T11:27:12Z</time>
      </trkpt>
      <trkpt lat="43.7057" lon="6.9706">
        <ele>684</ele>
        <time>2014-08-31T11:27:17Z</time>
      </trkpt>
      <trkpt lat="43.7057" lon="6.9706">
        <ele>684</ele>
        <time>2014-08-31T11:27:22Z</time>
      </trkpt>
      <trkpt lat="43.7057" lon="6.9706">
        <ele>684</ele>
        <time>2014-08-31T11:27:27Z</time>
      </trkpt>
      <trkpt lat="43.7057" lon="6.9706">
        <ele>684</ele>
        <time>2014-08-31T11:27:34Z</time>
      </trkpt>
      <trkpt lat="43.7057" lon="6.9706">
        <ele>684</ele>
        <time>2014-08-31T11:27:37Z</time>
      </trkpt>
      <trkpt lat="43.7057" lon="6.9706">
        <ele>684</ele>
        <time>2014-08-31T11:27:42Z</time>
      </trkpt>
      <trkpt lat="43.7057" lon="6.97059">
        <ele>685</ele>
        <time>2014-08-31T11:27:50Z</time>
      </trkpt>
      <trkpt lat="43.70569" lon="6.97059">
        <ele>686</ele>
        <time>2014-08-31T11:27:53Z</time>
      </trkpt>
      <trkpt lat="43.70569" lon="6.97058">
        <ele>687</ele>
        <time>2014-08-31T11:27:57Z</time>
      </trkpt>
      <trkpt lat="43.70568" lon="6.97058">
        <ele>687</ele>
        <time>2014-08-31T11:28:03Z</time>
      </trkpt>
      <trkpt lat="43.70568" lon="6.97058">
        <ele>687</ele>
        <time>2014-08-31T11:28:07Z</time>
      </trkpt>
      <trkpt lat="43.70568" lon="6.97058">
        <ele>687</ele>
        <time>2014-08-31T11:28:12Z</time>
      </trkpt>
      <trkpt lat="43.70568" lon="6.97058">
        <ele>687</ele>
        <time>2014-08-31T11:28:17Z</time>
      </trkpt>
      <trkpt lat="43.70568" lon="6.97058">
        <ele>687</ele>
        <time>2014-08-31T11:28:22Z</time>
      </trkpt>
      <trkpt lat="43.7057" lon="6.97059">
        <ele>686</ele>
        <time>2014-08-31T11:28:29Z</time>
      </trkpt>
      <trkpt lat="43.7057" lon="6.9706">
        <ele>688</ele>
        <time>2014-08-31T11:28:32Z</time>
      </trkpt>
      <trkpt lat="43.7057" lon="6.9706">
        <ele>689</ele>
        <time>2014-08-31T11:28:37Z</time>
      </trkpt>
      <trkpt lat="43.7057" lon="6.9706">
        <ele>689</ele>
        <time>2014-08-31T11:28:42Z</time>
      </trkpt>
      <trkpt lat="43.7057" lon="6.97059">
        <ele>690</ele>
        <time>2014-08-31T11:28:47Z</time>
      </trkpt>
      <trkpt lat="43.7057" lon="6.97059">
        <ele>690</ele>
        <time>2014-08-31T11:28:52Z</time>
      </trkpt>
      <trkpt lat="43.7057" lon="6.97059">
        <ele>690</ele>
        <time>2014-08-31T11:28:57Z</time>
      </trkpt>
      <trkpt lat="43.7057" lon="6.97059">
        <ele>690</ele>
        <time>2014-08-31T11:29:02Z</time>
      </trkpt>
      <trkpt lat="43.7057" lon="6.97059">
        <ele>690</ele>
        <time>2014-08-31T11:29:07Z</time>
      </trkpt>
      <trkpt lat="43.7057" lon="6.97059">
        <ele>690</ele>
        <time>2014-08-31T11:29:12Z</time>
      </trkpt>
      <trkpt lat="43.7057" lon="6.97059">
        <ele>690</ele>
        <time>2014-08-31T11:29:20Z</time>
      </trkpt>
      <trkpt lat="43.7057" lon="6.97059">
        <ele>690</ele>
        <time>2014-08-31T11:29:22Z</time>
      </trkpt>
      <trkpt lat="43.7057" lon="6.97059">
        <ele>690</ele>
        <time>2014-08-31T11:29:27Z</time>
      </trkpt>
      <trkpt lat="43.70571" lon="6.9706">
        <ele>688</ele>
        <time>2014-08-31T11:29:32Z</time>
      </trkpt>
      <trkpt lat="43.70571" lon="6.97061">
        <ele>686</ele>
        <time>2014-08-31T11:29:37Z</time>
      </trkpt>
      <trkpt lat="43.70569" lon="6.97061">
        <ele>687</ele>
        <time>2014-08-31T11:29:42Z</time>
      </trkpt>
      <trkpt lat="43.70554" lon="6.9706">
        <ele>687</ele>
        <time>2014-08-31T11:29:47Z</time>
      </trkpt>
      <trkpt lat="43.70509" lon="6.97052">
        <ele>681</ele>
        <time>2014-08-31T11:29:52Z</time>
      </trkpt>
      <trkpt lat="43.70475" lon="6.9703">
        <ele>677</ele>
        <time>2014-08-31T11:29:57Z</time>
      </trkpt>
      <trkpt lat="43.70451" lon="6.96999">
        <ele>673</ele>
        <time>2014-08-31T11:30:02Z</time>
      </trkpt>
      <trkpt lat="43.70427" lon="6.96967">
        <ele>669</ele>
        <time>2014-08-31T11:30:07Z</time>
      </trkpt>
      <trkpt lat="43.70396" lon="6.96912">
        <ele>666</ele>
        <time>2014-08-31T11:30:14Z</time>
      </trkpt>
      <trkpt lat="43.70389" lon="6.96888">
        <ele>664</ele>
        <time>2014-08-31T11:30:17Z</time>
      </trkpt>
      <trkpt lat="43.70378" lon="6.96854">
        <ele>662</ele>
        <time>2014-08-31T11:30:22Z</time>
      </trkpt>
      <trkpt lat="43.70369" lon="6.96828">
        <ele>661</ele>
        <time>2014-08-31T11:30:27Z</time>
      </trkpt>
      <trkpt lat="43.70367" lon="6.96805">
        <ele>661</ele>
        <time>2014-08-31T11:30:32Z</time>
      </trkpt>
      <trkpt lat="43.70366" lon="6.96781">
        <ele>658</ele>
        <time>2014-08-31T11:30:37Z</time>
      </trkpt>
      <trkpt lat="43.70366" lon="6.96752">
        <ele>656</ele>
        <time>2014-08-31T11:30:42Z</time>
      </trkpt>
      <trkpt lat="43.7036" lon="6.9672">
        <ele>654</ele>
        <time>2014-08-31T11:30:47Z</time>
      </trkpt>
      <trkpt lat="43.70354" lon="6.96681">
        <ele>653</ele>
        <time>2014-08-31T11:30:52Z</time>
      </trkpt>
      <trkpt lat="43.70344" lon="6.96639">
        <ele>650</ele>
        <time>2014-08-31T11:30:57Z</time>
      </trkpt>
      <trkpt lat="43.70341" lon="6.96617">
        <ele>651</ele>
        <time>2014-08-31T11:31:03Z</time>
      </trkpt>
      <trkpt lat="43.70339" lon="6.96603">
        <ele>653</ele>
        <time>2014-08-31T11:31:07Z</time>
      </trkpt>
      <trkpt lat="43.70337" lon="6.96581">
        <ele>654</ele>
        <time>2014-08-31T11:31:12Z</time>
      </trkpt>
      <trkpt lat="43.70339" lon="6.96567">
        <ele>656</ele>
        <time>2014-08-31T11:31:17Z</time>
      </trkpt>
      <trkpt lat="43.7034" lon="6.96555">
        <ele>657</ele>
        <time>2014-08-31T11:31:22Z</time>
      </trkpt>
      <trkpt lat="43.70338" lon="6.96538">
        <ele>657</ele>
        <time>2014-08-31T11:31:27Z</time>
      </trkpt>
      <trkpt lat="43.70336" lon="6.96523">
        <ele>657</ele>
        <time>2014-08-31T11:31:32Z</time>
      </trkpt>
      <trkpt lat="43.70336" lon="6.96511">
        <ele>658</ele>
        <time>2014-08-31T11:31:37Z</time>
      </trkpt>
      <trkpt lat="43.70336" lon="6.9651">
        <ele>657</ele>
        <time>2014-08-31T11:31:42Z</time>
      </trkpt>
      <trkpt lat="43.70335" lon="6.96508">
        <ele>659</ele>
        <time>2014-08-31T11:31:47Z</time>
      </trkpt>
      <trkpt lat="43.70335" lon="6.96507">
        <ele>661</ele>
        <time>2014-08-31T11:31:52Z</time>
      </trkpt>
      <trkpt lat="43.70334" lon="6.96503">
        <ele>662</ele>
        <time>2014-08-31T11:31:57Z</time>
      </trkpt>
      <trkpt lat="43.70333" lon="6.96498">
        <ele>663</ele>
        <time>2014-08-31T11:32:02Z</time>
      </trkpt>
      <trkpt lat="43.70331" lon="6.96475">
        <ele>661</ele>
        <time>2014-08-31T11:32:07Z</time>
      </trkpt>
      <trkpt lat="43.70331" lon="6.96458">
        <ele>662</ele>
        <time>2014-08-31T11:32:12Z</time>
      </trkpt>
      <trkpt lat="43.70331" lon="6.96442">
        <ele>661</ele>
        <time>2014-08-31T11:32:17Z</time>
      </trkpt>
      <trkpt lat="43.70329" lon="6.96427">
        <ele>661</ele>
        <time>2014-08-31T11:32:22Z</time>
      </trkpt>
      <trkpt lat="43.70322" lon="6.96402">
        <ele>659</ele>
        <time>2014-08-31T11:32:27Z</time>
      </trkpt>
      <trkpt lat="43.70315" lon="6.96381">
        <ele>660</ele>
        <time>2014-08-31T11:32:32Z</time>
      </trkpt>
      <trkpt lat="43.70304" lon="6.96364">
        <ele>655</ele>
        <time>2014-08-31T11:32:37Z</time>
      </trkpt>
      <trkpt lat="43.70289" lon="6.96343">
        <ele>650</ele>
        <time>2014-08-31T11:32:42Z</time>
      </trkpt>
      <trkpt lat="43.70272" lon="6.96321">
        <ele>646</ele>
        <time>2014-08-31T11:32:48Z</time>
      </trkpt>
      <trkpt lat="43.70264" lon="6.9631">
        <ele>646</ele>
        <time>2014-08-31T11:32:52Z</time>
      </trkpt>
      <trkpt lat="43.70252" lon="6.96294">
        <ele>645</ele>
        <time>2014-08-31T11:32:57Z</time>
      </trkpt>
      <trkpt lat="43.70248" lon="6.96273">
        <ele>647</ele>
        <time>2014-08-31T11:33:02Z</time>
      </trkpt>
      <trkpt lat="43.70243" lon="6.96261">
        <ele>646</ele>
        <time>2014-08-31T11:33:07Z</time>
      </trkpt>
      <trkpt lat="43.70231" lon="6.9625">
        <ele>642</ele>
        <time>2014-08-31T11:33:12Z</time>
      </trkpt>
      <trkpt lat="43.70221" lon="6.96248">
        <ele>638</ele>
        <time>2014-08-31T11:33:17Z</time>
      </trkpt>
      <trkpt lat="43.70197" lon="6.96219">
        <ele>633</ele>
        <time>2014-08-31T11:33:22Z</time>
      </trkpt>
      <trkpt lat="43.70174" lon="6.96196">
        <ele>632</ele>
        <time>2014-08-31T11:33:30Z</time>
      </trkpt>
      <trkpt lat="43.70174" lon="6.96196">
        <ele>632</ele>
        <time>2014-08-31T11:33:32Z</time>
      </trkpt>
      <trkpt lat="43.70175" lon="6.96197">
        <ele>632</ele>
        <time>2014-08-31T11:33:37Z</time>
      </trkpt>
      <trkpt lat="43.70174" lon="6.96198">
        <ele>632</ele>
        <time>2014-08-31T11:33:42Z</time>
      </trkpt>
      <trkpt lat="43.70175" lon="6.96198">
        <ele>633</ele>
        <time>2014-08-31T11:33:47Z</time>
      </trkpt>
      <trkpt lat="43.70175" lon="6.96199">
        <ele>633</ele>
        <time>2014-08-31T11:33:52Z</time>
      </trkpt>
      <trkpt lat="43.70175" lon="6.96199">
        <ele>633</ele>
        <time>2014-08-31T11:33:57Z</time>
      </trkpt>
      <trkpt lat="43.70175" lon="6.96199">
        <ele>634</ele>
        <time>2014-08-31T11:34:02Z</time>
      </trkpt>
      <trkpt lat="43.70175" lon="6.96199">
        <ele>634</ele>
        <time>2014-08-31T11:34:07Z</time>
      </trkpt>
      <trkpt lat="43.70175" lon="6.96199">
        <ele>635</ele>
        <time>2014-08-31T11:34:16Z</time>
      </trkpt>
      <trkpt lat="43.70175" lon="6.96199">
        <ele>635</ele>
        <time>2014-08-31T11:34:17Z</time>
      </trkpt>
      <trkpt lat="43.70177" lon="6.962">
        <ele>635</ele>
        <time>2014-08-31T11:34:22Z</time>
      </trkpt>
      <trkpt lat="43.70177" lon="6.962">
        <ele>635</ele>
        <time>2014-08-31T11:34:27Z</time>
      </trkpt>
      <trkpt lat="43.70177" lon="6.962">
        <ele>635</ele>
        <time>2014-08-31T11:34:32Z</time>
      </trkpt>
      <trkpt lat="43.70177" lon="6.962">
        <ele>635</ele>
        <time>2014-08-31T11:34:37Z</time>
      </trkpt>
      <trkpt lat="43.70177" lon="6.962">
        <ele>635</ele>
        <time>2014-08-31T11:34:42Z</time>
      </trkpt>
      <trkpt lat="43.70177" lon="6.962">
        <ele>635</ele>
        <time>2014-08-31T11:34:48Z</time>
      </trkpt>
      <trkpt lat="43.70177" lon="6.962">
        <ele>635</ele>
        <time>2014-08-31T11:34:52Z</time>
      </trkpt>
      <trkpt lat="43.70177" lon="6.962">
        <ele>635</ele>
        <time>2014-08-31T11:34:57Z</time>
      </trkpt>
      <trkpt lat="43.70177" lon="6.962">
        <ele>635</ele>
        <time>2014-08-31T11:35:02Z</time>
      </trkpt>
      <trkpt lat="43.70177" lon="6.962">
        <ele>635</ele>
        <time>2014-08-31T11:35:07Z</time>
      </trkpt>
      <trkpt lat="43.70177" lon="6.962">
        <ele>635</ele>
        <time>2014-08-31T11:35:12Z</time>
      </trkpt>
      <trkpt lat="43.70177" lon="6.962">
        <ele>635</ele>
        <time>2014-08-31T11:35:17Z</time>
      </trkpt>
      <trkpt lat="43.70177" lon="6.962">
        <ele>635</ele>
        <time>2014-08-31T11:35:22Z</time>
      </trkpt>
      <trkpt lat="43.70177" lon="6.962">
        <ele>635</ele>
        <time>2014-08-31T11:35:27Z</time>
      </trkpt>
      <trkpt lat="43.70177" lon="6.962">
        <ele>635</ele>
        <time>2014-08-31T11:35:32Z</time>
      </trkpt>
      <trkpt lat="43.70177" lon="6.962">
        <ele>635</ele>
        <time>2014-08-31T11:35:39Z</time>
      </trkpt>
      <trkpt lat="43.70177" lon="6.96198">
        <ele>635</ele>
        <time>2014-08-31T11:35:43Z</time>
      </trkpt>
      <trkpt lat="43.70178" lon="6.96195">
        <ele>635</ele>
        <time>2014-08-31T11:35:47Z</time>
      </trkpt>
      <trkpt lat="43.70177" lon="6.96196">
        <ele>635</ele>
        <time>2014-08-31T11:35:52Z</time>
      </trkpt>
      <trkpt lat="43.70177" lon="6.96197">
        <ele>635</ele>
        <time>2014-08-31T11:35:57Z</time>
      </trkpt>
      <trkpt lat="43.70177" lon="6.96197">
        <ele>635</ele>
        <time>2014-08-31T11:36:02Z</time>
      </trkpt>
      <trkpt lat="43.70177" lon="6.96197">
        <ele>635</ele>
        <time>2014-08-31T11:36:07Z</time>
      </trkpt>
      <trkpt lat="43.70177" lon="6.96197">
        <ele>635</ele>
        <time>2014-08-31T11:36:16Z</time>
      </trkpt>
      <trkpt lat="43.70177" lon="6.96197">
        <ele>635</ele>
        <time>2014-08-31T11:36:17Z</time>
      </trkpt>
      <trkpt lat="43.70177" lon="6.96197">
        <ele>635</ele>
        <time>2014-08-31T11:36:22Z</time>
      </trkpt>
      <trkpt lat="43.70177" lon="6.96197">
        <ele>635</ele>
        <time>2014-08-31T11:36:27Z</time>
      </trkpt>
      <trkpt lat="43.70177" lon="6.96197">
        <ele>635</ele>
        <time>2014-08-31T11:36:32Z</time>
      </trkpt>
      <trkpt lat="43.70177" lon="6.96197">
        <ele>635</ele>
        <time>2014-08-31T11:36:37Z</time>
      </trkpt>
      <trkpt lat="43.70177" lon="6.96197">
        <ele>635</ele>
        <time>2014-08-31T11:36:42Z</time>
      </trkpt>
      <trkpt lat="43.70177" lon="6.96197">
        <ele>635</ele>
        <time>2014-08-31T11:36:51Z</time>
      </trkpt>
      <trkpt lat="43.70168" lon="6.96192">
        <ele>634</ele>
        <time>2014-08-31T11:36:56Z</time>
      </trkpt>
      <trkpt lat="43.70163" lon="6.96189">
        <ele>635</ele>
        <time>2014-08-31T11:36:57Z</time>
      </trkpt>
      <trkpt lat="43.70135" lon="6.9617">
        <ele>634</ele>
        <time>2014-08-31T11:37:02Z</time>
      </trkpt>
      <trkpt lat="43.7011" lon="6.96151">
        <ele>634</ele>
        <time>2014-08-31T11:37:07Z</time>
      </trkpt>
      <trkpt lat="43.70069" lon="6.96123">
        <ele>632</ele>
        <time>2014-08-31T11:37:15Z</time>
      </trkpt>
      <trkpt lat="43.70058" lon="6.96125">
        <ele>631</ele>
        <time>2014-08-31T11:37:17Z</time>
      </trkpt>
      <trkpt lat="43.70062" lon="6.96137">
        <ele>629</ele>
        <time>2014-08-31T11:37:22Z</time>
      </trkpt>
      <trkpt lat="43.7008" lon="6.96161">
        <ele>627</ele>
        <time>2014-08-31T11:37:28Z</time>
      </trkpt>
      <trkpt lat="43.701" lon="6.9618">
        <ele>625</ele>
        <time>2014-08-31T11:37:32Z</time>
      </trkpt>
      <trkpt lat="43.70121" lon="6.96208">
        <ele>623</ele>
        <time>2014-08-31T11:37:37Z</time>
      </trkpt>
      <trkpt lat="43.70148" lon="6.96241">
        <ele>620</ele>
        <time>2014-08-31T11:37:42Z</time>
      </trkpt>
      <trkpt lat="43.70176" lon="6.96291">
        <ele>616</ele>
        <time>2014-08-31T11:37:47Z</time>
      </trkpt>
      <trkpt lat="43.70198" lon="6.96341">
        <ele>614</ele>
        <time>2014-08-31T11:37:52Z</time>
      </trkpt>
      <trkpt lat="43.70215" lon="6.96396">
        <ele>610</ele>
        <time>2014-08-31T11:37:57Z</time>
      </trkpt>
      <trkpt lat="43.70232" lon="6.96467">
        <ele>605</ele>
        <time>2014-08-31T11:38:04Z</time>
      </trkpt>
      <trkpt lat="43.70236" lon="6.96495">
        <ele>606</ele>
        <time>2014-08-31T11:38:07Z</time>
      </trkpt>
      <trkpt lat="43.70246" lon="6.96528">
        <ele>605</ele>
        <time>2014-08-31T11:38:12Z</time>
      </trkpt>
      <trkpt lat="43.70251" lon="6.96556">
        <ele>607</ele>
        <time>2014-08-31T11:38:17Z</time>
      </trkpt>
      <trkpt lat="43.70256" lon="6.96588">
        <ele>607</ele>
        <time>2014-08-31T11:38:23Z</time>
      </trkpt>
      <trkpt lat="43.7026" lon="6.9661">
        <ele>610</ele>
        <time>2014-08-31T11:38:27Z</time>
      </trkpt>
      <trkpt lat="43.70266" lon="6.96652">
        <ele>605</ele>
        <time>2014-08-31T11:38:33Z</time>
      </trkpt>
      <trkpt lat="43.70272" lon="6.9668">
        <ele>603</ele>
        <time>2014-08-31T11:38:37Z</time>
      </trkpt>
      <trkpt lat="43.70283" lon="6.96712">
        <ele>605</ele>
        <time>2014-08-31T11:38:42Z</time>
      </trkpt>
      <trkpt lat="43.70283" lon="6.96737">
        <ele>605</ele>
        <time>2014-08-31T11:38:47Z</time>
      </trkpt>
      <trkpt lat="43.70272" lon="6.96773">
        <ele>604</ele>
        <time>2014-08-31T11:38:52Z</time>
      </trkpt>
      <trkpt lat="43.7027" lon="6.96815">
        <ele>603</ele>
        <time>2014-08-31T11:38:57Z</time>
      </trkpt>
      <trkpt lat="43.70271" lon="6.96872">
        <ele>599</ele>
        <time>2014-08-31T11:39:02Z</time>
      </trkpt>
      <trkpt lat="43.7027" lon="6.96929">
        <ele>596</ele>
        <time>2014-08-31T11:39:07Z</time>
      </trkpt>
      <trkpt lat="43.70269" lon="6.96992">
        <ele>596</ele>
        <time>2014-08-31T11:39:12Z</time>
      </trkpt>
      <trkpt lat="43.70273" lon="6.97066">
        <ele>591</ele>
        <time>2014-08-31T11:39:18Z</time>
      </trkpt>
      <trkpt lat="43.70275" lon="6.97133">
        <ele>583</ele>
        <time>2014-08-31T11:39:22Z</time>
      </trkpt>
      <trkpt lat="43.70272" lon="6.9723">
        <ele>576</ele>
        <time>2014-08-31T11:39:28Z</time>
      </trkpt>
      <trkpt lat="43.70273" lon="6.9728">
        <ele>576</ele>
        <time>2014-08-31T11:39:32Z</time>
      </trkpt>
      <trkpt lat="43.70272" lon="6.97307">
        <ele>577</ele>
        <time>2014-08-31T11:39:38Z</time>
      </trkpt>
      <trkpt lat="43.70271" lon="6.9732">
        <ele>577</ele>
        <time>2014-08-31T11:39:42Z</time>
      </trkpt>
      <trkpt lat="43.70269" lon="6.9734">
        <ele>577</ele>
        <time>2014-08-31T11:39:51Z</time>
      </trkpt>
      <trkpt lat="43.70269" lon="6.97344">
        <ele>579</ele>
        <time>2014-08-31T11:39:52Z</time>
      </trkpt>
      <trkpt lat="43.70268" lon="6.9736">
        <ele>577</ele>
        <time>2014-08-31T11:39:57Z</time>
      </trkpt>
      <trkpt lat="43.70268" lon="6.97374">
        <ele>580</ele>
        <time>2014-08-31T11:40:02Z</time>
      </trkpt>
      <trkpt lat="43.7027" lon="6.97387">
        <ele>582</ele>
        <time>2014-08-31T11:40:07Z</time>
      </trkpt>
      <trkpt lat="43.70273" lon="6.97398">
        <ele>583</ele>
        <time>2014-08-31T11:40:12Z</time>
      </trkpt>
      <trkpt lat="43.7028" lon="6.97406">
        <ele>585</ele>
        <time>2014-08-31T11:40:17Z</time>
      </trkpt>
      <trkpt lat="43.70285" lon="6.97409">
        <ele>586</ele>
        <time>2014-08-31T11:40:22Z</time>
      </trkpt>
      <trkpt lat="43.70286" lon="6.9741">
        <ele>586</ele>
        <time>2014-08-31T11:40:27Z</time>
      </trkpt>
      <trkpt lat="43.7029" lon="6.97411">
        <ele>588</ele>
        <time>2014-08-31T11:40:32Z</time>
      </trkpt>
      <trkpt lat="43.70292" lon="6.97411">
        <ele>589</ele>
        <time>2014-08-31T11:40:37Z</time>
      </trkpt>
      <trkpt lat="43.70291" lon="6.97411">
        <ele>589</ele>
        <time>2014-08-31T11:40:42Z</time>
      </trkpt>
      <trkpt lat="43.70292" lon="6.97412">
        <ele>589</ele>
        <time>2014-08-31T11:40:47Z</time>
      </trkpt>
      <trkpt lat="43.70292" lon="6.97413">
        <ele>590</ele>
        <time>2014-08-31T11:40:52Z</time>
      </trkpt>
      <trkpt lat="43.70291" lon="6.97413">
        <ele>590</ele>
        <time>2014-08-31T11:40:58Z</time>
      </trkpt>
      <trkpt lat="43.70291" lon="6.97414">
        <ele>590</ele>
        <time>2014-08-31T11:41:05Z</time>
      </trkpt>
      <trkpt lat="43.70291" lon="6.97414">
        <ele>590</ele>
        <time>2014-08-31T11:41:10Z</time>
      </trkpt>
      <trkpt lat="43.70292" lon="6.97414">
        <ele>590</ele>
        <time>2014-08-31T11:41:12Z</time>
      </trkpt>
      <trkpt lat="43.70292" lon="6.97413">
        <ele>590</ele>
        <time>2014-08-31T11:41:17Z</time>
      </trkpt>
      <trkpt lat="43.70291" lon="6.97413">
        <ele>590</ele>
        <time>2014-08-31T11:41:22Z</time>
      </trkpt>
      <trkpt lat="43.7029" lon="6.97412">
        <ele>591</ele>
        <time>2014-08-31T11:41:27Z</time>
      </trkpt>
      <trkpt lat="43.70291" lon="6.97412">
        <ele>591</ele>
        <time>2014-08-31T11:41:32Z</time>
      </trkpt>
      <trkpt lat="43.70291" lon="6.97412">
        <ele>590</ele>
        <time>2014-08-31T11:41:37Z</time>
      </trkpt>
      <trkpt lat="43.7029" lon="6.9741">
        <ele>588</ele>
        <time>2014-08-31T11:41:43Z</time>
      </trkpt>
      <trkpt lat="43.7029" lon="6.97409">
        <ele>588</ele>
        <time>2014-08-31T11:41:47Z</time>
      </trkpt>
      <trkpt lat="43.7029" lon="6.97408">
        <ele>589</ele>
        <time>2014-08-31T11:41:52Z</time>
      </trkpt>
      <trkpt lat="43.7029" lon="6.97408">
        <ele>589</ele>
        <time>2014-08-31T11:41:57Z</time>
      </trkpt>
      <trkpt lat="43.7029" lon="6.97408">
        <ele>589</ele>
        <time>2014-08-31T11:42:02Z</time>
      </trkpt>
      <trkpt lat="43.7029" lon="6.97408">
        <ele>589</ele>
        <time>2014-08-31T11:42:07Z</time>
      </trkpt>
      <trkpt lat="43.70288" lon="6.97413">
        <ele>583</ele>
        <time>2014-08-31T11:42:12Z</time>
      </trkpt>
      <trkpt lat="43.7028" lon="6.97422">
        <ele>577</ele>
        <time>2014-08-31T11:42:17Z</time>
      </trkpt>
      <trkpt lat="43.70279" lon="6.97444">
        <ele>575</ele>
        <time>2014-08-31T11:42:22Z</time>
      </trkpt>
      <trkpt lat="43.70274" lon="6.97457">
        <ele>579</ele>
        <time>2014-08-31T11:42:27Z</time>
      </trkpt>
      <trkpt lat="43.70271" lon="6.97459">
        <ele>580</ele>
        <time>2014-08-31T11:42:32Z</time>
      </trkpt>
      <trkpt lat="43.70271" lon="6.97457">
        <ele>581</ele>
        <time>2014-08-31T11:42:37Z</time>
      </trkpt>
      <trkpt lat="43.70271" lon="6.97458">
        <ele>581</ele>
        <time>2014-08-31T11:42:42Z</time>
      </trkpt>
      <trkpt lat="43.70271" lon="6.97458">
        <ele>581</ele>
        <time>2014-08-31T11:42:47Z</time>
      </trkpt>
      <trkpt lat="43.70271" lon="6.9746">
        <ele>579</ele>
        <time>2014-08-31T11:42:52Z</time>
      </trkpt>
      <trkpt lat="43.70271" lon="6.97462">
        <ele>581</ele>
        <time>2014-08-31T11:42:57Z</time>
      </trkpt>
      <trkpt lat="43.7026" lon="6.97472">
        <ele>575</ele>
        <time>2014-08-31T11:43:02Z</time>
      </trkpt>
      <trkpt lat="43.70246" lon="6.97486">
        <ele>571</ele>
        <time>2014-08-31T11:43:07Z</time>
      </trkpt>
      <trkpt lat="43.70244" lon="6.97507">
        <ele>573</ele>
        <time>2014-08-31T11:43:12Z</time>
      </trkpt>
      <trkpt lat="43.70244" lon="6.97524">
        <ele>573</ele>
        <time>2014-08-31T11:43:17Z</time>
      </trkpt>
      <trkpt lat="43.70244" lon="6.97536">
        <ele>573</ele>
        <time>2014-08-31T11:43:22Z</time>
      </trkpt>
      <trkpt lat="43.70244" lon="6.97546">
        <ele>572</ele>
        <time>2014-08-31T11:43:27Z</time>
      </trkpt>
      <trkpt lat="43.70237" lon="6.9754">
        <ele>567</ele>
        <time>2014-08-31T11:43:32Z</time>
      </trkpt>
      <trkpt lat="43.70234" lon="6.97525">
        <ele>564</ele>
        <time>2014-08-31T11:43:37Z</time>
      </trkpt>
      <trkpt lat="43.70231" lon="6.97514">
        <ele>559</ele>
        <time>2014-08-31T11:43:42Z</time>
      </trkpt>
      <trkpt lat="43.7023" lon="6.97513">
        <ele>559</ele>
        <time>2014-08-31T11:43:50Z</time>
      </trkpt>
      <trkpt lat="43.70231" lon="6.97506">
        <ele>557</ele>
        <time>2014-08-31T11:43:56Z</time>
      </trkpt>
      <trkpt lat="43.70231" lon="6.97505">
        <ele>556</ele>
        <time>2014-08-31T11:43:57Z</time>
      </trkpt>
      <trkpt lat="43.70227" lon="6.97502">
        <ele>553</ele>
        <time>2014-08-31T11:44:02Z</time>
      </trkpt>
      <trkpt lat="43.70224" lon="6.97507">
        <ele>554</ele>
        <time>2014-08-31T11:44:07Z</time>
      </trkpt>
      <trkpt lat="43.70218" lon="6.97501">
        <ele>552</ele>
        <time>2014-08-31T11:44:12Z</time>
      </trkpt>
      <trkpt lat="43.70219" lon="6.9749">
        <ele>549</ele>
        <time>2014-08-31T11:44:17Z</time>
      </trkpt>
      <trkpt lat="43.70216" lon="6.97481">
        <ele>543</ele>
        <time>2014-08-31T11:44:22Z</time>
      </trkpt>
      <trkpt lat="43.70217" lon="6.97481">
        <ele>542</ele>
        <time>2014-08-31T11:44:31Z</time>
      </trkpt>
      <trkpt lat="43.70217" lon="6.97481">
        <ele>541</ele>
        <time>2014-08-31T11:44:32Z</time>
      </trkpt>
      <trkpt lat="43.70218" lon="6.97481">
        <ele>541</ele>
        <time>2014-08-31T11:44:41Z</time>
      </trkpt>
      <trkpt lat="43.70218" lon="6.97481">
        <ele>541</ele>
        <time>2014-08-31T11:44:43Z</time>
      </trkpt>
      <trkpt lat="43.70218" lon="6.97481">
        <ele>541</ele>
        <time>2014-08-31T11:44:47Z</time>
      </trkpt>
      <trkpt lat="43.70217" lon="6.97481">
        <ele>542</ele>
        <time>2014-08-31T11:44:53Z</time>
      </trkpt>
      <trkpt lat="43.70216" lon="6.97477">
        <ele>545</ele>
        <time>2014-08-31T11:44:57Z</time>
      </trkpt>
      <trkpt lat="43.70215" lon="6.97476">
        <ele>547</ele>
        <time>2014-08-31T11:45:02Z</time>
      </trkpt>
      <trkpt lat="43.70215" lon="6.97476">
        <ele>548</ele>
        <time>2014-08-31T11:45:07Z</time>
      </trkpt>
      <trkpt lat="43.70215" lon="6.97476">
        <ele>548</ele>
        <time>2014-08-31T11:45:12Z</time>
      </trkpt>
      <trkpt lat="43.70215" lon="6.97476">
        <ele>548</ele>
        <time>2014-08-31T11:45:17Z</time>
      </trkpt>
      <trkpt lat="43.70209" lon="6.97478">
        <ele>543</ele>
        <time>2014-08-31T11:45:22Z</time>
      </trkpt>
      <trkpt lat="43.70209" lon="6.97478">
        <ele>542</ele>
        <time>2014-08-31T11:45:27Z</time>
      </trkpt>
      <trkpt lat="43.70208" lon="6.97478">
        <ele>541</ele>
        <time>2014-08-31T11:45:32Z</time>
      </trkpt>
      <trkpt lat="43.70208" lon="6.97478">
        <ele>541</ele>
        <time>2014-08-31T11:45:37Z</time>
      </trkpt>
      <trkpt lat="43.70206" lon="6.97479">
        <ele>539</ele>
        <time>2014-08-31T11:45:42Z</time>
      </trkpt>
      <trkpt lat="43.70205" lon="6.9748">
        <ele>539</ele>
        <time>2014-08-31T11:45:47Z</time>
      </trkpt>
      <trkpt lat="43.70203" lon="6.97474">
        <ele>536</ele>
        <time>2014-08-31T11:45:52Z</time>
      </trkpt>
      <trkpt lat="43.70195" lon="6.97472">
        <ele>532</ele>
        <time>2014-08-31T11:45:57Z</time>
      </trkpt>
      <trkpt lat="43.70193" lon="6.97473">
        <ele>532</ele>
        <time>2014-08-31T11:46:02Z</time>
      </trkpt>
      <trkpt lat="43.70193" lon="6.97473">
        <ele>532</ele>
        <time>2014-08-31T11:46:07Z</time>
      </trkpt>
      <trkpt lat="43.70193" lon="6.97472">
        <ele>533</ele>
        <time>2014-08-31T11:46:16Z</time>
      </trkpt>
      <trkpt lat="43.70193" lon="6.97472">
        <ele>533</ele>
        <time>2014-08-31T11:46:17Z</time>
      </trkpt>
      <trkpt lat="43.70193" lon="6.97472">
        <ele>533</ele>
        <time>2014-08-31T11:46:22Z</time>
      </trkpt>
      <trkpt lat="43.70193" lon="6.97472">
        <ele>533</ele>
        <time>2014-08-31T11:46:27Z</time>
      </trkpt>
      <trkpt lat="43.70192" lon="6.97472">
        <ele>535</ele>
        <time>2014-08-31T11:46:32Z</time>
      </trkpt>
      <trkpt lat="43.70189" lon="6.97476">
        <ele>533</ele>
        <time>2014-08-31T11:46:37Z</time>
      </trkpt>
      <trkpt lat="43.70188" lon="6.97477">
        <ele>532</ele>
        <time>2014-08-31T11:46:43Z</time>
      </trkpt>
      <trkpt lat="43.70187" lon="6.97478">
        <ele>530</ele>
        <time>2014-08-31T11:46:47Z</time>
      </trkpt>
      <trkpt lat="43.70185" lon="6.97479">
        <ele>530</ele>
        <time>2014-08-31T11:46:53Z</time>
      </trkpt>
      <trkpt lat="43.70185" lon="6.9748">
        <ele>530</ele>
        <time>2014-08-31T11:46:58Z</time>
      </trkpt>
      <trkpt lat="43.70185" lon="6.9748">
        <ele>529</ele>
        <time>2014-08-31T11:47:02Z</time>
      </trkpt>
      <trkpt lat="43.70185" lon="6.9748">
        <ele>528</ele>
        <time>2014-08-31T11:47:07Z</time>
      </trkpt>
      <trkpt lat="43.70183" lon="6.97481">
        <ele>529</ele>
        <time>2014-08-31T11:47:13Z</time>
      </trkpt>
      <trkpt lat="43.70182" lon="6.97481">
        <ele>529</ele>
        <time>2014-08-31T11:47:17Z</time>
      </trkpt>
      <trkpt lat="43.70181" lon="6.97481">
        <ele>529</ele>
        <time>2014-08-31T11:47:22Z</time>
      </trkpt>
      <trkpt lat="43.70181" lon="6.97481">
        <ele>528</ele>
        <time>2014-08-31T11:47:27Z</time>
      </trkpt>
      <trkpt lat="43.7018" lon="6.97482">
        <ele>528</ele>
        <time>2014-08-31T11:47:32Z</time>
      </trkpt>
      <trkpt lat="43.70176" lon="6.97481">
        <ele>521</ele>
        <time>2014-08-31T11:47:38Z</time>
      </trkpt>
      <trkpt lat="43.70172" lon="6.97467">
        <ele>518</ele>
        <time>2014-08-31T11:47:43Z</time>
      </trkpt>
      <trkpt lat="43.70175" lon="6.97453">
        <ele>518</ele>
        <time>2014-08-31T11:47:48Z</time>
      </trkpt>
      <trkpt lat="43.70177" lon="6.97444">
        <ele>518</ele>
        <time>2014-08-31T11:47:54Z</time>
      </trkpt>
      <trkpt lat="43.70177" lon="6.97439">
        <ele>517</ele>
        <time>2014-08-31T11:48:01Z</time>
      </trkpt>
      <trkpt lat="43.70177" lon="6.97435">
        <ele>518</ele>
        <time>2014-08-31T11:48:07Z</time>
      </trkpt>
      <trkpt lat="43.70177" lon="6.97434">
        <ele>518</ele>
        <time>2014-08-31T11:48:08Z</time>
      </trkpt>
      <trkpt lat="43.70176" lon="6.97434">
        <ele>518</ele>
        <time>2014-08-31T11:48:13Z</time>
      </trkpt>
      <trkpt lat="43.70175" lon="6.97431">
        <ele>520</ele>
        <time>2014-08-31T11:48:18Z</time>
      </trkpt>
      <trkpt lat="43.70168" lon="6.9741">
        <ele>516</ele>
        <time>2014-08-31T11:48:24Z</time>
      </trkpt>
      <trkpt lat="43.7016" lon="6.97395">
        <ele>510</ele>
        <time>2014-08-31T11:48:28Z</time>
      </trkpt>
      <trkpt lat="43.70161" lon="6.9737">
        <ele>508</ele>
        <time>2014-08-31T11:48:36Z</time>
      </trkpt>
      <trkpt lat="43.70161" lon="6.97369">
        <ele>506</ele>
        <time>2014-08-31T11:48:39Z</time>
      </trkpt>
      <trkpt lat="43.70161" lon="6.97368">
        <ele>506</ele>
        <time>2014-08-31T11:48:43Z</time>
      </trkpt>
      <trkpt lat="43.70162" lon="6.97368">
        <ele>505</ele>
        <time>2014-08-31T11:48:48Z</time>
      </trkpt>
      <trkpt lat="43.70162" lon="6.97367">
        <ele>505</ele>
        <time>2014-08-31T11:48:53Z</time>
      </trkpt>
      <trkpt lat="43.70162" lon="6.97367">
        <ele>505</ele>
        <time>2014-08-31T11:48:58Z</time>
      </trkpt>
      <trkpt lat="43.70162" lon="6.97367">
        <ele>505</ele>
        <time>2014-08-31T11:49:03Z</time>
      </trkpt>
      <trkpt lat="43.7016" lon="6.97372">
        <ele>505</ele>
        <time>2014-08-31T11:49:08Z</time>
      </trkpt>
      <trkpt lat="43.70159" lon="6.97378">
        <ele>505</ele>
        <time>2014-08-31T11:49:13Z</time>
      </trkpt>
      <trkpt lat="43.70159" lon="6.97383">
        <ele>505</ele>
        <time>2014-08-31T11:49:18Z</time>
      </trkpt>
      <trkpt lat="43.70157" lon="6.97398">
        <ele>502</ele>
        <time>2014-08-31T11:49:25Z</time>
      </trkpt>
      <trkpt lat="43.70157" lon="6.97407">
        <ele>502</ele>
        <time>2014-08-31T11:49:28Z</time>
      </trkpt>
      <trkpt lat="43.70157" lon="6.97422">
        <ele>504</ele>
        <time>2014-08-31T11:49:33Z</time>
      </trkpt>
      <trkpt lat="43.70155" lon="6.9744">
        <ele>505</ele>
        <time>2014-08-31T11:49:38Z</time>
      </trkpt>
      <trkpt lat="43.70147" lon="6.97452">
        <ele>505</ele>
        <time>2014-08-31T11:49:43Z</time>
      </trkpt>
      <trkpt lat="43.70144" lon="6.97477">
        <ele>500</ele>
        <time>2014-08-31T11:49:48Z</time>
      </trkpt>
      <trkpt lat="43.7014" lon="6.97505">
        <ele>500</ele>
        <time>2014-08-31T11:49:53Z</time>
      </trkpt>
      <trkpt lat="43.70139" lon="6.97517">
        <ele>502</ele>
        <time>2014-08-31T11:49:58Z</time>
      </trkpt>
      <trkpt lat="43.70138" lon="6.97522">
        <ele>503</ele>
        <time>2014-08-31T11:50:03Z</time>
      </trkpt>
      <trkpt lat="43.70138" lon="6.97527">
        <ele>506</ele>
        <time>2014-08-31T11:50:08Z</time>
      </trkpt>
      <trkpt lat="43.7014" lon="6.97544">
        <ele>508</ele>
        <time>2014-08-31T11:50:13Z</time>
      </trkpt>
      <trkpt lat="43.70141" lon="6.97562">
        <ele>513</ele>
        <time>2014-08-31T11:50:18Z</time>
      </trkpt>
      <trkpt lat="43.70143" lon="6.97576">
        <ele>513</ele>
        <time>2014-08-31T11:50:23Z</time>
      </trkpt>
      <trkpt lat="43.70148" lon="6.97598">
        <ele>508</ele>
        <time>2014-08-31T11:50:28Z</time>
      </trkpt>
      <trkpt lat="43.70169" lon="6.97643">
        <ele>505</ele>
        <time>2014-08-31T11:50:37Z</time>
      </trkpt>
      <trkpt lat="43.70171" lon="6.97649">
        <ele>505</ele>
        <time>2014-08-31T11:50:38Z</time>
      </trkpt>
      <trkpt lat="43.70175" lon="6.97679">
        <ele>505</ele>
        <time>2014-08-31T11:50:43Z</time>
      </trkpt>
      <trkpt lat="43.70175" lon="6.97681">
        <ele>506</ele>
        <time>2014-08-31T11:50:48Z</time>
      </trkpt>
      <trkpt lat="43.70176" lon="6.97688">
        <ele>507</ele>
        <time>2014-08-31T11:50:53Z</time>
      </trkpt>
      <trkpt lat="43.70177" lon="6.97699">
        <ele>507</ele>
        <time>2014-08-31T11:50:58Z</time>
      </trkpt>
      <trkpt lat="43.70179" lon="6.97708">
        <ele>508</ele>
        <time>2014-08-31T11:51:03Z</time>
      </trkpt>
      <trkpt lat="43.70182" lon="6.97716">
        <ele>509</ele>
        <time>2014-08-31T11:51:08Z</time>
      </trkpt>
      <trkpt lat="43.70183" lon="6.97726">
        <ele>509</ele>
        <time>2014-08-31T11:51:13Z</time>
      </trkpt>
      <trkpt lat="43.70187" lon="6.97738">
        <ele>508</ele>
        <time>2014-08-31T11:51:18Z</time>
      </trkpt>
      <trkpt lat="43.70194" lon="6.9775">
        <ele>508</ele>
        <time>2014-08-31T11:51:23Z</time>
      </trkpt>
      <trkpt lat="43.702" lon="6.97769">
        <ele>508</ele>
        <time>2014-08-31T11:51:28Z</time>
      </trkpt>
      <trkpt lat="43.702" lon="6.9779">
        <ele>509</ele>
        <time>2014-08-31T11:51:33Z</time>
      </trkpt>
      <trkpt lat="43.70203" lon="6.97809">
        <ele>509</ele>
        <time>2014-08-31T11:51:38Z</time>
      </trkpt>
      <trkpt lat="43.70202" lon="6.97838">
        <ele>511</ele>
        <time>2014-08-31T11:51:46Z</time>
      </trkpt>
      <trkpt lat="43.70202" lon="6.97842">
        <ele>513</ele>
        <time>2014-08-31T11:51:49Z</time>
      </trkpt>
      <trkpt lat="43.702" lon="6.97862">
        <ele>508</ele>
        <time>2014-08-31T11:51:53Z</time>
      </trkpt>
      <trkpt lat="43.70201" lon="6.97905">
        <ele>510</ele>
        <time>2014-08-31T11:52:00Z</time>
      </trkpt>
      <trkpt lat="43.70202" lon="6.97919">
        <ele>511</ele>
        <time>2014-08-31T11:52:03Z</time>
      </trkpt>
      <trkpt lat="43.70202" lon="6.97936">
        <ele>510</ele>
        <time>2014-08-31T11:52:08Z</time>
      </trkpt>
      <trkpt lat="43.70203" lon="6.97953">
        <ele>509</ele>
        <time>2014-08-31T11:52:13Z</time>
      </trkpt>
      <trkpt lat="43.70204" lon="6.97966">
        <ele>507</ele>
        <time>2014-08-31T11:52:18Z</time>
      </trkpt>
      <trkpt lat="43.70207" lon="6.97976">
        <ele>505</ele>
        <time>2014-08-31T11:52:23Z</time>
      </trkpt>
      <trkpt lat="43.70209" lon="6.97979">
        <ele>506</ele>
        <time>2014-08-31T11:52:28Z</time>
      </trkpt>
      <trkpt lat="43.70209" lon="6.97982">
        <ele>506</ele>
        <time>2014-08-31T11:52:33Z</time>
      </trkpt>
      <trkpt lat="43.70213" lon="6.97991">
        <ele>506</ele>
        <time>2014-08-31T11:52:38Z</time>
      </trkpt>
      <trkpt lat="43.7022" lon="6.98002">
        <ele>505</ele>
        <time>2014-08-31T11:52:43Z</time>
      </trkpt>
      <trkpt lat="43.70227" lon="6.98016">
        <ele>507</ele>
        <time>2014-08-31T11:52:48Z</time>
      </trkpt>
      <trkpt lat="43.70232" lon="6.9803">
        <ele>507</ele>
        <time>2014-08-31T11:52:54Z</time>
      </trkpt>
      <trkpt lat="43.70236" lon="6.98064">
        <ele>503</ele>
        <time>2014-08-31T11:53:01Z</time>
      </trkpt>
      <trkpt lat="43.70238" lon="6.98076">
        <ele>503</ele>
        <time>2014-08-31T11:53:03Z</time>
      </trkpt>
      <trkpt lat="43.70246" lon="6.98103">
        <ele>502</ele>
        <time>2014-08-31T11:53:08Z</time>
      </trkpt>
      <trkpt lat="43.70252" lon="6.98124">
        <ele>503</ele>
        <time>2014-08-31T11:53:13Z</time>
      </trkpt>
      <trkpt lat="43.70253" lon="6.98154">
        <ele>504</ele>
        <time>2014-08-31T11:53:20Z</time>
      </trkpt>
      <trkpt lat="43.70253" lon="6.98175">
        <ele>505</ele>
        <time>2014-08-31T11:53:24Z</time>
      </trkpt>
      <trkpt lat="43.70253" lon="6.98196">
        <ele>506</ele>
        <time>2014-08-31T11:53:28Z</time>
      </trkpt>
      <trkpt lat="43.70251" lon="6.98218">
        <ele>506</ele>
        <time>2014-08-31T11:53:33Z</time>
      </trkpt>
      <trkpt lat="43.70251" lon="6.98237">
        <ele>506</ele>
        <time>2014-08-31T11:53:38Z</time>
      </trkpt>
      <trkpt lat="43.70257" lon="6.98261">
        <ele>506</ele>
        <time>2014-08-31T11:53:43Z</time>
      </trkpt>
      <trkpt lat="43.70261" lon="6.98275">
        <ele>506</ele>
        <time>2014-08-31T11:53:48Z</time>
      </trkpt>
      <trkpt lat="43.7026" lon="6.98278">
        <ele>505</ele>
        <time>2014-08-31T11:53:54Z</time>
      </trkpt>
      <trkpt lat="43.70254" lon="6.98285">
        <ele>511</ele>
        <time>2014-08-31T11:54:01Z</time>
      </trkpt>
      <trkpt lat="43.70251" lon="6.98287">
        <ele>511</ele>
        <time>2014-08-31T11:54:03Z</time>
      </trkpt>
      <trkpt lat="43.70248" lon="6.98291">
        <ele>514</ele>
        <time>2014-08-31T11:54:08Z</time>
      </trkpt>
      <trkpt lat="43.70245" lon="6.98304">
        <ele>512</ele>
        <time>2014-08-31T11:54:13Z</time>
      </trkpt>
      <trkpt lat="43.70244" lon="6.9832">
        <ele>510</ele>
        <time>2014-08-31T11:54:18Z</time>
      </trkpt>
      <trkpt lat="43.70245" lon="6.98338">
        <ele>506</ele>
        <time>2014-08-31T11:54:23Z</time>
      </trkpt>
      <trkpt lat="43.70247" lon="6.9836">
        <ele>505</ele>
        <time>2014-08-31T11:54:28Z</time>
      </trkpt>
      <trkpt lat="43.70252" lon="6.98372">
        <ele>503</ele>
        <time>2014-08-31T11:54:33Z</time>
      </trkpt>
      <trkpt lat="43.70254" lon="6.98375">
        <ele>502</ele>
        <time>2014-08-31T11:54:38Z</time>
      </trkpt>
      <trkpt lat="43.70255" lon="6.98376">
        <ele>502</ele>
        <time>2014-08-31T11:54:43Z</time>
      </trkpt>
      <trkpt lat="43.70267" lon="6.98393">
        <ele>503</ele>
        <time>2014-08-31T11:54:49Z</time>
      </trkpt>
      <trkpt lat="43.70276" lon="6.98406">
        <ele>504</ele>
        <time>2014-08-31T11:54:53Z</time>
      </trkpt>
      <trkpt lat="43.70291" lon="6.98404">
        <ele>503</ele>
        <time>2014-08-31T11:54:58Z</time>
      </trkpt>
      <trkpt lat="43.70304" lon="6.98393">
        <ele>504</ele>
        <time>2014-08-31T11:55:03Z</time>
      </trkpt>
      <trkpt lat="43.70319" lon="6.98383">
        <ele>503</ele>
        <time>2014-08-31T11:55:08Z</time>
      </trkpt>
      <trkpt lat="43.70335" lon="6.98374">
        <ele>503</ele>
        <time>2014-08-31T11:55:13Z</time>
      </trkpt>
      <trkpt lat="43.70344" lon="6.9837">
        <ele>503</ele>
        <time>2014-08-31T11:55:18Z</time>
      </trkpt>
      <trkpt lat="43.70343" lon="6.9837">
        <ele>503</ele>
        <time>2014-08-31T11:55:23Z</time>
      </trkpt>
      <trkpt lat="43.70342" lon="6.9837">
        <ele>503</ele>
        <time>2014-08-31T11:55:28Z</time>
      </trkpt>
      <trkpt lat="43.70342" lon="6.98369">
        <ele>503</ele>
        <time>2014-08-31T11:55:33Z</time>
      </trkpt>
      <trkpt lat="43.70342" lon="6.98369">
        <ele>503</ele>
        <time>2014-08-31T11:55:38Z</time>
      </trkpt>
      <trkpt lat="43.70342" lon="6.98369">
        <ele>503</ele>
        <time>2014-08-31T11:55:43Z</time>
      </trkpt>
      <trkpt lat="43.70342" lon="6.98369">
        <ele>504</ele>
        <time>2014-08-31T11:55:48Z</time>
      </trkpt>
      <trkpt lat="43.70343" lon="6.98369">
        <ele>505</ele>
        <time>2014-08-31T11:55:53Z</time>
      </trkpt>
      <trkpt lat="43.70354" lon="6.98366">
        <ele>505</ele>
        <time>2014-08-31T11:55:58Z</time>
      </trkpt>
      <trkpt lat="43.70368" lon="6.98364">
        <ele>505</ele>
        <time>2014-08-31T11:56:03Z</time>
      </trkpt>
      <trkpt lat="43.70381" lon="6.98365">
        <ele>505</ele>
        <time>2014-08-31T11:56:08Z</time>
      </trkpt>
      <trkpt lat="43.70386" lon="6.98366">
        <ele>505</ele>
        <time>2014-08-31T11:56:13Z</time>
      </trkpt>
      <trkpt lat="43.70385" lon="6.98366">
        <ele>506</ele>
        <time>2014-08-31T11:56:18Z</time>
      </trkpt>
      <trkpt lat="43.70384" lon="6.98366">
        <ele>506</ele>
        <time>2014-08-31T11:56:23Z</time>
      </trkpt>
      <trkpt lat="43.70378" lon="6.98366">
        <ele>507</ele>
        <time>2014-08-31T11:56:29Z</time>
      </trkpt>
      <trkpt lat="43.70374" lon="6.98366">
        <ele>508</ele>
        <time>2014-08-31T11:56:33Z</time>
      </trkpt>
      <trkpt lat="43.70371" lon="6.98365">
        <ele>509</ele>
        <time>2014-08-31T11:56:39Z</time>
      </trkpt>
      <trkpt lat="43.70371" lon="6.98365">
        <ele>508</ele>
        <time>2014-08-31T11:56:43Z</time>
      </trkpt>
      <trkpt lat="43.7037" lon="6.98367">
        <ele>508</ele>
        <time>2014-08-31T11:56:48Z</time>
      </trkpt>
      <trkpt lat="43.70369" lon="6.98367">
        <ele>506</ele>
        <time>2014-08-31T11:56:53Z</time>
      </trkpt>
      <trkpt lat="43.70369" lon="6.98367">
        <ele>506</ele>
        <time>2014-08-31T11:56:58Z</time>
      </trkpt>
      <trkpt lat="43.70367" lon="6.98368">
        <ele>507</ele>
        <time>2014-08-31T11:57:03Z</time>
      </trkpt>
      <trkpt lat="43.70363" lon="6.98367">
        <ele>507</ele>
        <time>2014-08-31T11:57:08Z</time>
      </trkpt>
      <trkpt lat="43.70347" lon="6.9837">
        <ele>507</ele>
        <time>2014-08-31T11:57:14Z</time>
      </trkpt>
      <trkpt lat="43.70338" lon="6.98374">
        <ele>506</ele>
        <time>2014-08-31T11:57:18Z</time>
      </trkpt>
      <trkpt lat="43.70329" lon="6.98379">
        <ele>506</ele>
        <time>2014-08-31T11:57:23Z</time>
      </trkpt>
      <trkpt lat="43.7033" lon="6.98379">
        <ele>507</ele>
        <time>2014-08-31T11:57:28Z</time>
      </trkpt>
      <trkpt lat="43.7033" lon="6.98379">
        <ele>507</ele>
        <time>2014-08-31T11:57:33Z</time>
      </trkpt>
      <trkpt lat="43.70333" lon="6.98376">
        <ele>507</ele>
        <time>2014-08-31T11:57:39Z</time>
      </trkpt>
      <trkpt lat="43.70339" lon="6.98376">
        <ele>506</ele>
        <time>2014-08-31T11:57:43Z</time>
      </trkpt>
      <trkpt lat="43.7035" lon="6.9839">
        <ele>499</ele>
        <time>2014-08-31T11:57:51Z</time>
      </trkpt>
      <trkpt lat="43.7035" lon="6.9839">
        <ele>499</ele>
        <time>2014-08-31T11:57:53Z</time>
      </trkpt>
      <trkpt lat="43.70349" lon="6.9839">
        <ele>499</ele>
        <time>2014-08-31T11:57:58Z</time>
      </trkpt>
      <trkpt lat="43.70349" lon="6.9839">
        <ele>498</ele>
        <time>2014-08-31T11:58:03Z</time>
      </trkpt>
      <trkpt lat="43.70348" lon="6.9839">
        <ele>498</ele>
        <time>2014-08-31T11:58:08Z</time>
      </trkpt>
      <trkpt lat="43.70348" lon="6.9839">
        <ele>498</ele>
        <time>2014-08-31T11:58:13Z</time>
      </trkpt>
      <trkpt lat="43.70344" lon="6.98407">
        <ele>493</ele>
        <time>2014-08-31T11:58:21Z</time>
      </trkpt>
      <trkpt lat="43.7034" lon="6.98418">
        <ele>489</ele>
        <time>2014-08-31T11:58:23Z</time>
      </trkpt>
      <trkpt lat="43.70317" lon="6.9848">
        <ele>477</ele>
        <time>2014-08-31T11:58:32Z</time>
      </trkpt>
      <trkpt lat="43.70312" lon="6.98483">
        <ele>475</ele>
        <time>2014-08-31T11:58:34Z</time>
      </trkpt>
      <trkpt lat="43.70311" lon="6.98482">
        <ele>475</ele>
        <time>2014-08-31T11:58:38Z</time>
      </trkpt>
      <trkpt lat="43.7031" lon="6.98482">
        <ele>473</ele>
        <time>2014-08-31T11:58:43Z</time>
      </trkpt>
      <trkpt lat="43.70311" lon="6.98488">
        <ele>470</ele>
        <time>2014-08-31T11:58:48Z</time>
      </trkpt>
      <trkpt lat="43.70323" lon="6.98489">
        <ele>461</ele>
        <time>2014-08-31T11:58:53Z</time>
      </trkpt>
      <trkpt lat="43.70334" lon="6.98504">
        <ele>455</ele>
        <time>2014-08-31T11:58:58Z</time>
      </trkpt>
      <trkpt lat="43.70332" lon="6.98535">
        <ele>452</ele>
        <time>2014-08-31T11:59:04Z</time>
      </trkpt>
      <trkpt lat="43.7033" lon="6.98535">
        <ele>451</ele>
        <time>2014-08-31T11:59:08Z</time>
      </trkpt>
      <trkpt lat="43.70329" lon="6.98534">
        <ele>450</ele>
        <time>2014-08-31T11:59:13Z</time>
      </trkpt>
      <trkpt lat="43.70328" lon="6.98534">
        <ele>450</ele>
        <time>2014-08-31T11:59:18Z</time>
      </trkpt>
      <trkpt lat="43.70328" lon="6.98534">
        <ele>450</ele>
        <time>2014-08-31T11:59:25Z</time>
      </trkpt>
      <trkpt lat="43.70328" lon="6.98534">
        <ele>450</ele>
        <time>2014-08-31T11:59:28Z</time>
      </trkpt>
      <trkpt lat="43.70328" lon="6.98534">
        <ele>450</ele>
        <time>2014-08-31T11:59:33Z</time>
      </trkpt>
      <trkpt lat="43.70328" lon="6.98534">
        <ele>450</ele>
        <time>2014-08-31T11:59:38Z</time>
      </trkpt>
      <trkpt lat="43.70328" lon="6.98535">
        <ele>450</ele>
        <time>2014-08-31T11:59:43Z</time>
      </trkpt>
      <trkpt lat="43.70341" lon="6.98549">
        <ele>449</ele>
        <time>2014-08-31T11:59:48Z</time>
      </trkpt>
      <trkpt lat="43.70354" lon="6.98537">
        <ele>446</ele>
        <time>2014-08-31T11:59:53Z</time>
      </trkpt>
      <trkpt lat="43.70379" lon="6.98537">
        <ele>438</ele>
        <time>2014-08-31T12:00:01Z</time>
      </trkpt>
      <trkpt lat="43.70398" lon="6.98535">
        <ele>434</ele>
        <time>2014-08-31T12:00:06Z</time>
      </trkpt>
      <trkpt lat="43.70405" lon="6.98541">
        <ele>433</ele>
        <time>2014-08-31T12:00:10Z</time>
      </trkpt>
      <trkpt lat="43.70403" lon="6.98542">
        <ele>434</ele>
        <time>2014-08-31T12:00:13Z</time>
      </trkpt>
      <trkpt lat="43.70403" lon="6.98544">
        <ele>437</ele>
        <time>2014-08-31T12:00:18Z</time>
      </trkpt>
      <trkpt lat="43.70403" lon="6.98544">
        <ele>437</ele>
        <time>2014-08-31T12:00:23Z</time>
      </trkpt>
      <trkpt lat="43.70406" lon="6.98543">
        <ele>437</ele>
        <time>2014-08-31T12:00:28Z</time>
      </trkpt>
      <trkpt lat="43.70422" lon="6.98536">
        <ele>436</ele>
        <time>2014-08-31T12:00:33Z</time>
      </trkpt>
      <trkpt lat="43.70441" lon="6.9853">
        <ele>437</ele>
        <time>2014-08-31T12:00:38Z</time>
      </trkpt>
      <trkpt lat="43.70459" lon="6.98524">
        <ele>436</ele>
        <time>2014-08-31T12:00:43Z</time>
      </trkpt>
      <trkpt lat="43.70475" lon="6.98514">
        <ele>436</ele>
        <time>2014-08-31T12:00:48Z</time>
      </trkpt>
      <trkpt lat="43.70496" lon="6.985">
        <ele>433</ele>
        <time>2014-08-31T12:00:54Z</time>
      </trkpt>
      <trkpt lat="43.70509" lon="6.98492">
        <ele>434</ele>
        <time>2014-08-31T12:00:58Z</time>
      </trkpt>
      <trkpt lat="43.70527" lon="6.98482">
        <ele>434</ele>
        <time>2014-08-31T12:01:03Z</time>
      </trkpt>
      <trkpt lat="43.70547" lon="6.9848">
        <ele>432</ele>
        <time>2014-08-31T12:01:08Z</time>
      </trkpt>
      <trkpt lat="43.70572" lon="6.98459">
        <ele>430</ele>
        <time>2014-08-31T12:01:16Z</time>
      </trkpt>
      <trkpt lat="43.70575" lon="6.98455">
        <ele>429</ele>
        <time>2014-08-31T12:01:18Z</time>
      </trkpt>
      <trkpt lat="43.70587" lon="6.98442">
        <ele>429</ele>
        <time>2014-08-31T12:01:25Z</time>
      </trkpt>
      <trkpt lat="43.70604" lon="6.9843">
        <ele>428</ele>
        <time>2014-08-31T12:01:32Z</time>
      </trkpt>
      <trkpt lat="43.70607" lon="6.98427">
        <ele>428</ele>
        <time>2014-08-31T12:01:33Z</time>
      </trkpt>
      <trkpt lat="43.70626" lon="6.98408">
        <ele>427</ele>
        <time>2014-08-31T12:01:38Z</time>
      </trkpt>
      <trkpt lat="43.70639" lon="6.98385">
        <ele>428</ele>
        <time>2014-08-31T12:01:43Z</time>
      </trkpt>
      <trkpt lat="43.70666" lon="6.98348">
        <ele>427</ele>
        <time>2014-08-31T12:01:52Z</time>
      </trkpt>
      <trkpt lat="43.70671" lon="6.98347">
        <ele>427</ele>
        <time>2014-08-31T12:01:53Z</time>
      </trkpt>
      <trkpt lat="43.70704" lon="6.98335">
        <ele>427</ele>
        <time>2014-08-31T12:02:02Z</time>
      </trkpt>
      <trkpt lat="43.70707" lon="6.98331">
        <ele>427</ele>
        <time>2014-08-31T12:02:03Z</time>
      </trkpt>
      <trkpt lat="43.70725" lon="6.98319">
        <ele>427</ele>
        <time>2014-08-31T12:02:08Z</time>
      </trkpt>
      <trkpt lat="43.70761" lon="6.98313">
        <ele>428</ele>
        <time>2014-08-31T12:02:15Z</time>
      </trkpt>
      <trkpt lat="43.7077" lon="6.9832">
        <ele>429</ele>
        <time>2014-08-31T12:02:19Z</time>
      </trkpt>
      <trkpt lat="43.70769" lon="6.98324">
        <ele>429</ele>
        <time>2014-08-31T12:02:23Z</time>
      </trkpt>
      <trkpt lat="43.70769" lon="6.98327">
        <ele>431</ele>
        <time>2014-08-31T12:02:28Z</time>
      </trkpt>
      <trkpt lat="43.70768" lon="6.98327">
        <ele>432</ele>
        <time>2014-08-31T12:02:33Z</time>
      </trkpt>
      <trkpt lat="43.7077" lon="6.98324">
        <ele>429</ele>
        <time>2014-08-31T12:02:41Z</time>
      </trkpt>
      <trkpt lat="43.70771" lon="6.98323">
        <ele>428</ele>
        <time>2014-08-31T12:02:43Z</time>
      </trkpt>
      <trkpt lat="43.70774" lon="6.98323">
        <ele>427</ele>
        <time>2014-08-31T12:02:48Z</time>
      </trkpt>
      <trkpt lat="43.70783" lon="6.98317">
        <ele>428</ele>
        <time>2014-08-31T12:02:53Z</time>
      </trkpt>
      <trkpt lat="43.70792" lon="6.98308">
        <ele>432</ele>
        <time>2014-08-31T12:02:58Z</time>
      </trkpt>
      <trkpt lat="43.70805" lon="6.98296">
        <ele>432</ele>
        <time>2014-08-31T12:03:04Z</time>
      </trkpt>
      <trkpt lat="43.70818" lon="6.98284">
        <ele>433</ele>
        <time>2014-08-31T12:03:10Z</time>
      </trkpt>
      <trkpt lat="43.70825" lon="6.98278">
        <ele>432</ele>
        <time>2014-08-31T12:03:13Z</time>
      </trkpt>
      <trkpt lat="43.70838" lon="6.9826">
        <ele>430</ele>
        <time>2014-08-31T12:03:18Z</time>
      </trkpt>
      <trkpt lat="43.70859" lon="6.98229">
        <ele>428</ele>
        <time>2014-08-31T12:03:27Z</time>
      </trkpt>
      <trkpt lat="43.70862" lon="6.98225">
        <ele>429</ele>
        <time>2014-08-31T12:03:28Z</time>
      </trkpt>
      <trkpt lat="43.70876" lon="6.98203">
        <ele>430</ele>
        <time>2014-08-31T12:03:33Z</time>
      </trkpt>
      <trkpt lat="43.70896" lon="6.98183">
        <ele>431</ele>
        <time>2014-08-31T12:03:38Z</time>
      </trkpt>
      <trkpt lat="43.70921" lon="6.98154">
        <ele>428</ele>
        <time>2014-08-31T12:03:45Z</time>
      </trkpt>
      <trkpt lat="43.70928" lon="6.9814">
        <ele>428</ele>
        <time>2014-08-31T12:03:48Z</time>
      </trkpt>
      <trkpt lat="43.70941" lon="6.98117">
        <ele>423</ele>
        <time>2014-08-31T12:03:53Z</time>
      </trkpt>
      <trkpt lat="43.70958" lon="6.98091">
        <ele>424</ele>
        <time>2014-08-31T12:03:58Z</time>
      </trkpt>
      <trkpt lat="43.70984" lon="6.98056">
        <ele>419</ele>
        <time>2014-08-31T12:04:06Z</time>
      </trkpt>
      <trkpt lat="43.70996" lon="6.98047">
        <ele>420</ele>
        <time>2014-08-31T12:04:08Z</time>
      </trkpt>
      <trkpt lat="43.71018" lon="6.98029">
        <ele>424</ele>
        <time>2014-08-31T12:04:13Z</time>
      </trkpt>
      <trkpt lat="43.71037" lon="6.98008">
        <ele>425</ele>
        <time>2014-08-31T12:04:18Z</time>
      </trkpt>
      <trkpt lat="43.71052" lon="6.97981">
        <ele>427</ele>
        <time>2014-08-31T12:04:23Z</time>
      </trkpt>
      <trkpt lat="43.7107" lon="6.9796">
        <ele>428</ele>
        <time>2014-08-31T12:04:28Z</time>
      </trkpt>
      <trkpt lat="43.71093" lon="6.97948">
        <ele>428</ele>
        <time>2014-08-31T12:04:33Z</time>
      </trkpt>
      <trkpt lat="43.71113" lon="6.97929">
        <ele>428</ele>
        <time>2014-08-31T12:04:38Z</time>
      </trkpt>
      <trkpt lat="43.71139" lon="6.97884">
        <ele>428</ele>
        <time>2014-08-31T12:04:47Z</time>
      </trkpt>
      <trkpt lat="43.71143" lon="6.9787">
        <ele>428</ele>
        <time>2014-08-31T12:04:49Z</time>
      </trkpt>
      <trkpt lat="43.71157" lon="6.97824">
        <ele>428</ele>
        <time>2014-08-31T12:04:57Z</time>
      </trkpt>
      <trkpt lat="43.71158" lon="6.97818">
        <ele>428</ele>
        <time>2014-08-31T12:04:58Z</time>
      </trkpt>
      <trkpt lat="43.71169" lon="6.9779">
        <ele>427</ele>
        <time>2014-08-31T12:05:03Z</time>
      </trkpt>
      <trkpt lat="43.71209" lon="6.97795">
        <ele>432</ele>
        <time>2014-08-31T12:05:12Z</time>
      </trkpt>
      <trkpt lat="43.71213" lon="6.97796">
        <ele>431</ele>
        <time>2014-08-31T12:05:13Z</time>
      </trkpt>
      <trkpt lat="43.71236" lon="6.97794">
        <ele>432</ele>
        <time>2014-08-31T12:05:20Z</time>
      </trkpt>
      <trkpt lat="43.71253" lon="6.9779">
        <ele>432</ele>
        <time>2014-08-31T12:05:25Z</time>
      </trkpt>
      <trkpt lat="43.71265" lon="6.97787">
        <ele>431</ele>
        <time>2014-08-31T12:05:28Z</time>
      </trkpt>
      <trkpt lat="43.7129" lon="6.97788">
        <ele>431</ele>
        <time>2014-08-31T12:05:34Z</time>
      </trkpt>
      <trkpt lat="43.71315" lon="6.97786">
        <ele>431</ele>
        <time>2014-08-31T12:05:40Z</time>
      </trkpt>
      <trkpt lat="43.71331" lon="6.97779">
        <ele>431</ele>
        <time>2014-08-31T12:05:44Z</time>
      </trkpt>
      <trkpt lat="43.71348" lon="6.97758">
        <ele>429</ele>
        <time>2014-08-31T12:05:49Z</time>
      </trkpt>
      <trkpt lat="43.71365" lon="6.9774">
        <ele>429</ele>
        <time>2014-08-31T12:05:54Z</time>
      </trkpt>
      <trkpt lat="43.71381" lon="6.97736">
        <ele>429</ele>
        <time>2014-08-31T12:05:58Z</time>
      </trkpt>
      <trkpt lat="43.71407" lon="6.97719">
        <ele>429</ele>
        <time>2014-08-31T12:06:05Z</time>
      </trkpt>
      <trkpt lat="43.71418" lon="6.97708">
        <ele>430</ele>
        <time>2014-08-31T12:06:08Z</time>
      </trkpt>
      <trkpt lat="43.71433" lon="6.97688">
        <ele>429</ele>
        <time>2014-08-31T12:06:13Z</time>
      </trkpt>
      <trkpt lat="43.71457" lon="6.97667">
        <ele>427</ele>
        <time>2014-08-31T12:06:21Z</time>
      </trkpt>
      <trkpt lat="43.71472" lon="6.97668">
        <ele>428</ele>
        <time>2014-08-31T12:06:25Z</time>
      </trkpt>
      <trkpt lat="43.71491" lon="6.97668">
        <ele>429</ele>
        <time>2014-08-31T12:06:30Z</time>
      </trkpt>
      <trkpt lat="43.71502" lon="6.97664">
        <ele>429</ele>
        <time>2014-08-31T12:06:33Z</time>
      </trkpt>
      <trkpt lat="43.71521" lon="6.97658">
        <ele>428</ele>
        <time>2014-08-31T12:06:38Z</time>
      </trkpt>
      <trkpt lat="43.7154" lon="6.9766">
        <ele>429</ele>
        <time>2014-08-31T12:06:43Z</time>
      </trkpt>
      <trkpt lat="43.71562" lon="6.97656">
        <ele>429</ele>
        <time>2014-08-31T12:06:48Z</time>
      </trkpt>
      <trkpt lat="43.71586" lon="6.9765">
        <ele>430</ele>
        <time>2014-08-31T12:06:55Z</time>
      </trkpt>
      <trkpt lat="43.71586" lon="6.97649">
        <ele>429</ele>
        <time>2014-08-31T12:06:58Z</time>
      </trkpt>
      <trkpt lat="43.71586" lon="6.97649">
        <ele>430</ele>
        <time>2014-08-31T12:07:03Z</time>
      </trkpt>
      <trkpt lat="43.71586" lon="6.97652">
        <ele>434</ele>
        <time>2014-08-31T12:07:10Z</time>
      </trkpt>
      <trkpt lat="43.71588" lon="6.97654">
        <ele>435</ele>
        <time>2014-08-31T12:07:14Z</time>
      </trkpt>
      <trkpt lat="43.71591" lon="6.97656">
        <ele>437</ele>
        <time>2014-08-31T12:07:18Z</time>
      </trkpt>
      <trkpt lat="43.71595" lon="6.97657">
        <ele>438</ele>
        <time>2014-08-31T12:07:23Z</time>
      </trkpt>
      <trkpt lat="43.71596" lon="6.97659">
        <ele>438</ele>
        <time>2014-08-31T12:07:30Z</time>
      </trkpt>
      <trkpt lat="43.71597" lon="6.9766">
        <ele>439</ele>
        <time>2014-08-31T12:07:33Z</time>
      </trkpt>
      <trkpt lat="43.71602" lon="6.9766">
        <ele>438</ele>
        <time>2014-08-31T12:07:38Z</time>
      </trkpt>
      <trkpt lat="43.71606" lon="6.97659">
        <ele>438</ele>
        <time>2014-08-31T12:07:43Z</time>
      </trkpt>
      <trkpt lat="43.71613" lon="6.97658">
        <ele>438</ele>
        <time>2014-08-31T12:07:49Z</time>
      </trkpt>
      <trkpt lat="43.71615" lon="6.97657">
        <ele>439</ele>
        <time>2014-08-31T12:07:56Z</time>
      </trkpt>
      <trkpt lat="43.71616" lon="6.97655">
        <ele>438</ele>
        <time>2014-08-31T12:08:00Z</time>
      </trkpt>
      <trkpt lat="43.71616" lon="6.97652">
        <ele>438</ele>
        <time>2014-08-31T12:08:03Z</time>
      </trkpt>
      <trkpt lat="43.71616" lon="6.97653">
        <ele>438</ele>
        <time>2014-08-31T12:08:08Z</time>
      </trkpt>
      <trkpt lat="43.71611" lon="6.97671">
        <ele>443</ele>
        <time>2014-08-31T12:08:16Z</time>
      </trkpt>
      <trkpt lat="43.71606" lon="6.97687">
        <ele>444</ele>
        <time>2014-08-31T12:08:21Z</time>
      </trkpt>
      <trkpt lat="43.71606" lon="6.9769">
        <ele>443</ele>
        <time>2014-08-31T12:08:23Z</time>
      </trkpt>
      <trkpt lat="43.71604" lon="6.97708">
        <ele>446</ele>
        <time>2014-08-31T12:08:28Z</time>
      </trkpt>
      <trkpt lat="43.71596" lon="6.97776">
        <ele>447</ele>
        <time>2014-08-31T12:08:36Z</time>
      </trkpt>
      <trkpt lat="43.71596" lon="6.97836">
        <ele>433</ele>
        <time>2014-08-31T12:08:42Z</time>
      </trkpt>
      <trkpt lat="43.71596" lon="6.97843">
        <ele>434</ele>
        <time>2014-08-31T12:08:43Z</time>
      </trkpt>
      <trkpt lat="43.71599" lon="6.97879">
        <ele>435</ele>
        <time>2014-08-31T12:08:49Z</time>
      </trkpt>
      <trkpt lat="43.71595" lon="6.97903">
        <ele>436</ele>
        <time>2014-08-31T12:08:53Z</time>
      </trkpt>
      <trkpt lat="43.71593" lon="6.97933">
        <ele>438</ele>
        <time>2014-08-31T12:08:58Z</time>
      </trkpt>
      <trkpt lat="43.7159" lon="6.97962">
        <ele>438</ele>
        <time>2014-08-31T12:09:03Z</time>
      </trkpt>
      <trkpt lat="43.71582" lon="6.98001">
        <ele>438</ele>
        <time>2014-08-31T12:09:10Z</time>
      </trkpt>
      <trkpt lat="43.71578" lon="6.9804">
        <ele>435</ele>
        <time>2014-08-31T12:09:16Z</time>
      </trkpt>
      <trkpt lat="43.71579" lon="6.98048">
        <ele>434</ele>
        <time>2014-08-31T12:09:18Z</time>
      </trkpt>
      <trkpt lat="43.71583" lon="6.98075">
        <ele>424</ele>
        <time>2014-08-31T12:09:23Z</time>
      </trkpt>
      <trkpt lat="43.71584" lon="6.98098">
        <ele>420</ele>
        <time>2014-08-31T12:09:28Z</time>
      </trkpt>
      <trkpt lat="43.71583" lon="6.98109">
        <ele>419</ele>
        <time>2014-08-31T12:09:33Z</time>
      </trkpt>
      <trkpt lat="43.71581" lon="6.98123">
        <ele>418</ele>
        <time>2014-08-31T12:09:38Z</time>
      </trkpt>
      <trkpt lat="43.71578" lon="6.98154">
        <ele>413</ele>
        <time>2014-08-31T12:09:43Z</time>
      </trkpt>
      <trkpt lat="43.71575" lon="6.9818">
        <ele>408</ele>
        <time>2014-08-31T12:09:49Z</time>
      </trkpt>
      <trkpt lat="43.71571" lon="6.98167">
        <ele>408</ele>
        <time>2014-08-31T12:09:53Z</time>
      </trkpt>
      <trkpt lat="43.71564" lon="6.98148">
        <ele>405</ele>
        <time>2014-08-31T12:09:58Z</time>
      </trkpt>
      <trkpt lat="43.71555" lon="6.98142">
        <ele>404</ele>
        <time>2014-08-31T12:10:05Z</time>
      </trkpt>
      <trkpt lat="43.71555" lon="6.98145">
        <ele>405</ele>
        <time>2014-08-31T12:10:08Z</time>
      </trkpt>
      <trkpt lat="43.71555" lon="6.98146">
        <ele>403</ele>
        <time>2014-08-31T12:10:13Z</time>
      </trkpt>
      <trkpt lat="43.71554" lon="6.98146">
        <ele>403</ele>
        <time>2014-08-31T12:10:18Z</time>
      </trkpt>
      <trkpt lat="43.71553" lon="6.98148">
        <ele>403</ele>
        <time>2014-08-31T12:10:23Z</time>
      </trkpt>
      <trkpt lat="43.71553" lon="6.98168">
        <ele>398</ele>
        <time>2014-08-31T12:10:28Z</time>
      </trkpt>
      <trkpt lat="43.71553" lon="6.98198">
        <ele>395</ele>
        <time>2014-08-31T12:10:33Z</time>
      </trkpt>
      <trkpt lat="43.71562" lon="6.9823">
        <ele>394</ele>
        <time>2014-08-31T12:10:38Z</time>
      </trkpt>
      <trkpt lat="43.7157" lon="6.98251">
        <ele>389</ele>
        <time>2014-08-31T12:10:43Z</time>
      </trkpt>
      <trkpt lat="43.71576" lon="6.98278">
        <ele>384</ele>
        <time>2014-08-31T12:10:48Z</time>
      </trkpt>
      <trkpt lat="43.71581" lon="6.98313">
        <ele>381</ele>
        <time>2014-08-31T12:10:54Z</time>
      </trkpt>
      <trkpt lat="43.71585" lon="6.98337">
        <ele>377</ele>
        <time>2014-08-31T12:10:58Z</time>
      </trkpt>
      <trkpt lat="43.7159" lon="6.98359">
        <ele>373</ele>
        <time>2014-08-31T12:11:03Z</time>
      </trkpt>
      <trkpt lat="43.71593" lon="6.98387">
        <ele>369</ele>
        <time>2014-08-31T12:11:08Z</time>
      </trkpt>
      <trkpt lat="43.71597" lon="6.98419">
        <ele>368</ele>
        <time>2014-08-31T12:11:13Z</time>
      </trkpt>
      <trkpt lat="43.71604" lon="6.98453">
        <ele>363</ele>
        <time>2014-08-31T12:11:18Z</time>
      </trkpt>
      <trkpt lat="43.7158" lon="6.98486">
        <ele>356</ele>
        <time>2014-08-31T12:11:24Z</time>
      </trkpt>
      <trkpt lat="43.71567" lon="6.98497">
        <ele>349</ele>
        <time>2014-08-31T12:11:28Z</time>
      </trkpt>
      <trkpt lat="43.71555" lon="6.98486">
        <ele>342</ele>
        <time>2014-08-31T12:11:34Z</time>
      </trkpt>
      <trkpt lat="43.71549" lon="6.98479">
        <ele>339</ele>
        <time>2014-08-31T12:11:38Z</time>
      </trkpt>
      <trkpt lat="43.71551" lon="6.98481">
        <ele>339</ele>
        <time>2014-08-31T12:11:43Z</time>
      </trkpt>
      <trkpt lat="43.71551" lon="6.98482">
        <ele>338</ele>
        <time>2014-08-31T12:11:48Z</time>
      </trkpt>
      <trkpt lat="43.71551" lon="6.98482">
        <ele>338</ele>
        <time>2014-08-31T12:11:53Z</time>
      </trkpt>
      <trkpt lat="43.71551" lon="6.98482">
        <ele>338</ele>
        <time>2014-08-31T12:11:58Z</time>
      </trkpt>
      <trkpt lat="43.71551" lon="6.98482">
        <ele>338</ele>
        <time>2014-08-31T12:12:03Z</time>
      </trkpt>
      <trkpt lat="43.71551" lon="6.98479">
        <ele>339</ele>
        <time>2014-08-31T12:12:08Z</time>
      </trkpt>
      <trkpt lat="43.71549" lon="6.98478">
        <ele>339</ele>
        <time>2014-08-31T12:12:13Z</time>
      </trkpt>
      <trkpt lat="43.71549" lon="6.98479">
        <ele>339</ele>
        <time>2014-08-31T12:12:18Z</time>
      </trkpt>
      <trkpt lat="43.71549" lon="6.98478">
        <ele>339</ele>
        <time>2014-08-31T12:12:23Z</time>
      </trkpt>
      <trkpt lat="43.71548" lon="6.98482">
        <ele>338</ele>
        <time>2014-08-31T12:12:28Z</time>
      </trkpt>
      <trkpt lat="43.71542" lon="6.98509">
        <ele>333</ele>
        <time>2014-08-31T12:12:33Z</time>
      </trkpt>
      <trkpt lat="43.71536" lon="6.98505">
        <ele>330</ele>
        <time>2014-08-31T12:12:38Z</time>
      </trkpt>
      <trkpt lat="43.71534" lon="6.98528">
        <ele>328</ele>
        <time>2014-08-31T12:12:43Z</time>
      </trkpt>
      <trkpt lat="43.71535" lon="6.98568">
        <ele>320</ele>
        <time>2014-08-31T12:12:48Z</time>
      </trkpt>
      <trkpt lat="43.7154" lon="6.98595">
        <ele>316</ele>
        <time>2014-08-31T12:12:53Z</time>
      </trkpt>
      <trkpt lat="43.71551" lon="6.98614">
        <ele>309</ele>
        <time>2014-08-31T12:12:59Z</time>
      </trkpt>
      <trkpt lat="43.71558" lon="6.98618">
        <ele>305</ele>
        <time>2014-08-31T12:13:03Z</time>
      </trkpt>
      <trkpt lat="43.71546" lon="6.9863">
        <ele>301</ele>
        <time>2014-08-31T12:13:11Z</time>
      </trkpt>
      <trkpt lat="43.71547" lon="6.9863">
        <ele>301</ele>
        <time>2014-08-31T12:13:13Z</time>
      </trkpt>
      <trkpt lat="43.71547" lon="6.9863">
        <ele>302</ele>
        <time>2014-08-31T12:13:18Z</time>
      </trkpt>
      <trkpt lat="43.71547" lon="6.9863">
        <ele>302</ele>
        <time>2014-08-31T12:13:23Z</time>
      </trkpt>
      <trkpt lat="43.71547" lon="6.98629">
        <ele>301</ele>
        <time>2014-08-31T12:13:28Z</time>
      </trkpt>
      <trkpt lat="43.71547" lon="6.98629">
        <ele>302</ele>
        <time>2014-08-31T12:13:33Z</time>
      </trkpt>
      <trkpt lat="43.71548" lon="6.98629">
        <ele>302</ele>
        <time>2014-08-31T12:13:38Z</time>
      </trkpt>
      <trkpt lat="43.71546" lon="6.9863">
        <ele>306</ele>
        <time>2014-08-31T12:13:44Z</time>
      </trkpt>
      <trkpt lat="43.7156" lon="6.9864">
        <ele>303</ele>
        <time>2014-08-31T12:13:49Z</time>
      </trkpt>
      <trkpt lat="43.71589" lon="6.98644">
        <ele>300</ele>
        <time>2014-08-31T12:13:55Z</time>
      </trkpt>
      <trkpt lat="43.716" lon="6.98648">
        <ele>299</ele>
        <time>2014-08-31T12:13:58Z</time>
      </trkpt>
      <trkpt lat="43.71615" lon="6.98671">
        <ele>292</ele>
        <time>2014-08-31T12:14:07Z</time>
      </trkpt>
      <trkpt lat="43.71612" lon="6.98675">
        <ele>291</ele>
        <time>2014-08-31T12:14:08Z</time>
      </trkpt>
      <trkpt lat="43.71597" lon="6.98702">
        <ele>285</ele>
        <time>2014-08-31T12:14:14Z</time>
      </trkpt>
      <trkpt lat="43.71611" lon="6.98709">
        <ele>286</ele>
        <time>2014-08-31T12:14:18Z</time>
      </trkpt>
      <trkpt lat="43.71647" lon="6.98719">
        <ele>282</ele>
        <time>2014-08-31T12:14:25Z</time>
      </trkpt>
      <trkpt lat="43.71664" lon="6.98718">
        <ele>280</ele>
        <time>2014-08-31T12:14:28Z</time>
      </trkpt>
      <trkpt lat="43.71696" lon="6.9873">
        <ele>278</ele>
        <time>2014-08-31T12:14:34Z</time>
      </trkpt>
      <trkpt lat="43.71715" lon="6.98745">
        <ele>279</ele>
        <time>2014-08-31T12:14:38Z</time>
      </trkpt>
      <trkpt lat="43.71731" lon="6.98792">
        <ele>271</ele>
        <time>2014-08-31T12:14:46Z</time>
      </trkpt>
      <trkpt lat="43.7172" lon="6.98805">
        <ele>268</ele>
        <time>2014-08-31T12:14:48Z</time>
      </trkpt>
      <trkpt lat="43.71666" lon="6.98792">
        <ele>261</ele>
        <time>2014-08-31T12:14:56Z</time>
      </trkpt>
      <trkpt lat="43.71652" lon="6.98796">
        <ele>258</ele>
        <time>2014-08-31T12:14:58Z</time>
      </trkpt>
      <trkpt lat="43.71596" lon="6.98787">
        <ele>255</ele>
        <time>2014-08-31T12:15:05Z</time>
      </trkpt>
      <trkpt lat="43.7157" lon="6.98774">
        <ele>254</ele>
        <time>2014-08-31T12:15:09Z</time>
      </trkpt>
      <trkpt lat="43.71546" lon="6.98763">
        <ele>255</ele>
        <time>2014-08-31T12:15:14Z</time>
      </trkpt>
      <trkpt lat="43.71534" lon="6.98756">
        <ele>255</ele>
        <time>2014-08-31T12:15:18Z</time>
      </trkpt>
      <trkpt lat="43.71521" lon="6.9875">
        <ele>254</ele>
        <time>2014-08-31T12:15:23Z</time>
      </trkpt>
      <trkpt lat="43.71507" lon="6.98746">
        <ele>254</ele>
        <time>2014-08-31T12:15:28Z</time>
      </trkpt>
      <trkpt lat="43.71486" lon="6.9874">
        <ele>251</ele>
        <time>2014-08-31T12:15:35Z</time>
      </trkpt>
      <trkpt lat="43.71485" lon="6.98744">
        <ele>249</ele>
        <time>2014-08-31T12:15:38Z</time>
      </trkpt>
      <trkpt lat="43.7149" lon="6.98748">
        <ele>249</ele>
        <time>2014-08-31T12:15:43Z</time>
      </trkpt>
      <trkpt lat="43.71493" lon="6.98751">
        <ele>249</ele>
        <time>2014-08-31T12:15:48Z</time>
      </trkpt>
      <trkpt lat="43.71497" lon="6.98751">
        <ele>248</ele>
        <time>2014-08-31T12:15:53Z</time>
      </trkpt>
      <trkpt lat="43.7149" lon="6.98745">
        <ele>248</ele>
        <time>2014-08-31T12:15:58Z</time>
      </trkpt>
      <trkpt lat="43.71476" lon="6.98735">
        <ele>248</ele>
        <time>2014-08-31T12:16:03Z</time>
      </trkpt>
      <trkpt lat="43.71457" lon="6.98717">
        <ele>248</ele>
        <time>2014-08-31T12:16:10Z</time>
      </trkpt>
      <trkpt lat="43.71449" lon="6.98709">
        <ele>248</ele>
        <time>2014-08-31T12:16:13Z</time>
      </trkpt>
      <trkpt lat="43.71438" lon="6.98695">
        <ele>251</ele>
        <time>2014-08-31T12:16:18Z</time>
      </trkpt>
      <trkpt lat="43.71431" lon="6.98681">
        <ele>254</ele>
        <time>2014-08-31T12:16:23Z</time>
      </trkpt>
      <trkpt lat="43.71423" lon="6.98664">
        <ele>256</ele>
        <time>2014-08-31T12:16:28Z</time>
      </trkpt>
      <trkpt lat="43.71409" lon="6.98627">
        <ele>253</ele>
        <time>2014-08-31T12:16:37Z</time>
      </trkpt>
      <trkpt lat="43.71408" lon="6.98621">
        <ele>252</ele>
        <time>2014-08-31T12:16:38Z</time>
      </trkpt>
      <trkpt lat="43.71401" lon="6.98596">
        <ele>252</ele>
        <time>2014-08-31T12:16:43Z</time>
      </trkpt>
      <trkpt lat="43.71392" lon="6.98568">
        <ele>253</ele>
        <time>2014-08-31T12:16:49Z</time>
      </trkpt>
      <trkpt lat="43.71385" lon="6.98551">
        <ele>253</ele>
        <time>2014-08-31T12:16:53Z</time>
      </trkpt>
      <trkpt lat="43.71371" lon="6.98527">
        <ele>255</ele>
        <time>2014-08-31T12:16:59Z</time>
      </trkpt>
      <trkpt lat="43.71351" lon="6.98504">
        <ele>254</ele>
        <time>2014-08-31T12:17:06Z</time>
      </trkpt>
      <trkpt lat="43.71345" lon="6.98497">
        <ele>254</ele>
        <time>2014-08-31T12:17:08Z</time>
      </trkpt>
      <trkpt lat="43.71329" lon="6.98484">
        <ele>253</ele>
        <time>2014-08-31T12:17:13Z</time>
      </trkpt>
      <trkpt lat="43.71311" lon="6.98475">
        <ele>253</ele>
        <time>2014-08-31T12:17:18Z</time>
      </trkpt>
      <trkpt lat="43.7129" lon="6.98468">
        <ele>253</ele>
        <time>2014-08-31T12:17:23Z</time>
      </trkpt>
      <trkpt lat="43.7127" lon="6.98466">
        <ele>253</ele>
        <time>2014-08-31T12:17:28Z</time>
      </trkpt>
      <trkpt lat="43.71251" lon="6.98469">
        <ele>253</ele>
        <time>2014-08-31T12:17:33Z</time>
      </trkpt>
      <trkpt lat="43.71231" lon="6.98475">
        <ele>254</ele>
        <time>2014-08-31T12:17:38Z</time>
      </trkpt>
      <trkpt lat="43.71212" lon="6.98485">
        <ele>254</ele>
        <time>2014-08-31T12:17:43Z</time>
      </trkpt>
      <trkpt lat="43.71195" lon="6.98497">
        <ele>256</ele>
        <time>2014-08-31T12:17:48Z</time>
      </trkpt>
      <trkpt lat="43.71181" lon="6.98514">
        <ele>258</ele>
        <time>2014-08-31T12:17:53Z</time>
      </trkpt>
      <trkpt lat="43.71166" lon="6.98532">
        <ele>260</ele>
        <time>2014-08-31T12:17:58Z</time>
      </trkpt>
      <trkpt lat="43.71153" lon="6.98552">
        <ele>260</ele>
        <time>2014-08-31T12:18:03Z</time>
      </trkpt>
      <trkpt lat="43.71146" lon="6.98578">
        <ele>260</ele>
        <time>2014-08-31T12:18:08Z</time>
      </trkpt>
      <trkpt lat="43.71138" lon="6.9861">
        <ele>261</ele>
        <time>2014-08-31T12:18:14Z</time>
      </trkpt>
      <trkpt lat="43.71133" lon="6.98633">
        <ele>262</ele>
        <time>2014-08-31T12:18:18Z</time>
      </trkpt>
      <trkpt lat="43.71115" lon="6.98671">
        <ele>264</ele>
        <time>2014-08-31T12:18:26Z</time>
      </trkpt>
      <trkpt lat="43.71111" lon="6.98681">
        <ele>263</ele>
        <time>2014-08-31T12:18:28Z</time>
      </trkpt>
      <trkpt lat="43.71099" lon="6.98723">
        <ele>262</ele>
        <time>2014-08-31T12:18:36Z</time>
      </trkpt>
      <trkpt lat="43.71096" lon="6.98734">
        <ele>261</ele>
        <time>2014-08-31T12:18:38Z</time>
      </trkpt>
      <trkpt lat="43.71086" lon="6.98759">
        <ele>260</ele>
        <time>2014-08-31T12:18:43Z</time>
      </trkpt>
      <trkpt lat="43.71075" lon="6.9878">
        <ele>261</ele>
        <time>2014-08-31T12:18:48Z</time>
      </trkpt>
      <trkpt lat="43.71063" lon="6.98798">
        <ele>262</ele>
        <time>2014-08-31T12:18:53Z</time>
      </trkpt>
      <trkpt lat="43.71047" lon="6.98814">
        <ele>263</ele>
        <time>2014-08-31T12:18:58Z</time>
      </trkpt>
      <trkpt lat="43.71016" lon="6.98829">
        <ele>262</ele>
        <time>2014-08-31T12:19:05Z</time>
      </trkpt>
      <trkpt lat="43.71004" lon="6.98834">
        <ele>264</ele>
        <time>2014-08-31T12:19:08Z</time>
      </trkpt>
      <trkpt lat="43.70984" lon="6.98842">
        <ele>267</ele>
        <time>2014-08-31T12:19:13Z</time>
      </trkpt>
      <trkpt lat="43.70965" lon="6.98849">
        <ele>269</ele>
        <time>2014-08-31T12:19:18Z</time>
      </trkpt>
      <trkpt lat="43.70945" lon="6.98858">
        <ele>270</ele>
        <time>2014-08-31T12:19:23Z</time>
      </trkpt>
      <trkpt lat="43.70924" lon="6.98864">
        <ele>272</ele>
        <time>2014-08-31T12:19:28Z</time>
      </trkpt>
      <trkpt lat="43.70904" lon="6.98868">
        <ele>272</ele>
        <time>2014-08-31T12:19:33Z</time>
      </trkpt>
      <trkpt lat="43.70886" lon="6.98872">
        <ele>273</ele>
        <time>2014-08-31T12:19:38Z</time>
      </trkpt>
      <trkpt lat="43.70866" lon="6.98877">
        <ele>274</ele>
        <time>2014-08-31T12:19:43Z</time>
      </trkpt>
      <trkpt lat="43.70846" lon="6.98883">
        <ele>274</ele>
        <time>2014-08-31T12:19:48Z</time>
      </trkpt>
      <trkpt lat="43.70826" lon="6.98889">
        <ele>274</ele>
        <time>2014-08-31T12:19:53Z</time>
      </trkpt>
      <trkpt lat="43.70806" lon="6.98896">
        <ele>276</ele>
        <time>2014-08-31T12:19:58Z</time>
      </trkpt>
      <trkpt lat="43.70774" lon="6.98909">
        <ele>278</ele>
        <time>2014-08-31T12:20:06Z</time>
      </trkpt>
      <trkpt lat="43.70766" lon="6.98914">
        <ele>279</ele>
        <time>2014-08-31T12:20:08Z</time>
      </trkpt>
      <trkpt lat="43.70748" lon="6.98927">
        <ele>279</ele>
        <time>2014-08-31T12:20:13Z</time>
      </trkpt>
      <trkpt lat="43.7073" lon="6.98941">
        <ele>279</ele>
        <time>2014-08-31T12:20:18Z</time>
      </trkpt>
      <trkpt lat="43.70713" lon="6.98957">
        <ele>279</ele>
        <time>2014-08-31T12:20:23Z</time>
      </trkpt>
      <trkpt lat="43.70696" lon="6.98972">
        <ele>278</ele>
        <time>2014-08-31T12:20:28Z</time>
      </trkpt>
      <trkpt lat="43.70678" lon="6.98987">
        <ele>278</ele>
        <time>2014-08-31T12:20:33Z</time>
      </trkpt>
      <trkpt lat="43.70661" lon="6.99002">
        <ele>278</ele>
        <time>2014-08-31T12:20:38Z</time>
      </trkpt>
      <trkpt lat="43.70643" lon="6.99016">
        <ele>278</ele>
        <time>2014-08-31T12:20:43Z</time>
      </trkpt>
      <trkpt lat="43.70628" lon="6.9903">
        <ele>278</ele>
        <time>2014-08-31T12:20:48Z</time>
      </trkpt>
      <trkpt lat="43.70609" lon="6.99046">
        <ele>279</ele>
        <time>2014-08-31T12:20:53Z</time>
      </trkpt>
      <trkpt lat="43.70591" lon="6.99056">
        <ele>280</ele>
        <time>2014-08-31T12:20:58Z</time>
      </trkpt>
      <trkpt lat="43.70566" lon="6.99064">
        <ele>283</ele>
        <time>2014-08-31T12:21:05Z</time>
      </trkpt>
      <trkpt lat="43.70553" lon="6.99066">
        <ele>283</ele>
        <time>2014-08-31T12:21:09Z</time>
      </trkpt>
      <trkpt lat="43.70538" lon="6.99066">
        <ele>283</ele>
        <time>2014-08-31T12:21:13Z</time>
      </trkpt>
      <trkpt lat="43.70519" lon="6.99067">
        <ele>283</ele>
        <time>2014-08-31T12:21:18Z</time>
      </trkpt>
      <trkpt lat="43.705" lon="6.99067">
        <ele>283</ele>
        <time>2014-08-31T12:21:23Z</time>
      </trkpt>
      <trkpt lat="43.7048" lon="6.99065">
        <ele>283</ele>
        <time>2014-08-31T12:21:28Z</time>
      </trkpt>
      <trkpt lat="43.70461" lon="6.99064">
        <ele>284</ele>
        <time>2014-08-31T12:21:33Z</time>
      </trkpt>
      <trkpt lat="43.70438" lon="6.99064">
        <ele>284</ele>
        <time>2014-08-31T12:21:39Z</time>
      </trkpt>
      <trkpt lat="43.70423" lon="6.99064">
        <ele>285</ele>
        <time>2014-08-31T12:21:43Z</time>
      </trkpt>
      <trkpt lat="43.70403" lon="6.99064">
        <ele>285</ele>
        <time>2014-08-31T12:21:48Z</time>
      </trkpt>
      <trkpt lat="43.70383" lon="6.99067">
        <ele>285</ele>
        <time>2014-08-31T12:21:53Z</time>
      </trkpt>
      <trkpt lat="43.70365" lon="6.99073">
        <ele>285</ele>
        <time>2014-08-31T12:21:58Z</time>
      </trkpt>
      <trkpt lat="43.70351" lon="6.99076">
        <ele>286</ele>
        <time>2014-08-31T12:22:03Z</time>
      </trkpt>
      <trkpt lat="43.70343" lon="6.99068">
        <ele>288</ele>
        <time>2014-08-31T12:22:08Z</time>
      </trkpt>
      <trkpt lat="43.70335" lon="6.9906">
        <ele>289</ele>
        <time>2014-08-31T12:22:13Z</time>
      </trkpt>
      <trkpt lat="43.70329" lon="6.99051">
        <ele>291</ele>
        <time>2014-08-31T12:22:18Z</time>
      </trkpt>
      <trkpt lat="43.70323" lon="6.99041">
        <ele>292</ele>
        <time>2014-08-31T12:22:23Z</time>
      </trkpt>
      <trkpt lat="43.7032" lon="6.9903">
        <ele>294</ele>
        <time>2014-08-31T12:22:28Z</time>
      </trkpt>
      <trkpt lat="43.70325" lon="6.99024">
        <ele>294</ele>
        <time>2014-08-31T12:22:33Z</time>
      </trkpt>
      <trkpt lat="43.70336" lon="6.99027">
        <ele>294</ele>
        <time>2014-08-31T12:22:38Z</time>
      </trkpt>
      <trkpt lat="43.70348" lon="6.99027">
        <ele>295</ele>
        <time>2014-08-31T12:22:43Z</time>
      </trkpt>
      <trkpt lat="43.70359" lon="6.99028">
        <ele>294</ele>
        <time>2014-08-31T12:22:48Z</time>
      </trkpt>
      <trkpt lat="43.70371" lon="6.99028">
        <ele>297</ele>
        <time>2014-08-31T12:22:53Z</time>
      </trkpt>
      <trkpt lat="43.70383" lon="6.99028">
        <ele>299</ele>
        <time>2014-08-31T12:22:58Z</time>
      </trkpt>
      <trkpt lat="43.70394" lon="6.99023">
        <ele>301</ele>
        <time>2014-08-31T12:23:03Z</time>
      </trkpt>
      <trkpt lat="43.70404" lon="6.99014">
        <ele>302</ele>
        <time>2014-08-31T12:23:08Z</time>
      </trkpt>
      <trkpt lat="43.70414" lon="6.98994">
        <ele>305</ele>
        <time>2014-08-31T12:23:17Z</time>
      </trkpt>
      <trkpt lat="43.70416" lon="6.98989">
        <ele>305</ele>
        <time>2014-08-31T12:23:19Z</time>
      </trkpt>
      <trkpt lat="43.70417" lon="6.9898">
        <ele>306</ele>
        <time>2014-08-31T12:23:23Z</time>
      </trkpt>
      <trkpt lat="43.70415" lon="6.98967">
        <ele>305</ele>
        <time>2014-08-31T12:23:28Z</time>
      </trkpt>
      <trkpt lat="43.70412" lon="6.98957">
        <ele>306</ele>
        <time>2014-08-31T12:23:33Z</time>
      </trkpt>
      <trkpt lat="43.70407" lon="6.98946">
        <ele>306</ele>
        <time>2014-08-31T12:23:38Z</time>
      </trkpt>
      <trkpt lat="43.70401" lon="6.98937">
        <ele>307</ele>
        <time>2014-08-31T12:23:43Z</time>
      </trkpt>
      <trkpt lat="43.70394" lon="6.98931">
        <ele>308</ele>
        <time>2014-08-31T12:23:48Z</time>
      </trkpt>
      <trkpt lat="43.70387" lon="6.98927">
        <ele>309</ele>
        <time>2014-08-31T12:23:53Z</time>
      </trkpt>
      <trkpt lat="43.70376" lon="6.98925">
        <ele>311</ele>
        <time>2014-08-31T12:24:00Z</time>
      </trkpt>
      <trkpt lat="43.70372" lon="6.98925">
        <ele>312</ele>
        <time>2014-08-31T12:24:03Z</time>
      </trkpt>
      <trkpt lat="43.70366" lon="6.98925">
        <ele>313</ele>
        <time>2014-08-31T12:24:08Z</time>
      </trkpt>
      <trkpt lat="43.70367" lon="6.98925">
        <ele>312</ele>
        <time>2014-08-31T12:24:13Z</time>
      </trkpt>
      <trkpt lat="43.70363" lon="6.98925">
        <ele>313</ele>
        <time>2014-08-31T12:24:18Z</time>
      </trkpt>
      <trkpt lat="43.70352" lon="6.98925">
        <ele>316</ele>
        <time>2014-08-31T12:24:25Z</time>
      </trkpt>
      <trkpt lat="43.70348" lon="6.98925">
        <ele>317</ele>
        <time>2014-08-31T12:24:28Z</time>
      </trkpt>
      <trkpt lat="43.70343" lon="6.98921">
        <ele>319</ele>
        <time>2014-08-31T12:24:33Z</time>
      </trkpt>
      <trkpt lat="43.70339" lon="6.98921">
        <ele>321</ele>
        <time>2014-08-31T12:24:38Z</time>
      </trkpt>
      <trkpt lat="43.70334" lon="6.98921">
        <ele>323</ele>
        <time>2014-08-31T12:24:44Z</time>
      </trkpt>
      <trkpt lat="43.70329" lon="6.9892">
        <ele>325</ele>
        <time>2014-08-31T12:24:49Z</time>
      </trkpt>
      <trkpt lat="43.70326" lon="6.98919">
        <ele>327</ele>
        <time>2014-08-31T12:24:53Z</time>
      </trkpt>
      <trkpt lat="43.7032" lon="6.98915">
        <ele>328</ele>
        <time>2014-08-31T12:25:00Z</time>
      </trkpt>
      <trkpt lat="43.70318" lon="6.98913">
        <ele>329</ele>
        <time>2014-08-31T12:25:03Z</time>
      </trkpt>
      <trkpt lat="43.70313" lon="6.98912">
        <ele>330</ele>
        <time>2014-08-31T12:25:08Z</time>
      </trkpt>
      <trkpt lat="43.70309" lon="6.9891">
        <ele>330</ele>
        <time>2014-08-31T12:25:13Z</time>
      </trkpt>
      <trkpt lat="43.70305" lon="6.98907">
        <ele>329</ele>
        <time>2014-08-31T12:25:18Z</time>
      </trkpt>
      <trkpt lat="43.70301" lon="6.98901">
        <ele>331</ele>
        <time>2014-08-31T12:25:25Z</time>
      </trkpt>
      <trkpt lat="43.70295" lon="6.98898">
        <ele>330</ele>
        <time>2014-08-31T12:25:31Z</time>
      </trkpt>
      <trkpt lat="43.70293" lon="6.98896">
        <ele>330</ele>
        <time>2014-08-31T12:25:33Z</time>
      </trkpt>
      <trkpt lat="43.70289" lon="6.98893">
        <ele>331</ele>
        <time>2014-08-31T12:25:38Z</time>
      </trkpt>
      <trkpt lat="43.70283" lon="6.98889">
        <ele>332</ele>
        <time>2014-08-31T12:25:45Z</time>
      </trkpt>
      <trkpt lat="43.70279" lon="6.98886">
        <ele>331</ele>
        <time>2014-08-31T12:25:49Z</time>
      </trkpt>
      <trkpt lat="43.70277" lon="6.98879">
        <ele>330</ele>
        <time>2014-08-31T12:25:54Z</time>
      </trkpt>
      <trkpt lat="43.70273" lon="6.98875">
        <ele>330</ele>
        <time>2014-08-31T12:25:59Z</time>
      </trkpt>
      <trkpt lat="43.70267" lon="6.98872">
        <ele>331</ele>
        <time>2014-08-31T12:26:03Z</time>
      </trkpt>
      <trkpt lat="43.70258" lon="6.98865">
        <ele>330</ele>
        <time>2014-08-31T12:26:08Z</time>
      </trkpt>
      <trkpt lat="43.70245" lon="6.98855">
        <ele>331</ele>
        <time>2014-08-31T12:26:16Z</time>
      </trkpt>
      <trkpt lat="43.70225" lon="6.98852">
        <ele>332</ele>
        <time>2014-08-31T12:26:22Z</time>
      </trkpt>
      <trkpt lat="43.70204" lon="6.98861">
        <ele>332</ele>
        <time>2014-08-31T12:26:27Z</time>
      </trkpt>
      <trkpt lat="43.70192" lon="6.98859">
        <ele>333</ele>
        <time>2014-08-31T12:26:32Z</time>
      </trkpt>
      <trkpt lat="43.70188" lon="6.98859">
        <ele>334</ele>
        <time>2014-08-31T12:26:34Z</time>
      </trkpt>
      <trkpt lat="43.70179" lon="6.98861">
        <ele>336</ele>
        <time>2014-08-31T12:26:38Z</time>
      </trkpt>
      <trkpt lat="43.7017" lon="6.9887">
        <ele>338</ele>
        <time>2014-08-31T12:26:43Z</time>
      </trkpt>
      <trkpt lat="43.70165" lon="6.98884">
        <ele>339</ele>
        <time>2014-08-31T12:26:48Z</time>
      </trkpt>
      <trkpt lat="43.70164" lon="6.98897">
        <ele>343</ele>
        <time>2014-08-31T12:26:53Z</time>
      </trkpt>
      <trkpt lat="43.70161" lon="6.98907">
        <ele>344</ele>
        <time>2014-08-31T12:26:58Z</time>
      </trkpt>
      <trkpt lat="43.70161" lon="6.98917">
        <ele>345</ele>
        <time>2014-08-31T12:27:03Z</time>
      </trkpt>
      <trkpt lat="43.70155" lon="6.9892">
        <ele>342</ele>
        <time>2014-08-31T12:27:08Z</time>
      </trkpt>
      <trkpt lat="43.70149" lon="6.98918">
        <ele>342</ele>
        <time>2014-08-31T12:27:13Z</time>
      </trkpt>
      <trkpt lat="43.70142" lon="6.98913">
        <ele>342</ele>
        <time>2014-08-31T12:27:19Z</time>
      </trkpt>
      <trkpt lat="43.70142" lon="6.98913">
        <ele>344</ele>
        <time>2014-08-31T12:27:23Z</time>
      </trkpt>
      <trkpt lat="43.70142" lon="6.98913">
        <ele>344</ele>
        <time>2014-08-31T12:27:28Z</time>
      </trkpt>
      <trkpt lat="43.70141" lon="6.98914">
        <ele>344</ele>
        <time>2014-08-31T12:27:33Z</time>
      </trkpt>
      <trkpt lat="43.70141" lon="6.98914">
        <ele>344</ele>
        <time>2014-08-31T12:27:38Z</time>
      </trkpt>
      <trkpt lat="43.70141" lon="6.98914">
        <ele>344</ele>
        <time>2014-08-31T12:27:43Z</time>
      </trkpt>
      <trkpt lat="43.7014" lon="6.98908">
        <ele>346</ele>
        <time>2014-08-31T12:27:51Z</time>
      </trkpt>
      <trkpt lat="43.70136" lon="6.98901">
        <ele>348</ele>
        <time>2014-08-31T12:27:53Z</time>
      </trkpt>
      <trkpt lat="43.70117" lon="6.98871">
        <ele>348</ele>
        <time>2014-08-31T12:27:58Z</time>
      </trkpt>
      <trkpt lat="43.70067" lon="6.98802">
        <ele>343</ele>
        <time>2014-08-31T12:28:07Z</time>
      </trkpt>
      <trkpt lat="43.70065" lon="6.98798">
        <ele>343</ele>
        <time>2014-08-31T12:28:08Z</time>
      </trkpt>
      <trkpt lat="43.70037" lon="6.98764">
        <ele>344</ele>
        <time>2014-08-31T12:28:13Z</time>
      </trkpt>
      <trkpt lat="43.70021" lon="6.98736">
        <ele>343</ele>
        <time>2014-08-31T12:28:18Z</time>
      </trkpt>
      <trkpt lat="43.70012" lon="6.98697">
        <ele>338</ele>
        <time>2014-08-31T12:28:23Z</time>
      </trkpt>
      <trkpt lat="43.69992" lon="6.98656">
        <ele>337</ele>
        <time>2014-08-31T12:28:31Z</time>
      </trkpt>
      <trkpt lat="43.69987" lon="6.98644">
        <ele>334</ele>
        <time>2014-08-31T12:28:33Z</time>
      </trkpt>
      <trkpt lat="43.69983" lon="6.98625">
        <ele>335</ele>
        <time>2014-08-31T12:28:38Z</time>
      </trkpt>
      <trkpt lat="43.69981" lon="6.98609">
        <ele>335</ele>
        <time>2014-08-31T12:28:43Z</time>
      </trkpt>
      <trkpt lat="43.69991" lon="6.98598">
        <ele>336</ele>
        <time>2014-08-31T12:28:49Z</time>
      </trkpt>
      <trkpt lat="43.69999" lon="6.98598">
        <ele>337</ele>
        <time>2014-08-31T12:28:53Z</time>
      </trkpt>
      <trkpt lat="43.70006" lon="6.98605">
        <ele>339</ele>
        <time>2014-08-31T12:28:58Z</time>
      </trkpt>
      <trkpt lat="43.70012" lon="6.98612">
        <ele>341</ele>
        <time>2014-08-31T12:29:03Z</time>
      </trkpt>
      <trkpt lat="43.70017" lon="6.98618">
        <ele>342</ele>
        <time>2014-08-31T12:29:08Z</time>
      </trkpt>
      <trkpt lat="43.70021" lon="6.98622">
        <ele>341</ele>
        <time>2014-08-31T12:29:13Z</time>
      </trkpt>
      <trkpt lat="43.70023" lon="6.98623">
        <ele>341</ele>
        <time>2014-08-31T12:29:18Z</time>
      </trkpt>
      <trkpt lat="43.70023" lon="6.98623">
        <ele>341</ele>
        <time>2014-08-31T12:29:23Z</time>
      </trkpt>
      <trkpt lat="43.70023" lon="6.98623">
        <ele>340</ele>
        <time>2014-08-31T12:29:28Z</time>
      </trkpt>
      <trkpt lat="43.70023" lon="6.98622">
        <ele>340</ele>
        <time>2014-08-31T12:29:33Z</time>
      </trkpt>
      <trkpt lat="43.70022" lon="6.98622">
        <ele>339</ele>
        <time>2014-08-31T12:29:39Z</time>
      </trkpt>
      <trkpt lat="43.70022" lon="6.98623">
        <ele>339</ele>
        <time>2014-08-31T12:29:43Z</time>
      </trkpt>
      <trkpt lat="43.70022" lon="6.98624">
        <ele>339</ele>
        <time>2014-08-31T12:29:48Z</time>
      </trkpt>
      <trkpt lat="43.70022" lon="6.98623">
        <ele>339</ele>
        <time>2014-08-31T12:29:53Z</time>
      </trkpt>
      <trkpt lat="43.70022" lon="6.98622">
        <ele>338</ele>
        <time>2014-08-31T12:29:58Z</time>
      </trkpt>
      <trkpt lat="43.70023" lon="6.98623">
        <ele>338</ele>
        <time>2014-08-31T12:30:03Z</time>
      </trkpt>
      <trkpt lat="43.70025" lon="6.98621">
        <ele>336</ele>
        <time>2014-08-31T12:30:09Z</time>
      </trkpt>
      <trkpt lat="43.70025" lon="6.98619">
        <ele>337</ele>
        <time>2014-08-31T12:30:13Z</time>
      </trkpt>
      <trkpt lat="43.70026" lon="6.98619">
        <ele>337</ele>
        <time>2014-08-31T12:30:18Z</time>
      </trkpt>
      <trkpt lat="43.70027" lon="6.9862">
        <ele>338</ele>
        <time>2014-08-31T12:30:23Z</time>
      </trkpt>
      <trkpt lat="43.70027" lon="6.9862">
        <ele>338</ele>
        <time>2014-08-31T12:30:29Z</time>
      </trkpt>
      <trkpt lat="43.70027" lon="6.9862">
        <ele>338</ele>
        <time>2014-08-31T12:30:33Z</time>
      </trkpt>
      <trkpt lat="43.70027" lon="6.9862">
        <ele>338</ele>
        <time>2014-08-31T12:30:38Z</time>
      </trkpt>
      <trkpt lat="43.70027" lon="6.9862">
        <ele>338</ele>
        <time>2014-08-31T12:30:43Z</time>
      </trkpt>
      <trkpt lat="43.70027" lon="6.9862">
        <ele>338</ele>
        <time>2014-08-31T12:30:48Z</time>
      </trkpt>
      <trkpt lat="43.70027" lon="6.9862">
        <ele>338</ele>
        <time>2014-08-31T12:30:53Z</time>
      </trkpt>
      <trkpt lat="43.70027" lon="6.9862">
        <ele>338</ele>
        <time>2014-08-31T12:30:59Z</time>
      </trkpt>
      <trkpt lat="43.70027" lon="6.9862">
        <ele>338</ele>
        <time>2014-08-31T12:31:03Z</time>
      </trkpt>
      <trkpt lat="43.70027" lon="6.9862">
        <ele>338</ele>
        <time>2014-08-31T12:31:08Z</time>
      </trkpt>
      <trkpt lat="43.70027" lon="6.9862">
        <ele>338</ele>
        <time>2014-08-31T12:31:13Z</time>
      </trkpt>
      <trkpt lat="43.70027" lon="6.9862">
        <ele>338</ele>
        <time>2014-08-31T12:31:20Z</time>
      </trkpt>
      <trkpt lat="43.70027" lon="6.9862">
        <ele>338</ele>
        <time>2014-08-31T12:31:23Z</time>
      </trkpt>
      <trkpt lat="43.70027" lon="6.9862">
        <ele>338</ele>
        <time>2014-08-31T12:31:28Z</time>
      </trkpt>
      <trkpt lat="43.70027" lon="6.9862">
        <ele>338</ele>
        <time>2014-08-31T12:31:33Z</time>
      </trkpt>
      <trkpt lat="43.70027" lon="6.9862">
        <ele>338</ele>
        <time>2014-08-31T12:31:38Z</time>
      </trkpt>
      <trkpt lat="43.70027" lon="6.9862">
        <ele>338</ele>
        <time>2014-08-31T12:31:43Z</time>
      </trkpt>
      <trkpt lat="43.70027" lon="6.9862">
        <ele>338</ele>
        <time>2014-08-31T12:31:48Z</time>
      </trkpt>
      <trkpt lat="43.70027" lon="6.9862">
        <ele>338</ele>
        <time>2014-08-31T12:31:53Z</time>
      </trkpt>
      <trkpt lat="43.70027" lon="6.9862">
        <ele>338</ele>
        <time>2014-08-31T12:31:58Z</time>
      </trkpt>
      <trkpt lat="43.70027" lon="6.9862">
        <ele>338</ele>
        <time>2014-08-31T12:32:03Z</time>
      </trkpt>
      <trkpt lat="43.70027" lon="6.9862">
        <ele>338</ele>
        <time>2014-08-31T12:32:08Z</time>
      </trkpt>
      <trkpt lat="43.70027" lon="6.9862">
        <ele>338</ele>
        <time>2014-08-31T12:32:13Z</time>
      </trkpt>
      <trkpt lat="43.70027" lon="6.9862">
        <ele>338</ele>
        <time>2014-08-31T12:32:18Z</time>
      </trkpt>
      <trkpt lat="43.70027" lon="6.9862">
        <ele>338</ele>
        <time>2014-08-31T12:32:23Z</time>
      </trkpt>
      <trkpt lat="43.70027" lon="6.9862">
        <ele>338</ele>
        <time>2014-08-31T12:32:29Z</time>
      </trkpt>
      <trkpt lat="43.70027" lon="6.9862">
        <ele>338</ele>
        <time>2014-08-31T12:32:33Z</time>
      </trkpt>
      <trkpt lat="43.70027" lon="6.9862">
        <ele>338</ele>
        <time>2014-08-31T12:32:38Z</time>
      </trkpt>
      <trkpt lat="43.70027" lon="6.9862">
        <ele>338</ele>
        <time>2014-08-31T12:32:43Z</time>
      </trkpt>
      <trkpt lat="43.70027" lon="6.9862">
        <ele>338</ele>
        <time>2014-08-31T12:32:48Z</time>
      </trkpt>
      <trkpt lat="43.70027" lon="6.9862">
        <ele>338</ele>
        <time>2014-08-31T12:32:53Z</time>
      </trkpt>
      <trkpt lat="43.70027" lon="6.9862">
        <ele>338</ele>
        <time>2014-08-31T12:32:58Z</time>
      </trkpt>
      <trkpt lat="43.70027" lon="6.9862">
        <ele>338</ele>
        <time>2014-08-31T12:33:03Z</time>
      </trkpt>
      <trkpt lat="43.70027" lon="6.9862">
        <ele>338</ele>
        <time>2014-08-31T12:33:08Z</time>
      </trkpt>
      <trkpt lat="43.70027" lon="6.9862">
        <ele>338</ele>
        <time>2014-08-31T12:33:13Z</time>
      </trkpt>
      <trkpt lat="43.70027" lon="6.9862">
        <ele>338</ele>
        <time>2014-08-31T12:33:18Z</time>
      </trkpt>
      <trkpt lat="43.70027" lon="6.9862">
        <ele>338</ele>
        <time>2014-08-31T12:33:23Z</time>
      </trkpt>
      <trkpt lat="43.70027" lon="6.9862">
        <ele>338</ele>
        <time>2014-08-31T12:33:28Z</time>
      </trkpt>
      <trkpt lat="43.70027" lon="6.9862">
        <ele>338</ele>
        <time>2014-08-31T12:33:33Z</time>
      </trkpt>
      <trkpt lat="43.70027" lon="6.9862">
        <ele>338</ele>
        <time>2014-08-31T12:33:38Z</time>
      </trkpt>
      <trkpt lat="43.70027" lon="6.9862">
        <ele>338</ele>
        <time>2014-08-31T12:33:43Z</time>
      </trkpt>
      <trkpt lat="43.70027" lon="6.9862">
        <ele>338</ele>
        <time>2014-08-31T12:33:48Z</time>
      </trkpt>
      <trkpt lat="43.70027" lon="6.9862">
        <ele>338</ele>
        <time>2014-08-31T12:33:53Z</time>
      </trkpt>
      <trkpt lat="43.70027" lon="6.9862">
        <ele>338</ele>
        <time>2014-08-31T12:33:58Z</time>
      </trkpt>
      <trkpt lat="43.70027" lon="6.9862">
        <ele>338</ele>
        <time>2014-08-31T12:34:03Z</time>
      </trkpt>
      <trkpt lat="43.70027" lon="6.9862">
        <ele>338</ele>
        <time>2014-08-31T12:34:08Z</time>
      </trkpt>
      <trkpt lat="43.70027" lon="6.9862">
        <ele>338</ele>
        <time>2014-08-31T12:34:13Z</time>
      </trkpt>
      <trkpt lat="43.70027" lon="6.9862">
        <ele>338</ele>
        <time>2014-08-31T12:34:18Z</time>
      </trkpt>
      <trkpt lat="43.70027" lon="6.9862">
        <ele>338</ele>
        <time>2014-08-31T12:34:23Z</time>
      </trkpt>
      <trkpt lat="43.70027" lon="6.9862">
        <ele>338</ele>
        <time>2014-08-31T12:34:28Z</time>
      </trkpt>
      <trkpt lat="43.70027" lon="6.9862">
        <ele>338</ele>
        <time>2014-08-31T12:34:33Z</time>
      </trkpt>
      <trkpt lat="43.70027" lon="6.9862">
        <ele>338</ele>
        <time>2014-08-31T12:34:38Z</time>
      </trkpt>
      <trkpt lat="43.70027" lon="6.9862">
        <ele>338</ele>
        <time>2014-08-31T12:34:43Z</time>
      </trkpt>
      <trkpt lat="43.70027" lon="6.9862">
        <ele>338</ele>
        <time>2014-08-31T12:34:48Z</time>
      </trkpt>
      <trkpt lat="43.70027" lon="6.9862">
        <ele>338</ele>
        <time>2014-08-31T12:34:53Z</time>
      </trkpt>
      <trkpt lat="43.70027" lon="6.9862">
        <ele>338</ele>
        <time>2014-08-31T12:34:58Z</time>
      </trkpt>
      <trkpt lat="43.70027" lon="6.9862">
        <ele>338</ele>
        <time>2014-08-31T12:35:03Z</time>
      </trkpt>
      <trkpt lat="43.70027" lon="6.9862">
        <ele>338</ele>
        <time>2014-08-31T12:35:08Z</time>
      </trkpt>
      <trkpt lat="43.70027" lon="6.9862">
        <ele>338</ele>
        <time>2014-08-31T12:35:13Z</time>
      </trkpt>
      <trkpt lat="43.70027" lon="6.9862">
        <ele>338</ele>
        <time>2014-08-31T12:35:18Z</time>
      </trkpt>
      <trkpt lat="43.70027" lon="6.9862">
        <ele>338</ele>
        <time>2014-08-31T12:35:23Z</time>
      </trkpt>
      <trkpt lat="43.70027" lon="6.9862">
        <ele>338</ele>
        <time>2014-08-31T12:35:28Z</time>
      </trkpt>
      <trkpt lat="43.70027" lon="6.9862">
        <ele>338</ele>
        <time>2014-08-31T12:35:33Z</time>
      </trkpt>
      <trkpt lat="43.70027" lon="6.9862">
        <ele>338</ele>
        <time>2014-08-31T12:35:38Z</time>
      </trkpt>
      <trkpt lat="43.70027" lon="6.9862">
        <ele>338</ele>
        <time>2014-08-31T12:35:43Z</time>
      </trkpt>
      <trkpt lat="43.70027" lon="6.9862">
        <ele>338</ele>
        <time>2014-08-31T12:35:48Z</time>
      </trkpt>
      <trkpt lat="43.70027" lon="6.9862">
        <ele>338</ele>
        <time>2014-08-31T12:35:53Z</time>
      </trkpt>
      <trkpt lat="43.70027" lon="6.9862">
        <ele>338</ele>
        <time>2014-08-31T12:35:58Z</time>
      </trkpt>
      <trkpt lat="43.70027" lon="6.9862">
        <ele>338</ele>
        <time>2014-08-31T12:36:03Z</time>
      </trkpt>
      <trkpt lat="43.70027" lon="6.9862">
        <ele>338</ele>
        <time>2014-08-31T12:36:09Z</time>
      </trkpt>
      <trkpt lat="43.70027" lon="6.9862">
        <ele>338</ele>
        <time>2014-08-31T12:36:13Z</time>
      </trkpt>
      <trkpt lat="43.70027" lon="6.9862">
        <ele>338</ele>
        <time>2014-08-31T12:36:18Z</time>
      </trkpt>
      <trkpt lat="43.70027" lon="6.9862">
        <ele>338</ele>
        <time>2014-08-31T12:36:23Z</time>
      </trkpt>
      <trkpt lat="43.70027" lon="6.9862">
        <ele>338</ele>
        <time>2014-08-31T12:36:28Z</time>
      </trkpt>
      <trkpt lat="43.70027" lon="6.9862">
        <ele>338</ele>
        <time>2014-08-31T12:36:33Z</time>
      </trkpt>
      <trkpt lat="43.70027" lon="6.9862">
        <ele>338</ele>
        <time>2014-08-31T12:36:38Z</time>
      </trkpt>
      <trkpt lat="43.70027" lon="6.9862">
        <ele>338</ele>
        <time>2014-08-31T12:36:47Z</time>
      </trkpt>
      <trkpt lat="43.70027" lon="6.9862">
        <ele>338</ele>
        <time>2014-08-31T12:36:48Z</time>
      </trkpt>
      <trkpt lat="43.70027" lon="6.9862">
        <ele>338</ele>
        <time>2014-08-31T12:36:53Z</time>
      </trkpt>
      <trkpt lat="43.70027" lon="6.9862">
        <ele>338</ele>
        <time>2014-08-31T12:36:58Z</time>
      </trkpt>
      <trkpt lat="43.70027" lon="6.9862">
        <ele>338</ele>
        <time>2014-08-31T12:37:03Z</time>
      </trkpt>
      <trkpt lat="43.70027" lon="6.9862">
        <ele>338</ele>
        <time>2014-08-31T12:37:08Z</time>
      </trkpt>
      <trkpt lat="43.70027" lon="6.9862">
        <ele>338</ele>
        <time>2014-08-31T12:37:13Z</time>
      </trkpt>
      <trkpt lat="43.70027" lon="6.9862">
        <ele>338</ele>
        <time>2014-08-31T12:37:18Z</time>
      </trkpt>
      <trkpt lat="43.70027" lon="6.9862">
        <ele>338</ele>
        <time>2014-08-31T12:37:23Z</time>
      </trkpt>
      <trkpt lat="43.70027" lon="6.9862">
        <ele>338</ele>
        <time>2014-08-31T12:37:28Z</time>
      </trkpt>
    </trkseg>
  </trk>
</gpx>